<?xml version="1.0" encoding="UTF-8" standalone="no" ?>
<gpx xmlns="http://www.topografix.com/GPX/1/1" xmlns:xsi="http://www.w3.org/2001/XMLSchema-instance" xsi:schemaLocation="http://www.topografix.com/GPX/1/1 http://www.topografix.com/GPX/1/1/gpx.xsd" version="1.1" creator="VisuGPX - https://www.visugpx.com">
  <metadata>
    <name>BOUCLE MONTS DU FOREZ - SUD</name>
  </metadata>
  <trk>
    <name><![CDATA[11389761-MONTS DU FOREZ - SUD]]></name>
    <trkseg>
      <trkpt lat="45.88518" lon="4.48804">
        <ele>419</ele>
        <time>2020-05-30T19:18:27Z</time>
      </trkpt>
      <trkpt lat="45.88542" lon="4.48855">
        <ele>421</ele>
        <time>2020-05-30T19:18:35Z</time>
      </trkpt>
      <trkpt lat="45.88545" lon="4.48879">
        <ele>420</ele>
        <time>2020-05-30T19:18:38Z</time>
      </trkpt>
      <trkpt lat="45.88547" lon="4.48935">
        <ele>420</ele>
        <time>2020-05-30T19:18:45Z</time>
      </trkpt>
      <trkpt lat="45.88512" lon="4.48936">
        <ele>417</ele>
        <time>2020-05-30T19:18:51Z</time>
      </trkpt>
      <trkpt lat="45.88472" lon="4.48921">
        <ele>413</ele>
        <time>2020-05-30T19:18:58Z</time>
      </trkpt>
      <trkpt lat="45.88443" lon="4.48902">
        <ele>410</ele>
        <time>2020-05-30T19:19:04Z</time>
      </trkpt>
      <trkpt lat="45.8843" lon="4.48897">
        <ele>409</ele>
        <time>2020-05-30T19:19:06Z</time>
      </trkpt>
      <trkpt lat="45.88415" lon="4.48897">
        <ele>407</ele>
        <time>2020-05-30T19:19:09Z</time>
      </trkpt>
      <trkpt lat="45.88257" lon="4.48925">
        <ele>397</ele>
        <time>2020-05-30T19:19:37Z</time>
      </trkpt>
      <trkpt lat="45.88169" lon="4.48909">
        <ele>392</ele>
        <time>2020-05-30T19:19:53Z</time>
      </trkpt>
      <trkpt lat="45.88072" lon="4.48913">
        <ele>387</ele>
        <time>2020-05-30T19:20:10Z</time>
      </trkpt>
      <trkpt lat="45.87938" lon="4.48913">
        <ele>380</ele>
        <time>2020-05-30T19:20:34Z</time>
      </trkpt>
      <trkpt lat="45.87887" lon="4.48907">
        <ele>375</ele>
        <time>2020-05-30T19:20:43Z</time>
      </trkpt>
      <trkpt lat="45.87868" lon="4.489">
        <ele>373</ele>
        <time>2020-05-30T19:20:47Z</time>
      </trkpt>
      <trkpt lat="45.87804" lon="4.48896">
        <ele>369</ele>
        <time>2020-05-30T19:20:58Z</time>
      </trkpt>
      <trkpt lat="45.87742" lon="4.48896">
        <ele>366</ele>
        <time>2020-05-30T19:21:09Z</time>
      </trkpt>
      <trkpt lat="45.87718" lon="4.48901">
        <ele>364</ele>
        <time>2020-05-30T19:21:13Z</time>
      </trkpt>
      <trkpt lat="45.87632" lon="4.48893">
        <ele>352</ele>
        <time>2020-05-30T19:21:29Z</time>
      </trkpt>
      <trkpt lat="45.87556" lon="4.48878">
        <ele>341</ele>
        <time>2020-05-30T19:21:42Z</time>
      </trkpt>
      <trkpt lat="45.87502" lon="4.48855">
        <ele>335</ele>
        <time>2020-05-30T19:21:52Z</time>
      </trkpt>
      <trkpt lat="45.8744" lon="4.48861">
        <ele>333</ele>
        <time>2020-05-30T19:22:04Z</time>
      </trkpt>
      <trkpt lat="45.87438" lon="4.48881">
        <ele>332</ele>
        <time>2020-05-30T19:22:06Z</time>
      </trkpt>
      <trkpt lat="45.87433" lon="4.48953">
        <ele>332</ele>
        <time>2020-05-30T19:22:15Z</time>
      </trkpt>
      <trkpt lat="45.87431" lon="4.48974">
        <ele>332</ele>
        <time>2020-05-30T19:22:18Z</time>
      </trkpt>
      <trkpt lat="45.87417" lon="4.48974">
        <ele>332</ele>
        <time>2020-05-30T19:22:20Z</time>
      </trkpt>
      <trkpt lat="45.8741" lon="4.48974">
        <ele>332</ele>
        <time>2020-05-30T19:22:21Z</time>
      </trkpt>
      <trkpt lat="45.8739" lon="4.48976">
        <ele>333</ele>
        <time>2020-05-30T19:22:25Z</time>
      </trkpt>
      <trkpt lat="45.87381" lon="4.48964">
        <ele>333</ele>
        <time>2020-05-30T19:22:27Z</time>
      </trkpt>
      <trkpt lat="45.8731" lon="4.48927">
        <ele>336</ele>
        <time>2020-05-30T19:22:41Z</time>
      </trkpt>
      <trkpt lat="45.87286" lon="4.48912">
        <ele>337</ele>
        <time>2020-05-30T19:22:45Z</time>
      </trkpt>
      <trkpt lat="45.87254" lon="4.48888">
        <ele>339</ele>
        <time>2020-05-30T19:22:52Z</time>
      </trkpt>
      <trkpt lat="45.8724" lon="4.48878">
        <ele>341</ele>
        <time>2020-05-30T19:22:54Z</time>
      </trkpt>
      <trkpt lat="45.87184" lon="4.4884">
        <ele>344</ele>
        <time>2020-05-30T19:23:05Z</time>
      </trkpt>
      <trkpt lat="45.87141" lon="4.48806">
        <ele>347</ele>
        <time>2020-05-30T19:23:14Z</time>
      </trkpt>
      <trkpt lat="45.87091" lon="4.48771">
        <ele>351</ele>
        <time>2020-05-30T19:23:24Z</time>
      </trkpt>
      <trkpt lat="45.87081" lon="4.48764">
        <ele>352</ele>
        <time>2020-05-30T19:23:26Z</time>
      </trkpt>
      <trkpt lat="45.87053" lon="4.48745">
        <ele>353</ele>
        <time>2020-05-30T19:23:32Z</time>
      </trkpt>
      <trkpt lat="45.87004" lon="4.48713">
        <ele>355</ele>
        <time>2020-05-30T19:23:41Z</time>
      </trkpt>
      <trkpt lat="45.86955" lon="4.48643">
        <ele>358</ele>
        <time>2020-05-30T19:23:53Z</time>
      </trkpt>
      <trkpt lat="45.86893" lon="4.48576">
        <ele>360</ele>
        <time>2020-05-30T19:24:07Z</time>
      </trkpt>
      <trkpt lat="45.8679" lon="4.48494">
        <ele>365</ele>
        <time>2020-05-30T19:24:28Z</time>
      </trkpt>
      <trkpt lat="45.86763" lon="4.48467">
        <ele>367</ele>
        <time>2020-05-30T19:24:34Z</time>
      </trkpt>
      <trkpt lat="45.86734" lon="4.48418">
        <ele>370</ele>
        <time>2020-05-30T19:24:42Z</time>
      </trkpt>
      <trkpt lat="45.86714" lon="4.48374">
        <ele>374</ele>
        <time>2020-05-30T19:24:49Z</time>
      </trkpt>
      <trkpt lat="45.86709" lon="4.48364">
        <ele>374</ele>
        <time>2020-05-30T19:24:50Z</time>
      </trkpt>
      <trkpt lat="45.86683" lon="4.48335">
        <ele>376</ele>
        <time>2020-05-30T19:24:56Z</time>
      </trkpt>
      <trkpt lat="45.86662" lon="4.48322">
        <ele>377</ele>
        <time>2020-05-30T19:25:00Z</time>
      </trkpt>
      <trkpt lat="45.86631" lon="4.48303">
        <ele>380</ele>
        <time>2020-05-30T19:25:06Z</time>
      </trkpt>
      <trkpt lat="45.8659" lon="4.48303">
        <ele>382</ele>
        <time>2020-05-30T19:25:13Z</time>
      </trkpt>
      <trkpt lat="45.86457" lon="4.48323">
        <ele>383</ele>
        <time>2020-05-30T19:25:37Z</time>
      </trkpt>
      <trkpt lat="45.86418" lon="4.48315">
        <ele>385</ele>
        <time>2020-05-30T19:25:44Z</time>
      </trkpt>
      <trkpt lat="45.86371" lon="4.48291">
        <ele>386</ele>
        <time>2020-05-30T19:25:53Z</time>
      </trkpt>
      <trkpt lat="45.86359" lon="4.48267">
        <ele>390</ele>
        <time>2020-05-30T19:25:57Z</time>
      </trkpt>
      <trkpt lat="45.8634" lon="4.4823">
        <ele>394</ele>
        <time>2020-05-30T19:26:02Z</time>
      </trkpt>
      <trkpt lat="45.86269" lon="4.48187">
        <ele>396</ele>
        <time>2020-05-30T19:26:16Z</time>
      </trkpt>
      <trkpt lat="45.86228" lon="4.48152">
        <ele>397</ele>
        <time>2020-05-30T19:26:24Z</time>
      </trkpt>
      <trkpt lat="45.86155" lon="4.48064">
        <ele>398</ele>
        <time>2020-05-30T19:26:41Z</time>
      </trkpt>
      <trkpt lat="45.86101" lon="4.47997">
        <ele>400</ele>
        <time>2020-05-30T19:26:54Z</time>
      </trkpt>
      <trkpt lat="45.86095" lon="4.4799">
        <ele>399</ele>
        <time>2020-05-30T19:26:56Z</time>
      </trkpt>
      <trkpt lat="45.86074" lon="4.47958">
        <ele>399</ele>
        <time>2020-05-30T19:27:01Z</time>
      </trkpt>
      <trkpt lat="45.86049" lon="4.47892">
        <ele>401</ele>
        <time>2020-05-30T19:27:10Z</time>
      </trkpt>
      <trkpt lat="45.86004" lon="4.47838">
        <ele>399</ele>
        <time>2020-05-30T19:27:21Z</time>
      </trkpt>
      <trkpt lat="45.85993" lon="4.47821">
        <ele>399</ele>
        <time>2020-05-30T19:27:24Z</time>
      </trkpt>
      <trkpt lat="45.85967" lon="4.47768">
        <ele>402</ele>
        <time>2020-05-30T19:27:32Z</time>
      </trkpt>
      <trkpt lat="45.85951" lon="4.47728">
        <ele>403</ele>
        <time>2020-05-30T19:27:37Z</time>
      </trkpt>
      <trkpt lat="45.85926" lon="4.47645">
        <ele>403</ele>
        <time>2020-05-30T19:27:49Z</time>
      </trkpt>
      <trkpt lat="45.85917" lon="4.47596">
        <ele>402</ele>
        <time>2020-05-30T19:27:55Z</time>
      </trkpt>
      <trkpt lat="45.85915" lon="4.47581">
        <ele>402</ele>
        <time>2020-05-30T19:27:57Z</time>
      </trkpt>
      <trkpt lat="45.85907" lon="4.47533">
        <ele>399</ele>
        <time>2020-05-30T19:28:03Z</time>
      </trkpt>
      <trkpt lat="45.85903" lon="4.47503">
        <ele>398</ele>
        <time>2020-05-30T19:28:07Z</time>
      </trkpt>
      <trkpt lat="45.85909" lon="4.47424">
        <ele>396</ele>
        <time>2020-05-30T19:28:16Z</time>
      </trkpt>
      <trkpt lat="45.85907" lon="4.47411">
        <ele>395</ele>
        <time>2020-05-30T19:28:18Z</time>
      </trkpt>
      <trkpt lat="45.85898" lon="4.47381">
        <ele>392</ele>
        <time>2020-05-30T19:28:22Z</time>
      </trkpt>
      <trkpt lat="45.85894" lon="4.47361">
        <ele>391</ele>
        <time>2020-05-30T19:28:25Z</time>
      </trkpt>
      <trkpt lat="45.85893" lon="4.47349">
        <ele>390</ele>
        <time>2020-05-30T19:28:26Z</time>
      </trkpt>
      <trkpt lat="45.85895" lon="4.47336">
        <ele>390</ele>
        <time>2020-05-30T19:28:28Z</time>
      </trkpt>
      <trkpt lat="45.859" lon="4.47321">
        <ele>390</ele>
        <time>2020-05-30T19:28:30Z</time>
      </trkpt>
      <trkpt lat="45.85905" lon="4.47304">
        <ele>390</ele>
        <time>2020-05-30T19:28:32Z</time>
      </trkpt>
      <trkpt lat="45.85912" lon="4.47281">
        <ele>390</ele>
        <time>2020-05-30T19:28:35Z</time>
      </trkpt>
      <trkpt lat="45.85963" lon="4.47204">
        <ele>390</ele>
        <time>2020-05-30T19:28:49Z</time>
      </trkpt>
      <trkpt lat="45.85974" lon="4.4715">
        <ele>387</ele>
        <time>2020-05-30T19:28:55Z</time>
      </trkpt>
      <trkpt lat="45.85976" lon="4.47141">
        <ele>387</ele>
        <time>2020-05-30T19:28:57Z</time>
      </trkpt>
      <trkpt lat="45.8598" lon="4.4706">
        <ele>386</ele>
        <time>2020-05-30T19:29:07Z</time>
      </trkpt>
      <trkpt lat="45.85976" lon="4.47015">
        <ele>385</ele>
        <time>2020-05-30T19:29:12Z</time>
      </trkpt>
      <trkpt lat="45.85975" lon="4.46997">
        <ele>385</ele>
        <time>2020-05-30T19:29:15Z</time>
      </trkpt>
      <trkpt lat="45.85972" lon="4.4697">
        <ele>386</ele>
        <time>2020-05-30T19:29:18Z</time>
      </trkpt>
      <trkpt lat="45.85969" lon="4.46927">
        <ele>387</ele>
        <time>2020-05-30T19:29:23Z</time>
      </trkpt>
      <trkpt lat="45.85963" lon="4.46853">
        <ele>388</ele>
        <time>2020-05-30T19:29:33Z</time>
      </trkpt>
      <trkpt lat="45.85963" lon="4.46849">
        <ele>389</ele>
        <time>2020-05-30T19:29:33Z</time>
      </trkpt>
      <trkpt lat="45.8596" lon="4.46818">
        <ele>389</ele>
        <time>2020-05-30T19:29:37Z</time>
      </trkpt>
      <trkpt lat="45.85953" lon="4.46784">
        <ele>390</ele>
        <time>2020-05-30T19:29:41Z</time>
      </trkpt>
      <trkpt lat="45.85944" lon="4.46774">
        <ele>389</ele>
        <time>2020-05-30T19:29:43Z</time>
      </trkpt>
      <trkpt lat="45.85897" lon="4.46722">
        <ele>388</ele>
        <time>2020-05-30T19:29:54Z</time>
      </trkpt>
      <trkpt lat="45.85886" lon="4.46715">
        <ele>389</ele>
        <time>2020-05-30T19:29:56Z</time>
      </trkpt>
      <trkpt lat="45.85826" lon="4.4667">
        <ele>392</ele>
        <time>2020-05-30T19:30:08Z</time>
      </trkpt>
      <trkpt lat="45.85808" lon="4.46646">
        <ele>394</ele>
        <time>2020-05-30T19:30:12Z</time>
      </trkpt>
      <trkpt lat="45.85769" lon="4.46585">
        <ele>396</ele>
        <time>2020-05-30T19:30:23Z</time>
      </trkpt>
      <trkpt lat="45.85739" lon="4.46555">
        <ele>397</ele>
        <time>2020-05-30T19:30:29Z</time>
      </trkpt>
      <trkpt lat="45.85693" lon="4.46498">
        <ele>398</ele>
        <time>2020-05-30T19:30:40Z</time>
      </trkpt>
      <trkpt lat="45.85669" lon="4.46462">
        <ele>400</ele>
        <time>2020-05-30T19:30:46Z</time>
      </trkpt>
      <trkpt lat="45.85616" lon="4.46394">
        <ele>412</ele>
        <time>2020-05-30T19:30:59Z</time>
      </trkpt>
      <trkpt lat="45.85596" lon="4.46386">
        <ele>414</ele>
        <time>2020-05-30T19:31:03Z</time>
      </trkpt>
      <trkpt lat="45.85535" lon="4.46387">
        <ele>411</ele>
        <time>2020-05-30T19:31:13Z</time>
      </trkpt>
      <trkpt lat="45.8547" lon="4.46361">
        <ele>417</ele>
        <time>2020-05-30T19:31:25Z</time>
      </trkpt>
      <trkpt lat="45.8544" lon="4.46364">
        <ele>416</ele>
        <time>2020-05-30T19:31:31Z</time>
      </trkpt>
      <trkpt lat="45.85396" lon="4.46375">
        <ele>413</ele>
        <time>2020-05-30T19:31:39Z</time>
      </trkpt>
      <trkpt lat="45.85374" lon="4.46384">
        <ele>412</ele>
        <time>2020-05-30T19:31:43Z</time>
      </trkpt>
      <trkpt lat="45.85354" lon="4.46374">
        <ele>412</ele>
        <time>2020-05-30T19:31:47Z</time>
      </trkpt>
      <trkpt lat="45.85342" lon="4.46358">
        <ele>412</ele>
        <time>2020-05-30T19:31:49Z</time>
      </trkpt>
      <trkpt lat="45.85299" lon="4.46232">
        <ele>423</ele>
        <time>2020-05-30T19:32:07Z</time>
      </trkpt>
      <trkpt lat="45.85289" lon="4.46216">
        <ele>424</ele>
        <time>2020-05-30T19:32:10Z</time>
      </trkpt>
      <trkpt lat="45.8526" lon="4.46189">
        <ele>423</ele>
        <time>2020-05-30T19:32:16Z</time>
      </trkpt>
      <trkpt lat="45.85213" lon="4.46135">
        <ele>425</ele>
        <time>2020-05-30T19:32:26Z</time>
      </trkpt>
      <trkpt lat="45.85187" lon="4.46112">
        <ele>425</ele>
        <time>2020-05-30T19:32:32Z</time>
      </trkpt>
      <trkpt lat="45.85155" lon="4.46093">
        <ele>424</ele>
        <time>2020-05-30T19:32:38Z</time>
      </trkpt>
      <trkpt lat="45.85129" lon="4.46075">
        <ele>424</ele>
        <time>2020-05-30T19:32:43Z</time>
      </trkpt>
      <trkpt lat="45.8511" lon="4.46056">
        <ele>424</ele>
        <time>2020-05-30T19:32:47Z</time>
      </trkpt>
      <trkpt lat="45.8509" lon="4.46032">
        <ele>422</ele>
        <time>2020-05-30T19:32:52Z</time>
      </trkpt>
      <trkpt lat="45.85062" lon="4.45995">
        <ele>423</ele>
        <time>2020-05-30T19:32:59Z</time>
      </trkpt>
      <trkpt lat="45.85039" lon="4.45968">
        <ele>426</ele>
        <time>2020-05-30T19:33:04Z</time>
      </trkpt>
      <trkpt lat="45.85013" lon="4.45945">
        <ele>426</ele>
        <time>2020-05-30T19:33:09Z</time>
      </trkpt>
      <trkpt lat="45.84991" lon="4.45936">
        <ele>425</ele>
        <time>2020-05-30T19:33:13Z</time>
      </trkpt>
      <trkpt lat="45.84971" lon="4.45932">
        <ele>424</ele>
        <time>2020-05-30T19:33:17Z</time>
      </trkpt>
      <trkpt lat="45.84878" lon="4.45929">
        <ele>423</ele>
        <time>2020-05-30T19:33:34Z</time>
      </trkpt>
      <trkpt lat="45.84816" lon="4.45918">
        <ele>423</ele>
        <time>2020-05-30T19:33:45Z</time>
      </trkpt>
      <trkpt lat="45.84799" lon="4.45912">
        <ele>424</ele>
        <time>2020-05-30T19:33:48Z</time>
      </trkpt>
      <trkpt lat="45.84784" lon="4.45904">
        <ele>425</ele>
        <time>2020-05-30T19:33:51Z</time>
      </trkpt>
      <trkpt lat="45.84766" lon="4.45885">
        <ele>427</ele>
        <time>2020-05-30T19:33:55Z</time>
      </trkpt>
      <trkpt lat="45.84756" lon="4.45872">
        <ele>428</ele>
        <time>2020-05-30T19:33:57Z</time>
      </trkpt>
      <trkpt lat="45.84746" lon="4.45854">
        <ele>429</ele>
        <time>2020-05-30T19:34:00Z</time>
      </trkpt>
      <trkpt lat="45.84737" lon="4.45835">
        <ele>432</ele>
        <time>2020-05-30T19:34:03Z</time>
      </trkpt>
      <trkpt lat="45.84714" lon="4.45743">
        <ele>445</ele>
        <time>2020-05-30T19:34:15Z</time>
      </trkpt>
      <trkpt lat="45.84704" lon="4.45717">
        <ele>449</ele>
        <time>2020-05-30T19:34:19Z</time>
      </trkpt>
      <trkpt lat="45.84692" lon="4.45691">
        <ele>452</ele>
        <time>2020-05-30T19:34:22Z</time>
      </trkpt>
      <trkpt lat="45.84674" lon="4.45672">
        <ele>450</ele>
        <time>2020-05-30T19:34:26Z</time>
      </trkpt>
      <trkpt lat="45.84661" lon="4.45662">
        <ele>450</ele>
        <time>2020-05-30T19:34:29Z</time>
      </trkpt>
      <trkpt lat="45.84609" lon="4.4564">
        <ele>451</ele>
        <time>2020-05-30T19:34:39Z</time>
      </trkpt>
      <trkpt lat="45.84588" lon="4.45627">
        <ele>451</ele>
        <time>2020-05-30T19:34:43Z</time>
      </trkpt>
      <trkpt lat="45.84543" lon="4.45596">
        <ele>453</ele>
        <time>2020-05-30T19:34:52Z</time>
      </trkpt>
      <trkpt lat="45.84485" lon="4.45562">
        <ele>452</ele>
        <time>2020-05-30T19:35:03Z</time>
      </trkpt>
      <trkpt lat="45.84456" lon="4.45551">
        <ele>453</ele>
        <time>2020-05-30T19:35:08Z</time>
      </trkpt>
      <trkpt lat="45.84409" lon="4.45529">
        <ele>454</ele>
        <time>2020-05-30T19:35:17Z</time>
      </trkpt>
      <trkpt lat="45.84324" lon="4.45473">
        <ele>456</ele>
        <time>2020-05-30T19:35:34Z</time>
      </trkpt>
      <trkpt lat="45.84228" lon="4.45423">
        <ele>457</ele>
        <time>2020-05-30T19:35:52Z</time>
      </trkpt>
      <trkpt lat="45.8421" lon="4.45413">
        <ele>457</ele>
        <time>2020-05-30T19:35:55Z</time>
      </trkpt>
      <trkpt lat="45.84195" lon="4.45401">
        <ele>458</ele>
        <time>2020-05-30T19:35:58Z</time>
      </trkpt>
      <trkpt lat="45.84182" lon="4.45388">
        <ele>459</ele>
        <time>2020-05-30T19:36:01Z</time>
      </trkpt>
      <trkpt lat="45.84168" lon="4.4537">
        <ele>459</ele>
        <time>2020-05-30T19:36:04Z</time>
      </trkpt>
      <trkpt lat="45.84158" lon="4.45351">
        <ele>461</ele>
        <time>2020-05-30T19:36:07Z</time>
      </trkpt>
      <trkpt lat="45.84149" lon="4.45325">
        <ele>464</ele>
        <time>2020-05-30T19:36:11Z</time>
      </trkpt>
      <trkpt lat="45.84143" lon="4.45298">
        <ele>465</ele>
        <time>2020-05-30T19:36:14Z</time>
      </trkpt>
      <trkpt lat="45.84141" lon="4.45273">
        <ele>467</ele>
        <time>2020-05-30T19:36:18Z</time>
      </trkpt>
      <trkpt lat="45.84141" lon="4.45245">
        <ele>468</ele>
        <time>2020-05-30T19:36:21Z</time>
      </trkpt>
      <trkpt lat="45.84147" lon="4.4515">
        <ele>473</ele>
        <time>2020-05-30T19:36:33Z</time>
      </trkpt>
      <trkpt lat="45.84149" lon="4.45112">
        <ele>475</ele>
        <time>2020-05-30T19:36:38Z</time>
      </trkpt>
      <trkpt lat="45.84145" lon="4.45074">
        <ele>477</ele>
        <time>2020-05-30T19:36:42Z</time>
      </trkpt>
      <trkpt lat="45.84138" lon="4.45047">
        <ele>478</ele>
        <time>2020-05-30T19:36:46Z</time>
      </trkpt>
      <trkpt lat="45.84128" lon="4.45023">
        <ele>477</ele>
        <time>2020-05-30T19:36:49Z</time>
      </trkpt>
      <trkpt lat="45.84058" lon="4.44917">
        <ele>473</ele>
        <time>2020-05-30T19:37:07Z</time>
      </trkpt>
      <trkpt lat="45.84041" lon="4.44899">
        <ele>476</ele>
        <time>2020-05-30T19:37:11Z</time>
      </trkpt>
      <trkpt lat="45.84024" lon="4.44885">
        <ele>477</ele>
        <time>2020-05-30T19:37:15Z</time>
      </trkpt>
      <trkpt lat="45.84002" lon="4.44878">
        <ele>477</ele>
        <time>2020-05-30T19:37:19Z</time>
      </trkpt>
      <trkpt lat="45.83917" lon="4.44867">
        <ele>474</ele>
        <time>2020-05-30T19:37:34Z</time>
      </trkpt>
      <trkpt lat="45.83896" lon="4.4486">
        <ele>474</ele>
        <time>2020-05-30T19:37:38Z</time>
      </trkpt>
      <trkpt lat="45.83882" lon="4.44851">
        <ele>474</ele>
        <time>2020-05-30T19:37:40Z</time>
      </trkpt>
      <trkpt lat="45.83869" lon="4.44835">
        <ele>473</ele>
        <time>2020-05-30T19:37:43Z</time>
      </trkpt>
      <trkpt lat="45.83859" lon="4.4482">
        <ele>473</ele>
        <time>2020-05-30T19:37:46Z</time>
      </trkpt>
      <trkpt lat="45.83832" lon="4.44745">
        <ele>477</ele>
        <time>2020-05-30T19:37:57Z</time>
      </trkpt>
      <trkpt lat="45.83825" lon="4.44734">
        <ele>478</ele>
        <time>2020-05-30T19:37:58Z</time>
      </trkpt>
      <trkpt lat="45.8382" lon="4.44725">
        <ele>479</ele>
        <time>2020-05-30T19:38:00Z</time>
      </trkpt>
      <trkpt lat="45.83801" lon="4.44704">
        <ele>481</ele>
        <time>2020-05-30T19:38:04Z</time>
      </trkpt>
      <trkpt lat="45.83734" lon="4.44662">
        <ele>485</ele>
        <time>2020-05-30T19:38:17Z</time>
      </trkpt>
      <trkpt lat="45.83709" lon="4.44644">
        <ele>485</ele>
        <time>2020-05-30T19:38:22Z</time>
      </trkpt>
      <trkpt lat="45.83686" lon="4.44617">
        <ele>486</ele>
        <time>2020-05-30T19:38:27Z</time>
      </trkpt>
      <trkpt lat="45.83672" lon="4.44578">
        <ele>489</ele>
        <time>2020-05-30T19:38:33Z</time>
      </trkpt>
      <trkpt lat="45.83661" lon="4.4447">
        <ele>491</ele>
        <time>2020-05-30T19:38:46Z</time>
      </trkpt>
      <trkpt lat="45.83635" lon="4.44402">
        <ele>493</ele>
        <time>2020-05-30T19:38:56Z</time>
      </trkpt>
      <trkpt lat="45.83495" lon="4.44135">
        <ele>498</ele>
        <time>2020-05-30T19:39:37Z</time>
      </trkpt>
      <trkpt lat="45.83476" lon="4.44096">
        <ele>499</ele>
        <time>2020-05-30T19:39:43Z</time>
      </trkpt>
      <trkpt lat="45.83465" lon="4.44075">
        <ele>499</ele>
        <time>2020-05-30T19:39:47Z</time>
      </trkpt>
      <trkpt lat="45.83459" lon="4.44063">
        <ele>499</ele>
        <time>2020-05-30T19:39:48Z</time>
      </trkpt>
      <trkpt lat="45.83448" lon="4.44045">
        <ele>498</ele>
        <time>2020-05-30T19:39:51Z</time>
      </trkpt>
      <trkpt lat="45.83437" lon="4.44004">
        <ele>499</ele>
        <time>2020-05-30T19:39:57Z</time>
      </trkpt>
      <trkpt lat="45.83439" lon="4.43968">
        <ele>501</ele>
        <time>2020-05-30T19:40:01Z</time>
      </trkpt>
      <trkpt lat="45.83447" lon="4.43942">
        <ele>504</ele>
        <time>2020-05-30T19:40:05Z</time>
      </trkpt>
      <trkpt lat="45.83498" lon="4.43823">
        <ele>514</ele>
        <time>2020-05-30T19:40:22Z</time>
      </trkpt>
      <trkpt lat="45.83519" lon="4.43739">
        <ele>520</ele>
        <time>2020-05-30T19:40:33Z</time>
      </trkpt>
      <trkpt lat="45.83521" lon="4.43706">
        <ele>521</ele>
        <time>2020-05-30T19:40:37Z</time>
      </trkpt>
      <trkpt lat="45.83521" lon="4.43598">
        <ele>524</ele>
        <time>2020-05-30T19:40:51Z</time>
      </trkpt>
      <trkpt lat="45.83544" lon="4.43451">
        <ele>531</ele>
        <time>2020-05-30T19:41:09Z</time>
      </trkpt>
      <trkpt lat="45.83543" lon="4.43416">
        <ele>532</ele>
        <time>2020-05-30T19:41:14Z</time>
      </trkpt>
      <trkpt lat="45.83537" lon="4.43389">
        <ele>533</ele>
        <time>2020-05-30T19:41:17Z</time>
      </trkpt>
      <trkpt lat="45.8352" lon="4.43351">
        <ele>531</ele>
        <time>2020-05-30T19:41:23Z</time>
      </trkpt>
      <trkpt lat="45.83469" lon="4.43278">
        <ele>533</ele>
        <time>2020-05-30T19:41:36Z</time>
      </trkpt>
      <trkpt lat="45.83457" lon="4.43254">
        <ele>533</ele>
        <time>2020-05-30T19:41:39Z</time>
      </trkpt>
      <trkpt lat="45.83416" lon="4.43224">
        <ele>534</ele>
        <time>2020-05-30T19:41:47Z</time>
      </trkpt>
      <trkpt lat="45.83376" lon="4.43184">
        <ele>539</ele>
        <time>2020-05-30T19:41:56Z</time>
      </trkpt>
      <trkpt lat="45.83316" lon="4.43083">
        <ele>547</ele>
        <time>2020-05-30T19:42:13Z</time>
      </trkpt>
      <trkpt lat="45.83229" lon="4.42982">
        <ele>556</ele>
        <time>2020-05-30T19:42:32Z</time>
      </trkpt>
      <trkpt lat="45.83206" lon="4.42944">
        <ele>561</ele>
        <time>2020-05-30T19:42:39Z</time>
      </trkpt>
      <trkpt lat="45.83196" lon="4.42906">
        <ele>563</ele>
        <time>2020-05-30T19:42:44Z</time>
      </trkpt>
      <trkpt lat="45.83191" lon="4.42811">
        <ele>566</ele>
        <time>2020-05-30T19:42:56Z</time>
      </trkpt>
      <trkpt lat="45.83165" lon="4.42732">
        <ele>567</ele>
        <time>2020-05-30T19:43:06Z</time>
      </trkpt>
      <trkpt lat="45.83135" lon="4.42691">
        <ele>575</ele>
        <time>2020-05-30T19:43:14Z</time>
      </trkpt>
      <trkpt lat="45.8312" lon="4.42686">
        <ele>576</ele>
        <time>2020-05-30T19:43:16Z</time>
      </trkpt>
      <trkpt lat="45.83102" lon="4.42693">
        <ele>574</ele>
        <time>2020-05-30T19:43:20Z</time>
      </trkpt>
      <trkpt lat="45.83057" lon="4.42702">
        <ele>571</ele>
        <time>2020-05-30T19:43:28Z</time>
      </trkpt>
      <trkpt lat="45.83015" lon="4.42682">
        <ele>574</ele>
        <time>2020-05-30T19:43:36Z</time>
      </trkpt>
      <trkpt lat="45.82916" lon="4.42594">
        <ele>578</ele>
        <time>2020-05-30T19:43:56Z</time>
      </trkpt>
      <trkpt lat="45.82881" lon="4.4256">
        <ele>581</ele>
        <time>2020-05-30T19:44:04Z</time>
      </trkpt>
      <trkpt lat="45.82842" lon="4.42532">
        <ele>579</ele>
        <time>2020-05-30T19:44:12Z</time>
      </trkpt>
      <trkpt lat="45.82825" lon="4.42527">
        <ele>579</ele>
        <time>2020-05-30T19:44:15Z</time>
      </trkpt>
      <trkpt lat="45.828" lon="4.42496">
        <ele>583</ele>
        <time>2020-05-30T19:44:21Z</time>
      </trkpt>
      <trkpt lat="45.82773" lon="4.42416">
        <ele>591</ele>
        <time>2020-05-30T19:44:32Z</time>
      </trkpt>
      <trkpt lat="45.82759" lon="4.42363">
        <ele>589</ele>
        <time>2020-05-30T19:44:39Z</time>
      </trkpt>
      <trkpt lat="45.82758" lon="4.42333">
        <ele>590</ele>
        <time>2020-05-30T19:44:43Z</time>
      </trkpt>
      <trkpt lat="45.82764" lon="4.42279">
        <ele>593</ele>
        <time>2020-05-30T19:44:49Z</time>
      </trkpt>
      <trkpt lat="45.82765" lon="4.42247">
        <ele>594</ele>
        <time>2020-05-30T19:44:53Z</time>
      </trkpt>
      <trkpt lat="45.82747" lon="4.42144">
        <ele>593</ele>
        <time>2020-05-30T19:45:06Z</time>
      </trkpt>
      <trkpt lat="45.82747" lon="4.42108">
        <ele>591</ele>
        <time>2020-05-30T19:45:11Z</time>
      </trkpt>
      <trkpt lat="45.82767" lon="4.42051">
        <ele>594</ele>
        <time>2020-05-30T19:45:19Z</time>
      </trkpt>
      <trkpt lat="45.82795" lon="4.41981">
        <ele>597</ele>
        <time>2020-05-30T19:45:29Z</time>
      </trkpt>
      <trkpt lat="45.82853" lon="4.41867">
        <ele>599</ele>
        <time>2020-05-30T19:45:46Z</time>
      </trkpt>
      <trkpt lat="45.82883" lon="4.41832">
        <ele>600</ele>
        <time>2020-05-30T19:45:53Z</time>
      </trkpt>
      <trkpt lat="45.82954" lon="4.41773">
        <ele>603</ele>
        <time>2020-05-30T19:46:08Z</time>
      </trkpt>
      <trkpt lat="45.83046" lon="4.41714">
        <ele>609</ele>
        <time>2020-05-30T19:46:26Z</time>
      </trkpt>
      <trkpt lat="45.83104" lon="4.41675">
        <ele>612</ele>
        <time>2020-05-30T19:46:37Z</time>
      </trkpt>
      <trkpt lat="45.83124" lon="4.41657">
        <ele>614</ele>
        <time>2020-05-30T19:46:41Z</time>
      </trkpt>
      <trkpt lat="45.83136" lon="4.41627">
        <ele>615</ele>
        <time>2020-05-30T19:46:46Z</time>
      </trkpt>
      <trkpt lat="45.83135" lon="4.41606">
        <ele>614</ele>
        <time>2020-05-30T19:46:48Z</time>
      </trkpt>
      <trkpt lat="45.83127" lon="4.41574">
        <ele>615</ele>
        <time>2020-05-30T19:46:52Z</time>
      </trkpt>
      <trkpt lat="45.83112" lon="4.41558">
        <ele>617</ele>
        <time>2020-05-30T19:46:56Z</time>
      </trkpt>
      <trkpt lat="45.8308" lon="4.41554">
        <ele>618</ele>
        <time>2020-05-30T19:47:01Z</time>
      </trkpt>
      <trkpt lat="45.83004" lon="4.41567">
        <ele>616</ele>
        <time>2020-05-30T19:47:15Z</time>
      </trkpt>
      <trkpt lat="45.8299" lon="4.41566">
        <ele>616</ele>
        <time>2020-05-30T19:47:18Z</time>
      </trkpt>
      <trkpt lat="45.82977" lon="4.41561">
        <ele>617</ele>
        <time>2020-05-30T19:47:20Z</time>
      </trkpt>
      <trkpt lat="45.82926" lon="4.41524">
        <ele>621</ele>
        <time>2020-05-30T19:47:30Z</time>
      </trkpt>
      <trkpt lat="45.82884" lon="4.4148">
        <ele>622</ele>
        <time>2020-05-30T19:47:39Z</time>
      </trkpt>
      <trkpt lat="45.82874" lon="4.4145">
        <ele>624</ele>
        <time>2020-05-30T19:47:44Z</time>
      </trkpt>
      <trkpt lat="45.82871" lon="4.41403">
        <ele>627</ele>
        <time>2020-05-30T19:47:49Z</time>
      </trkpt>
      <trkpt lat="45.82878" lon="4.41358">
        <ele>630</ele>
        <time>2020-05-30T19:47:55Z</time>
      </trkpt>
      <trkpt lat="45.82915" lon="4.41228">
        <ele>635</ele>
        <time>2020-05-30T19:48:12Z</time>
      </trkpt>
      <trkpt lat="45.82916" lon="4.41208">
        <ele>635</ele>
        <time>2020-05-30T19:48:15Z</time>
      </trkpt>
      <trkpt lat="45.82913" lon="4.4119">
        <ele>635</ele>
        <time>2020-05-30T19:48:17Z</time>
      </trkpt>
      <trkpt lat="45.829" lon="4.41176">
        <ele>636</ele>
        <time>2020-05-30T19:48:20Z</time>
      </trkpt>
      <trkpt lat="45.82881" lon="4.41168">
        <ele>637</ele>
        <time>2020-05-30T19:48:24Z</time>
      </trkpt>
      <trkpt lat="45.82864" lon="4.41172">
        <ele>637</ele>
        <time>2020-05-30T19:48:27Z</time>
      </trkpt>
      <trkpt lat="45.82776" lon="4.41213">
        <ele>640</ele>
        <time>2020-05-30T19:48:43Z</time>
      </trkpt>
      <trkpt lat="45.8275" lon="4.41227">
        <ele>640</ele>
        <time>2020-05-30T19:48:48Z</time>
      </trkpt>
      <trkpt lat="45.82728" lon="4.4123">
        <ele>640</ele>
        <time>2020-05-30T19:48:52Z</time>
      </trkpt>
      <trkpt lat="45.82707" lon="4.41217">
        <ele>642</ele>
        <time>2020-05-30T19:48:56Z</time>
      </trkpt>
      <trkpt lat="45.82696" lon="4.41196">
        <ele>645</ele>
        <time>2020-05-30T19:48:59Z</time>
      </trkpt>
      <trkpt lat="45.82688" lon="4.41122">
        <ele>650</ele>
        <time>2020-05-30T19:49:09Z</time>
      </trkpt>
      <trkpt lat="45.82671" lon="4.41089">
        <ele>651</ele>
        <time>2020-05-30T19:49:14Z</time>
      </trkpt>
      <trkpt lat="45.82645" lon="4.4108">
        <ele>653</ele>
        <time>2020-05-30T19:49:19Z</time>
      </trkpt>
      <trkpt lat="45.82558" lon="4.41081">
        <ele>655</ele>
        <time>2020-05-30T19:49:34Z</time>
      </trkpt>
      <trkpt lat="45.8255" lon="4.41077">
        <ele>656</ele>
        <time>2020-05-30T19:49:36Z</time>
      </trkpt>
      <trkpt lat="45.82527" lon="4.41065">
        <ele>656</ele>
        <time>2020-05-30T19:49:40Z</time>
      </trkpt>
      <trkpt lat="45.82518" lon="4.41055">
        <ele>657</ele>
        <time>2020-05-30T19:49:42Z</time>
      </trkpt>
      <trkpt lat="45.82516" lon="4.41053">
        <ele>657</ele>
        <time>2020-05-30T19:49:42Z</time>
      </trkpt>
      <trkpt lat="45.82511" lon="4.41046">
        <ele>658</ele>
        <time>2020-05-30T19:49:44Z</time>
      </trkpt>
      <trkpt lat="45.82492" lon="4.41008">
        <ele>660</ele>
        <time>2020-05-30T19:49:49Z</time>
      </trkpt>
      <trkpt lat="45.82484" lon="4.40943">
        <ele>663</ele>
        <time>2020-05-30T19:49:58Z</time>
      </trkpt>
      <trkpt lat="45.825" lon="4.40841">
        <ele>669</ele>
        <time>2020-05-30T19:50:11Z</time>
      </trkpt>
      <trkpt lat="45.82511" lon="4.40752">
        <ele>672</ele>
        <time>2020-05-30T19:50:22Z</time>
      </trkpt>
      <trkpt lat="45.82506" lon="4.40719">
        <ele>672</ele>
        <time>2020-05-30T19:50:26Z</time>
      </trkpt>
      <trkpt lat="45.82453" lon="4.40492">
        <ele>686</ele>
        <time>2020-05-30T19:50:56Z</time>
      </trkpt>
      <trkpt lat="45.82445" lon="4.40478">
        <ele>688</ele>
        <time>2020-05-30T19:50:58Z</time>
      </trkpt>
      <trkpt lat="45.82396" lon="4.40455">
        <ele>688</ele>
        <time>2020-05-30T19:51:07Z</time>
      </trkpt>
      <trkpt lat="45.82388" lon="4.4045">
        <ele>688</ele>
        <time>2020-05-30T19:51:09Z</time>
      </trkpt>
      <trkpt lat="45.82379" lon="4.40444">
        <ele>688</ele>
        <time>2020-05-30T19:51:10Z</time>
      </trkpt>
      <trkpt lat="45.8231" lon="4.40357">
        <ele>696</ele>
        <time>2020-05-30T19:51:27Z</time>
      </trkpt>
      <trkpt lat="45.82294" lon="4.40334">
        <ele>698</ele>
        <time>2020-05-30T19:51:31Z</time>
      </trkpt>
      <trkpt lat="45.82277" lon="4.4033">
        <ele>697</ele>
        <time>2020-05-30T19:51:34Z</time>
      </trkpt>
      <trkpt lat="45.82261" lon="4.40332">
        <ele>695</ele>
        <time>2020-05-30T19:51:37Z</time>
      </trkpt>
      <trkpt lat="45.82168" lon="4.40403">
        <ele>698</ele>
        <time>2020-05-30T19:51:55Z</time>
      </trkpt>
      <trkpt lat="45.82142" lon="4.40434">
        <ele>701</ele>
        <time>2020-05-30T19:52:01Z</time>
      </trkpt>
      <trkpt lat="45.8209" lon="4.40523">
        <ele>699</ele>
        <time>2020-05-30T19:52:16Z</time>
      </trkpt>
      <trkpt lat="45.82082" lon="4.4053">
        <ele>699</ele>
        <time>2020-05-30T19:52:17Z</time>
      </trkpt>
      <trkpt lat="45.82073" lon="4.40529">
        <ele>700</ele>
        <time>2020-05-30T19:52:19Z</time>
      </trkpt>
      <trkpt lat="45.82032" lon="4.40508">
        <ele>705</ele>
        <time>2020-05-30T19:52:27Z</time>
      </trkpt>
      <trkpt lat="45.82014" lon="4.40503">
        <ele>707</ele>
        <time>2020-05-30T19:52:30Z</time>
      </trkpt>
      <trkpt lat="45.81987" lon="4.40499">
        <ele>710</ele>
        <time>2020-05-30T19:52:35Z</time>
      </trkpt>
      <trkpt lat="45.81957" lon="4.40507">
        <ele>713</ele>
        <time>2020-05-30T19:52:40Z</time>
      </trkpt>
      <trkpt lat="45.81892" lon="4.40573">
        <ele>714</ele>
        <time>2020-05-30T19:52:55Z</time>
      </trkpt>
      <trkpt lat="45.81874" lon="4.40582">
        <ele>715</ele>
        <time>2020-05-30T19:52:58Z</time>
      </trkpt>
      <trkpt lat="45.81857" lon="4.40593">
        <ele>714</ele>
        <time>2020-05-30T19:53:01Z</time>
      </trkpt>
      <trkpt lat="45.81825" lon="4.40592">
        <ele>717</ele>
        <time>2020-05-30T19:53:07Z</time>
      </trkpt>
      <trkpt lat="45.81803" lon="4.40585">
        <ele>720</ele>
        <time>2020-05-30T19:53:11Z</time>
      </trkpt>
      <trkpt lat="45.81787" lon="4.40571">
        <ele>722</ele>
        <time>2020-05-30T19:53:14Z</time>
      </trkpt>
      <trkpt lat="45.81762" lon="4.40546">
        <ele>724</ele>
        <time>2020-05-30T19:53:20Z</time>
      </trkpt>
      <trkpt lat="45.81749" lon="4.40534">
        <ele>725</ele>
        <time>2020-05-30T19:53:22Z</time>
      </trkpt>
      <trkpt lat="45.81714" lon="4.40499">
        <ele>726</ele>
        <time>2020-05-30T19:53:30Z</time>
      </trkpt>
      <trkpt lat="45.8171" lon="4.40485">
        <ele>725</ele>
        <time>2020-05-30T19:53:32Z</time>
      </trkpt>
      <trkpt lat="45.81741" lon="4.40434">
        <ele>727</ele>
        <time>2020-05-30T19:53:40Z</time>
      </trkpt>
      <trkpt lat="45.81879" lon="4.40204">
        <ele>738</ele>
        <time>2020-05-30T19:54:18Z</time>
      </trkpt>
      <trkpt lat="45.81889" lon="4.40178">
        <ele>739</ele>
        <time>2020-05-30T19:54:22Z</time>
      </trkpt>
      <trkpt lat="45.81884" lon="4.40134">
        <ele>741</ele>
        <time>2020-05-30T19:54:27Z</time>
      </trkpt>
      <trkpt lat="45.81855" lon="4.40061">
        <ele>743</ele>
        <time>2020-05-30T19:54:38Z</time>
      </trkpt>
      <trkpt lat="45.81854" lon="4.40032">
        <ele>744</ele>
        <time>2020-05-30T19:54:41Z</time>
      </trkpt>
      <trkpt lat="45.81863" lon="4.40004">
        <ele>746</ele>
        <time>2020-05-30T19:54:45Z</time>
      </trkpt>
      <trkpt lat="45.8188" lon="4.39986">
        <ele>746</ele>
        <time>2020-05-30T19:54:49Z</time>
      </trkpt>
      <trkpt lat="45.81901" lon="4.39972">
        <ele>746</ele>
        <time>2020-05-30T19:54:53Z</time>
      </trkpt>
      <trkpt lat="45.81932" lon="4.39958">
        <ele>748</ele>
        <time>2020-05-30T19:54:59Z</time>
      </trkpt>
      <trkpt lat="45.81947" lon="4.39946">
        <ele>749</ele>
        <time>2020-05-30T19:55:02Z</time>
      </trkpt>
      <trkpt lat="45.82086" lon="4.39681">
        <ele>756</ele>
        <time>2020-05-30T19:55:43Z</time>
      </trkpt>
      <trkpt lat="45.82089" lon="4.39663">
        <ele>756</ele>
        <time>2020-05-30T19:55:45Z</time>
      </trkpt>
      <trkpt lat="45.82091" lon="4.39654">
        <ele>757</ele>
        <time>2020-05-30T19:55:46Z</time>
      </trkpt>
      <trkpt lat="45.8208" lon="4.39544">
        <ele>759</ele>
        <time>2020-05-30T19:56:00Z</time>
      </trkpt>
      <trkpt lat="45.82056" lon="4.39431">
        <ele>762</ele>
        <time>2020-05-30T19:56:15Z</time>
      </trkpt>
      <trkpt lat="45.82058" lon="4.39388">
        <ele>765</ele>
        <time>2020-05-30T19:56:20Z</time>
      </trkpt>
      <trkpt lat="45.82069" lon="4.39301">
        <ele>772</ele>
        <time>2020-05-30T19:56:31Z</time>
      </trkpt>
      <trkpt lat="45.8207" lon="4.39218">
        <ele>779</ele>
        <time>2020-05-30T19:56:41Z</time>
      </trkpt>
      <trkpt lat="45.82061" lon="4.39188">
        <ele>779</ele>
        <time>2020-05-30T19:56:45Z</time>
      </trkpt>
      <trkpt lat="45.82027" lon="4.3915">
        <ele>770</ele>
        <time>2020-05-30T19:56:53Z</time>
      </trkpt>
      <trkpt lat="45.82013" lon="4.39119">
        <ele>766</ele>
        <time>2020-05-30T19:56:58Z</time>
      </trkpt>
      <trkpt lat="45.82016" lon="4.39078">
        <ele>768</ele>
        <time>2020-05-30T19:57:03Z</time>
      </trkpt>
      <trkpt lat="45.82044" lon="4.38989">
        <ele>776</ele>
        <time>2020-05-30T19:57:15Z</time>
      </trkpt>
      <trkpt lat="45.82045" lon="4.38926">
        <ele>779</ele>
        <time>2020-05-30T19:57:23Z</time>
      </trkpt>
      <trkpt lat="45.82035" lon="4.3887">
        <ele>780</ele>
        <time>2020-05-30T19:57:30Z</time>
      </trkpt>
      <trkpt lat="45.82001" lon="4.38735">
        <ele>782</ele>
        <time>2020-05-30T19:57:48Z</time>
      </trkpt>
      <trkpt lat="45.81963" lon="4.38632">
        <ele>776</ele>
        <time>2020-05-30T19:58:02Z</time>
      </trkpt>
      <trkpt lat="45.81954" lon="4.38601">
        <ele>775</ele>
        <time>2020-05-30T19:58:06Z</time>
      </trkpt>
      <trkpt lat="45.81923" lon="4.38611">
        <ele>772</ele>
        <time>2020-05-30T19:58:12Z</time>
      </trkpt>
      <trkpt lat="45.8188" lon="4.38606">
        <ele>766</ele>
        <time>2020-05-30T19:58:20Z</time>
      </trkpt>
      <trkpt lat="45.81851" lon="4.38571">
        <ele>765</ele>
        <time>2020-05-30T19:58:26Z</time>
      </trkpt>
      <trkpt lat="45.81826" lon="4.38504">
        <ele>765</ele>
        <time>2020-05-30T19:58:36Z</time>
      </trkpt>
      <trkpt lat="45.81796" lon="4.38412">
        <ele>758</ele>
        <time>2020-05-30T19:58:48Z</time>
      </trkpt>
      <trkpt lat="45.81772" lon="4.3837">
        <ele>759</ele>
        <time>2020-05-30T19:58:55Z</time>
      </trkpt>
      <trkpt lat="45.81728" lon="4.38342">
        <ele>761</ele>
        <time>2020-05-30T19:59:04Z</time>
      </trkpt>
      <trkpt lat="45.81695" lon="4.38339">
        <ele>760</ele>
        <time>2020-05-30T19:59:10Z</time>
      </trkpt>
      <trkpt lat="45.81672" lon="4.3835">
        <ele>757</ele>
        <time>2020-05-30T19:59:14Z</time>
      </trkpt>
      <trkpt lat="45.81641" lon="4.38351">
        <ele>752</ele>
        <time>2020-05-30T19:59:19Z</time>
      </trkpt>
      <trkpt lat="45.81593" lon="4.38334">
        <ele>748</ele>
        <time>2020-05-30T19:59:28Z</time>
      </trkpt>
      <trkpt lat="45.81557" lon="4.38264">
        <ele>741</ele>
        <time>2020-05-30T19:59:39Z</time>
      </trkpt>
      <trkpt lat="45.81555" lon="4.38212">
        <ele>738</ele>
        <time>2020-05-30T19:59:45Z</time>
      </trkpt>
      <trkpt lat="45.81566" lon="4.3816">
        <ele>737</ele>
        <time>2020-05-30T19:59:52Z</time>
      </trkpt>
      <trkpt lat="45.81586" lon="4.38054">
        <ele>732</ele>
        <time>2020-05-30T20:00:06Z</time>
      </trkpt>
      <trkpt lat="45.8158" lon="4.37999">
        <ele>728</ele>
        <time>2020-05-30T20:00:13Z</time>
      </trkpt>
      <trkpt lat="45.81547" lon="4.3795">
        <ele>733</ele>
        <time>2020-05-30T20:00:21Z</time>
      </trkpt>
      <trkpt lat="45.81481" lon="4.37909">
        <ele>729</ele>
        <time>2020-05-30T20:00:34Z</time>
      </trkpt>
      <trkpt lat="45.81435" lon="4.37878">
        <ele>725</ele>
        <time>2020-05-30T20:00:43Z</time>
      </trkpt>
      <trkpt lat="45.81418" lon="4.37875">
        <ele>722</ele>
        <time>2020-05-30T20:00:46Z</time>
      </trkpt>
      <trkpt lat="45.81397" lon="4.37881">
        <ele>725</ele>
        <time>2020-05-30T20:00:50Z</time>
      </trkpt>
      <trkpt lat="45.8139" lon="4.37888">
        <ele>725</ele>
        <time>2020-05-30T20:00:51Z</time>
      </trkpt>
      <trkpt lat="45.81366" lon="4.3791">
        <ele>726</ele>
        <time>2020-05-30T20:00:56Z</time>
      </trkpt>
      <trkpt lat="45.81361" lon="4.37919">
        <ele>726</ele>
        <time>2020-05-30T20:00:58Z</time>
      </trkpt>
      <trkpt lat="45.81336" lon="4.37958">
        <ele>725</ele>
        <time>2020-05-30T20:01:04Z</time>
      </trkpt>
      <trkpt lat="45.81289" lon="4.38068">
        <ele>715</ele>
        <time>2020-05-30T20:01:20Z</time>
      </trkpt>
      <trkpt lat="45.8126" lon="4.38086">
        <ele>717</ele>
        <time>2020-05-30T20:01:26Z</time>
      </trkpt>
      <trkpt lat="45.81232" lon="4.38098">
        <ele>715</ele>
        <time>2020-05-30T20:01:31Z</time>
      </trkpt>
      <trkpt lat="45.81194" lon="4.38082">
        <ele>713</ele>
        <time>2020-05-30T20:01:38Z</time>
      </trkpt>
      <trkpt lat="45.81114" lon="4.38002">
        <ele>714</ele>
        <time>2020-05-30T20:01:56Z</time>
      </trkpt>
      <trkpt lat="45.81066" lon="4.37936">
        <ele>714</ele>
        <time>2020-05-30T20:02:07Z</time>
      </trkpt>
      <trkpt lat="45.81044" lon="4.37866">
        <ele>715</ele>
        <time>2020-05-30T20:02:17Z</time>
      </trkpt>
      <trkpt lat="45.81037" lon="4.37841">
        <ele>714</ele>
        <time>2020-05-30T20:02:20Z</time>
      </trkpt>
      <trkpt lat="45.81008" lon="4.37711">
        <ele>707</ele>
        <time>2020-05-30T20:02:37Z</time>
      </trkpt>
      <trkpt lat="45.80965" lon="4.37635">
        <ele>703</ele>
        <time>2020-05-30T20:02:49Z</time>
      </trkpt>
      <trkpt lat="45.80936" lon="4.37607">
        <ele>703</ele>
        <time>2020-05-30T20:02:56Z</time>
      </trkpt>
      <trkpt lat="45.80905" lon="4.37592">
        <ele>703</ele>
        <time>2020-05-30T20:03:01Z</time>
      </trkpt>
      <trkpt lat="45.80874" lon="4.37594">
        <ele>701</ele>
        <time>2020-05-30T20:03:07Z</time>
      </trkpt>
      <trkpt lat="45.80814" lon="4.3761">
        <ele>695</ele>
        <time>2020-05-30T20:03:18Z</time>
      </trkpt>
      <trkpt lat="45.80784" lon="4.37608">
        <ele>692</ele>
        <time>2020-05-30T20:03:23Z</time>
      </trkpt>
      <trkpt lat="45.80758" lon="4.37586">
        <ele>693</ele>
        <time>2020-05-30T20:03:28Z</time>
      </trkpt>
      <trkpt lat="45.80743" lon="4.3756">
        <ele>692</ele>
        <time>2020-05-30T20:03:33Z</time>
      </trkpt>
      <trkpt lat="45.80733" lon="4.37518">
        <ele>692</ele>
        <time>2020-05-30T20:03:38Z</time>
      </trkpt>
      <trkpt lat="45.80731" lon="4.37488">
        <ele>691</ele>
        <time>2020-05-30T20:03:42Z</time>
      </trkpt>
      <trkpt lat="45.80734" lon="4.37457">
        <ele>691</ele>
        <time>2020-05-30T20:03:46Z</time>
      </trkpt>
      <trkpt lat="45.80742" lon="4.3743">
        <ele>692</ele>
        <time>2020-05-30T20:03:49Z</time>
      </trkpt>
      <trkpt lat="45.80745" lon="4.37394">
        <ele>692</ele>
        <time>2020-05-30T20:03:54Z</time>
      </trkpt>
      <trkpt lat="45.80745" lon="4.3739">
        <ele>692</ele>
        <time>2020-05-30T20:03:54Z</time>
      </trkpt>
      <trkpt lat="45.80742" lon="4.37364">
        <ele>691</ele>
        <time>2020-05-30T20:03:58Z</time>
      </trkpt>
      <trkpt lat="45.80734" lon="4.37334">
        <ele>690</ele>
        <time>2020-05-30T20:04:02Z</time>
      </trkpt>
      <trkpt lat="45.80704" lon="4.37249">
        <ele>689</ele>
        <time>2020-05-30T20:04:14Z</time>
      </trkpt>
      <trkpt lat="45.8069" lon="4.37225">
        <ele>689</ele>
        <time>2020-05-30T20:04:17Z</time>
      </trkpt>
      <trkpt lat="45.80676" lon="4.3721">
        <ele>688</ele>
        <time>2020-05-30T20:04:20Z</time>
      </trkpt>
      <trkpt lat="45.80652" lon="4.37187">
        <ele>688</ele>
        <time>2020-05-30T20:04:26Z</time>
      </trkpt>
      <trkpt lat="45.80648" lon="4.37186">
        <ele>688</ele>
        <time>2020-05-30T20:04:26Z</time>
      </trkpt>
      <trkpt lat="45.8062" lon="4.37184">
        <ele>686</ele>
        <time>2020-05-30T20:04:31Z</time>
      </trkpt>
      <trkpt lat="45.80571" lon="4.3719">
        <ele>680</ele>
        <time>2020-05-30T20:04:40Z</time>
      </trkpt>
      <trkpt lat="45.8054" lon="4.37175">
        <ele>679</ele>
        <time>2020-05-30T20:04:46Z</time>
      </trkpt>
      <trkpt lat="45.80521" lon="4.3715">
        <ele>679</ele>
        <time>2020-05-30T20:04:51Z</time>
      </trkpt>
      <trkpt lat="45.80502" lon="4.37115">
        <ele>679</ele>
        <time>2020-05-30T20:04:56Z</time>
      </trkpt>
      <trkpt lat="45.80467" lon="4.37087">
        <ele>676</ele>
        <time>2020-05-30T20:05:03Z</time>
      </trkpt>
      <trkpt lat="45.80341" lon="4.37025">
        <ele>666</ele>
        <time>2020-05-30T20:05:27Z</time>
      </trkpt>
      <trkpt lat="45.80321" lon="4.37009">
        <ele>665</ele>
        <time>2020-05-30T20:05:31Z</time>
      </trkpt>
      <trkpt lat="45.80309" lon="4.36999">
        <ele>665</ele>
        <time>2020-05-30T20:05:33Z</time>
      </trkpt>
      <trkpt lat="45.80297" lon="4.36982">
        <ele>664</ele>
        <time>2020-05-30T20:05:36Z</time>
      </trkpt>
      <trkpt lat="45.80209" lon="4.36877">
        <ele>660</ele>
        <time>2020-05-30T20:05:57Z</time>
      </trkpt>
      <trkpt lat="45.80129" lon="4.36774">
        <ele>656</ele>
        <time>2020-05-30T20:06:16Z</time>
      </trkpt>
      <trkpt lat="45.80122" lon="4.36764">
        <ele>656</ele>
        <time>2020-05-30T20:06:18Z</time>
      </trkpt>
      <trkpt lat="45.801" lon="4.36736">
        <ele>656</ele>
        <time>2020-05-30T20:06:23Z</time>
      </trkpt>
      <trkpt lat="45.80058" lon="4.36703">
        <ele>656</ele>
        <time>2020-05-30T20:06:31Z</time>
      </trkpt>
      <trkpt lat="45.80024" lon="4.3668">
        <ele>655</ele>
        <time>2020-05-30T20:06:38Z</time>
      </trkpt>
      <trkpt lat="45.7997" lon="4.36643">
        <ele>653</ele>
        <time>2020-05-30T20:06:49Z</time>
      </trkpt>
      <trkpt lat="45.79897" lon="4.36593">
        <ele>649</ele>
        <time>2020-05-30T20:07:03Z</time>
      </trkpt>
      <trkpt lat="45.79872" lon="4.36576">
        <ele>649</ele>
        <time>2020-05-30T20:07:08Z</time>
      </trkpt>
      <trkpt lat="45.79767" lon="4.36506">
        <ele>644</ele>
        <time>2020-05-30T20:07:29Z</time>
      </trkpt>
      <trkpt lat="45.79752" lon="4.36496">
        <ele>643</ele>
        <time>2020-05-30T20:07:32Z</time>
      </trkpt>
      <trkpt lat="45.79697" lon="4.36459">
        <ele>640</ele>
        <time>2020-05-30T20:07:42Z</time>
      </trkpt>
      <trkpt lat="45.79598" lon="4.36393">
        <ele>635</ele>
        <time>2020-05-30T20:08:02Z</time>
      </trkpt>
      <trkpt lat="45.79563" lon="4.36342">
        <ele>634</ele>
        <time>2020-05-30T20:08:11Z</time>
      </trkpt>
      <trkpt lat="45.79479" lon="4.36159">
        <ele>635</ele>
        <time>2020-05-30T20:08:38Z</time>
      </trkpt>
      <trkpt lat="45.79474" lon="4.36149">
        <ele>635</ele>
        <time>2020-05-30T20:08:39Z</time>
      </trkpt>
      <trkpt lat="45.79465" lon="4.36128">
        <ele>635</ele>
        <time>2020-05-30T20:08:42Z</time>
      </trkpt>
      <trkpt lat="45.79395" lon="4.35985">
        <ele>637</ele>
        <time>2020-05-30T20:09:04Z</time>
      </trkpt>
      <trkpt lat="45.79373" lon="4.35915">
        <ele>638</ele>
        <time>2020-05-30T20:09:14Z</time>
      </trkpt>
      <trkpt lat="45.79369" lon="4.35898">
        <ele>637</ele>
        <time>2020-05-30T20:09:16Z</time>
      </trkpt>
      <trkpt lat="45.79368" lon="4.35884">
        <ele>637</ele>
        <time>2020-05-30T20:09:18Z</time>
      </trkpt>
      <trkpt lat="45.79368" lon="4.35883">
        <ele>637</ele>
        <time>2020-05-30T20:09:18Z</time>
      </trkpt>
      <trkpt lat="45.79368" lon="4.3584">
        <ele>636</ele>
        <time>2020-05-30T20:09:23Z</time>
      </trkpt>
      <trkpt lat="45.79367" lon="4.3578">
        <ele>634</ele>
        <time>2020-05-30T20:09:31Z</time>
      </trkpt>
      <trkpt lat="45.79364" lon="4.35722">
        <ele>633</ele>
        <time>2020-05-30T20:09:38Z</time>
      </trkpt>
      <trkpt lat="45.79357" lon="4.35664">
        <ele>632</ele>
        <time>2020-05-30T20:09:45Z</time>
      </trkpt>
      <trkpt lat="45.79351" lon="4.35638">
        <ele>632</ele>
        <time>2020-05-30T20:09:48Z</time>
      </trkpt>
      <trkpt lat="45.79341" lon="4.35594">
        <ele>633</ele>
        <time>2020-05-30T20:09:54Z</time>
      </trkpt>
      <trkpt lat="45.79323" lon="4.35516">
        <ele>634</ele>
        <time>2020-05-30T20:10:04Z</time>
      </trkpt>
      <trkpt lat="45.79315" lon="4.35496">
        <ele>634</ele>
        <time>2020-05-30T20:10:07Z</time>
      </trkpt>
      <trkpt lat="45.79303" lon="4.35474">
        <ele>634</ele>
        <time>2020-05-30T20:10:11Z</time>
      </trkpt>
      <trkpt lat="45.79271" lon="4.3544">
        <ele>634</ele>
        <time>2020-05-30T20:10:18Z</time>
      </trkpt>
      <trkpt lat="45.79252" lon="4.35419">
        <ele>636</ele>
        <time>2020-05-30T20:10:22Z</time>
      </trkpt>
      <trkpt lat="45.79239" lon="4.35406">
        <ele>635</ele>
        <time>2020-05-30T20:10:25Z</time>
      </trkpt>
      <trkpt lat="45.79237" lon="4.35404">
        <ele>635</ele>
        <time>2020-05-30T20:10:25Z</time>
      </trkpt>
      <trkpt lat="45.79231" lon="4.35398">
        <ele>635</ele>
        <time>2020-05-30T20:10:27Z</time>
      </trkpt>
      <trkpt lat="45.79215" lon="4.35381">
        <ele>635</ele>
        <time>2020-05-30T20:10:30Z</time>
      </trkpt>
      <trkpt lat="45.79208" lon="4.35374">
        <ele>635</ele>
        <time>2020-05-30T20:10:32Z</time>
      </trkpt>
      <trkpt lat="45.79195" lon="4.35356">
        <ele>635</ele>
        <time>2020-05-30T20:10:35Z</time>
      </trkpt>
      <trkpt lat="45.79171" lon="4.35315">
        <ele>636</ele>
        <time>2020-05-30T20:10:42Z</time>
      </trkpt>
      <trkpt lat="45.79164" lon="4.35297">
        <ele>636</ele>
        <time>2020-05-30T20:10:44Z</time>
      </trkpt>
      <trkpt lat="45.79156" lon="4.35268">
        <ele>637</ele>
        <time>2020-05-30T20:10:48Z</time>
      </trkpt>
      <trkpt lat="45.79147" lon="4.35239">
        <ele>638</ele>
        <time>2020-05-30T20:10:52Z</time>
      </trkpt>
      <trkpt lat="45.79141" lon="4.3521">
        <ele>638</ele>
        <time>2020-05-30T20:10:56Z</time>
      </trkpt>
      <trkpt lat="45.79127" lon="4.3514">
        <ele>638</ele>
        <time>2020-05-30T20:11:05Z</time>
      </trkpt>
      <trkpt lat="45.79109" lon="4.35061">
        <ele>638</ele>
        <time>2020-05-30T20:11:15Z</time>
      </trkpt>
      <trkpt lat="45.79103" lon="4.35025">
        <ele>637</ele>
        <time>2020-05-30T20:11:20Z</time>
      </trkpt>
      <trkpt lat="45.79098" lon="4.34984">
        <ele>636</ele>
        <time>2020-05-30T20:11:25Z</time>
      </trkpt>
      <trkpt lat="45.79098" lon="4.34978">
        <ele>636</ele>
        <time>2020-05-30T20:11:26Z</time>
      </trkpt>
      <trkpt lat="45.79096" lon="4.34779">
        <ele>632</ele>
        <time>2020-05-30T20:11:50Z</time>
      </trkpt>
      <trkpt lat="45.79098" lon="4.34749">
        <ele>631</ele>
        <time>2020-05-30T20:11:54Z</time>
      </trkpt>
      <trkpt lat="45.79101" lon="4.34725">
        <ele>631</ele>
        <time>2020-05-30T20:11:57Z</time>
      </trkpt>
      <trkpt lat="45.79116" lon="4.34675">
        <ele>629</ele>
        <time>2020-05-30T20:12:04Z</time>
      </trkpt>
      <trkpt lat="45.79125" lon="4.34651">
        <ele>629</ele>
        <time>2020-05-30T20:12:07Z</time>
      </trkpt>
      <trkpt lat="45.79132" lon="4.34634">
        <ele>628</ele>
        <time>2020-05-30T20:12:10Z</time>
      </trkpt>
      <trkpt lat="45.79147" lon="4.34596">
        <ele>628</ele>
        <time>2020-05-30T20:12:15Z</time>
      </trkpt>
      <trkpt lat="45.79154" lon="4.34577">
        <ele>628</ele>
        <time>2020-05-30T20:12:18Z</time>
      </trkpt>
      <trkpt lat="45.79157" lon="4.34568">
        <ele>627</ele>
        <time>2020-05-30T20:12:19Z</time>
      </trkpt>
      <trkpt lat="45.79166" lon="4.34544">
        <ele>627</ele>
        <time>2020-05-30T20:12:22Z</time>
      </trkpt>
      <trkpt lat="45.79205" lon="4.34437">
        <ele>625</ele>
        <time>2020-05-30T20:12:37Z</time>
      </trkpt>
      <trkpt lat="45.7923" lon="4.34397">
        <ele>625</ele>
        <time>2020-05-30T20:12:44Z</time>
      </trkpt>
      <trkpt lat="45.79248" lon="4.34378">
        <ele>625</ele>
        <time>2020-05-30T20:12:48Z</time>
      </trkpt>
      <trkpt lat="45.79235" lon="4.34353">
        <ele>625</ele>
        <time>2020-05-30T20:12:52Z</time>
      </trkpt>
      <trkpt lat="45.79241" lon="4.34334">
        <ele>626</ele>
        <time>2020-05-30T20:12:54Z</time>
      </trkpt>
      <trkpt lat="45.79209" lon="4.34311">
        <ele>622</ele>
        <time>2020-05-30T20:13:01Z</time>
      </trkpt>
      <trkpt lat="45.79198" lon="4.34306">
        <ele>621</ele>
        <time>2020-05-30T20:13:03Z</time>
      </trkpt>
      <trkpt lat="45.79124" lon="4.34254">
        <ele>609</ele>
        <time>2020-05-30T20:13:17Z</time>
      </trkpt>
      <trkpt lat="45.79058" lon="4.34203">
        <ele>602</ele>
        <time>2020-05-30T20:13:31Z</time>
      </trkpt>
      <trkpt lat="45.78997" lon="4.34162">
        <ele>593</ele>
        <time>2020-05-30T20:13:43Z</time>
      </trkpt>
      <trkpt lat="45.79" lon="4.34157">
        <ele>593</ele>
        <time>2020-05-30T20:13:44Z</time>
      </trkpt>
      <trkpt lat="45.79016" lon="4.34113">
        <ele>595</ele>
        <time>2020-05-30T20:13:50Z</time>
      </trkpt>
      <trkpt lat="45.79054" lon="4.33982">
        <ele>600</ele>
        <time>2020-05-30T20:14:07Z</time>
      </trkpt>
      <trkpt lat="45.79084" lon="4.33927">
        <ele>601</ele>
        <time>2020-05-30T20:14:16Z</time>
      </trkpt>
      <trkpt lat="45.79137" lon="4.33865">
        <ele>602</ele>
        <time>2020-05-30T20:14:28Z</time>
      </trkpt>
      <trkpt lat="45.79163" lon="4.3385">
        <ele>604</ele>
        <time>2020-05-30T20:14:33Z</time>
      </trkpt>
      <trkpt lat="45.79171" lon="4.33826">
        <ele>602</ele>
        <time>2020-05-30T20:14:36Z</time>
      </trkpt>
      <trkpt lat="45.79169" lon="4.3382">
        <ele>602</ele>
        <time>2020-05-30T20:14:37Z</time>
      </trkpt>
      <trkpt lat="45.79149" lon="4.33773">
        <ele>596</ele>
        <time>2020-05-30T20:14:44Z</time>
      </trkpt>
      <trkpt lat="45.79144" lon="4.33763">
        <ele>594</ele>
        <time>2020-05-30T20:14:46Z</time>
      </trkpt>
      <trkpt lat="45.79134" lon="4.33736">
        <ele>590</ele>
        <time>2020-05-30T20:14:49Z</time>
      </trkpt>
      <trkpt lat="45.79101" lon="4.33656">
        <ele>580</ele>
        <time>2020-05-30T20:15:01Z</time>
      </trkpt>
      <trkpt lat="45.79081" lon="4.33615">
        <ele>575</ele>
        <time>2020-05-30T20:15:07Z</time>
      </trkpt>
      <trkpt lat="45.79078" lon="4.33609">
        <ele>575</ele>
        <time>2020-05-30T20:15:08Z</time>
      </trkpt>
      <trkpt lat="45.79073" lon="4.33598">
        <ele>573</ele>
        <time>2020-05-30T20:15:10Z</time>
      </trkpt>
      <trkpt lat="45.79066" lon="4.33585">
        <ele>572</ele>
        <time>2020-05-30T20:15:12Z</time>
      </trkpt>
      <trkpt lat="45.79059" lon="4.33575">
        <ele>571</ele>
        <time>2020-05-30T20:15:13Z</time>
      </trkpt>
      <trkpt lat="45.7904" lon="4.33568">
        <ele>569</ele>
        <time>2020-05-30T20:15:17Z</time>
      </trkpt>
      <trkpt lat="45.79028" lon="4.33538">
        <ele>567</ele>
        <time>2020-05-30T20:15:21Z</time>
      </trkpt>
      <trkpt lat="45.79024" lon="4.33529">
        <ele>566</ele>
        <time>2020-05-30T20:15:23Z</time>
      </trkpt>
      <trkpt lat="45.79019" lon="4.3351">
        <ele>565</ele>
        <time>2020-05-30T20:15:25Z</time>
      </trkpt>
      <trkpt lat="45.79012" lon="4.33494">
        <ele>564</ele>
        <time>2020-05-30T20:15:27Z</time>
      </trkpt>
      <trkpt lat="45.79008" lon="4.33489">
        <ele>564</ele>
        <time>2020-05-30T20:15:28Z</time>
      </trkpt>
      <trkpt lat="45.79001" lon="4.33473">
        <ele>564</ele>
        <time>2020-05-30T20:15:31Z</time>
      </trkpt>
      <trkpt lat="45.78995" lon="4.33462">
        <ele>564</ele>
        <time>2020-05-30T20:15:32Z</time>
      </trkpt>
      <trkpt lat="45.78985" lon="4.33441">
        <ele>565</ele>
        <time>2020-05-30T20:15:36Z</time>
      </trkpt>
      <trkpt lat="45.78979" lon="4.33369">
        <ele>567</ele>
        <time>2020-05-30T20:15:45Z</time>
      </trkpt>
      <trkpt lat="45.78932" lon="4.33243">
        <ele>572</ele>
        <time>2020-05-30T20:16:02Z</time>
      </trkpt>
      <trkpt lat="45.78908" lon="4.33186">
        <ele>571</ele>
        <time>2020-05-30T20:16:11Z</time>
      </trkpt>
      <trkpt lat="45.78877" lon="4.33155">
        <ele>573</ele>
        <time>2020-05-30T20:16:17Z</time>
      </trkpt>
      <trkpt lat="45.78817" lon="4.33119">
        <ele>577</ele>
        <time>2020-05-30T20:16:29Z</time>
      </trkpt>
      <trkpt lat="45.78805" lon="4.33115">
        <ele>577</ele>
        <time>2020-05-30T20:16:31Z</time>
      </trkpt>
      <trkpt lat="45.78772" lon="4.33097">
        <ele>578</ele>
        <time>2020-05-30T20:16:37Z</time>
      </trkpt>
      <trkpt lat="45.78736" lon="4.33071">
        <ele>577</ele>
        <time>2020-05-30T20:16:45Z</time>
      </trkpt>
      <trkpt lat="45.78682" lon="4.33038">
        <ele>577</ele>
        <time>2020-05-30T20:16:55Z</time>
      </trkpt>
      <trkpt lat="45.7864" lon="4.33007">
        <ele>577</ele>
        <time>2020-05-30T20:17:03Z</time>
      </trkpt>
      <trkpt lat="45.7858" lon="4.3295">
        <ele>577</ele>
        <time>2020-05-30T20:17:16Z</time>
      </trkpt>
      <trkpt lat="45.78571" lon="4.32946">
        <ele>577</ele>
        <time>2020-05-30T20:17:18Z</time>
      </trkpt>
      <trkpt lat="45.78566" lon="4.32944">
        <ele>577</ele>
        <time>2020-05-30T20:17:19Z</time>
      </trkpt>
      <trkpt lat="45.78563" lon="4.32943">
        <ele>576</ele>
        <time>2020-05-30T20:17:19Z</time>
      </trkpt>
      <trkpt lat="45.7855" lon="4.32941">
        <ele>576</ele>
        <time>2020-05-30T20:17:22Z</time>
      </trkpt>
      <trkpt lat="45.78533" lon="4.32943">
        <ele>576</ele>
        <time>2020-05-30T20:17:25Z</time>
      </trkpt>
      <trkpt lat="45.785" lon="4.32957">
        <ele>577</ele>
        <time>2020-05-30T20:17:31Z</time>
      </trkpt>
      <trkpt lat="45.7841" lon="4.33024">
        <ele>580</ele>
        <time>2020-05-30T20:17:49Z</time>
      </trkpt>
      <trkpt lat="45.78381" lon="4.33046">
        <ele>579</ele>
        <time>2020-05-30T20:17:55Z</time>
      </trkpt>
      <trkpt lat="45.78378" lon="4.33047">
        <ele>579</ele>
        <time>2020-05-30T20:17:55Z</time>
      </trkpt>
      <trkpt lat="45.78366" lon="4.33053">
        <ele>579</ele>
        <time>2020-05-30T20:17:58Z</time>
      </trkpt>
      <trkpt lat="45.78334" lon="4.3306">
        <ele>576</ele>
        <time>2020-05-30T20:18:03Z</time>
      </trkpt>
      <trkpt lat="45.78314" lon="4.33058">
        <ele>577</ele>
        <time>2020-05-30T20:18:07Z</time>
      </trkpt>
      <trkpt lat="45.78285" lon="4.3304">
        <ele>578</ele>
        <time>2020-05-30T20:18:12Z</time>
      </trkpt>
      <trkpt lat="45.78267" lon="4.3301">
        <ele>579</ele>
        <time>2020-05-30T20:18:17Z</time>
      </trkpt>
      <trkpt lat="45.78256" lon="4.32984">
        <ele>579</ele>
        <time>2020-05-30T20:18:21Z</time>
      </trkpt>
      <trkpt lat="45.78248" lon="4.32949">
        <ele>578</ele>
        <time>2020-05-30T20:18:26Z</time>
      </trkpt>
      <trkpt lat="45.78222" lon="4.32764">
        <ele>574</ele>
        <time>2020-05-30T20:18:49Z</time>
      </trkpt>
      <trkpt lat="45.78213" lon="4.32698">
        <ele>574</ele>
        <time>2020-05-30T20:18:58Z</time>
      </trkpt>
      <trkpt lat="45.78203" lon="4.32643">
        <ele>572</ele>
        <time>2020-05-30T20:19:05Z</time>
      </trkpt>
      <trkpt lat="45.78178" lon="4.32585">
        <ele>572</ele>
        <time>2020-05-30T20:19:13Z</time>
      </trkpt>
      <trkpt lat="45.7815" lon="4.32547">
        <ele>572</ele>
        <time>2020-05-30T20:19:20Z</time>
      </trkpt>
      <trkpt lat="45.78148" lon="4.32545">
        <ele>572</ele>
        <time>2020-05-30T20:19:20Z</time>
      </trkpt>
      <trkpt lat="45.78133" lon="4.32525">
        <ele>572</ele>
        <time>2020-05-30T20:19:24Z</time>
      </trkpt>
      <trkpt lat="45.7809" lon="4.32494">
        <ele>573</ele>
        <time>2020-05-30T20:19:33Z</time>
      </trkpt>
      <trkpt lat="45.78048" lon="4.32477">
        <ele>573</ele>
        <time>2020-05-30T20:19:40Z</time>
      </trkpt>
      <trkpt lat="45.78017" lon="4.32462">
        <ele>572</ele>
        <time>2020-05-30T20:19:46Z</time>
      </trkpt>
      <trkpt lat="45.77986" lon="4.32435">
        <ele>572</ele>
        <time>2020-05-30T20:19:53Z</time>
      </trkpt>
      <trkpt lat="45.77929" lon="4.32369">
        <ele>570</ele>
        <time>2020-05-30T20:20:06Z</time>
      </trkpt>
      <trkpt lat="45.77803" lon="4.32214">
        <ele>563</ele>
        <time>2020-05-30T20:20:35Z</time>
      </trkpt>
      <trkpt lat="45.7768" lon="4.32064">
        <ele>558</ele>
        <time>2020-05-30T20:21:04Z</time>
      </trkpt>
      <trkpt lat="45.77654" lon="4.32041">
        <ele>557</ele>
        <time>2020-05-30T20:21:09Z</time>
      </trkpt>
      <trkpt lat="45.77618" lon="4.32023">
        <ele>555</ele>
        <time>2020-05-30T20:21:16Z</time>
      </trkpt>
      <trkpt lat="45.77586" lon="4.32024">
        <ele>556</ele>
        <time>2020-05-30T20:21:22Z</time>
      </trkpt>
      <trkpt lat="45.77545" lon="4.32045">
        <ele>554</ele>
        <time>2020-05-30T20:21:30Z</time>
      </trkpt>
      <trkpt lat="45.77492" lon="4.32109">
        <ele>553</ele>
        <time>2020-05-30T20:21:42Z</time>
      </trkpt>
      <trkpt lat="45.7747" lon="4.32129">
        <ele>554</ele>
        <time>2020-05-30T20:21:46Z</time>
      </trkpt>
      <trkpt lat="45.77426" lon="4.32144">
        <ele>554</ele>
        <time>2020-05-30T20:21:55Z</time>
      </trkpt>
      <trkpt lat="45.77399" lon="4.32136">
        <ele>555</ele>
        <time>2020-05-30T20:21:59Z</time>
      </trkpt>
      <trkpt lat="45.77376" lon="4.32112">
        <ele>555</ele>
        <time>2020-05-30T20:22:05Z</time>
      </trkpt>
      <trkpt lat="45.77361" lon="4.32067">
        <ele>553</ele>
        <time>2020-05-30T20:22:11Z</time>
      </trkpt>
      <trkpt lat="45.77352" lon="4.32019">
        <ele>551</ele>
        <time>2020-05-30T20:22:17Z</time>
      </trkpt>
      <trkpt lat="45.77331" lon="4.31957">
        <ele>551</ele>
        <time>2020-05-30T20:22:25Z</time>
      </trkpt>
      <trkpt lat="45.77312" lon="4.31924">
        <ele>549</ele>
        <time>2020-05-30T20:22:31Z</time>
      </trkpt>
      <trkpt lat="45.77146" lon="4.31841">
        <ele>547</ele>
        <time>2020-05-30T20:23:02Z</time>
      </trkpt>
      <trkpt lat="45.77122" lon="4.31834">
        <ele>547</ele>
        <time>2020-05-30T20:23:06Z</time>
      </trkpt>
      <trkpt lat="45.77065" lon="4.31828">
        <ele>547</ele>
        <time>2020-05-30T20:23:17Z</time>
      </trkpt>
      <trkpt lat="45.77034" lon="4.31817">
        <ele>547</ele>
        <time>2020-05-30T20:23:22Z</time>
      </trkpt>
      <trkpt lat="45.7701" lon="4.31794">
        <ele>547</ele>
        <time>2020-05-30T20:23:27Z</time>
      </trkpt>
      <trkpt lat="45.76991" lon="4.31765">
        <ele>546</ele>
        <time>2020-05-30T20:23:32Z</time>
      </trkpt>
      <trkpt lat="45.76971" lon="4.31712">
        <ele>546</ele>
        <time>2020-05-30T20:23:40Z</time>
      </trkpt>
      <trkpt lat="45.76962" lon="4.31691">
        <ele>545</ele>
        <time>2020-05-30T20:23:43Z</time>
      </trkpt>
      <trkpt lat="45.76956" lon="4.31678">
        <ele>545</ele>
        <time>2020-05-30T20:23:45Z</time>
      </trkpt>
      <trkpt lat="45.76935" lon="4.31637">
        <ele>545</ele>
        <time>2020-05-30T20:23:51Z</time>
      </trkpt>
      <trkpt lat="45.76909" lon="4.31614">
        <ele>545</ele>
        <time>2020-05-30T20:23:57Z</time>
      </trkpt>
      <trkpt lat="45.76881" lon="4.316">
        <ele>544</ele>
        <time>2020-05-30T20:24:02Z</time>
      </trkpt>
      <trkpt lat="45.76851" lon="4.31599">
        <ele>543</ele>
        <time>2020-05-30T20:24:07Z</time>
      </trkpt>
      <trkpt lat="45.76695" lon="4.31637">
        <ele>535</ele>
        <time>2020-05-30T20:24:35Z</time>
      </trkpt>
      <trkpt lat="45.76661" lon="4.31644">
        <ele>534</ele>
        <time>2020-05-30T20:24:41Z</time>
      </trkpt>
      <trkpt lat="45.76631" lon="4.31634">
        <ele>532</ele>
        <time>2020-05-30T20:24:47Z</time>
      </trkpt>
      <trkpt lat="45.76611" lon="4.31627">
        <ele>532</ele>
        <time>2020-05-30T20:24:51Z</time>
      </trkpt>
      <trkpt lat="45.76589" lon="4.31615">
        <ele>531</ele>
        <time>2020-05-30T20:24:55Z</time>
      </trkpt>
      <trkpt lat="45.76547" lon="4.31589">
        <ele>529</ele>
        <time>2020-05-30T20:25:03Z</time>
      </trkpt>
      <trkpt lat="45.76528" lon="4.31578">
        <ele>527</ele>
        <time>2020-05-30T20:25:07Z</time>
      </trkpt>
      <trkpt lat="45.76453" lon="4.31559">
        <ele>524</ele>
        <time>2020-05-30T20:25:20Z</time>
      </trkpt>
      <trkpt lat="45.76294" lon="4.31526">
        <ele>522</ele>
        <time>2020-05-30T20:25:49Z</time>
      </trkpt>
      <trkpt lat="45.76192" lon="4.31512">
        <ele>521</ele>
        <time>2020-05-30T20:26:07Z</time>
      </trkpt>
      <trkpt lat="45.76163" lon="4.3151">
        <ele>521</ele>
        <time>2020-05-30T20:26:12Z</time>
      </trkpt>
      <trkpt lat="45.76144" lon="4.31516">
        <ele>519</ele>
        <time>2020-05-30T20:26:16Z</time>
      </trkpt>
      <trkpt lat="45.76135" lon="4.31518">
        <ele>519</ele>
        <time>2020-05-30T20:26:17Z</time>
      </trkpt>
      <trkpt lat="45.76026" lon="4.31554">
        <ele>509</ele>
        <time>2020-05-30T20:26:37Z</time>
      </trkpt>
      <trkpt lat="45.7601" lon="4.31561">
        <ele>508</ele>
        <time>2020-05-30T20:26:40Z</time>
      </trkpt>
      <trkpt lat="45.75989" lon="4.31558">
        <ele>507</ele>
        <time>2020-05-30T20:26:44Z</time>
      </trkpt>
      <trkpt lat="45.75971" lon="4.31548">
        <ele>506</ele>
        <time>2020-05-30T20:26:47Z</time>
      </trkpt>
      <trkpt lat="45.75938" lon="4.31509">
        <ele>505</ele>
        <time>2020-05-30T20:26:55Z</time>
      </trkpt>
      <trkpt lat="45.7591" lon="4.31447">
        <ele>504</ele>
        <time>2020-05-30T20:27:04Z</time>
      </trkpt>
      <trkpt lat="45.75882" lon="4.31402">
        <ele>505</ele>
        <time>2020-05-30T20:27:11Z</time>
      </trkpt>
      <trkpt lat="45.7585" lon="4.31386">
        <ele>503</ele>
        <time>2020-05-30T20:27:17Z</time>
      </trkpt>
      <trkpt lat="45.75847" lon="4.31385">
        <ele>503</ele>
        <time>2020-05-30T20:27:18Z</time>
      </trkpt>
      <trkpt lat="45.75802" lon="4.31372">
        <ele>497</ele>
        <time>2020-05-30T20:27:26Z</time>
      </trkpt>
      <trkpt lat="45.7577" lon="4.31353">
        <ele>494</ele>
        <time>2020-05-30T20:27:32Z</time>
      </trkpt>
      <trkpt lat="45.75741" lon="4.31317">
        <ele>493</ele>
        <time>2020-05-30T20:27:39Z</time>
      </trkpt>
      <trkpt lat="45.75694" lon="4.31285">
        <ele>493</ele>
        <time>2020-05-30T20:27:48Z</time>
      </trkpt>
      <trkpt lat="45.75573" lon="4.31246">
        <ele>489</ele>
        <time>2020-05-30T20:28:11Z</time>
      </trkpt>
      <trkpt lat="45.75551" lon="4.31237">
        <ele>488</ele>
        <time>2020-05-30T20:28:15Z</time>
      </trkpt>
      <trkpt lat="45.7553" lon="4.31222">
        <ele>488</ele>
        <time>2020-05-30T20:28:19Z</time>
      </trkpt>
      <trkpt lat="45.75476" lon="4.3117">
        <ele>491</ele>
        <time>2020-05-30T20:28:30Z</time>
      </trkpt>
      <trkpt lat="45.75367" lon="4.31133">
        <ele>481</ele>
        <time>2020-05-30T20:28:50Z</time>
      </trkpt>
      <trkpt lat="45.75295" lon="4.31112">
        <ele>477</ele>
        <time>2020-05-30T20:29:03Z</time>
      </trkpt>
      <trkpt lat="45.75267" lon="4.31097">
        <ele>476</ele>
        <time>2020-05-30T20:29:09Z</time>
      </trkpt>
      <trkpt lat="45.75246" lon="4.31077">
        <ele>476</ele>
        <time>2020-05-30T20:29:13Z</time>
      </trkpt>
      <trkpt lat="45.75231" lon="4.31046">
        <ele>473</ele>
        <time>2020-05-30T20:29:18Z</time>
      </trkpt>
      <trkpt lat="45.75227" lon="4.31029">
        <ele>473</ele>
        <time>2020-05-30T20:29:20Z</time>
      </trkpt>
      <trkpt lat="45.75226" lon="4.31003">
        <ele>473</ele>
        <time>2020-05-30T20:29:23Z</time>
      </trkpt>
      <trkpt lat="45.75228" lon="4.3097">
        <ele>472</ele>
        <time>2020-05-30T20:29:27Z</time>
      </trkpt>
      <trkpt lat="45.75232" lon="4.3094">
        <ele>471</ele>
        <time>2020-05-30T20:29:31Z</time>
      </trkpt>
      <trkpt lat="45.75233" lon="4.30923">
        <ele>470</ele>
        <time>2020-05-30T20:29:33Z</time>
      </trkpt>
      <trkpt lat="45.75227" lon="4.30882">
        <ele>470</ele>
        <time>2020-05-30T20:29:39Z</time>
      </trkpt>
      <trkpt lat="45.75213" lon="4.30855">
        <ele>469</ele>
        <time>2020-05-30T20:29:43Z</time>
      </trkpt>
      <trkpt lat="45.75197" lon="4.3083">
        <ele>467</ele>
        <time>2020-05-30T20:29:47Z</time>
      </trkpt>
      <trkpt lat="45.7516" lon="4.30793">
        <ele>464</ele>
        <time>2020-05-30T20:29:55Z</time>
      </trkpt>
      <trkpt lat="45.75139" lon="4.30768">
        <ele>461</ele>
        <time>2020-05-30T20:30:00Z</time>
      </trkpt>
      <trkpt lat="45.75131" lon="4.30753">
        <ele>460</ele>
        <time>2020-05-30T20:30:02Z</time>
      </trkpt>
      <trkpt lat="45.75128" lon="4.30748">
        <ele>460</ele>
        <time>2020-05-30T20:30:03Z</time>
      </trkpt>
      <trkpt lat="45.75122" lon="4.30726">
        <ele>459</ele>
        <time>2020-05-30T20:30:06Z</time>
      </trkpt>
      <trkpt lat="45.75119" lon="4.30718">
        <ele>458</ele>
        <time>2020-05-30T20:30:07Z</time>
      </trkpt>
      <trkpt lat="45.75098" lon="4.30631">
        <ele>458</ele>
        <time>2020-05-30T20:30:18Z</time>
      </trkpt>
      <trkpt lat="45.75087" lon="4.30593">
        <ele>459</ele>
        <time>2020-05-30T20:30:24Z</time>
      </trkpt>
      <trkpt lat="45.75058" lon="4.3049">
        <ele>459</ele>
        <time>2020-05-30T20:30:37Z</time>
      </trkpt>
      <trkpt lat="45.75048" lon="4.30461">
        <ele>460</ele>
        <time>2020-05-30T20:30:41Z</time>
      </trkpt>
      <trkpt lat="45.75032" lon="4.30432">
        <ele>460</ele>
        <time>2020-05-30T20:30:46Z</time>
      </trkpt>
      <trkpt lat="45.74966" lon="4.30357">
        <ele>458</ele>
        <time>2020-05-30T20:31:01Z</time>
      </trkpt>
      <trkpt lat="45.74956" lon="4.30339">
        <ele>457</ele>
        <time>2020-05-30T20:31:04Z</time>
      </trkpt>
      <trkpt lat="45.74943" lon="4.30298">
        <ele>456</ele>
        <time>2020-05-30T20:31:09Z</time>
      </trkpt>
      <trkpt lat="45.7494" lon="4.30292">
        <ele>456</ele>
        <time>2020-05-30T20:31:10Z</time>
      </trkpt>
      <trkpt lat="45.74926" lon="4.30259">
        <ele>453</ele>
        <time>2020-05-30T20:31:15Z</time>
      </trkpt>
      <trkpt lat="45.74909" lon="4.30231">
        <ele>452</ele>
        <time>2020-05-30T20:31:20Z</time>
      </trkpt>
      <trkpt lat="45.74889" lon="4.30209">
        <ele>451</ele>
        <time>2020-05-30T20:31:24Z</time>
      </trkpt>
      <trkpt lat="45.74866" lon="4.30191">
        <ele>451</ele>
        <time>2020-05-30T20:31:29Z</time>
      </trkpt>
      <trkpt lat="45.74843" lon="4.30181">
        <ele>450</ele>
        <time>2020-05-30T20:31:33Z</time>
      </trkpt>
      <trkpt lat="45.74805" lon="4.3017">
        <ele>447</ele>
        <time>2020-05-30T20:31:40Z</time>
      </trkpt>
      <trkpt lat="45.74736" lon="4.30143">
        <ele>445</ele>
        <time>2020-05-30T20:31:53Z</time>
      </trkpt>
      <trkpt lat="45.74668" lon="4.30127">
        <ele>446</ele>
        <time>2020-05-30T20:32:05Z</time>
      </trkpt>
      <trkpt lat="45.74565" lon="4.30155">
        <ele>438</ele>
        <time>2020-05-30T20:32:24Z</time>
      </trkpt>
      <trkpt lat="45.74517" lon="4.3016">
        <ele>437</ele>
        <time>2020-05-30T20:32:32Z</time>
      </trkpt>
      <trkpt lat="45.74487" lon="4.30145">
        <ele>436</ele>
        <time>2020-05-30T20:32:38Z</time>
      </trkpt>
      <trkpt lat="45.74463" lon="4.30119">
        <ele>433</ele>
        <time>2020-05-30T20:32:43Z</time>
      </trkpt>
      <trkpt lat="45.74444" lon="4.30082">
        <ele>431</ele>
        <time>2020-05-30T20:32:49Z</time>
      </trkpt>
      <trkpt lat="45.74426" lon="4.30032">
        <ele>430</ele>
        <time>2020-05-30T20:32:56Z</time>
      </trkpt>
      <trkpt lat="45.74411" lon="4.29974">
        <ele>429</ele>
        <time>2020-05-30T20:33:04Z</time>
      </trkpt>
      <trkpt lat="45.74405" lon="4.29953">
        <ele>428</ele>
        <time>2020-05-30T20:33:06Z</time>
      </trkpt>
      <trkpt lat="45.74389" lon="4.29911">
        <ele>426</ele>
        <time>2020-05-30T20:33:12Z</time>
      </trkpt>
      <trkpt lat="45.74366" lon="4.29882">
        <ele>428</ele>
        <time>2020-05-30T20:33:18Z</time>
      </trkpt>
      <trkpt lat="45.74317" lon="4.29865">
        <ele>426</ele>
        <time>2020-05-30T20:33:27Z</time>
      </trkpt>
      <trkpt lat="45.74288" lon="4.29867">
        <ele>425</ele>
        <time>2020-05-30T20:33:32Z</time>
      </trkpt>
      <trkpt lat="45.74206" lon="4.29879">
        <ele>418</ele>
        <time>2020-05-30T20:33:47Z</time>
      </trkpt>
      <trkpt lat="45.74187" lon="4.2988">
        <ele>417</ele>
        <time>2020-05-30T20:33:50Z</time>
      </trkpt>
      <trkpt lat="45.74146" lon="4.29872">
        <ele>415</ele>
        <time>2020-05-30T20:33:57Z</time>
      </trkpt>
      <trkpt lat="45.74104" lon="4.29853">
        <ele>413</ele>
        <time>2020-05-30T20:34:05Z</time>
      </trkpt>
      <trkpt lat="45.74047" lon="4.29798">
        <ele>409</ele>
        <time>2020-05-30T20:34:17Z</time>
      </trkpt>
      <trkpt lat="45.74016" lon="4.29753">
        <ele>409</ele>
        <time>2020-05-30T20:34:25Z</time>
      </trkpt>
      <trkpt lat="45.73884" lon="4.29509">
        <ele>398</ele>
        <time>2020-05-30T20:35:04Z</time>
      </trkpt>
      <trkpt lat="45.73866" lon="4.29452">
        <ele>394</ele>
        <time>2020-05-30T20:35:11Z</time>
      </trkpt>
      <trkpt lat="45.7386" lon="4.29416">
        <ele>393</ele>
        <time>2020-05-30T20:35:16Z</time>
      </trkpt>
      <trkpt lat="45.73874" lon="4.29363">
        <ele>391</ele>
        <time>2020-05-30T20:35:23Z</time>
      </trkpt>
      <trkpt lat="45.73956" lon="4.29284">
        <ele>394</ele>
        <time>2020-05-30T20:35:41Z</time>
      </trkpt>
      <trkpt lat="45.73976" lon="4.29257">
        <ele>393</ele>
        <time>2020-05-30T20:35:45Z</time>
      </trkpt>
      <trkpt lat="45.73983" lon="4.29231">
        <ele>393</ele>
        <time>2020-05-30T20:35:49Z</time>
      </trkpt>
      <trkpt lat="45.73982" lon="4.29182">
        <ele>394</ele>
        <time>2020-05-30T20:35:55Z</time>
      </trkpt>
      <trkpt lat="45.73975" lon="4.29114">
        <ele>391</ele>
        <time>2020-05-30T20:36:04Z</time>
      </trkpt>
      <trkpt lat="45.73969" lon="4.29011">
        <ele>383</ele>
        <time>2020-05-30T20:36:16Z</time>
      </trkpt>
      <trkpt lat="45.73966" lon="4.28914">
        <ele>378</ele>
        <time>2020-05-30T20:36:28Z</time>
      </trkpt>
      <trkpt lat="45.73968" lon="4.28882">
        <ele>377</ele>
        <time>2020-05-30T20:36:32Z</time>
      </trkpt>
      <trkpt lat="45.73973" lon="4.28851">
        <ele>376</ele>
        <time>2020-05-30T20:36:36Z</time>
      </trkpt>
      <trkpt lat="45.73991" lon="4.28789">
        <ele>375</ele>
        <time>2020-05-30T20:36:45Z</time>
      </trkpt>
      <trkpt lat="45.74007" lon="4.28751">
        <ele>374</ele>
        <time>2020-05-30T20:36:50Z</time>
      </trkpt>
      <trkpt lat="45.7404" lon="4.28697">
        <ele>374</ele>
        <time>2020-05-30T20:36:59Z</time>
      </trkpt>
      <trkpt lat="45.74065" lon="4.28644">
        <ele>371</ele>
        <time>2020-05-30T20:37:07Z</time>
      </trkpt>
      <trkpt lat="45.74076" lon="4.28616">
        <ele>369</ele>
        <time>2020-05-30T20:37:11Z</time>
      </trkpt>
      <trkpt lat="45.74084" lon="4.28596">
        <ele>368</ele>
        <time>2020-05-30T20:37:14Z</time>
      </trkpt>
      <trkpt lat="45.74089" lon="4.28565">
        <ele>367</ele>
        <time>2020-05-30T20:37:18Z</time>
      </trkpt>
      <trkpt lat="45.741" lon="4.28474">
        <ele>364</ele>
        <time>2020-05-30T20:37:29Z</time>
      </trkpt>
      <trkpt lat="45.74111" lon="4.2838">
        <ele>360</ele>
        <time>2020-05-30T20:37:41Z</time>
      </trkpt>
      <trkpt lat="45.74135" lon="4.28203">
        <ele>357</ele>
        <time>2020-05-30T20:38:04Z</time>
      </trkpt>
      <trkpt lat="45.74142" lon="4.28158">
        <ele>356</ele>
        <time>2020-05-30T20:38:09Z</time>
      </trkpt>
      <trkpt lat="45.74142" lon="4.28155">
        <ele>356</ele>
        <time>2020-05-30T20:38:10Z</time>
      </trkpt>
      <trkpt lat="45.74167" lon="4.28064">
        <ele>354</ele>
        <time>2020-05-30T20:38:22Z</time>
      </trkpt>
      <trkpt lat="45.74213" lon="4.27936">
        <ele>355</ele>
        <time>2020-05-30T20:38:40Z</time>
      </trkpt>
      <trkpt lat="45.74238" lon="4.27838">
        <ele>355</ele>
        <time>2020-05-30T20:38:53Z</time>
      </trkpt>
      <trkpt lat="45.7425" lon="4.27789">
        <ele>353</ele>
        <time>2020-05-30T20:38:59Z</time>
      </trkpt>
      <trkpt lat="45.74266" lon="4.27746">
        <ele>352</ele>
        <time>2020-05-30T20:39:05Z</time>
      </trkpt>
      <trkpt lat="45.74276" lon="4.27721">
        <ele>353</ele>
        <time>2020-05-30T20:39:09Z</time>
      </trkpt>
      <trkpt lat="45.74281" lon="4.27705">
        <ele>353</ele>
        <time>2020-05-30T20:39:11Z</time>
      </trkpt>
      <trkpt lat="45.74317" lon="4.27616">
        <ele>351</ele>
        <time>2020-05-30T20:39:24Z</time>
      </trkpt>
      <trkpt lat="45.74334" lon="4.27558">
        <ele>350</ele>
        <time>2020-05-30T20:39:32Z</time>
      </trkpt>
      <trkpt lat="45.74343" lon="4.2751">
        <ele>349</ele>
        <time>2020-05-30T20:39:38Z</time>
      </trkpt>
      <trkpt lat="45.74344" lon="4.27502">
        <ele>349</ele>
        <time>2020-05-30T20:39:39Z</time>
      </trkpt>
      <trkpt lat="45.74348" lon="4.27476">
        <ele>349</ele>
        <time>2020-05-30T20:39:42Z</time>
      </trkpt>
      <trkpt lat="45.74349" lon="4.27426">
        <ele>349</ele>
        <time>2020-05-30T20:39:48Z</time>
      </trkpt>
      <trkpt lat="45.74348" lon="4.27395">
        <ele>349</ele>
        <time>2020-05-30T20:39:52Z</time>
      </trkpt>
      <trkpt lat="45.74343" lon="4.27334">
        <ele>348</ele>
        <time>2020-05-30T20:40:00Z</time>
      </trkpt>
      <trkpt lat="45.74337" lon="4.27304">
        <ele>349</ele>
        <time>2020-05-30T20:40:04Z</time>
      </trkpt>
      <trkpt lat="45.74319" lon="4.27245">
        <ele>350</ele>
        <time>2020-05-30T20:40:12Z</time>
      </trkpt>
      <trkpt lat="45.74299" lon="4.27197">
        <ele>350</ele>
        <time>2020-05-30T20:40:19Z</time>
      </trkpt>
      <trkpt lat="45.74208" lon="4.27012">
        <ele>355</ele>
        <time>2020-05-30T20:40:47Z</time>
      </trkpt>
      <trkpt lat="45.7419" lon="4.26976">
        <ele>356</ele>
        <time>2020-05-30T20:40:52Z</time>
      </trkpt>
      <trkpt lat="45.74163" lon="4.26916">
        <ele>356</ele>
        <time>2020-05-30T20:41:01Z</time>
      </trkpt>
      <trkpt lat="45.73986" lon="4.26408">
        <ele>356</ele>
        <time>2020-05-30T20:42:11Z</time>
      </trkpt>
      <trkpt lat="45.73935" lon="4.26269">
        <ele>356</ele>
        <time>2020-05-30T20:42:31Z</time>
      </trkpt>
      <trkpt lat="45.73921" lon="4.26236">
        <ele>356</ele>
        <time>2020-05-30T20:42:36Z</time>
      </trkpt>
      <trkpt lat="45.73899" lon="4.26211">
        <ele>355</ele>
        <time>2020-05-30T20:42:41Z</time>
      </trkpt>
      <trkpt lat="45.73889" lon="4.26205">
        <ele>355</ele>
        <time>2020-05-30T20:42:43Z</time>
      </trkpt>
      <trkpt lat="45.73874" lon="4.2619">
        <ele>354</ele>
        <time>2020-05-30T20:42:46Z</time>
      </trkpt>
      <trkpt lat="45.7385" lon="4.26174">
        <ele>354</ele>
        <time>2020-05-30T20:42:51Z</time>
      </trkpt>
      <trkpt lat="45.73845" lon="4.26167">
        <ele>354</ele>
        <time>2020-05-30T20:42:52Z</time>
      </trkpt>
      <trkpt lat="45.73844" lon="4.26159">
        <ele>354</ele>
        <time>2020-05-30T20:42:53Z</time>
      </trkpt>
      <trkpt lat="45.73844" lon="4.26149">
        <ele>354</ele>
        <time>2020-05-30T20:42:54Z</time>
      </trkpt>
      <trkpt lat="45.73858" lon="4.26086">
        <ele>354</ele>
        <time>2020-05-30T20:43:02Z</time>
      </trkpt>
      <trkpt lat="45.73873" lon="4.25999">
        <ele>353</ele>
        <time>2020-05-30T20:43:14Z</time>
      </trkpt>
      <trkpt lat="45.73984" lon="4.2552">
        <ele>351</ele>
        <time>2020-05-30T20:44:16Z</time>
      </trkpt>
      <trkpt lat="45.73982" lon="4.2552">
        <ele>351</ele>
        <time>2020-05-30T20:44:17Z</time>
      </trkpt>
      <trkpt lat="45.73984" lon="4.2552">
        <ele>351</ele>
        <time>2020-05-30T20:44:17Z</time>
      </trkpt>
      <trkpt lat="45.74015" lon="4.25385">
        <ele>351</ele>
        <time>2020-05-30T20:44:35Z</time>
      </trkpt>
      <trkpt lat="45.74041" lon="4.25246">
        <ele>351</ele>
        <time>2020-05-30T20:44:52Z</time>
      </trkpt>
      <trkpt lat="45.74062" lon="4.25079">
        <ele>351</ele>
        <time>2020-05-30T20:45:13Z</time>
      </trkpt>
      <trkpt lat="45.74096" lon="4.24768">
        <ele>351</ele>
        <time>2020-05-30T20:45:53Z</time>
      </trkpt>
      <trkpt lat="45.74105" lon="4.24693">
        <ele>349</ele>
        <time>2020-05-30T20:46:02Z</time>
      </trkpt>
      <trkpt lat="45.74127" lon="4.24569">
        <ele>347</ele>
        <time>2020-05-30T20:46:18Z</time>
      </trkpt>
      <trkpt lat="45.74147" lon="4.24459">
        <ele>347</ele>
        <time>2020-05-30T20:46:32Z</time>
      </trkpt>
      <trkpt lat="45.74172" lon="4.24322">
        <ele>348</ele>
        <time>2020-05-30T20:46:50Z</time>
      </trkpt>
      <trkpt lat="45.74179" lon="4.24283">
        <ele>348</ele>
        <time>2020-05-30T20:46:55Z</time>
      </trkpt>
      <trkpt lat="45.74193" lon="4.24215">
        <ele>346</ele>
        <time>2020-05-30T20:47:03Z</time>
      </trkpt>
      <trkpt lat="45.74208" lon="4.2414">
        <ele>345</ele>
        <time>2020-05-30T20:47:13Z</time>
      </trkpt>
      <trkpt lat="45.74209" lon="4.24124">
        <ele>345</ele>
        <time>2020-05-30T20:47:15Z</time>
      </trkpt>
      <trkpt lat="45.74209" lon="4.24107">
        <ele>345</ele>
        <time>2020-05-30T20:47:17Z</time>
      </trkpt>
      <trkpt lat="45.74209" lon="4.24072">
        <ele>345</ele>
        <time>2020-05-30T20:47:22Z</time>
      </trkpt>
      <trkpt lat="45.74216" lon="4.24072">
        <ele>345</ele>
        <time>2020-05-30T20:47:23Z</time>
      </trkpt>
      <trkpt lat="45.74221" lon="4.24071">
        <ele>345</ele>
        <time>2020-05-30T20:47:24Z</time>
      </trkpt>
      <trkpt lat="45.74226" lon="4.24067">
        <ele>345</ele>
        <time>2020-05-30T20:47:25Z</time>
      </trkpt>
      <trkpt lat="45.74229" lon="4.24058">
        <ele>345</ele>
        <time>2020-05-30T20:47:26Z</time>
      </trkpt>
      <trkpt lat="45.74245" lon="4.23992">
        <ele>347</ele>
        <time>2020-05-30T20:47:35Z</time>
      </trkpt>
      <trkpt lat="45.74284" lon="4.23832">
        <ele>347</ele>
        <time>2020-05-30T20:47:56Z</time>
      </trkpt>
      <trkpt lat="45.74285" lon="4.23826">
        <ele>347</ele>
        <time>2020-05-30T20:47:56Z</time>
      </trkpt>
      <trkpt lat="45.74304" lon="4.23742">
        <ele>346</ele>
        <time>2020-05-30T20:48:07Z</time>
      </trkpt>
      <trkpt lat="45.74325" lon="4.23657">
        <ele>346</ele>
        <time>2020-05-30T20:48:19Z</time>
      </trkpt>
      <trkpt lat="45.74346" lon="4.23569">
        <ele>345</ele>
        <time>2020-05-30T20:48:30Z</time>
      </trkpt>
      <trkpt lat="45.74367" lon="4.23484">
        <ele>345</ele>
        <time>2020-05-30T20:48:41Z</time>
      </trkpt>
      <trkpt lat="45.74371" lon="4.23466">
        <ele>345</ele>
        <time>2020-05-30T20:48:44Z</time>
      </trkpt>
      <trkpt lat="45.74387" lon="4.23403">
        <ele>345</ele>
        <time>2020-05-30T20:48:52Z</time>
      </trkpt>
      <trkpt lat="45.74416" lon="4.23281">
        <ele>346</ele>
        <time>2020-05-30T20:49:08Z</time>
      </trkpt>
      <trkpt lat="45.74421" lon="4.23263">
        <ele>346</ele>
        <time>2020-05-30T20:49:10Z</time>
      </trkpt>
      <trkpt lat="45.74427" lon="4.23238">
        <ele>346</ele>
        <time>2020-05-30T20:49:14Z</time>
      </trkpt>
      <trkpt lat="45.74435" lon="4.23167">
        <ele>347</ele>
        <time>2020-05-30T20:49:23Z</time>
      </trkpt>
      <trkpt lat="45.74434" lon="4.231">
        <ele>345</ele>
        <time>2020-05-30T20:49:31Z</time>
      </trkpt>
      <trkpt lat="45.74433" lon="4.23094">
        <ele>345</ele>
        <time>2020-05-30T20:49:32Z</time>
      </trkpt>
      <trkpt lat="45.74431" lon="4.23079">
        <ele>345</ele>
        <time>2020-05-30T20:49:34Z</time>
      </trkpt>
      <trkpt lat="45.74431" lon="4.23075">
        <ele>345</ele>
        <time>2020-05-30T20:49:34Z</time>
      </trkpt>
      <trkpt lat="45.74427" lon="4.23043">
        <ele>344</ele>
        <time>2020-05-30T20:49:38Z</time>
      </trkpt>
      <trkpt lat="45.74425" lon="4.23029">
        <ele>344</ele>
        <time>2020-05-30T20:49:40Z</time>
      </trkpt>
      <trkpt lat="45.7442" lon="4.22981">
        <ele>343</ele>
        <time>2020-05-30T20:49:46Z</time>
      </trkpt>
      <trkpt lat="45.74417" lon="4.22936">
        <ele>343</ele>
        <time>2020-05-30T20:49:52Z</time>
      </trkpt>
      <trkpt lat="45.74407" lon="4.2284">
        <ele>343</ele>
        <time>2020-05-30T20:50:04Z</time>
      </trkpt>
      <trkpt lat="45.74406" lon="4.22828">
        <ele>343</ele>
        <time>2020-05-30T20:50:05Z</time>
      </trkpt>
      <trkpt lat="45.74405" lon="4.2282">
        <ele>343</ele>
        <time>2020-05-30T20:50:06Z</time>
      </trkpt>
      <trkpt lat="45.74392" lon="4.22678">
        <ele>344</ele>
        <time>2020-05-30T20:50:24Z</time>
      </trkpt>
      <trkpt lat="45.74386" lon="4.22617">
        <ele>344</ele>
        <time>2020-05-30T20:50:32Z</time>
      </trkpt>
      <trkpt lat="45.74385" lon="4.22608">
        <ele>344</ele>
        <time>2020-05-30T20:50:33Z</time>
      </trkpt>
      <trkpt lat="45.74391" lon="4.22602">
        <ele>344</ele>
        <time>2020-05-30T20:50:34Z</time>
      </trkpt>
      <trkpt lat="45.74392" lon="4.22596">
        <ele>344</ele>
        <time>2020-05-30T20:50:35Z</time>
      </trkpt>
      <trkpt lat="45.74388" lon="4.22586">
        <ele>344</ele>
        <time>2020-05-30T20:50:36Z</time>
      </trkpt>
      <trkpt lat="45.74383" lon="4.22584">
        <ele>344</ele>
        <time>2020-05-30T20:50:37Z</time>
      </trkpt>
      <trkpt lat="45.74344" lon="4.22197">
        <ele>343</ele>
        <time>2020-05-30T20:51:26Z</time>
      </trkpt>
      <trkpt lat="45.74342" lon="4.22167">
        <ele>342</ele>
        <time>2020-05-30T20:51:29Z</time>
      </trkpt>
      <trkpt lat="45.74347" lon="4.22161">
        <ele>342</ele>
        <time>2020-05-30T20:51:31Z</time>
      </trkpt>
      <trkpt lat="45.74348" lon="4.22155">
        <ele>342</ele>
        <time>2020-05-30T20:51:31Z</time>
      </trkpt>
      <trkpt lat="45.74347" lon="4.22148">
        <ele>342</ele>
        <time>2020-05-30T20:51:32Z</time>
      </trkpt>
      <trkpt lat="45.7434" lon="4.22142">
        <ele>341</ele>
        <time>2020-05-30T20:51:34Z</time>
      </trkpt>
      <trkpt lat="45.74337" lon="4.22126">
        <ele>341</ele>
        <time>2020-05-30T20:51:36Z</time>
      </trkpt>
      <trkpt lat="45.74318" lon="4.2193">
        <ele>336</ele>
        <time>2020-05-30T20:52:00Z</time>
      </trkpt>
      <trkpt lat="45.74316" lon="4.21904">
        <ele>336</ele>
        <time>2020-05-30T20:52:04Z</time>
      </trkpt>
      <trkpt lat="45.74312" lon="4.2185">
        <ele>336</ele>
        <time>2020-05-30T20:52:10Z</time>
      </trkpt>
      <trkpt lat="45.7431" lon="4.21839">
        <ele>336</ele>
        <time>2020-05-30T20:52:12Z</time>
      </trkpt>
      <trkpt lat="45.74298" lon="4.21715">
        <ele>335</ele>
        <time>2020-05-30T20:52:27Z</time>
      </trkpt>
      <trkpt lat="45.74288" lon="4.21622">
        <ele>332</ele>
        <time>2020-05-30T20:52:39Z</time>
      </trkpt>
      <trkpt lat="45.74283" lon="4.21579">
        <ele>330</ele>
        <time>2020-05-30T20:52:44Z</time>
      </trkpt>
      <trkpt lat="45.7428" lon="4.21542">
        <ele>329</ele>
        <time>2020-05-30T20:52:49Z</time>
      </trkpt>
      <trkpt lat="45.74259" lon="4.21327">
        <ele>330</ele>
        <time>2020-05-30T20:53:16Z</time>
      </trkpt>
      <trkpt lat="45.7423" lon="4.21039">
        <ele>327</ele>
        <time>2020-05-30T20:53:52Z</time>
      </trkpt>
      <trkpt lat="45.74229" lon="4.21003">
        <ele>327</ele>
        <time>2020-05-30T20:53:57Z</time>
      </trkpt>
      <trkpt lat="45.74232" lon="4.20967">
        <ele>327</ele>
        <time>2020-05-30T20:54:01Z</time>
      </trkpt>
      <trkpt lat="45.74256" lon="4.20871">
        <ele>328</ele>
        <time>2020-05-30T20:54:14Z</time>
      </trkpt>
      <trkpt lat="45.7428" lon="4.20749">
        <ele>330</ele>
        <time>2020-05-30T20:54:29Z</time>
      </trkpt>
      <trkpt lat="45.74284" lon="4.20711">
        <ele>329</ele>
        <time>2020-05-30T20:54:34Z</time>
      </trkpt>
      <trkpt lat="45.74288" lon="4.20626">
        <ele>328</ele>
        <time>2020-05-30T20:54:45Z</time>
      </trkpt>
      <trkpt lat="45.74252" lon="4.2043">
        <ele>328</ele>
        <time>2020-05-30T20:55:10Z</time>
      </trkpt>
      <trkpt lat="45.74217" lon="4.20262">
        <ele>329</ele>
        <time>2020-05-30T20:55:32Z</time>
      </trkpt>
      <trkpt lat="45.7416" lon="4.19978">
        <ele>328</ele>
        <time>2020-05-30T20:56:08Z</time>
      </trkpt>
      <trkpt lat="45.74057" lon="4.19476">
        <ele>326</ele>
        <time>2020-05-30T20:57:13Z</time>
      </trkpt>
      <trkpt lat="45.74011" lon="4.19276">
        <ele>325</ele>
        <time>2020-05-30T20:57:40Z</time>
      </trkpt>
      <trkpt lat="45.73997" lon="4.19196">
        <ele>326</ele>
        <time>2020-05-30T20:57:50Z</time>
      </trkpt>
      <trkpt lat="45.73991" lon="4.19171">
        <ele>326</ele>
        <time>2020-05-30T20:57:53Z</time>
      </trkpt>
      <trkpt lat="45.73955" lon="4.18972">
        <ele>325</ele>
        <time>2020-05-30T20:58:19Z</time>
      </trkpt>
      <trkpt lat="45.73928" lon="4.18805">
        <ele>328</ele>
        <time>2020-05-30T20:58:40Z</time>
      </trkpt>
      <trkpt lat="45.73912" lon="4.18745">
        <ele>329</ele>
        <time>2020-05-30T20:58:48Z</time>
      </trkpt>
      <trkpt lat="45.73915" lon="4.18729">
        <ele>329</ele>
        <time>2020-05-30T20:58:50Z</time>
      </trkpt>
      <trkpt lat="45.7391" lon="4.18714">
        <ele>329</ele>
        <time>2020-05-30T20:58:52Z</time>
      </trkpt>
      <trkpt lat="45.73906" lon="4.18708">
        <ele>329</ele>
        <time>2020-05-30T20:58:53Z</time>
      </trkpt>
      <trkpt lat="45.73902" lon="4.18637">
        <ele>331</ele>
        <time>2020-05-30T20:59:02Z</time>
      </trkpt>
      <trkpt lat="45.73891" lon="4.18561">
        <ele>333</ele>
        <time>2020-05-30T20:59:12Z</time>
      </trkpt>
      <trkpt lat="45.73871" lon="4.18447">
        <ele>336</ele>
        <time>2020-05-30T20:59:26Z</time>
      </trkpt>
      <trkpt lat="45.73832" lon="4.18193">
        <ele>336</ele>
        <time>2020-05-30T20:59:58Z</time>
      </trkpt>
      <trkpt lat="45.7382" lon="4.18119">
        <ele>336</ele>
        <time>2020-05-30T21:00:08Z</time>
      </trkpt>
      <trkpt lat="45.73804" lon="4.17997">
        <ele>335</ele>
        <time>2020-05-30T21:00:23Z</time>
      </trkpt>
      <trkpt lat="45.73792" lon="4.17928">
        <ele>333</ele>
        <time>2020-05-30T21:00:32Z</time>
      </trkpt>
      <trkpt lat="45.73785" lon="4.1787">
        <ele>333</ele>
        <time>2020-05-30T21:00:39Z</time>
      </trkpt>
      <trkpt lat="45.73776" lon="4.17858">
        <ele>333</ele>
        <time>2020-05-30T21:00:42Z</time>
      </trkpt>
      <trkpt lat="45.73772" lon="4.17851">
        <ele>334</ele>
        <time>2020-05-30T21:00:43Z</time>
      </trkpt>
      <trkpt lat="45.7376" lon="4.17847">
        <ele>334</ele>
        <time>2020-05-30T21:00:45Z</time>
      </trkpt>
      <trkpt lat="45.73748" lon="4.17857">
        <ele>335</ele>
        <time>2020-05-30T21:00:47Z</time>
      </trkpt>
      <trkpt lat="45.73732" lon="4.17866">
        <ele>335</ele>
        <time>2020-05-30T21:00:50Z</time>
      </trkpt>
      <trkpt lat="45.73654" lon="4.17884">
        <ele>336</ele>
        <time>2020-05-30T21:01:04Z</time>
      </trkpt>
      <trkpt lat="45.73614" lon="4.17879">
        <ele>337</ele>
        <time>2020-05-30T21:01:12Z</time>
      </trkpt>
      <trkpt lat="45.73586" lon="4.17867">
        <ele>337</ele>
        <time>2020-05-30T21:01:17Z</time>
      </trkpt>
      <trkpt lat="45.7356" lon="4.17843">
        <ele>337</ele>
        <time>2020-05-30T21:01:22Z</time>
      </trkpt>
      <trkpt lat="45.73524" lon="4.17786">
        <ele>338</ele>
        <time>2020-05-30T21:01:32Z</time>
      </trkpt>
      <trkpt lat="45.73489" lon="4.17724">
        <ele>339</ele>
        <time>2020-05-30T21:01:42Z</time>
      </trkpt>
      <trkpt lat="45.73422" lon="4.17618">
        <ele>339</ele>
        <time>2020-05-30T21:02:00Z</time>
      </trkpt>
      <trkpt lat="45.73384" lon="4.17564">
        <ele>339</ele>
        <time>2020-05-30T21:02:09Z</time>
      </trkpt>
      <trkpt lat="45.73354" lon="4.17533">
        <ele>341</ele>
        <time>2020-05-30T21:02:16Z</time>
      </trkpt>
      <trkpt lat="45.73352" lon="4.1753">
        <ele>341</ele>
        <time>2020-05-30T21:02:16Z</time>
      </trkpt>
      <trkpt lat="45.73303" lon="4.1748">
        <ele>343</ele>
        <time>2020-05-30T21:02:27Z</time>
      </trkpt>
      <trkpt lat="45.73279" lon="4.17448">
        <ele>344</ele>
        <time>2020-05-30T21:02:33Z</time>
      </trkpt>
      <trkpt lat="45.73233" lon="4.17386">
        <ele>346</ele>
        <time>2020-05-30T21:02:44Z</time>
      </trkpt>
      <trkpt lat="45.73242" lon="4.17355">
        <ele>346</ele>
        <time>2020-05-30T21:02:48Z</time>
      </trkpt>
      <trkpt lat="45.73241" lon="4.17341">
        <ele>346</ele>
        <time>2020-05-30T21:02:50Z</time>
      </trkpt>
      <trkpt lat="45.73236" lon="4.17316">
        <ele>347</ele>
        <time>2020-05-30T21:02:53Z</time>
      </trkpt>
      <trkpt lat="45.73222" lon="4.17265">
        <ele>348</ele>
        <time>2020-05-30T21:03:00Z</time>
      </trkpt>
      <trkpt lat="45.73172" lon="4.17126">
        <ele>348</ele>
        <time>2020-05-30T21:03:19Z</time>
      </trkpt>
      <trkpt lat="45.73144" lon="4.1709">
        <ele>349</ele>
        <time>2020-05-30T21:03:26Z</time>
      </trkpt>
      <trkpt lat="45.73106" lon="4.17059">
        <ele>350</ele>
        <time>2020-05-30T21:03:34Z</time>
      </trkpt>
      <trkpt lat="45.73052" lon="4.17014">
        <ele>351</ele>
        <time>2020-05-30T21:03:45Z</time>
      </trkpt>
      <trkpt lat="45.72995" lon="4.16966">
        <ele>351</ele>
        <time>2020-05-30T21:03:57Z</time>
      </trkpt>
      <trkpt lat="45.72986" lon="4.16953">
        <ele>350</ele>
        <time>2020-05-30T21:03:59Z</time>
      </trkpt>
      <trkpt lat="45.72975" lon="4.16928">
        <ele>350</ele>
        <time>2020-05-30T21:04:03Z</time>
      </trkpt>
      <trkpt lat="45.72969" lon="4.16897">
        <ele>350</ele>
        <time>2020-05-30T21:04:07Z</time>
      </trkpt>
      <trkpt lat="45.72968" lon="4.16805">
        <ele>350</ele>
        <time>2020-05-30T21:04:18Z</time>
      </trkpt>
      <trkpt lat="45.72964" lon="4.16772">
        <ele>350</ele>
        <time>2020-05-30T21:04:22Z</time>
      </trkpt>
      <trkpt lat="45.72953" lon="4.16745">
        <ele>350</ele>
        <time>2020-05-30T21:04:26Z</time>
      </trkpt>
      <trkpt lat="45.72863" lon="4.16592">
        <ele>349</ele>
        <time>2020-05-30T21:04:51Z</time>
      </trkpt>
      <trkpt lat="45.72836" lon="4.16546">
        <ele>351</ele>
        <time>2020-05-30T21:04:58Z</time>
      </trkpt>
      <trkpt lat="45.72825" lon="4.16528">
        <ele>351</ele>
        <time>2020-05-30T21:05:01Z</time>
      </trkpt>
      <trkpt lat="45.72751" lon="4.16447">
        <ele>349</ele>
        <time>2020-05-30T21:05:18Z</time>
      </trkpt>
      <trkpt lat="45.72745" lon="4.16421">
        <ele>348</ele>
        <time>2020-05-30T21:05:21Z</time>
      </trkpt>
      <trkpt lat="45.72753" lon="4.16299">
        <ele>343</ele>
        <time>2020-05-30T21:05:37Z</time>
      </trkpt>
      <trkpt lat="45.72758" lon="4.16263">
        <ele>343</ele>
        <time>2020-05-30T21:05:41Z</time>
      </trkpt>
      <trkpt lat="45.72758" lon="4.16254">
        <ele>343</ele>
        <time>2020-05-30T21:05:42Z</time>
      </trkpt>
      <trkpt lat="45.7271" lon="4.16105">
        <ele>344</ele>
        <time>2020-05-30T21:06:03Z</time>
      </trkpt>
      <trkpt lat="45.72709" lon="4.16102">
        <ele>344</ele>
        <time>2020-05-30T21:06:03Z</time>
      </trkpt>
      <trkpt lat="45.72645" lon="4.15999">
        <ele>343</ele>
        <time>2020-05-30T21:06:20Z</time>
      </trkpt>
      <trkpt lat="45.72511" lon="4.15931">
        <ele>346</ele>
        <time>2020-05-30T21:06:45Z</time>
      </trkpt>
      <trkpt lat="45.72506" lon="4.15929">
        <ele>346</ele>
        <time>2020-05-30T21:06:46Z</time>
      </trkpt>
      <trkpt lat="45.72465" lon="4.15907">
        <ele>348</ele>
        <time>2020-05-30T21:06:54Z</time>
      </trkpt>
      <trkpt lat="45.72387" lon="4.15847">
        <ele>352</ele>
        <time>2020-05-30T21:07:10Z</time>
      </trkpt>
      <trkpt lat="45.72351" lon="4.15816">
        <ele>352</ele>
        <time>2020-05-30T21:07:17Z</time>
      </trkpt>
      <trkpt lat="45.72318" lon="4.15781">
        <ele>353</ele>
        <time>2020-05-30T21:07:25Z</time>
      </trkpt>
      <trkpt lat="45.72151" lon="4.15544">
        <ele>354</ele>
        <time>2020-05-30T21:08:07Z</time>
      </trkpt>
      <trkpt lat="45.72116" lon="4.15498">
        <ele>354</ele>
        <time>2020-05-30T21:08:15Z</time>
      </trkpt>
      <trkpt lat="45.72059" lon="4.15429">
        <ele>354</ele>
        <time>2020-05-30T21:08:28Z</time>
      </trkpt>
      <trkpt lat="45.72051" lon="4.1542">
        <ele>354</ele>
        <time>2020-05-30T21:08:30Z</time>
      </trkpt>
      <trkpt lat="45.72045" lon="4.15414">
        <ele>354</ele>
        <time>2020-05-30T21:08:31Z</time>
      </trkpt>
      <trkpt lat="45.71992" lon="4.15354">
        <ele>353</ele>
        <time>2020-05-30T21:08:43Z</time>
      </trkpt>
      <trkpt lat="45.71924" lon="4.15294">
        <ele>352</ele>
        <time>2020-05-30T21:08:58Z</time>
      </trkpt>
      <trkpt lat="45.71883" lon="4.15264">
        <ele>351</ele>
        <time>2020-05-30T21:09:06Z</time>
      </trkpt>
      <trkpt lat="45.71873" lon="4.15257">
        <ele>351</ele>
        <time>2020-05-30T21:09:08Z</time>
      </trkpt>
      <trkpt lat="45.71866" lon="4.15252">
        <ele>351</ele>
        <time>2020-05-30T21:09:09Z</time>
      </trkpt>
      <trkpt lat="45.7185" lon="4.15239">
        <ele>351</ele>
        <time>2020-05-30T21:09:12Z</time>
      </trkpt>
      <trkpt lat="45.71817" lon="4.15198">
        <ele>351</ele>
        <time>2020-05-30T21:09:20Z</time>
      </trkpt>
      <trkpt lat="45.71785" lon="4.15153">
        <ele>351</ele>
        <time>2020-05-30T21:09:28Z</time>
      </trkpt>
      <trkpt lat="45.71635" lon="4.14942">
        <ele>351</ele>
        <time>2020-05-30T21:10:06Z</time>
      </trkpt>
      <trkpt lat="45.71588" lon="4.14903">
        <ele>352</ele>
        <time>2020-05-30T21:10:15Z</time>
      </trkpt>
      <trkpt lat="45.71413" lon="4.14754">
        <ele>351</ele>
        <time>2020-05-30T21:10:51Z</time>
      </trkpt>
      <trkpt lat="45.71403" lon="4.14744">
        <ele>352</ele>
        <time>2020-05-30T21:10:54Z</time>
      </trkpt>
      <trkpt lat="45.71331" lon="4.14666">
        <ele>353</ele>
        <time>2020-05-30T21:11:10Z</time>
      </trkpt>
      <trkpt lat="45.71221" lon="4.14548">
        <ele>358</ele>
        <time>2020-05-30T21:11:34Z</time>
      </trkpt>
      <trkpt lat="45.71196" lon="4.14532">
        <ele>359</ele>
        <time>2020-05-30T21:11:39Z</time>
      </trkpt>
      <trkpt lat="45.71039" lon="4.14434">
        <ele>357</ele>
        <time>2020-05-30T21:12:10Z</time>
      </trkpt>
      <trkpt lat="45.70879" lon="4.14282">
        <ele>350</ele>
        <time>2020-05-30T21:12:44Z</time>
      </trkpt>
      <trkpt lat="45.70725" lon="4.13904">
        <ele>344</ele>
        <time>2020-05-30T21:13:38Z</time>
      </trkpt>
      <trkpt lat="45.70719" lon="4.13888">
        <ele>344</ele>
        <time>2020-05-30T21:13:40Z</time>
      </trkpt>
      <trkpt lat="45.70631" lon="4.13458">
        <ele>346</ele>
        <time>2020-05-30T21:14:36Z</time>
      </trkpt>
      <trkpt lat="45.70629" lon="4.1345">
        <ele>345</ele>
        <time>2020-05-30T21:14:37Z</time>
      </trkpt>
      <trkpt lat="45.70515" lon="4.13326">
        <ele>347</ele>
        <time>2020-05-30T21:15:03Z</time>
      </trkpt>
      <trkpt lat="45.70413" lon="4.13258">
        <ele>351</ele>
        <time>2020-05-30T21:15:23Z</time>
      </trkpt>
      <trkpt lat="45.70284" lon="4.13123">
        <ele>348</ele>
        <time>2020-05-30T21:15:51Z</time>
      </trkpt>
      <trkpt lat="45.70185" lon="4.1307">
        <ele>347</ele>
        <time>2020-05-30T21:16:10Z</time>
      </trkpt>
      <trkpt lat="45.70071" lon="4.13046">
        <ele>346</ele>
        <time>2020-05-30T21:16:30Z</time>
      </trkpt>
      <trkpt lat="45.69877" lon="4.12916">
        <ele>346</ele>
        <time>2020-05-30T21:17:08Z</time>
      </trkpt>
      <trkpt lat="45.69645" lon="4.12639">
        <ele>345</ele>
        <time>2020-05-30T21:18:02Z</time>
      </trkpt>
      <trkpt lat="45.69303" lon="4.12503">
        <ele>344</ele>
        <time>2020-05-30T21:19:05Z</time>
      </trkpt>
      <trkpt lat="45.69179" lon="4.12481">
        <ele>343</ele>
        <time>2020-05-30T21:19:28Z</time>
      </trkpt>
      <trkpt lat="45.6888" lon="4.12537">
        <ele>344</ele>
        <time>2020-05-30T21:20:21Z</time>
      </trkpt>
      <trkpt lat="45.68569" lon="4.12546">
        <ele>347</ele>
        <time>2020-05-30T21:21:17Z</time>
      </trkpt>
      <trkpt lat="45.68356" lon="4.12484">
        <ele>348</ele>
        <time>2020-05-30T21:21:55Z</time>
      </trkpt>
      <trkpt lat="45.68234" lon="4.12434">
        <ele>350</ele>
        <time>2020-05-30T21:22:18Z</time>
      </trkpt>
      <trkpt lat="45.68144" lon="4.12426">
        <ele>351</ele>
        <time>2020-05-30T21:22:34Z</time>
      </trkpt>
      <trkpt lat="45.68136" lon="4.12426">
        <ele>351</ele>
        <time>2020-05-30T21:22:35Z</time>
      </trkpt>
      <trkpt lat="45.68085" lon="4.12454">
        <ele>350</ele>
        <time>2020-05-30T21:22:45Z</time>
      </trkpt>
      <trkpt lat="45.68036" lon="4.12486">
        <ele>350</ele>
        <time>2020-05-30T21:22:55Z</time>
      </trkpt>
      <trkpt lat="45.68031" lon="4.12488">
        <ele>350</ele>
        <time>2020-05-30T21:22:55Z</time>
      </trkpt>
      <trkpt lat="45.68027" lon="4.12481">
        <ele>350</ele>
        <time>2020-05-30T21:22:57Z</time>
      </trkpt>
      <trkpt lat="45.68019" lon="4.12469">
        <ele>350</ele>
        <time>2020-05-30T21:22:59Z</time>
      </trkpt>
      <trkpt lat="45.67968" lon="4.12456">
        <ele>351</ele>
        <time>2020-05-30T21:23:08Z</time>
      </trkpt>
      <trkpt lat="45.67928" lon="4.12443">
        <ele>352</ele>
        <time>2020-05-30T21:23:15Z</time>
      </trkpt>
      <trkpt lat="45.67908" lon="4.12432">
        <ele>352</ele>
        <time>2020-05-30T21:23:19Z</time>
      </trkpt>
      <trkpt lat="45.67893" lon="4.12431">
        <ele>352</ele>
        <time>2020-05-30T21:23:22Z</time>
      </trkpt>
      <trkpt lat="45.67883" lon="4.12432">
        <ele>352</ele>
        <time>2020-05-30T21:23:23Z</time>
      </trkpt>
      <trkpt lat="45.67875" lon="4.12433">
        <ele>352</ele>
        <time>2020-05-30T21:23:25Z</time>
      </trkpt>
      <trkpt lat="45.67866" lon="4.12431">
        <ele>352</ele>
        <time>2020-05-30T21:23:26Z</time>
      </trkpt>
      <trkpt lat="45.67778" lon="4.12387">
        <ele>351</ele>
        <time>2020-05-30T21:23:43Z</time>
      </trkpt>
      <trkpt lat="45.67768" lon="4.12384">
        <ele>351</ele>
        <time>2020-05-30T21:23:45Z</time>
      </trkpt>
      <trkpt lat="45.677" lon="4.12366">
        <ele>351</ele>
        <time>2020-05-30T21:23:57Z</time>
      </trkpt>
      <trkpt lat="45.6768" lon="4.12363">
        <ele>351</ele>
        <time>2020-05-30T21:24:01Z</time>
      </trkpt>
      <trkpt lat="45.67642" lon="4.12356">
        <ele>352</ele>
        <time>2020-05-30T21:24:08Z</time>
      </trkpt>
      <trkpt lat="45.67628" lon="4.12354">
        <ele>351</ele>
        <time>2020-05-30T21:24:10Z</time>
      </trkpt>
      <trkpt lat="45.67613" lon="4.12351">
        <ele>351</ele>
        <time>2020-05-30T21:24:13Z</time>
      </trkpt>
      <trkpt lat="45.67586" lon="4.12342">
        <ele>351</ele>
        <time>2020-05-30T21:24:18Z</time>
      </trkpt>
      <trkpt lat="45.67582" lon="4.1234">
        <ele>351</ele>
        <time>2020-05-30T21:24:18Z</time>
      </trkpt>
      <trkpt lat="45.6729" lon="4.12214">
        <ele>354</ele>
        <time>2020-05-30T21:25:13Z</time>
      </trkpt>
      <trkpt lat="45.66973" lon="4.12078">
        <ele>355</ele>
        <time>2020-05-30T21:26:12Z</time>
      </trkpt>
      <trkpt lat="45.66393" lon="4.11824">
        <ele>356</ele>
        <time>2020-05-30T21:28:00Z</time>
      </trkpt>
      <trkpt lat="45.65907" lon="4.11614">
        <ele>358</ele>
        <time>2020-05-30T21:29:30Z</time>
      </trkpt>
      <trkpt lat="45.65886" lon="4.11601">
        <ele>359</ele>
        <time>2020-05-30T21:29:34Z</time>
      </trkpt>
      <trkpt lat="45.6588" lon="4.11595">
        <ele>359</ele>
        <time>2020-05-30T21:29:35Z</time>
      </trkpt>
      <trkpt lat="45.65866" lon="4.11581">
        <ele>359</ele>
        <time>2020-05-30T21:29:38Z</time>
      </trkpt>
      <trkpt lat="45.65732" lon="4.11392">
        <ele>360</ele>
        <time>2020-05-30T21:30:12Z</time>
      </trkpt>
      <trkpt lat="45.65715" lon="4.11371">
        <ele>360</ele>
        <time>2020-05-30T21:30:16Z</time>
      </trkpt>
      <trkpt lat="45.65698" lon="4.11361">
        <ele>360</ele>
        <time>2020-05-30T21:30:19Z</time>
      </trkpt>
      <trkpt lat="45.65683" lon="4.11364">
        <ele>361</ele>
        <time>2020-05-30T21:30:22Z</time>
      </trkpt>
      <trkpt lat="45.65593" lon="4.11409">
        <ele>360</ele>
        <time>2020-05-30T21:30:39Z</time>
      </trkpt>
      <trkpt lat="45.65567" lon="4.11416">
        <ele>360</ele>
        <time>2020-05-30T21:30:43Z</time>
      </trkpt>
      <trkpt lat="45.65506" lon="4.11424">
        <ele>360</ele>
        <time>2020-05-30T21:30:54Z</time>
      </trkpt>
      <trkpt lat="45.65475" lon="4.11423">
        <ele>360</ele>
        <time>2020-05-30T21:31:00Z</time>
      </trkpt>
      <trkpt lat="45.65454" lon="4.11418">
        <ele>361</ele>
        <time>2020-05-30T21:31:04Z</time>
      </trkpt>
      <trkpt lat="45.6542" lon="4.11403">
        <ele>362</ele>
        <time>2020-05-30T21:31:10Z</time>
      </trkpt>
      <trkpt lat="45.65397" lon="4.11392">
        <ele>362</ele>
        <time>2020-05-30T21:31:14Z</time>
      </trkpt>
      <trkpt lat="45.65392" lon="4.1139">
        <ele>362</ele>
        <time>2020-05-30T21:31:15Z</time>
      </trkpt>
      <trkpt lat="45.65342" lon="4.1135">
        <ele>363</ele>
        <time>2020-05-30T21:31:25Z</time>
      </trkpt>
      <trkpt lat="45.65331" lon="4.11346">
        <ele>364</ele>
        <time>2020-05-30T21:31:27Z</time>
      </trkpt>
      <trkpt lat="45.65326" lon="4.11344">
        <ele>364</ele>
        <time>2020-05-30T21:31:28Z</time>
      </trkpt>
      <trkpt lat="45.65318" lon="4.1134">
        <ele>364</ele>
        <time>2020-05-30T21:31:30Z</time>
      </trkpt>
      <trkpt lat="45.65315" lon="4.11339">
        <ele>364</ele>
        <time>2020-05-30T21:31:30Z</time>
      </trkpt>
      <trkpt lat="45.6531" lon="4.11333">
        <ele>364</ele>
        <time>2020-05-30T21:31:32Z</time>
      </trkpt>
      <trkpt lat="45.65303" lon="4.11332">
        <ele>364</ele>
        <time>2020-05-30T21:31:33Z</time>
      </trkpt>
      <trkpt lat="45.65292" lon="4.11322">
        <ele>364</ele>
        <time>2020-05-30T21:31:35Z</time>
      </trkpt>
      <trkpt lat="45.65286" lon="4.11313">
        <ele>364</ele>
        <time>2020-05-30T21:31:37Z</time>
      </trkpt>
      <trkpt lat="45.65262" lon="4.11277">
        <ele>365</ele>
        <time>2020-05-30T21:31:43Z</time>
      </trkpt>
      <trkpt lat="45.65221" lon="4.11245">
        <ele>364</ele>
        <time>2020-05-30T21:31:51Z</time>
      </trkpt>
      <trkpt lat="45.65196" lon="4.11227">
        <ele>364</ele>
        <time>2020-05-30T21:31:56Z</time>
      </trkpt>
      <trkpt lat="45.65175" lon="4.1121">
        <ele>363</ele>
        <time>2020-05-30T21:32:00Z</time>
      </trkpt>
      <trkpt lat="45.6506" lon="4.11121">
        <ele>361</ele>
        <time>2020-05-30T21:32:24Z</time>
      </trkpt>
      <trkpt lat="45.65027" lon="4.11087">
        <ele>362</ele>
        <time>2020-05-30T21:32:31Z</time>
      </trkpt>
      <trkpt lat="45.64848" lon="4.10843">
        <ele>359</ele>
        <time>2020-05-30T21:33:15Z</time>
      </trkpt>
      <trkpt lat="45.6469" lon="4.1063">
        <ele>359</ele>
        <time>2020-05-30T21:33:54Z</time>
      </trkpt>
      <trkpt lat="45.64655" lon="4.10583">
        <ele>359</ele>
        <time>2020-05-30T21:34:02Z</time>
      </trkpt>
      <trkpt lat="45.64608" lon="4.10518">
        <ele>359</ele>
        <time>2020-05-30T21:34:14Z</time>
      </trkpt>
      <trkpt lat="45.64598" lon="4.10503">
        <ele>359</ele>
        <time>2020-05-30T21:34:16Z</time>
      </trkpt>
      <trkpt lat="45.64521" lon="4.10395">
        <ele>360</ele>
        <time>2020-05-30T21:34:35Z</time>
      </trkpt>
      <trkpt lat="45.6432" lon="4.10128">
        <ele>360</ele>
        <time>2020-05-30T21:35:24Z</time>
      </trkpt>
      <trkpt lat="45.64289" lon="4.10094">
        <ele>361</ele>
        <time>2020-05-30T21:35:31Z</time>
      </trkpt>
      <trkpt lat="45.64065" lon="4.09965">
        <ele>361</ele>
        <time>2020-05-30T21:36:14Z</time>
      </trkpt>
      <trkpt lat="45.6398" lon="4.09921">
        <ele>361</ele>
        <time>2020-05-30T21:36:30Z</time>
      </trkpt>
      <trkpt lat="45.63941" lon="4.09897">
        <ele>360</ele>
        <time>2020-05-30T21:36:38Z</time>
      </trkpt>
      <trkpt lat="45.63898" lon="4.09862">
        <ele>360</ele>
        <time>2020-05-30T21:36:47Z</time>
      </trkpt>
      <trkpt lat="45.63853" lon="4.09814">
        <ele>360</ele>
        <time>2020-05-30T21:36:57Z</time>
      </trkpt>
      <trkpt lat="45.63694" lon="4.09615">
        <ele>360</ele>
        <time>2020-05-30T21:37:34Z</time>
      </trkpt>
      <trkpt lat="45.63641" lon="4.09552">
        <ele>360</ele>
        <time>2020-05-30T21:37:46Z</time>
      </trkpt>
      <trkpt lat="45.6357" lon="4.09476">
        <ele>361</ele>
        <time>2020-05-30T21:38:02Z</time>
      </trkpt>
      <trkpt lat="45.63541" lon="4.09447">
        <ele>361</ele>
        <time>2020-05-30T21:38:09Z</time>
      </trkpt>
      <trkpt lat="45.63506" lon="4.09406">
        <ele>361</ele>
        <time>2020-05-30T21:38:17Z</time>
      </trkpt>
      <trkpt lat="45.63391" lon="4.09256">
        <ele>362</ele>
        <time>2020-05-30T21:38:44Z</time>
      </trkpt>
      <trkpt lat="45.63362" lon="4.09223">
        <ele>362</ele>
        <time>2020-05-30T21:38:51Z</time>
      </trkpt>
      <trkpt lat="45.63265" lon="4.09129">
        <ele>361</ele>
        <time>2020-05-30T21:39:12Z</time>
      </trkpt>
      <trkpt lat="45.6323" lon="4.09106">
        <ele>361</ele>
        <time>2020-05-30T21:39:19Z</time>
      </trkpt>
      <trkpt lat="45.63127" lon="4.09061">
        <ele>363</ele>
        <time>2020-05-30T21:39:38Z</time>
      </trkpt>
      <trkpt lat="45.63103" lon="4.09049">
        <ele>364</ele>
        <time>2020-05-30T21:39:42Z</time>
      </trkpt>
      <trkpt lat="45.62858" lon="4.08946">
        <ele>364</ele>
        <time>2020-05-30T21:40:28Z</time>
      </trkpt>
      <trkpt lat="45.62815" lon="4.08922">
        <ele>365</ele>
        <time>2020-05-30T21:40:36Z</time>
      </trkpt>
      <trkpt lat="45.62792" lon="4.08902">
        <ele>365</ele>
        <time>2020-05-30T21:40:41Z</time>
      </trkpt>
      <trkpt lat="45.62769" lon="4.08875">
        <ele>365</ele>
        <time>2020-05-30T21:40:46Z</time>
      </trkpt>
      <trkpt lat="45.62741" lon="4.08829">
        <ele>366</ele>
        <time>2020-05-30T21:40:54Z</time>
      </trkpt>
      <trkpt lat="45.62693" lon="4.08736">
        <ele>366</ele>
        <time>2020-05-30T21:41:08Z</time>
      </trkpt>
      <trkpt lat="45.62625" lon="4.08562">
        <ele>368</ele>
        <time>2020-05-30T21:41:33Z</time>
      </trkpt>
      <trkpt lat="45.62526" lon="4.08279">
        <ele>368</ele>
        <time>2020-05-30T21:42:12Z</time>
      </trkpt>
      <trkpt lat="45.62488" lon="4.08198">
        <ele>369</ele>
        <time>2020-05-30T21:42:24Z</time>
      </trkpt>
      <trkpt lat="45.62444" lon="4.08127">
        <ele>369</ele>
        <time>2020-05-30T21:42:36Z</time>
      </trkpt>
      <trkpt lat="45.62432" lon="4.08103">
        <ele>368</ele>
        <time>2020-05-30T21:42:40Z</time>
      </trkpt>
      <trkpt lat="45.62424" lon="4.08079">
        <ele>368</ele>
        <time>2020-05-30T21:42:43Z</time>
      </trkpt>
      <trkpt lat="45.62414" lon="4.08038">
        <ele>367</ele>
        <time>2020-05-30T21:42:49Z</time>
      </trkpt>
      <trkpt lat="45.62413" lon="4.08009">
        <ele>366</ele>
        <time>2020-05-30T21:42:52Z</time>
      </trkpt>
      <trkpt lat="45.62405" lon="4.07961">
        <ele>366</ele>
        <time>2020-05-30T21:42:58Z</time>
      </trkpt>
      <trkpt lat="45.62397" lon="4.07936">
        <ele>366</ele>
        <time>2020-05-30T21:43:02Z</time>
      </trkpt>
      <trkpt lat="45.62388" lon="4.07916">
        <ele>366</ele>
        <time>2020-05-30T21:43:05Z</time>
      </trkpt>
      <trkpt lat="45.62364" lon="4.07875">
        <ele>368</ele>
        <time>2020-05-30T21:43:11Z</time>
      </trkpt>
      <trkpt lat="45.62334" lon="4.0785">
        <ele>369</ele>
        <time>2020-05-30T21:43:17Z</time>
      </trkpt>
      <trkpt lat="45.62301" lon="4.07838">
        <ele>369</ele>
        <time>2020-05-30T21:43:24Z</time>
      </trkpt>
      <trkpt lat="45.62254" lon="4.07827">
        <ele>369</ele>
        <time>2020-05-30T21:43:32Z</time>
      </trkpt>
      <trkpt lat="45.62216" lon="4.07823">
        <ele>369</ele>
        <time>2020-05-30T21:43:39Z</time>
      </trkpt>
      <trkpt lat="45.62146" lon="4.07804">
        <ele>368</ele>
        <time>2020-05-30T21:43:51Z</time>
      </trkpt>
      <trkpt lat="45.6204" lon="4.07782">
        <ele>370</ele>
        <time>2020-05-30T21:44:11Z</time>
      </trkpt>
      <trkpt lat="45.62006" lon="4.07782">
        <ele>371</ele>
        <time>2020-05-30T21:44:17Z</time>
      </trkpt>
      <trkpt lat="45.61996" lon="4.07782">
        <ele>371</ele>
        <time>2020-05-30T21:44:18Z</time>
      </trkpt>
      <trkpt lat="45.61994" lon="4.07782">
        <ele>371</ele>
        <time>2020-05-30T21:44:19Z</time>
      </trkpt>
      <trkpt lat="45.6192" lon="4.07781">
        <ele>371</ele>
        <time>2020-05-30T21:44:32Z</time>
      </trkpt>
      <trkpt lat="45.61819" lon="4.0779">
        <ele>371</ele>
        <time>2020-05-30T21:44:50Z</time>
      </trkpt>
      <trkpt lat="45.61808" lon="4.07792">
        <ele>371</ele>
        <time>2020-05-30T21:44:52Z</time>
      </trkpt>
      <trkpt lat="45.61783" lon="4.07794">
        <ele>371</ele>
        <time>2020-05-30T21:44:56Z</time>
      </trkpt>
      <trkpt lat="45.61718" lon="4.07805">
        <ele>371</ele>
        <time>2020-05-30T21:45:08Z</time>
      </trkpt>
      <trkpt lat="45.61685" lon="4.07813">
        <ele>371</ele>
        <time>2020-05-30T21:45:14Z</time>
      </trkpt>
      <trkpt lat="45.61682" lon="4.07814">
        <ele>371</ele>
        <time>2020-05-30T21:45:14Z</time>
      </trkpt>
      <trkpt lat="45.61662" lon="4.07819">
        <ele>371</ele>
        <time>2020-05-30T21:45:18Z</time>
      </trkpt>
      <trkpt lat="45.61652" lon="4.07821">
        <ele>371</ele>
        <time>2020-05-30T21:45:20Z</time>
      </trkpt>
      <trkpt lat="45.61622" lon="4.07829">
        <ele>372</ele>
        <time>2020-05-30T21:45:25Z</time>
      </trkpt>
      <trkpt lat="45.61602" lon="4.07833">
        <ele>372</ele>
        <time>2020-05-30T21:45:29Z</time>
      </trkpt>
      <trkpt lat="45.6159" lon="4.07835">
        <ele>372</ele>
        <time>2020-05-30T21:45:31Z</time>
      </trkpt>
      <trkpt lat="45.61578" lon="4.07831">
        <ele>372</ele>
        <time>2020-05-30T21:45:33Z</time>
      </trkpt>
      <trkpt lat="45.61562" lon="4.07826">
        <ele>372</ele>
        <time>2020-05-30T21:45:36Z</time>
      </trkpt>
      <trkpt lat="45.61535" lon="4.07808">
        <ele>373</ele>
        <time>2020-05-30T21:45:41Z</time>
      </trkpt>
      <trkpt lat="45.61464" lon="4.0774">
        <ele>374</ele>
        <time>2020-05-30T21:45:57Z</time>
      </trkpt>
      <trkpt lat="45.61437" lon="4.07726">
        <ele>374</ele>
        <time>2020-05-30T21:46:02Z</time>
      </trkpt>
      <trkpt lat="45.61393" lon="4.07723">
        <ele>375</ele>
        <time>2020-05-30T21:46:10Z</time>
      </trkpt>
      <trkpt lat="45.61386" lon="4.07722">
        <ele>375</ele>
        <time>2020-05-30T21:46:11Z</time>
      </trkpt>
      <trkpt lat="45.61379" lon="4.07723">
        <ele>375</ele>
        <time>2020-05-30T21:46:12Z</time>
      </trkpt>
      <trkpt lat="45.61371" lon="4.07717">
        <ele>375</ele>
        <time>2020-05-30T21:46:14Z</time>
      </trkpt>
      <trkpt lat="45.61361" lon="4.07707">
        <ele>375</ele>
        <time>2020-05-30T21:46:16Z</time>
      </trkpt>
      <trkpt lat="45.61349" lon="4.07688">
        <ele>375</ele>
        <time>2020-05-30T21:46:19Z</time>
      </trkpt>
      <trkpt lat="45.61342" lon="4.07666">
        <ele>375</ele>
        <time>2020-05-30T21:46:22Z</time>
      </trkpt>
      <trkpt lat="45.61341" lon="4.07641">
        <ele>375</ele>
        <time>2020-05-30T21:46:25Z</time>
      </trkpt>
      <trkpt lat="45.61338" lon="4.07629">
        <ele>376</ele>
        <time>2020-05-30T21:46:27Z</time>
      </trkpt>
      <trkpt lat="45.61326" lon="4.07602">
        <ele>376</ele>
        <time>2020-05-30T21:46:31Z</time>
      </trkpt>
      <trkpt lat="45.6132" lon="4.07595">
        <ele>376</ele>
        <time>2020-05-30T21:46:32Z</time>
      </trkpt>
      <trkpt lat="45.61304" lon="4.07573">
        <ele>376</ele>
        <time>2020-05-30T21:46:36Z</time>
      </trkpt>
      <trkpt lat="45.6128" lon="4.07541">
        <ele>376</ele>
        <time>2020-05-30T21:46:42Z</time>
      </trkpt>
      <trkpt lat="45.61277" lon="4.07532">
        <ele>376</ele>
        <time>2020-05-30T21:46:43Z</time>
      </trkpt>
      <trkpt lat="45.61274" lon="4.07519">
        <ele>376</ele>
        <time>2020-05-30T21:46:45Z</time>
      </trkpt>
      <trkpt lat="45.61269" lon="4.07512">
        <ele>376</ele>
        <time>2020-05-30T21:46:46Z</time>
      </trkpt>
      <trkpt lat="45.61258" lon="4.07508">
        <ele>376</ele>
        <time>2020-05-30T21:46:48Z</time>
      </trkpt>
      <trkpt lat="45.61251" lon="4.07511">
        <ele>376</ele>
        <time>2020-05-30T21:46:49Z</time>
      </trkpt>
      <trkpt lat="45.61243" lon="4.07505">
        <ele>376</ele>
        <time>2020-05-30T21:46:51Z</time>
      </trkpt>
      <trkpt lat="45.61231" lon="4.07486">
        <ele>377</ele>
        <time>2020-05-30T21:46:54Z</time>
      </trkpt>
      <trkpt lat="45.6122" lon="4.07375">
        <ele>379</ele>
        <time>2020-05-30T21:47:08Z</time>
      </trkpt>
      <trkpt lat="45.61215" lon="4.07374">
        <ele>379</ele>
        <time>2020-05-30T21:47:09Z</time>
      </trkpt>
      <trkpt lat="45.61198" lon="4.0737">
        <ele>379</ele>
        <time>2020-05-30T21:47:12Z</time>
      </trkpt>
      <trkpt lat="45.61125" lon="4.07332">
        <ele>378</ele>
        <time>2020-05-30T21:47:26Z</time>
      </trkpt>
      <trkpt lat="45.61083" lon="4.07297">
        <ele>378</ele>
        <time>2020-05-30T21:47:35Z</time>
      </trkpt>
      <trkpt lat="45.61054" lon="4.07272">
        <ele>379</ele>
        <time>2020-05-30T21:47:41Z</time>
      </trkpt>
      <trkpt lat="45.61051" lon="4.0727">
        <ele>379</ele>
        <time>2020-05-30T21:47:41Z</time>
      </trkpt>
      <trkpt lat="45.61043" lon="4.07262">
        <ele>380</ele>
        <time>2020-05-30T21:47:43Z</time>
      </trkpt>
      <trkpt lat="45.61018" lon="4.0724">
        <ele>380</ele>
        <time>2020-05-30T21:47:48Z</time>
      </trkpt>
      <trkpt lat="45.61007" lon="4.0723">
        <ele>380</ele>
        <time>2020-05-30T21:47:51Z</time>
      </trkpt>
      <trkpt lat="45.61003" lon="4.07226">
        <ele>380</ele>
        <time>2020-05-30T21:47:51Z</time>
      </trkpt>
      <trkpt lat="45.60997" lon="4.07221">
        <ele>380</ele>
        <time>2020-05-30T21:47:53Z</time>
      </trkpt>
      <trkpt lat="45.60975" lon="4.072">
        <ele>380</ele>
        <time>2020-05-30T21:47:57Z</time>
      </trkpt>
      <trkpt lat="45.60953" lon="4.0718">
        <ele>381</ele>
        <time>2020-05-30T21:48:02Z</time>
      </trkpt>
      <trkpt lat="45.60936" lon="4.07163">
        <ele>382</ele>
        <time>2020-05-30T21:48:06Z</time>
      </trkpt>
      <trkpt lat="45.60895" lon="4.07131">
        <ele>382</ele>
        <time>2020-05-30T21:48:14Z</time>
      </trkpt>
      <trkpt lat="45.60889" lon="4.07128">
        <ele>382</ele>
        <time>2020-05-30T21:48:15Z</time>
      </trkpt>
      <trkpt lat="45.60877" lon="4.07121">
        <ele>383</ele>
        <time>2020-05-30T21:48:17Z</time>
      </trkpt>
      <trkpt lat="45.60859" lon="4.07108">
        <ele>383</ele>
        <time>2020-05-30T21:48:21Z</time>
      </trkpt>
      <trkpt lat="45.60828" lon="4.07085">
        <ele>384</ele>
        <time>2020-05-30T21:48:27Z</time>
      </trkpt>
      <trkpt lat="45.60811" lon="4.07071">
        <ele>384</ele>
        <time>2020-05-30T21:48:31Z</time>
      </trkpt>
      <trkpt lat="45.60795" lon="4.07063">
        <ele>384</ele>
        <time>2020-05-30T21:48:34Z</time>
      </trkpt>
      <trkpt lat="45.60787" lon="4.07032">
        <ele>384</ele>
        <time>2020-05-30T21:48:38Z</time>
      </trkpt>
      <trkpt lat="45.60785" lon="4.07026">
        <ele>384</ele>
        <time>2020-05-30T21:48:39Z</time>
      </trkpt>
      <trkpt lat="45.60769" lon="4.07041">
        <ele>384</ele>
        <time>2020-05-30T21:48:42Z</time>
      </trkpt>
      <trkpt lat="45.60742" lon="4.07069">
        <ele>383</ele>
        <time>2020-05-30T21:48:48Z</time>
      </trkpt>
      <trkpt lat="45.60734" lon="4.07076">
        <ele>383</ele>
        <time>2020-05-30T21:48:50Z</time>
      </trkpt>
      <trkpt lat="45.60724" lon="4.0708">
        <ele>384</ele>
        <time>2020-05-30T21:48:52Z</time>
      </trkpt>
      <trkpt lat="45.6072" lon="4.07078">
        <ele>384</ele>
        <time>2020-05-30T21:48:52Z</time>
      </trkpt>
      <trkpt lat="45.60703" lon="4.07069">
        <ele>384</ele>
        <time>2020-05-30T21:48:55Z</time>
      </trkpt>
      <trkpt lat="45.60697" lon="4.07067">
        <ele>384</ele>
        <time>2020-05-30T21:48:57Z</time>
      </trkpt>
      <trkpt lat="45.60693" lon="4.07067">
        <ele>385</ele>
        <time>2020-05-30T21:48:57Z</time>
      </trkpt>
      <trkpt lat="45.60694" lon="4.07055">
        <ele>385</ele>
        <time>2020-05-30T21:48:59Z</time>
      </trkpt>
      <trkpt lat="45.60692" lon="4.07029">
        <ele>385</ele>
        <time>2020-05-30T21:49:02Z</time>
      </trkpt>
      <trkpt lat="45.60684" lon="4.06985">
        <ele>386</ele>
        <time>2020-05-30T21:49:08Z</time>
      </trkpt>
      <trkpt lat="45.60674" lon="4.06961">
        <ele>386</ele>
        <time>2020-05-30T21:49:11Z</time>
      </trkpt>
      <trkpt lat="45.60645" lon="4.06905">
        <ele>386</ele>
        <time>2020-05-30T21:49:20Z</time>
      </trkpt>
      <trkpt lat="45.60641" lon="4.06893">
        <ele>387</ele>
        <time>2020-05-30T21:49:22Z</time>
      </trkpt>
      <trkpt lat="45.60643" lon="4.06892">
        <ele>387</ele>
        <time>2020-05-30T21:49:22Z</time>
      </trkpt>
      <trkpt lat="45.60645" lon="4.06888">
        <ele>387</ele>
        <time>2020-05-30T21:49:23Z</time>
      </trkpt>
      <trkpt lat="45.60645" lon="4.06885">
        <ele>387</ele>
        <time>2020-05-30T21:49:23Z</time>
      </trkpt>
      <trkpt lat="45.60645" lon="4.06882">
        <ele>387</ele>
        <time>2020-05-30T21:49:23Z</time>
      </trkpt>
      <trkpt lat="45.60644" lon="4.06879">
        <ele>387</ele>
        <time>2020-05-30T21:49:24Z</time>
      </trkpt>
      <trkpt lat="45.60641" lon="4.06875">
        <ele>387</ele>
        <time>2020-05-30T21:49:24Z</time>
      </trkpt>
      <trkpt lat="45.60639" lon="4.06875">
        <ele>387</ele>
        <time>2020-05-30T21:49:25Z</time>
      </trkpt>
      <trkpt lat="45.60637" lon="4.06875">
        <ele>387</ele>
        <time>2020-05-30T21:49:25Z</time>
      </trkpt>
      <trkpt lat="45.60633" lon="4.0688">
        <ele>387</ele>
        <time>2020-05-30T21:49:26Z</time>
      </trkpt>
      <trkpt lat="45.60633" lon="4.06883">
        <ele>387</ele>
        <time>2020-05-30T21:49:26Z</time>
      </trkpt>
      <trkpt lat="45.60629" lon="4.06882">
        <ele>387</ele>
        <time>2020-05-30T21:49:27Z</time>
      </trkpt>
      <trkpt lat="45.60616" lon="4.06881">
        <ele>387</ele>
        <time>2020-05-30T21:49:29Z</time>
      </trkpt>
      <trkpt lat="45.60596" lon="4.06881">
        <ele>387</ele>
        <time>2020-05-30T21:49:33Z</time>
      </trkpt>
      <trkpt lat="45.60558" lon="4.06877">
        <ele>387</ele>
        <time>2020-05-30T21:49:40Z</time>
      </trkpt>
      <trkpt lat="45.60538" lon="4.06868">
        <ele>388</ele>
        <time>2020-05-30T21:49:44Z</time>
      </trkpt>
      <trkpt lat="45.60517" lon="4.06846">
        <ele>388</ele>
        <time>2020-05-30T21:49:48Z</time>
      </trkpt>
      <trkpt lat="45.60508" lon="4.06821">
        <ele>389</ele>
        <time>2020-05-30T21:49:52Z</time>
      </trkpt>
      <trkpt lat="45.60505" lon="4.06801">
        <ele>389</ele>
        <time>2020-05-30T21:49:54Z</time>
      </trkpt>
      <trkpt lat="45.60503" lon="4.06798">
        <ele>389</ele>
        <time>2020-05-30T21:49:55Z</time>
      </trkpt>
      <trkpt lat="45.60496" lon="4.06795">
        <ele>389</ele>
        <time>2020-05-30T21:49:56Z</time>
      </trkpt>
      <trkpt lat="45.60489" lon="4.068">
        <ele>389</ele>
        <time>2020-05-30T21:49:57Z</time>
      </trkpt>
      <trkpt lat="45.60486" lon="4.06809">
        <ele>389</ele>
        <time>2020-05-30T21:49:59Z</time>
      </trkpt>
      <trkpt lat="45.6047" lon="4.06832">
        <ele>389</ele>
        <time>2020-05-30T21:50:03Z</time>
      </trkpt>
      <trkpt lat="45.60423" lon="4.06875">
        <ele>388</ele>
        <time>2020-05-30T21:50:13Z</time>
      </trkpt>
      <trkpt lat="45.60418" lon="4.06874">
        <ele>388</ele>
        <time>2020-05-30T21:50:14Z</time>
      </trkpt>
      <trkpt lat="45.60416" lon="4.06878">
        <ele>388</ele>
        <time>2020-05-30T21:50:14Z</time>
      </trkpt>
      <trkpt lat="45.60417" lon="4.06883">
        <ele>388</ele>
        <time>2020-05-30T21:50:15Z</time>
      </trkpt>
      <trkpt lat="45.60406" lon="4.06893">
        <ele>388</ele>
        <time>2020-05-30T21:50:17Z</time>
      </trkpt>
      <trkpt lat="45.60378" lon="4.06915">
        <ele>390</ele>
        <time>2020-05-30T21:50:23Z</time>
      </trkpt>
      <trkpt lat="45.60312" lon="4.06977">
        <ele>394</ele>
        <time>2020-05-30T21:50:37Z</time>
      </trkpt>
      <trkpt lat="45.60301" lon="4.06983">
        <ele>395</ele>
        <time>2020-05-30T21:50:39Z</time>
      </trkpt>
      <trkpt lat="45.60154" lon="4.07024">
        <ele>402</ele>
        <time>2020-05-30T21:51:06Z</time>
      </trkpt>
      <trkpt lat="45.60138" lon="4.07026">
        <ele>402</ele>
        <time>2020-05-30T21:51:08Z</time>
      </trkpt>
      <trkpt lat="45.60126" lon="4.07031">
        <ele>402</ele>
        <time>2020-05-30T21:51:11Z</time>
      </trkpt>
      <trkpt lat="45.60105" lon="4.07043">
        <ele>402</ele>
        <time>2020-05-30T21:51:15Z</time>
      </trkpt>
      <trkpt lat="45.60098" lon="4.07041">
        <ele>402</ele>
        <time>2020-05-30T21:51:16Z</time>
      </trkpt>
      <trkpt lat="45.60082" lon="4.07045">
        <ele>402</ele>
        <time>2020-05-30T21:51:19Z</time>
      </trkpt>
      <trkpt lat="45.60076" lon="4.0705">
        <ele>403</ele>
        <time>2020-05-30T21:51:20Z</time>
      </trkpt>
      <trkpt lat="45.59564" lon="4.07155">
        <ele>397</ele>
        <time>2020-05-30T21:52:52Z</time>
      </trkpt>
      <trkpt lat="45.59497" lon="4.07171">
        <ele>398</ele>
        <time>2020-05-30T21:53:04Z</time>
      </trkpt>
      <trkpt lat="45.59311" lon="4.0721">
        <ele>401</ele>
        <time>2020-05-30T21:53:38Z</time>
      </trkpt>
      <trkpt lat="45.59254" lon="4.07219">
        <ele>403</ele>
        <time>2020-05-30T21:53:48Z</time>
      </trkpt>
      <trkpt lat="45.59236" lon="4.07216">
        <ele>403</ele>
        <time>2020-05-30T21:53:51Z</time>
      </trkpt>
      <trkpt lat="45.59204" lon="4.07228">
        <ele>404</ele>
        <time>2020-05-30T21:53:57Z</time>
      </trkpt>
      <trkpt lat="45.59155" lon="4.07241">
        <ele>405</ele>
        <time>2020-05-30T21:54:06Z</time>
      </trkpt>
      <trkpt lat="45.58925" lon="4.07289">
        <ele>402</ele>
        <time>2020-05-30T21:54:47Z</time>
      </trkpt>
      <trkpt lat="45.58906" lon="4.07293">
        <ele>403</ele>
        <time>2020-05-30T21:54:51Z</time>
      </trkpt>
      <trkpt lat="45.58748" lon="4.07325">
        <ele>409</ele>
        <time>2020-05-30T21:55:19Z</time>
      </trkpt>
      <trkpt lat="45.58566" lon="4.07367">
        <ele>415</ele>
        <time>2020-05-30T21:55:52Z</time>
      </trkpt>
      <trkpt lat="45.58519" lon="4.07414">
        <ele>417</ele>
        <time>2020-05-30T21:56:02Z</time>
      </trkpt>
      <trkpt lat="45.58509" lon="4.07412">
        <ele>417</ele>
        <time>2020-05-30T21:56:04Z</time>
      </trkpt>
      <trkpt lat="45.58502" lon="4.07415">
        <ele>418</ele>
        <time>2020-05-30T21:56:05Z</time>
      </trkpt>
      <trkpt lat="45.58461" lon="4.07377">
        <ele>423</ele>
        <time>2020-05-30T21:56:14Z</time>
      </trkpt>
      <trkpt lat="45.58432" lon="4.07336">
        <ele>425</ele>
        <time>2020-05-30T21:56:21Z</time>
      </trkpt>
      <trkpt lat="45.58388" lon="4.07278">
        <ele>431</ele>
        <time>2020-05-30T21:56:32Z</time>
      </trkpt>
      <trkpt lat="45.58347" lon="4.0721">
        <ele>434</ele>
        <time>2020-05-30T21:56:43Z</time>
      </trkpt>
      <trkpt lat="45.58303" lon="4.07148">
        <ele>438</ele>
        <time>2020-05-30T21:56:54Z</time>
      </trkpt>
      <trkpt lat="45.58278" lon="4.07118">
        <ele>441</ele>
        <time>2020-05-30T21:57:00Z</time>
      </trkpt>
      <trkpt lat="45.58242" lon="4.07089">
        <ele>444</ele>
        <time>2020-05-30T21:57:07Z</time>
      </trkpt>
      <trkpt lat="45.58187" lon="4.07065">
        <ele>448</ele>
        <time>2020-05-30T21:57:17Z</time>
      </trkpt>
      <trkpt lat="45.58101" lon="4.07009">
        <ele>452</ele>
        <time>2020-05-30T21:57:34Z</time>
      </trkpt>
      <trkpt lat="45.57986" lon="4.06944">
        <ele>460</ele>
        <time>2020-05-30T21:57:56Z</time>
      </trkpt>
      <trkpt lat="45.57956" lon="4.0691">
        <ele>463</ele>
        <time>2020-05-30T21:58:03Z</time>
      </trkpt>
      <trkpt lat="45.57932" lon="4.06879">
        <ele>466</ele>
        <time>2020-05-30T21:58:09Z</time>
      </trkpt>
      <trkpt lat="45.57907" lon="4.06839">
        <ele>469</ele>
        <time>2020-05-30T21:58:15Z</time>
      </trkpt>
      <trkpt lat="45.57897" lon="4.06815">
        <ele>470</ele>
        <time>2020-05-30T21:58:19Z</time>
      </trkpt>
      <trkpt lat="45.57876" lon="4.06735">
        <ele>475</ele>
        <time>2020-05-30T21:58:29Z</time>
      </trkpt>
      <trkpt lat="45.57849" lon="4.06665">
        <ele>479</ele>
        <time>2020-05-30T21:58:39Z</time>
      </trkpt>
      <trkpt lat="45.57835" lon="4.06618">
        <ele>481</ele>
        <time>2020-05-30T21:58:46Z</time>
      </trkpt>
      <trkpt lat="45.57833" lon="4.06559">
        <ele>484</ele>
        <time>2020-05-30T21:58:53Z</time>
      </trkpt>
      <trkpt lat="45.5784" lon="4.06516">
        <ele>487</ele>
        <time>2020-05-30T21:58:59Z</time>
      </trkpt>
      <trkpt lat="45.57864" lon="4.06462">
        <ele>488</ele>
        <time>2020-05-30T21:59:07Z</time>
      </trkpt>
      <trkpt lat="45.57888" lon="4.06391">
        <ele>490</ele>
        <time>2020-05-30T21:59:16Z</time>
      </trkpt>
      <trkpt lat="45.57903" lon="4.06321">
        <ele>493</ele>
        <time>2020-05-30T21:59:26Z</time>
      </trkpt>
      <trkpt lat="45.57903" lon="4.06295">
        <ele>493</ele>
        <time>2020-05-30T21:59:29Z</time>
      </trkpt>
      <trkpt lat="45.57887" lon="4.06246">
        <ele>495</ele>
        <time>2020-05-30T21:59:36Z</time>
      </trkpt>
      <trkpt lat="45.57871" lon="4.06226">
        <ele>496</ele>
        <time>2020-05-30T21:59:39Z</time>
      </trkpt>
      <trkpt lat="45.57848" lon="4.06218">
        <ele>498</ele>
        <time>2020-05-30T21:59:44Z</time>
      </trkpt>
      <trkpt lat="45.57817" lon="4.06224">
        <ele>502</ele>
        <time>2020-05-30T21:59:49Z</time>
      </trkpt>
      <trkpt lat="45.57798" lon="4.06212">
        <ele>503</ele>
        <time>2020-05-30T21:59:53Z</time>
      </trkpt>
      <trkpt lat="45.5777" lon="4.06201">
        <ele>506</ele>
        <time>2020-05-30T21:59:58Z</time>
      </trkpt>
      <trkpt lat="45.57719" lon="4.0622">
        <ele>510</ele>
        <time>2020-05-30T22:00:07Z</time>
      </trkpt>
      <trkpt lat="45.57681" lon="4.06215">
        <ele>511</ele>
        <time>2020-05-30T22:00:14Z</time>
      </trkpt>
      <trkpt lat="45.57632" lon="4.06222">
        <ele>515</ele>
        <time>2020-05-30T22:00:23Z</time>
      </trkpt>
      <trkpt lat="45.57585" lon="4.06212">
        <ele>518</ele>
        <time>2020-05-30T22:00:31Z</time>
      </trkpt>
      <trkpt lat="45.57536" lon="4.06206">
        <ele>521</ele>
        <time>2020-05-30T22:00:40Z</time>
      </trkpt>
      <trkpt lat="45.5749" lon="4.06186">
        <ele>522</ele>
        <time>2020-05-30T22:00:49Z</time>
      </trkpt>
      <trkpt lat="45.57436" lon="4.0618">
        <ele>525</ele>
        <time>2020-05-30T22:00:58Z</time>
      </trkpt>
      <trkpt lat="45.57404" lon="4.06172">
        <ele>527</ele>
        <time>2020-05-30T22:01:04Z</time>
      </trkpt>
      <trkpt lat="45.57357" lon="4.0613">
        <ele>532</ele>
        <time>2020-05-30T22:01:14Z</time>
      </trkpt>
      <trkpt lat="45.57291" lon="4.06075">
        <ele>538</ele>
        <time>2020-05-30T22:01:28Z</time>
      </trkpt>
      <trkpt lat="45.57222" lon="4.05986">
        <ele>544</ele>
        <time>2020-05-30T22:01:44Z</time>
      </trkpt>
      <trkpt lat="45.57215" lon="4.05973">
        <ele>545</ele>
        <time>2020-05-30T22:01:46Z</time>
      </trkpt>
      <trkpt lat="45.57211" lon="4.05957">
        <ele>546</ele>
        <time>2020-05-30T22:01:48Z</time>
      </trkpt>
      <trkpt lat="45.57208" lon="4.05892">
        <ele>547</ele>
        <time>2020-05-30T22:01:56Z</time>
      </trkpt>
      <trkpt lat="45.57201" lon="4.05853">
        <ele>549</ele>
        <time>2020-05-30T22:02:01Z</time>
      </trkpt>
      <trkpt lat="45.57187" lon="4.05822">
        <ele>551</ele>
        <time>2020-05-30T22:02:06Z</time>
      </trkpt>
      <trkpt lat="45.57163" lon="4.05787">
        <ele>553</ele>
        <time>2020-05-30T22:02:12Z</time>
      </trkpt>
      <trkpt lat="45.5715" lon="4.05756">
        <ele>555</ele>
        <time>2020-05-30T22:02:17Z</time>
      </trkpt>
      <trkpt lat="45.57119" lon="4.05625">
        <ele>560</ele>
        <time>2020-05-30T22:02:34Z</time>
      </trkpt>
      <trkpt lat="45.57099" lon="4.05561">
        <ele>565</ele>
        <time>2020-05-30T22:02:42Z</time>
      </trkpt>
      <trkpt lat="45.57075" lon="4.05493">
        <ele>569</ele>
        <time>2020-05-30T22:02:52Z</time>
      </trkpt>
      <trkpt lat="45.5707" lon="4.05466">
        <ele>569</ele>
        <time>2020-05-30T22:02:55Z</time>
      </trkpt>
      <trkpt lat="45.57069" lon="4.05414">
        <ele>569</ele>
        <time>2020-05-30T22:03:02Z</time>
      </trkpt>
      <trkpt lat="45.57075" lon="4.05319">
        <ele>568</ele>
        <time>2020-05-30T22:03:14Z</time>
      </trkpt>
      <trkpt lat="45.57078" lon="4.05297">
        <ele>568</ele>
        <time>2020-05-30T22:03:17Z</time>
      </trkpt>
      <trkpt lat="45.57083" lon="4.05274">
        <ele>567</ele>
        <time>2020-05-30T22:03:20Z</time>
      </trkpt>
      <trkpt lat="45.571" lon="4.05227">
        <ele>567</ele>
        <time>2020-05-30T22:03:26Z</time>
      </trkpt>
      <trkpt lat="45.57125" lon="4.05178">
        <ele>568</ele>
        <time>2020-05-30T22:03:34Z</time>
      </trkpt>
      <trkpt lat="45.57137" lon="4.05145">
        <ele>568</ele>
        <time>2020-05-30T22:03:38Z</time>
      </trkpt>
      <trkpt lat="45.57148" lon="4.05093">
        <ele>567</ele>
        <time>2020-05-30T22:03:45Z</time>
      </trkpt>
      <trkpt lat="45.57156" lon="4.05071">
        <ele>567</ele>
        <time>2020-05-30T22:03:48Z</time>
      </trkpt>
      <trkpt lat="45.57164" lon="4.05056">
        <ele>567</ele>
        <time>2020-05-30T22:03:51Z</time>
      </trkpt>
      <trkpt lat="45.57178" lon="4.05046">
        <ele>567</ele>
        <time>2020-05-30T22:03:53Z</time>
      </trkpt>
      <trkpt lat="45.57229" lon="4.05034">
        <ele>568</ele>
        <time>2020-05-30T22:04:03Z</time>
      </trkpt>
      <trkpt lat="45.57241" lon="4.05027">
        <ele>568</ele>
        <time>2020-05-30T22:04:05Z</time>
      </trkpt>
      <trkpt lat="45.57253" lon="4.05015">
        <ele>568</ele>
        <time>2020-05-30T22:04:07Z</time>
      </trkpt>
      <trkpt lat="45.57262" lon="4.05003">
        <ele>568</ele>
        <time>2020-05-30T22:04:10Z</time>
      </trkpt>
      <trkpt lat="45.57271" lon="4.04987">
        <ele>567</ele>
        <time>2020-05-30T22:04:12Z</time>
      </trkpt>
      <trkpt lat="45.57286" lon="4.04952">
        <ele>566</ele>
        <time>2020-05-30T22:04:17Z</time>
      </trkpt>
      <trkpt lat="45.57299" lon="4.04937">
        <ele>566</ele>
        <time>2020-05-30T22:04:20Z</time>
      </trkpt>
      <trkpt lat="45.57318" lon="4.04931">
        <ele>567</ele>
        <time>2020-05-30T22:04:24Z</time>
      </trkpt>
      <trkpt lat="45.57352" lon="4.04935">
        <ele>570</ele>
        <time>2020-05-30T22:04:30Z</time>
      </trkpt>
      <trkpt lat="45.57386" lon="4.04932">
        <ele>571</ele>
        <time>2020-05-30T22:04:36Z</time>
      </trkpt>
      <trkpt lat="45.57428" lon="4.04917">
        <ele>574</ele>
        <time>2020-05-30T22:04:44Z</time>
      </trkpt>
      <trkpt lat="45.57484" lon="4.04917">
        <ele>579</ele>
        <time>2020-05-30T22:04:54Z</time>
      </trkpt>
      <trkpt lat="45.57504" lon="4.04912">
        <ele>580</ele>
        <time>2020-05-30T22:04:57Z</time>
      </trkpt>
      <trkpt lat="45.57513" lon="4.04906">
        <ele>581</ele>
        <time>2020-05-30T22:04:59Z</time>
      </trkpt>
      <trkpt lat="45.5752" lon="4.04896">
        <ele>582</ele>
        <time>2020-05-30T22:05:01Z</time>
      </trkpt>
      <trkpt lat="45.57523" lon="4.04885">
        <ele>582</ele>
        <time>2020-05-30T22:05:02Z</time>
      </trkpt>
      <trkpt lat="45.57523" lon="4.04838">
        <ele>581</ele>
        <time>2020-05-30T22:05:08Z</time>
      </trkpt>
      <trkpt lat="45.5752" lon="4.04802">
        <ele>581</ele>
        <time>2020-05-30T22:05:13Z</time>
      </trkpt>
      <trkpt lat="45.57512" lon="4.04751">
        <ele>580</ele>
        <time>2020-05-30T22:05:19Z</time>
      </trkpt>
      <trkpt lat="45.57502" lon="4.04699">
        <ele>581</ele>
        <time>2020-05-30T22:05:26Z</time>
      </trkpt>
      <trkpt lat="45.575" lon="4.04645">
        <ele>582</ele>
        <time>2020-05-30T22:05:33Z</time>
      </trkpt>
      <trkpt lat="45.57503" lon="4.04607">
        <ele>583</ele>
        <time>2020-05-30T22:05:37Z</time>
      </trkpt>
      <trkpt lat="45.57514" lon="4.04587">
        <ele>584</ele>
        <time>2020-05-30T22:05:40Z</time>
      </trkpt>
      <trkpt lat="45.57533" lon="4.04576">
        <ele>586</ele>
        <time>2020-05-30T22:05:44Z</time>
      </trkpt>
      <trkpt lat="45.57551" lon="4.04572">
        <ele>588</ele>
        <time>2020-05-30T22:05:47Z</time>
      </trkpt>
      <trkpt lat="45.57563" lon="4.04562">
        <ele>590</ele>
        <time>2020-05-30T22:05:50Z</time>
      </trkpt>
      <trkpt lat="45.57568" lon="4.0455">
        <ele>590</ele>
        <time>2020-05-30T22:05:52Z</time>
      </trkpt>
      <trkpt lat="45.57571" lon="4.04531">
        <ele>590</ele>
        <time>2020-05-30T22:05:54Z</time>
      </trkpt>
      <trkpt lat="45.57574" lon="4.0449">
        <ele>591</ele>
        <time>2020-05-30T22:05:59Z</time>
      </trkpt>
      <trkpt lat="45.57576" lon="4.04375">
        <ele>595</ele>
        <time>2020-05-30T22:06:13Z</time>
      </trkpt>
      <trkpt lat="45.5758" lon="4.04347">
        <ele>596</ele>
        <time>2020-05-30T22:06:17Z</time>
      </trkpt>
      <trkpt lat="45.57604" lon="4.04302">
        <ele>600</ele>
        <time>2020-05-30T22:06:24Z</time>
      </trkpt>
      <trkpt lat="45.57605" lon="4.0428">
        <ele>602</ele>
        <time>2020-05-30T22:06:27Z</time>
      </trkpt>
      <trkpt lat="45.57601" lon="4.04261">
        <ele>603</ele>
        <time>2020-05-30T22:06:29Z</time>
      </trkpt>
      <trkpt lat="45.57569" lon="4.04188">
        <ele>609</ele>
        <time>2020-05-30T22:06:40Z</time>
      </trkpt>
      <trkpt lat="45.57543" lon="4.04161">
        <ele>611</ele>
        <time>2020-05-30T22:06:46Z</time>
      </trkpt>
      <trkpt lat="45.57474" lon="4.04116">
        <ele>611</ele>
        <time>2020-05-30T22:06:59Z</time>
      </trkpt>
      <trkpt lat="45.57451" lon="4.04095">
        <ele>611</ele>
        <time>2020-05-30T22:07:04Z</time>
      </trkpt>
      <trkpt lat="45.5735" lon="4.03925">
        <ele>616</ele>
        <time>2020-05-30T22:07:32Z</time>
      </trkpt>
      <trkpt lat="45.57346" lon="4.03896">
        <ele>617</ele>
        <time>2020-05-30T22:07:36Z</time>
      </trkpt>
      <trkpt lat="45.57355" lon="4.03865">
        <ele>618</ele>
        <time>2020-05-30T22:07:40Z</time>
      </trkpt>
      <trkpt lat="45.57371" lon="4.03851">
        <ele>620</ele>
        <time>2020-05-30T22:07:43Z</time>
      </trkpt>
      <trkpt lat="45.57388" lon="4.03844">
        <ele>623</ele>
        <time>2020-05-30T22:07:46Z</time>
      </trkpt>
      <trkpt lat="45.57397" lon="4.03836">
        <ele>624</ele>
        <time>2020-05-30T22:07:48Z</time>
      </trkpt>
      <trkpt lat="45.57403" lon="4.03819">
        <ele>626</ele>
        <time>2020-05-30T22:07:50Z</time>
      </trkpt>
      <trkpt lat="45.57402" lon="4.03791">
        <ele>627</ele>
        <time>2020-05-30T22:07:54Z</time>
      </trkpt>
      <trkpt lat="45.57396" lon="4.03752">
        <ele>628</ele>
        <time>2020-05-30T22:07:59Z</time>
      </trkpt>
      <trkpt lat="45.57395" lon="4.03713">
        <ele>628</ele>
        <time>2020-05-30T22:08:04Z</time>
      </trkpt>
      <trkpt lat="45.57412" lon="4.03639">
        <ele>632</ele>
        <time>2020-05-30T22:08:13Z</time>
      </trkpt>
      <trkpt lat="45.5742" lon="4.03584">
        <ele>633</ele>
        <time>2020-05-30T22:08:20Z</time>
      </trkpt>
      <trkpt lat="45.57423" lon="4.03543">
        <ele>636</ele>
        <time>2020-05-30T22:08:26Z</time>
      </trkpt>
      <trkpt lat="45.57419" lon="4.03497">
        <ele>638</ele>
        <time>2020-05-30T22:08:31Z</time>
      </trkpt>
      <trkpt lat="45.57406" lon="4.03458">
        <ele>640</ele>
        <time>2020-05-30T22:08:37Z</time>
      </trkpt>
      <trkpt lat="45.57335" lon="4.03311">
        <ele>645</ele>
        <time>2020-05-30T22:08:59Z</time>
      </trkpt>
      <trkpt lat="45.57319" lon="4.03252">
        <ele>649</ele>
        <time>2020-05-30T22:09:07Z</time>
      </trkpt>
      <trkpt lat="45.57315" lon="4.03224">
        <ele>650</ele>
        <time>2020-05-30T22:09:10Z</time>
      </trkpt>
      <trkpt lat="45.57315" lon="4.03195">
        <ele>651</ele>
        <time>2020-05-30T22:09:14Z</time>
      </trkpt>
      <trkpt lat="45.57318" lon="4.03138">
        <ele>652</ele>
        <time>2020-05-30T22:09:21Z</time>
      </trkpt>
      <trkpt lat="45.57324" lon="4.03064">
        <ele>654</ele>
        <time>2020-05-30T22:09:30Z</time>
      </trkpt>
      <trkpt lat="45.57325" lon="4.03034">
        <ele>656</ele>
        <time>2020-05-30T22:09:34Z</time>
      </trkpt>
      <trkpt lat="45.57298" lon="4.02896">
        <ele>663</ele>
        <time>2020-05-30T22:09:52Z</time>
      </trkpt>
      <trkpt lat="45.57289" lon="4.02864">
        <ele>664</ele>
        <time>2020-05-30T22:09:56Z</time>
      </trkpt>
      <trkpt lat="45.57256" lon="4.02811">
        <ele>664</ele>
        <time>2020-05-30T22:10:05Z</time>
      </trkpt>
      <trkpt lat="45.57254" lon="4.02804">
        <ele>664</ele>
        <time>2020-05-30T22:10:06Z</time>
      </trkpt>
      <trkpt lat="45.57252" lon="4.02789">
        <ele>665</ele>
        <time>2020-05-30T22:10:08Z</time>
      </trkpt>
      <trkpt lat="45.57257" lon="4.02732">
        <ele>669</ele>
        <time>2020-05-30T22:10:15Z</time>
      </trkpt>
      <trkpt lat="45.57256" lon="4.0266">
        <ele>670</ele>
        <time>2020-05-30T22:10:24Z</time>
      </trkpt>
      <trkpt lat="45.57258" lon="4.02638">
        <ele>671</ele>
        <time>2020-05-30T22:10:27Z</time>
      </trkpt>
      <trkpt lat="45.57269" lon="4.02592">
        <ele>675</ele>
        <time>2020-05-30T22:10:33Z</time>
      </trkpt>
      <trkpt lat="45.57319" lon="4.0243">
        <ele>685</ele>
        <time>2020-05-30T22:10:55Z</time>
      </trkpt>
      <trkpt lat="45.57323" lon="4.02405">
        <ele>687</ele>
        <time>2020-05-30T22:10:58Z</time>
      </trkpt>
      <trkpt lat="45.57324" lon="4.02391">
        <ele>689</ele>
        <time>2020-05-30T22:11:00Z</time>
      </trkpt>
      <trkpt lat="45.57319" lon="4.02365">
        <ele>689</ele>
        <time>2020-05-30T22:11:03Z</time>
      </trkpt>
      <trkpt lat="45.57279" lon="4.02274">
        <ele>691</ele>
        <time>2020-05-30T22:11:17Z</time>
      </trkpt>
      <trkpt lat="45.57266" lon="4.0225">
        <ele>693</ele>
        <time>2020-05-30T22:11:20Z</time>
      </trkpt>
      <trkpt lat="45.57254" lon="4.02235">
        <ele>695</ele>
        <time>2020-05-30T22:11:23Z</time>
      </trkpt>
      <trkpt lat="45.57235" lon="4.02222">
        <ele>696</ele>
        <time>2020-05-30T22:11:27Z</time>
      </trkpt>
      <trkpt lat="45.57183" lon="4.02208">
        <ele>698</ele>
        <time>2020-05-30T22:11:36Z</time>
      </trkpt>
      <trkpt lat="45.57149" lon="4.02194">
        <ele>699</ele>
        <time>2020-05-30T22:11:43Z</time>
      </trkpt>
      <trkpt lat="45.5713" lon="4.02181">
        <ele>699</ele>
        <time>2020-05-30T22:11:46Z</time>
      </trkpt>
      <trkpt lat="45.57112" lon="4.02166">
        <ele>700</ele>
        <time>2020-05-30T22:11:50Z</time>
      </trkpt>
      <trkpt lat="45.56997" lon="4.02045">
        <ele>703</ele>
        <time>2020-05-30T22:12:16Z</time>
      </trkpt>
      <trkpt lat="45.5699" lon="4.02036">
        <ele>702</ele>
        <time>2020-05-30T22:12:17Z</time>
      </trkpt>
      <trkpt lat="45.56986" lon="4.02022">
        <ele>703</ele>
        <time>2020-05-30T22:12:19Z</time>
      </trkpt>
      <trkpt lat="45.56983" lon="4.01997">
        <ele>706</ele>
        <time>2020-05-30T22:12:22Z</time>
      </trkpt>
      <trkpt lat="45.5698" lon="4.01949">
        <ele>709</ele>
        <time>2020-05-30T22:12:28Z</time>
      </trkpt>
      <trkpt lat="45.56942" lon="4.01798">
        <ele>715</ele>
        <time>2020-05-30T22:12:48Z</time>
      </trkpt>
      <trkpt lat="45.56942" lon="4.01788">
        <ele>716</ele>
        <time>2020-05-30T22:12:50Z</time>
      </trkpt>
      <trkpt lat="45.56943" lon="4.01741">
        <ele>718</ele>
        <time>2020-05-30T22:12:55Z</time>
      </trkpt>
      <trkpt lat="45.56952" lon="4.01665">
        <ele>720</ele>
        <time>2020-05-30T22:13:05Z</time>
      </trkpt>
      <trkpt lat="45.56963" lon="4.01614">
        <ele>723</ele>
        <time>2020-05-30T22:13:12Z</time>
      </trkpt>
      <trkpt lat="45.5699" lon="4.01522">
        <ele>731</ele>
        <time>2020-05-30T22:13:24Z</time>
      </trkpt>
      <trkpt lat="45.56992" lon="4.01494">
        <ele>733</ele>
        <time>2020-05-30T22:13:28Z</time>
      </trkpt>
      <trkpt lat="45.5699" lon="4.01484">
        <ele>733</ele>
        <time>2020-05-30T22:13:29Z</time>
      </trkpt>
      <trkpt lat="45.5697" lon="4.01438">
        <ele>732</ele>
        <time>2020-05-30T22:13:36Z</time>
      </trkpt>
      <trkpt lat="45.56965" lon="4.01422">
        <ele>733</ele>
        <time>2020-05-30T22:13:38Z</time>
      </trkpt>
      <trkpt lat="45.56963" lon="4.01405">
        <ele>733</ele>
        <time>2020-05-30T22:13:40Z</time>
      </trkpt>
      <trkpt lat="45.56962" lon="4.01333">
        <ele>739</ele>
        <time>2020-05-30T22:13:49Z</time>
      </trkpt>
      <trkpt lat="45.56952" lon="4.01248">
        <ele>741</ele>
        <time>2020-05-30T22:14:00Z</time>
      </trkpt>
      <trkpt lat="45.5696" lon="4.0117">
        <ele>743</ele>
        <time>2020-05-30T22:14:10Z</time>
      </trkpt>
      <trkpt lat="45.56972" lon="4.01134">
        <ele>744</ele>
        <time>2020-05-30T22:14:14Z</time>
      </trkpt>
      <trkpt lat="45.56993" lon="4.01106">
        <ele>746</ele>
        <time>2020-05-30T22:14:20Z</time>
      </trkpt>
      <trkpt lat="45.57076" lon="4.01035">
        <ele>756</ele>
        <time>2020-05-30T22:14:37Z</time>
      </trkpt>
      <trkpt lat="45.57086" lon="4.01023">
        <ele>756</ele>
        <time>2020-05-30T22:14:39Z</time>
      </trkpt>
      <trkpt lat="45.57121" lon="4.00959">
        <ele>759</ele>
        <time>2020-05-30T22:14:49Z</time>
      </trkpt>
      <trkpt lat="45.57131" lon="4.00943">
        <ele>761</ele>
        <time>2020-05-30T22:14:52Z</time>
      </trkpt>
      <trkpt lat="45.57146" lon="4.00903">
        <ele>762</ele>
        <time>2020-05-30T22:14:58Z</time>
      </trkpt>
      <trkpt lat="45.57154" lon="4.00862">
        <ele>763</ele>
        <time>2020-05-30T22:15:03Z</time>
      </trkpt>
      <trkpt lat="45.57158" lon="4.00833">
        <ele>764</ele>
        <time>2020-05-30T22:15:07Z</time>
      </trkpt>
      <trkpt lat="45.57156" lon="4.00801">
        <ele>765</ele>
        <time>2020-05-30T22:15:11Z</time>
      </trkpt>
      <trkpt lat="45.57141" lon="4.00741">
        <ele>766</ele>
        <time>2020-05-30T22:15:18Z</time>
      </trkpt>
      <trkpt lat="45.57137" lon="4.00719">
        <ele>767</ele>
        <time>2020-05-30T22:15:21Z</time>
      </trkpt>
      <trkpt lat="45.57136" lon="4.00688">
        <ele>769</ele>
        <time>2020-05-30T22:15:25Z</time>
      </trkpt>
      <trkpt lat="45.57143" lon="4.00636">
        <ele>771</ele>
        <time>2020-05-30T22:15:32Z</time>
      </trkpt>
      <trkpt lat="45.57164" lon="4.0057">
        <ele>772</ele>
        <time>2020-05-30T22:15:41Z</time>
      </trkpt>
      <trkpt lat="45.57177" lon="4.00539">
        <ele>774</ele>
        <time>2020-05-30T22:15:45Z</time>
      </trkpt>
      <trkpt lat="45.5721" lon="4.00496">
        <ele>778</ele>
        <time>2020-05-30T22:15:53Z</time>
      </trkpt>
      <trkpt lat="45.57272" lon="4.00459">
        <ele>783</ele>
        <time>2020-05-30T22:16:05Z</time>
      </trkpt>
      <trkpt lat="45.57281" lon="4.00449">
        <ele>784</ele>
        <time>2020-05-30T22:16:07Z</time>
      </trkpt>
      <trkpt lat="45.57288" lon="4.00438">
        <ele>785</ele>
        <time>2020-05-30T22:16:09Z</time>
      </trkpt>
      <trkpt lat="45.57294" lon="4.00422">
        <ele>786</ele>
        <time>2020-05-30T22:16:11Z</time>
      </trkpt>
      <trkpt lat="45.57296" lon="4.00403">
        <ele>787</ele>
        <time>2020-05-30T22:16:14Z</time>
      </trkpt>
      <trkpt lat="45.57296" lon="4.00391">
        <ele>788</ele>
        <time>2020-05-30T22:16:15Z</time>
      </trkpt>
      <trkpt lat="45.57286" lon="4.00342">
        <ele>789</ele>
        <time>2020-05-30T22:16:22Z</time>
      </trkpt>
      <trkpt lat="45.57285" lon="4.00327">
        <ele>789</ele>
        <time>2020-05-30T22:16:23Z</time>
      </trkpt>
      <trkpt lat="45.57288" lon="4.00299">
        <ele>788</ele>
        <time>2020-05-30T22:16:27Z</time>
      </trkpt>
      <trkpt lat="45.57294" lon="4.00278">
        <ele>789</ele>
        <time>2020-05-30T22:16:30Z</time>
      </trkpt>
      <trkpt lat="45.57364" lon="4.00117">
        <ele>799</ele>
        <time>2020-05-30T22:16:53Z</time>
      </trkpt>
      <trkpt lat="45.57374" lon="4.00032">
        <ele>799</ele>
        <time>2020-05-30T22:17:04Z</time>
      </trkpt>
      <trkpt lat="45.5739" lon="3.99953">
        <ele>802</ele>
        <time>2020-05-30T22:17:14Z</time>
      </trkpt>
      <trkpt lat="45.57401" lon="3.99916">
        <ele>803</ele>
        <time>2020-05-30T22:17:19Z</time>
      </trkpt>
      <trkpt lat="45.57413" lon="3.99884">
        <ele>803</ele>
        <time>2020-05-30T22:17:24Z</time>
      </trkpt>
      <trkpt lat="45.57428" lon="3.99852">
        <ele>805</ele>
        <time>2020-05-30T22:17:29Z</time>
      </trkpt>
      <trkpt lat="45.57455" lon="3.99798">
        <ele>808</ele>
        <time>2020-05-30T22:17:37Z</time>
      </trkpt>
      <trkpt lat="45.57475" lon="3.99769">
        <ele>811</ele>
        <time>2020-05-30T22:17:42Z</time>
      </trkpt>
      <trkpt lat="45.57509" lon="3.99733">
        <ele>813</ele>
        <time>2020-05-30T22:17:50Z</time>
      </trkpt>
      <trkpt lat="45.57538" lon="3.99709">
        <ele>815</ele>
        <time>2020-05-30T22:17:56Z</time>
      </trkpt>
      <trkpt lat="45.57553" lon="3.99704">
        <ele>816</ele>
        <time>2020-05-30T22:17:58Z</time>
      </trkpt>
      <trkpt lat="45.57567" lon="3.99706">
        <ele>817</ele>
        <time>2020-05-30T22:18:01Z</time>
      </trkpt>
      <trkpt lat="45.5761" lon="3.99726">
        <ele>821</ele>
        <time>2020-05-30T22:18:09Z</time>
      </trkpt>
      <trkpt lat="45.57624" lon="3.99724">
        <ele>821</ele>
        <time>2020-05-30T22:18:11Z</time>
      </trkpt>
      <trkpt lat="45.57633" lon="3.99718">
        <ele>821</ele>
        <time>2020-05-30T22:18:13Z</time>
      </trkpt>
      <trkpt lat="45.57641" lon="3.99709">
        <ele>821</ele>
        <time>2020-05-30T22:18:15Z</time>
      </trkpt>
      <trkpt lat="45.57665" lon="3.99636">
        <ele>822</ele>
        <time>2020-05-30T22:18:25Z</time>
      </trkpt>
      <trkpt lat="45.57687" lon="3.99561">
        <ele>825</ele>
        <time>2020-05-30T22:18:35Z</time>
      </trkpt>
      <trkpt lat="45.57707" lon="3.99481">
        <ele>829</ele>
        <time>2020-05-30T22:18:46Z</time>
      </trkpt>
      <trkpt lat="45.57713" lon="3.99438">
        <ele>830</ele>
        <time>2020-05-30T22:18:51Z</time>
      </trkpt>
      <trkpt lat="45.57718" lon="3.99397">
        <ele>830</ele>
        <time>2020-05-30T22:18:56Z</time>
      </trkpt>
      <trkpt lat="45.57727" lon="3.99374">
        <ele>831</ele>
        <time>2020-05-30T22:19:00Z</time>
      </trkpt>
      <trkpt lat="45.57737" lon="3.99355">
        <ele>833</ele>
        <time>2020-05-30T22:19:03Z</time>
      </trkpt>
      <trkpt lat="45.57766" lon="3.99312">
        <ele>837</ele>
        <time>2020-05-30T22:19:10Z</time>
      </trkpt>
      <trkpt lat="45.57791" lon="3.99269">
        <ele>839</ele>
        <time>2020-05-30T22:19:17Z</time>
      </trkpt>
      <trkpt lat="45.57829" lon="3.99226">
        <ele>842</ele>
        <time>2020-05-30T22:19:26Z</time>
      </trkpt>
      <trkpt lat="45.57845" lon="3.99193">
        <ele>843</ele>
        <time>2020-05-30T22:19:31Z</time>
      </trkpt>
      <trkpt lat="45.57852" lon="3.9917">
        <ele>844</ele>
        <time>2020-05-30T22:19:34Z</time>
      </trkpt>
      <trkpt lat="45.57851" lon="3.99144">
        <ele>845</ele>
        <time>2020-05-30T22:19:37Z</time>
      </trkpt>
      <trkpt lat="45.57839" lon="3.99083">
        <ele>848</ele>
        <time>2020-05-30T22:19:45Z</time>
      </trkpt>
      <trkpt lat="45.57834" lon="3.99014">
        <ele>851</ele>
        <time>2020-05-30T22:19:53Z</time>
      </trkpt>
      <trkpt lat="45.57827" lon="3.98977">
        <ele>856</ele>
        <time>2020-05-30T22:19:58Z</time>
      </trkpt>
      <trkpt lat="45.57808" lon="3.98937">
        <ele>862</ele>
        <time>2020-05-30T22:20:04Z</time>
      </trkpt>
      <trkpt lat="45.57781" lon="3.98905">
        <ele>865</ele>
        <time>2020-05-30T22:20:11Z</time>
      </trkpt>
      <trkpt lat="45.57689" lon="3.98852">
        <ele>871</ele>
        <time>2020-05-30T22:20:28Z</time>
      </trkpt>
      <trkpt lat="45.57609" lon="3.98785">
        <ele>881</ele>
        <time>2020-05-30T22:20:45Z</time>
      </trkpt>
      <trkpt lat="45.57576" lon="3.98754">
        <ele>884</ele>
        <time>2020-05-30T22:20:52Z</time>
      </trkpt>
      <trkpt lat="45.57537" lon="3.98727">
        <ele>882</ele>
        <time>2020-05-30T22:20:59Z</time>
      </trkpt>
      <trkpt lat="45.57437" lon="3.98631">
        <ele>887</ele>
        <time>2020-05-30T22:21:21Z</time>
      </trkpt>
      <trkpt lat="45.57371" lon="3.98586">
        <ele>888</ele>
        <time>2020-05-30T22:21:34Z</time>
      </trkpt>
      <trkpt lat="45.57338" lon="3.98536">
        <ele>896</ele>
        <time>2020-05-30T22:21:42Z</time>
      </trkpt>
      <trkpt lat="45.57307" lon="3.98498">
        <ele>899</ele>
        <time>2020-05-30T22:21:50Z</time>
      </trkpt>
      <trkpt lat="45.57229" lon="3.98444">
        <ele>900</ele>
        <time>2020-05-30T22:22:05Z</time>
      </trkpt>
      <trkpt lat="45.57199" lon="3.9842">
        <ele>902</ele>
        <time>2020-05-30T22:22:11Z</time>
      </trkpt>
      <trkpt lat="45.57178" lon="3.98392">
        <ele>903</ele>
        <time>2020-05-30T22:22:16Z</time>
      </trkpt>
      <trkpt lat="45.57163" lon="3.98351">
        <ele>907</ele>
        <time>2020-05-30T22:22:22Z</time>
      </trkpt>
      <trkpt lat="45.57153" lon="3.98294">
        <ele>909</ele>
        <time>2020-05-30T22:22:29Z</time>
      </trkpt>
      <trkpt lat="45.57152" lon="3.98169">
        <ele>916</ele>
        <time>2020-05-30T22:22:45Z</time>
      </trkpt>
      <trkpt lat="45.57144" lon="3.98136">
        <ele>916</ele>
        <time>2020-05-30T22:22:49Z</time>
      </trkpt>
      <trkpt lat="45.57143" lon="3.98105">
        <ele>918</ele>
        <time>2020-05-30T22:22:53Z</time>
      </trkpt>
      <trkpt lat="45.57156" lon="3.98079">
        <ele>921</ele>
        <time>2020-05-30T22:22:57Z</time>
      </trkpt>
      <trkpt lat="45.57178" lon="3.98056">
        <ele>924</ele>
        <time>2020-05-30T22:23:02Z</time>
      </trkpt>
      <trkpt lat="45.57189" lon="3.98037">
        <ele>925</ele>
        <time>2020-05-30T22:23:05Z</time>
      </trkpt>
      <trkpt lat="45.57195" lon="3.98003">
        <ele>927</ele>
        <time>2020-05-30T22:23:09Z</time>
      </trkpt>
      <trkpt lat="45.57192" lon="3.9793">
        <ele>931</ele>
        <time>2020-05-30T22:23:19Z</time>
      </trkpt>
      <trkpt lat="45.57181" lon="3.97884">
        <ele>933</ele>
        <time>2020-05-30T22:23:25Z</time>
      </trkpt>
      <trkpt lat="45.57141" lon="3.9784">
        <ele>932</ele>
        <time>2020-05-30T22:23:34Z</time>
      </trkpt>
      <trkpt lat="45.57139" lon="3.97817">
        <ele>933</ele>
        <time>2020-05-30T22:23:36Z</time>
      </trkpt>
      <trkpt lat="45.57152" lon="3.97764">
        <ele>938</ele>
        <time>2020-05-30T22:23:43Z</time>
      </trkpt>
      <trkpt lat="45.57177" lon="3.97715">
        <ele>946</ele>
        <time>2020-05-30T22:23:51Z</time>
      </trkpt>
      <trkpt lat="45.5718" lon="3.97696">
        <ele>948</ele>
        <time>2020-05-30T22:23:53Z</time>
      </trkpt>
      <trkpt lat="45.57177" lon="3.97679">
        <ele>949</ele>
        <time>2020-05-30T22:23:56Z</time>
      </trkpt>
      <trkpt lat="45.57168" lon="3.97666">
        <ele>948</ele>
        <time>2020-05-30T22:23:58Z</time>
      </trkpt>
      <trkpt lat="45.57153" lon="3.97653">
        <ele>949</ele>
        <time>2020-05-30T22:24:01Z</time>
      </trkpt>
      <trkpt lat="45.57127" lon="3.97641">
        <ele>948</ele>
        <time>2020-05-30T22:24:06Z</time>
      </trkpt>
      <trkpt lat="45.571" lon="3.97624">
        <ele>949</ele>
        <time>2020-05-30T22:24:11Z</time>
      </trkpt>
      <trkpt lat="45.57029" lon="3.97547">
        <ele>951</ele>
        <time>2020-05-30T22:24:27Z</time>
      </trkpt>
      <trkpt lat="45.57015" lon="3.97522">
        <ele>952</ele>
        <time>2020-05-30T22:24:31Z</time>
      </trkpt>
      <trkpt lat="45.57005" lon="3.97475">
        <ele>957</ele>
        <time>2020-05-30T22:24:37Z</time>
      </trkpt>
      <trkpt lat="45.56996" lon="3.97451">
        <ele>960</ele>
        <time>2020-05-30T22:24:41Z</time>
      </trkpt>
      <trkpt lat="45.5698" lon="3.97422">
        <ele>963</ele>
        <time>2020-05-30T22:24:45Z</time>
      </trkpt>
      <trkpt lat="45.56946" lon="3.97386">
        <ele>964</ele>
        <time>2020-05-30T22:24:53Z</time>
      </trkpt>
      <trkpt lat="45.56932" lon="3.97361">
        <ele>966</ele>
        <time>2020-05-30T22:24:57Z</time>
      </trkpt>
      <trkpt lat="45.56929" lon="3.97355">
        <ele>966</ele>
        <time>2020-05-30T22:24:58Z</time>
      </trkpt>
      <trkpt lat="45.56916" lon="3.9734">
        <ele>966</ele>
        <time>2020-05-30T22:25:01Z</time>
      </trkpt>
      <trkpt lat="45.56904" lon="3.97338">
        <ele>968</ele>
        <time>2020-05-30T22:25:03Z</time>
      </trkpt>
      <trkpt lat="45.56891" lon="3.97342">
        <ele>968</ele>
        <time>2020-05-30T22:25:05Z</time>
      </trkpt>
      <trkpt lat="45.56878" lon="3.97351">
        <ele>968</ele>
        <time>2020-05-30T22:25:08Z</time>
      </trkpt>
      <trkpt lat="45.56863" lon="3.97358">
        <ele>969</ele>
        <time>2020-05-30T22:25:10Z</time>
      </trkpt>
      <trkpt lat="45.56848" lon="3.97361">
        <ele>969</ele>
        <time>2020-05-30T22:25:13Z</time>
      </trkpt>
      <trkpt lat="45.56755" lon="3.97344">
        <ele>975</ele>
        <time>2020-05-30T22:25:30Z</time>
      </trkpt>
      <trkpt lat="45.5674" lon="3.97338">
        <ele>976</ele>
        <time>2020-05-30T22:25:33Z</time>
      </trkpt>
      <trkpt lat="45.56727" lon="3.97324">
        <ele>977</ele>
        <time>2020-05-30T22:25:35Z</time>
      </trkpt>
      <trkpt lat="45.56702" lon="3.97257">
        <ele>983</ele>
        <time>2020-05-30T22:25:45Z</time>
      </trkpt>
      <trkpt lat="45.56698" lon="3.97234">
        <ele>985</ele>
        <time>2020-05-30T22:25:48Z</time>
      </trkpt>
      <trkpt lat="45.56696" lon="3.97178">
        <ele>988</ele>
        <time>2020-05-30T22:25:55Z</time>
      </trkpt>
      <trkpt lat="45.56692" lon="3.97153">
        <ele>989</ele>
        <time>2020-05-30T22:25:58Z</time>
      </trkpt>
      <trkpt lat="45.56675" lon="3.97117">
        <ele>992</ele>
        <time>2020-05-30T22:26:03Z</time>
      </trkpt>
      <trkpt lat="45.56669" lon="3.97094">
        <ele>993</ele>
        <time>2020-05-30T22:26:07Z</time>
      </trkpt>
      <trkpt lat="45.56667" lon="3.97012">
        <ele>995</ele>
        <time>2020-05-30T22:26:17Z</time>
      </trkpt>
      <trkpt lat="45.56664" lon="3.96991">
        <ele>996</ele>
        <time>2020-05-30T22:26:19Z</time>
      </trkpt>
      <trkpt lat="45.56654" lon="3.9695">
        <ele>999</ele>
        <time>2020-05-30T22:26:25Z</time>
      </trkpt>
      <trkpt lat="45.56644" lon="3.96916">
        <ele>1002</ele>
        <time>2020-05-30T22:26:29Z</time>
      </trkpt>
      <trkpt lat="45.56628" lon="3.96884">
        <ele>1004</ele>
        <time>2020-05-30T22:26:34Z</time>
      </trkpt>
      <trkpt lat="45.56616" lon="3.96864">
        <ele>1005</ele>
        <time>2020-05-30T22:26:38Z</time>
      </trkpt>
      <trkpt lat="45.56601" lon="3.96852">
        <ele>1005</ele>
        <time>2020-05-30T22:26:41Z</time>
      </trkpt>
      <trkpt lat="45.56589" lon="3.96848">
        <ele>1004</ele>
        <time>2020-05-30T22:26:43Z</time>
      </trkpt>
      <trkpt lat="45.5653" lon="3.96848">
        <ele>1000</ele>
        <time>2020-05-30T22:26:53Z</time>
      </trkpt>
      <trkpt lat="45.56515" lon="3.96839">
        <ele>1000</ele>
        <time>2020-05-30T22:26:56Z</time>
      </trkpt>
      <trkpt lat="45.56504" lon="3.9682">
        <ele>1001</ele>
        <time>2020-05-30T22:26:59Z</time>
      </trkpt>
      <trkpt lat="45.56476" lon="3.96711">
        <ele>1022</ele>
        <time>2020-05-30T22:27:14Z</time>
      </trkpt>
      <trkpt lat="45.56458" lon="3.96663">
        <ele>1032</ele>
        <time>2020-05-30T22:27:21Z</time>
      </trkpt>
      <trkpt lat="45.56445" lon="3.96638">
        <ele>1037</ele>
        <time>2020-05-30T22:27:24Z</time>
      </trkpt>
      <trkpt lat="45.56435" lon="3.96631">
        <ele>1038</ele>
        <time>2020-05-30T22:27:26Z</time>
      </trkpt>
      <trkpt lat="45.56425" lon="3.96628">
        <ele>1038</ele>
        <time>2020-05-30T22:27:28Z</time>
      </trkpt>
      <trkpt lat="45.5641" lon="3.96634">
        <ele>1038</ele>
        <time>2020-05-30T22:27:31Z</time>
      </trkpt>
      <trkpt lat="45.56403" lon="3.9666">
        <ele>1034</ele>
        <time>2020-05-30T22:27:34Z</time>
      </trkpt>
      <trkpt lat="45.56407" lon="3.96705">
        <ele>1028</ele>
        <time>2020-05-30T22:27:40Z</time>
      </trkpt>
      <trkpt lat="45.56402" lon="3.96732">
        <ele>1027</ele>
        <time>2020-05-30T22:27:44Z</time>
      </trkpt>
      <trkpt lat="45.56386" lon="3.96771">
        <ele>1029</ele>
        <time>2020-05-30T22:27:49Z</time>
      </trkpt>
      <trkpt lat="45.56367" lon="3.96809">
        <ele>1031</ele>
        <time>2020-05-30T22:27:55Z</time>
      </trkpt>
      <trkpt lat="45.56352" lon="3.9683">
        <ele>1034</ele>
        <time>2020-05-30T22:27:59Z</time>
      </trkpt>
      <trkpt lat="45.56331" lon="3.96846">
        <ele>1038</ele>
        <time>2020-05-30T22:28:03Z</time>
      </trkpt>
      <trkpt lat="45.56263" lon="3.96846">
        <ele>1041</ele>
        <time>2020-05-30T22:28:15Z</time>
      </trkpt>
      <trkpt lat="45.56229" lon="3.9685">
        <ele>1044</ele>
        <time>2020-05-30T22:28:21Z</time>
      </trkpt>
      <trkpt lat="45.56138" lon="3.96879">
        <ele>1050</ele>
        <time>2020-05-30T22:28:38Z</time>
      </trkpt>
      <trkpt lat="45.56112" lon="3.96881">
        <ele>1052</ele>
        <time>2020-05-30T22:28:42Z</time>
      </trkpt>
      <trkpt lat="45.56054" lon="3.96855">
        <ele>1065</ele>
        <time>2020-05-30T22:28:53Z</time>
      </trkpt>
      <trkpt lat="45.55992" lon="3.96844">
        <ele>1073</ele>
        <time>2020-05-30T22:29:04Z</time>
      </trkpt>
      <trkpt lat="45.55984" lon="3.96846">
        <ele>1074</ele>
        <time>2020-05-30T22:29:06Z</time>
      </trkpt>
      <trkpt lat="45.55977" lon="3.96852">
        <ele>1074</ele>
        <time>2020-05-30T22:29:07Z</time>
      </trkpt>
      <trkpt lat="45.55921" lon="3.96993">
        <ele>1074</ele>
        <time>2020-05-30T22:29:27Z</time>
      </trkpt>
      <trkpt lat="45.5588" lon="3.97078">
        <ele>1077</ele>
        <time>2020-05-30T22:29:40Z</time>
      </trkpt>
      <trkpt lat="45.55856" lon="3.97119">
        <ele>1077</ele>
        <time>2020-05-30T22:29:47Z</time>
      </trkpt>
      <trkpt lat="45.55845" lon="3.97146">
        <ele>1077</ele>
        <time>2020-05-30T22:29:51Z</time>
      </trkpt>
      <trkpt lat="45.55835" lon="3.97183">
        <ele>1075</ele>
        <time>2020-05-30T22:29:56Z</time>
      </trkpt>
      <trkpt lat="45.55819" lon="3.97209">
        <ele>1074</ele>
        <time>2020-05-30T22:30:00Z</time>
      </trkpt>
      <trkpt lat="45.55809" lon="3.97211">
        <ele>1076</ele>
        <time>2020-05-30T22:30:02Z</time>
      </trkpt>
      <trkpt lat="45.55796" lon="3.97211">
        <ele>1078</ele>
        <time>2020-05-30T22:30:04Z</time>
      </trkpt>
      <trkpt lat="45.55764" lon="3.97206">
        <ele>1085</ele>
        <time>2020-05-30T22:30:10Z</time>
      </trkpt>
      <trkpt lat="45.55723" lon="3.97205">
        <ele>1087</ele>
        <time>2020-05-30T22:30:17Z</time>
      </trkpt>
      <trkpt lat="45.55706" lon="3.972">
        <ele>1088</ele>
        <time>2020-05-30T22:30:20Z</time>
      </trkpt>
      <trkpt lat="45.55615" lon="3.9713">
        <ele>1096</ele>
        <time>2020-05-30T22:30:39Z</time>
      </trkpt>
      <trkpt lat="45.55583" lon="3.971">
        <ele>1097</ele>
        <time>2020-05-30T22:30:46Z</time>
      </trkpt>
      <trkpt lat="45.55561" lon="3.97066">
        <ele>1097</ele>
        <time>2020-05-30T22:30:51Z</time>
      </trkpt>
      <trkpt lat="45.55555" lon="3.97055">
        <ele>1097</ele>
        <time>2020-05-30T22:30:53Z</time>
      </trkpt>
      <trkpt lat="45.55541" lon="3.97026">
        <ele>1097</ele>
        <time>2020-05-30T22:30:57Z</time>
      </trkpt>
      <trkpt lat="45.55535" lon="3.96989">
        <ele>1099</ele>
        <time>2020-05-30T22:31:02Z</time>
      </trkpt>
      <trkpt lat="45.55541" lon="3.96912">
        <ele>1105</ele>
        <time>2020-05-30T22:31:12Z</time>
      </trkpt>
      <trkpt lat="45.55547" lon="3.96821">
        <ele>1110</ele>
        <time>2020-05-30T22:31:23Z</time>
      </trkpt>
      <trkpt lat="45.55546" lon="3.968">
        <ele>1111</ele>
        <time>2020-05-30T22:31:26Z</time>
      </trkpt>
      <trkpt lat="45.5554" lon="3.96785">
        <ele>1113</ele>
        <time>2020-05-30T22:31:28Z</time>
      </trkpt>
      <trkpt lat="45.55533" lon="3.96776">
        <ele>1114</ele>
        <time>2020-05-30T22:31:30Z</time>
      </trkpt>
      <trkpt lat="45.55523" lon="3.96769">
        <ele>1115</ele>
        <time>2020-05-30T22:31:32Z</time>
      </trkpt>
      <trkpt lat="45.55508" lon="3.96767">
        <ele>1116</ele>
        <time>2020-05-30T22:31:34Z</time>
      </trkpt>
      <trkpt lat="45.55428" lon="3.96803">
        <ele>1122</ele>
        <time>2020-05-30T22:31:49Z</time>
      </trkpt>
      <trkpt lat="45.55404" lon="3.96808">
        <ele>1124</ele>
        <time>2020-05-30T22:31:54Z</time>
      </trkpt>
      <trkpt lat="45.55381" lon="3.96801">
        <ele>1126</ele>
        <time>2020-05-30T22:31:58Z</time>
      </trkpt>
      <trkpt lat="45.55354" lon="3.9678">
        <ele>1130</ele>
        <time>2020-05-30T22:32:03Z</time>
      </trkpt>
      <trkpt lat="45.55335" lon="3.9677">
        <ele>1133</ele>
        <time>2020-05-30T22:32:07Z</time>
      </trkpt>
      <trkpt lat="45.55315" lon="3.96766">
        <ele>1136</ele>
        <time>2020-05-30T22:32:10Z</time>
      </trkpt>
      <trkpt lat="45.55295" lon="3.96767">
        <ele>1139</ele>
        <time>2020-05-30T22:32:14Z</time>
      </trkpt>
      <trkpt lat="45.55277" lon="3.96772">
        <ele>1141</ele>
        <time>2020-05-30T22:32:17Z</time>
      </trkpt>
      <trkpt lat="45.55226" lon="3.9681">
        <ele>1144</ele>
        <time>2020-05-30T22:32:27Z</time>
      </trkpt>
      <trkpt lat="45.55213" lon="3.96822">
        <ele>1144</ele>
        <time>2020-05-30T22:32:30Z</time>
      </trkpt>
      <trkpt lat="45.55201" lon="3.96836">
        <ele>1144</ele>
        <time>2020-05-30T22:32:33Z</time>
      </trkpt>
      <trkpt lat="45.55168" lon="3.96893">
        <ele>1142</ele>
        <time>2020-05-30T22:32:42Z</time>
      </trkpt>
      <trkpt lat="45.55157" lon="3.96904">
        <ele>1141</ele>
        <time>2020-05-30T22:32:45Z</time>
      </trkpt>
      <trkpt lat="45.55142" lon="3.96913">
        <ele>1141</ele>
        <time>2020-05-30T22:32:47Z</time>
      </trkpt>
      <trkpt lat="45.55114" lon="3.96916">
        <ele>1143</ele>
        <time>2020-05-30T22:32:52Z</time>
      </trkpt>
      <trkpt lat="45.55084" lon="3.96913">
        <ele>1145</ele>
        <time>2020-05-30T22:32:58Z</time>
      </trkpt>
      <trkpt lat="45.55057" lon="3.96902">
        <ele>1143</ele>
        <time>2020-05-30T22:33:03Z</time>
      </trkpt>
      <trkpt lat="45.55017" lon="3.96873">
        <ele>1144</ele>
        <time>2020-05-30T22:33:11Z</time>
      </trkpt>
      <trkpt lat="45.54973" lon="3.96833">
        <ele>1149</ele>
        <time>2020-05-30T22:33:20Z</time>
      </trkpt>
      <trkpt lat="45.54973" lon="3.96832">
        <ele>1149</ele>
        <time>2020-05-30T22:33:20Z</time>
      </trkpt>
      <trkpt lat="45.54949" lon="3.96814">
        <ele>1151</ele>
        <time>2020-05-30T22:33:25Z</time>
      </trkpt>
      <trkpt lat="45.5489" lon="3.9678">
        <ele>1155</ele>
        <time>2020-05-30T22:33:36Z</time>
      </trkpt>
      <trkpt lat="45.54857" lon="3.96756">
        <ele>1156</ele>
        <time>2020-05-30T22:33:43Z</time>
      </trkpt>
      <trkpt lat="45.54843" lon="3.9674">
        <ele>1157</ele>
        <time>2020-05-30T22:33:46Z</time>
      </trkpt>
      <trkpt lat="45.54831" lon="3.96722">
        <ele>1158</ele>
        <time>2020-05-30T22:33:49Z</time>
      </trkpt>
      <trkpt lat="45.54817" lon="3.96683">
        <ele>1159</ele>
        <time>2020-05-30T22:33:55Z</time>
      </trkpt>
      <trkpt lat="45.54808" lon="3.96645">
        <ele>1160</ele>
        <time>2020-05-30T22:34:00Z</time>
      </trkpt>
      <trkpt lat="45.54805" lon="3.96609">
        <ele>1162</ele>
        <time>2020-05-30T22:34:04Z</time>
      </trkpt>
      <trkpt lat="45.54804" lon="3.96567">
        <ele>1165</ele>
        <time>2020-05-30T22:34:09Z</time>
      </trkpt>
      <trkpt lat="45.548" lon="3.96554">
        <ele>1166</ele>
        <time>2020-05-30T22:34:11Z</time>
      </trkpt>
      <trkpt lat="45.54791" lon="3.96542">
        <ele>1166</ele>
        <time>2020-05-30T22:34:13Z</time>
      </trkpt>
      <trkpt lat="45.54773" lon="3.96534">
        <ele>1164</ele>
        <time>2020-05-30T22:34:17Z</time>
      </trkpt>
      <trkpt lat="45.54753" lon="3.96529">
        <ele>1162</ele>
        <time>2020-05-30T22:34:20Z</time>
      </trkpt>
      <trkpt lat="45.54735" lon="3.96517">
        <ele>1162</ele>
        <time>2020-05-30T22:34:24Z</time>
      </trkpt>
      <trkpt lat="45.5472" lon="3.96497">
        <ele>1163</ele>
        <time>2020-05-30T22:34:28Z</time>
      </trkpt>
      <trkpt lat="45.54688" lon="3.96429">
        <ele>1163</ele>
        <time>2020-05-30T22:34:38Z</time>
      </trkpt>
      <trkpt lat="45.54673" lon="3.96378">
        <ele>1161</ele>
        <time>2020-05-30T22:34:45Z</time>
      </trkpt>
      <trkpt lat="45.54669" lon="3.96349">
        <ele>1160</ele>
        <time>2020-05-30T22:34:48Z</time>
      </trkpt>
      <trkpt lat="45.54665" lon="3.96294">
        <ele>1159</ele>
        <time>2020-05-30T22:34:55Z</time>
      </trkpt>
      <trkpt lat="45.54664" lon="3.9625">
        <ele>1158</ele>
        <time>2020-05-30T22:35:01Z</time>
      </trkpt>
      <trkpt lat="45.54665" lon="3.96203">
        <ele>1157</ele>
        <time>2020-05-30T22:35:07Z</time>
      </trkpt>
      <trkpt lat="45.54664" lon="3.96163">
        <ele>1156</ele>
        <time>2020-05-30T22:35:12Z</time>
      </trkpt>
      <trkpt lat="45.54659" lon="3.96127">
        <ele>1155</ele>
        <time>2020-05-30T22:35:16Z</time>
      </trkpt>
      <trkpt lat="45.54649" lon="3.96084">
        <ele>1154</ele>
        <time>2020-05-30T22:35:22Z</time>
      </trkpt>
      <trkpt lat="45.54634" lon="3.9605">
        <ele>1154</ele>
        <time>2020-05-30T22:35:27Z</time>
      </trkpt>
      <trkpt lat="45.54615" lon="3.96015">
        <ele>1153</ele>
        <time>2020-05-30T22:35:32Z</time>
      </trkpt>
      <trkpt lat="45.54594" lon="3.95984">
        <ele>1152</ele>
        <time>2020-05-30T22:35:38Z</time>
      </trkpt>
      <trkpt lat="45.54558" lon="3.95939">
        <ele>1150</ele>
        <time>2020-05-30T22:35:46Z</time>
      </trkpt>
      <trkpt lat="45.54543" lon="3.95917">
        <ele>1149</ele>
        <time>2020-05-30T22:35:50Z</time>
      </trkpt>
      <trkpt lat="45.545" lon="3.95828">
        <ele>1147</ele>
        <time>2020-05-30T22:36:03Z</time>
      </trkpt>
      <trkpt lat="45.54489" lon="3.95803">
        <ele>1147</ele>
        <time>2020-05-30T22:36:07Z</time>
      </trkpt>
      <trkpt lat="45.54484" lon="3.95785">
        <ele>1148</ele>
        <time>2020-05-30T22:36:10Z</time>
      </trkpt>
      <trkpt lat="45.54482" lon="3.95767">
        <ele>1148</ele>
        <time>2020-05-30T22:36:12Z</time>
      </trkpt>
      <trkpt lat="45.54486" lon="3.95735">
        <ele>1150</ele>
        <time>2020-05-30T22:36:16Z</time>
      </trkpt>
      <trkpt lat="45.54494" lon="3.9568">
        <ele>1151</ele>
        <time>2020-05-30T22:36:23Z</time>
      </trkpt>
      <trkpt lat="45.54521" lon="3.95506">
        <ele>1148</ele>
        <time>2020-05-30T22:36:45Z</time>
      </trkpt>
      <trkpt lat="45.5453" lon="3.95439">
        <ele>1149</ele>
        <time>2020-05-30T22:36:54Z</time>
      </trkpt>
      <trkpt lat="45.54534" lon="3.95404">
        <ele>1150</ele>
        <time>2020-05-30T22:36:58Z</time>
      </trkpt>
      <trkpt lat="45.54548" lon="3.95286">
        <ele>1154</ele>
        <time>2020-05-30T22:37:13Z</time>
      </trkpt>
      <trkpt lat="45.5455" lon="3.95258">
        <ele>1153</ele>
        <time>2020-05-30T22:37:16Z</time>
      </trkpt>
      <trkpt lat="45.54547" lon="3.95232">
        <ele>1153</ele>
        <time>2020-05-30T22:37:20Z</time>
      </trkpt>
      <trkpt lat="45.54543" lon="3.95212">
        <ele>1153</ele>
        <time>2020-05-30T22:37:22Z</time>
      </trkpt>
      <trkpt lat="45.54535" lon="3.95189">
        <ele>1152</ele>
        <time>2020-05-30T22:37:26Z</time>
      </trkpt>
      <trkpt lat="45.54311" lon="3.94737">
        <ele>1159</ele>
        <time>2020-05-30T22:38:35Z</time>
      </trkpt>
      <trkpt lat="45.54303" lon="3.94721">
        <ele>1159</ele>
        <time>2020-05-30T22:38:37Z</time>
      </trkpt>
      <trkpt lat="45.54294" lon="3.94709">
        <ele>1159</ele>
        <time>2020-05-30T22:38:39Z</time>
      </trkpt>
      <trkpt lat="45.54282" lon="3.94697">
        <ele>1158</ele>
        <time>2020-05-30T22:38:42Z</time>
      </trkpt>
      <trkpt lat="45.54278" lon="3.94693">
        <ele>1158</ele>
        <time>2020-05-30T22:38:43Z</time>
      </trkpt>
      <trkpt lat="45.54229" lon="3.94647">
        <ele>1154</ele>
        <time>2020-05-30T22:38:53Z</time>
      </trkpt>
      <trkpt lat="45.54193" lon="3.94618">
        <ele>1152</ele>
        <time>2020-05-30T22:39:00Z</time>
      </trkpt>
      <trkpt lat="45.54156" lon="3.94592">
        <ele>1150</ele>
        <time>2020-05-30T22:39:08Z</time>
      </trkpt>
      <trkpt lat="45.54119" lon="3.94573">
        <ele>1149</ele>
        <time>2020-05-30T22:39:15Z</time>
      </trkpt>
      <trkpt lat="45.54051" lon="3.94543">
        <ele>1146</ele>
        <time>2020-05-30T22:39:27Z</time>
      </trkpt>
      <trkpt lat="45.54022" lon="3.94525">
        <ele>1144</ele>
        <time>2020-05-30T22:39:33Z</time>
      </trkpt>
      <trkpt lat="45.54005" lon="3.94511">
        <ele>1143</ele>
        <time>2020-05-30T22:39:37Z</time>
      </trkpt>
      <trkpt lat="45.53993" lon="3.94492">
        <ele>1142</ele>
        <time>2020-05-30T22:39:40Z</time>
      </trkpt>
      <trkpt lat="45.53986" lon="3.94475">
        <ele>1140</ele>
        <time>2020-05-30T22:39:42Z</time>
      </trkpt>
      <trkpt lat="45.53982" lon="3.94456">
        <ele>1139</ele>
        <time>2020-05-30T22:39:45Z</time>
      </trkpt>
      <trkpt lat="45.5398" lon="3.94435">
        <ele>1138</ele>
        <time>2020-05-30T22:39:47Z</time>
      </trkpt>
      <trkpt lat="45.53982" lon="3.94415">
        <ele>1136</ele>
        <time>2020-05-30T22:39:50Z</time>
      </trkpt>
      <trkpt lat="45.53987" lon="3.94395">
        <ele>1135</ele>
        <time>2020-05-30T22:39:52Z</time>
      </trkpt>
      <trkpt lat="45.53995" lon="3.94377">
        <ele>1134</ele>
        <time>2020-05-30T22:39:55Z</time>
      </trkpt>
      <trkpt lat="45.53997" lon="3.94375">
        <ele>1134</ele>
        <time>2020-05-30T22:39:56Z</time>
      </trkpt>
      <trkpt lat="45.54014" lon="3.94359">
        <ele>1132</ele>
        <time>2020-05-30T22:39:59Z</time>
      </trkpt>
      <trkpt lat="45.54037" lon="3.94351">
        <ele>1130</ele>
        <time>2020-05-30T22:40:03Z</time>
      </trkpt>
      <trkpt lat="45.54091" lon="3.94356">
        <ele>1128</ele>
        <time>2020-05-30T22:40:13Z</time>
      </trkpt>
      <trkpt lat="45.54111" lon="3.94354">
        <ele>1128</ele>
        <time>2020-05-30T22:40:17Z</time>
      </trkpt>
      <trkpt lat="45.54129" lon="3.94349">
        <ele>1127</ele>
        <time>2020-05-30T22:40:20Z</time>
      </trkpt>
      <trkpt lat="45.54149" lon="3.94339">
        <ele>1125</ele>
        <time>2020-05-30T22:40:24Z</time>
      </trkpt>
      <trkpt lat="45.54169" lon="3.94325">
        <ele>1124</ele>
        <time>2020-05-30T22:40:28Z</time>
      </trkpt>
      <trkpt lat="45.54258" lon="3.94253">
        <ele>1124</ele>
        <time>2020-05-30T22:40:46Z</time>
      </trkpt>
      <trkpt lat="45.54292" lon="3.94226">
        <ele>1123</ele>
        <time>2020-05-30T22:40:53Z</time>
      </trkpt>
      <trkpt lat="45.54336" lon="3.94191">
        <ele>1118</ele>
        <time>2020-05-30T22:41:02Z</time>
      </trkpt>
      <trkpt lat="45.54366" lon="3.94168">
        <ele>1116</ele>
        <time>2020-05-30T22:41:08Z</time>
      </trkpt>
      <trkpt lat="45.54391" lon="3.94147">
        <ele>1115</ele>
        <time>2020-05-30T22:41:13Z</time>
      </trkpt>
      <trkpt lat="45.544" lon="3.94133">
        <ele>1113</ele>
        <time>2020-05-30T22:41:15Z</time>
      </trkpt>
      <trkpt lat="45.54404" lon="3.94125">
        <ele>1112</ele>
        <time>2020-05-30T22:41:16Z</time>
      </trkpt>
      <trkpt lat="45.5441" lon="3.94108">
        <ele>1110</ele>
        <time>2020-05-30T22:41:19Z</time>
      </trkpt>
      <trkpt lat="45.54414" lon="3.94096">
        <ele>1108</ele>
        <time>2020-05-30T22:41:21Z</time>
      </trkpt>
      <trkpt lat="45.54419" lon="3.94071">
        <ele>1106</ele>
        <time>2020-05-30T22:41:24Z</time>
      </trkpt>
      <trkpt lat="45.54418" lon="3.94047">
        <ele>1105</ele>
        <time>2020-05-30T22:41:27Z</time>
      </trkpt>
      <trkpt lat="45.54412" lon="3.94026">
        <ele>1103</ele>
        <time>2020-05-30T22:41:30Z</time>
      </trkpt>
      <trkpt lat="45.5439" lon="3.93962">
        <ele>1097</ele>
        <time>2020-05-30T22:41:38Z</time>
      </trkpt>
      <trkpt lat="45.54387" lon="3.93936">
        <ele>1095</ele>
        <time>2020-05-30T22:41:42Z</time>
      </trkpt>
      <trkpt lat="45.54389" lon="3.9391">
        <ele>1094</ele>
        <time>2020-05-30T22:41:45Z</time>
      </trkpt>
      <trkpt lat="45.54398" lon="3.93878">
        <ele>1092</ele>
        <time>2020-05-30T22:41:49Z</time>
      </trkpt>
      <trkpt lat="45.54414" lon="3.93853">
        <ele>1091</ele>
        <time>2020-05-30T22:41:54Z</time>
      </trkpt>
      <trkpt lat="45.54436" lon="3.93835">
        <ele>1090</ele>
        <time>2020-05-30T22:41:58Z</time>
      </trkpt>
      <trkpt lat="45.54473" lon="3.93812">
        <ele>1089</ele>
        <time>2020-05-30T22:42:05Z</time>
      </trkpt>
      <trkpt lat="45.5452" lon="3.93783">
        <ele>1084</ele>
        <time>2020-05-30T22:42:14Z</time>
      </trkpt>
      <trkpt lat="45.54572" lon="3.93751">
        <ele>1078</ele>
        <time>2020-05-30T22:42:24Z</time>
      </trkpt>
      <trkpt lat="45.54599" lon="3.93738">
        <ele>1076</ele>
        <time>2020-05-30T22:42:29Z</time>
      </trkpt>
      <trkpt lat="45.54625" lon="3.93732">
        <ele>1076</ele>
        <time>2020-05-30T22:42:34Z</time>
      </trkpt>
      <trkpt lat="45.54652" lon="3.93732">
        <ele>1076</ele>
        <time>2020-05-30T22:42:39Z</time>
      </trkpt>
      <trkpt lat="45.54705" lon="3.9374">
        <ele>1077</ele>
        <time>2020-05-30T22:42:48Z</time>
      </trkpt>
      <trkpt lat="45.54722" lon="3.93735">
        <ele>1075</ele>
        <time>2020-05-30T22:42:52Z</time>
      </trkpt>
      <trkpt lat="45.54736" lon="3.93725">
        <ele>1074</ele>
        <time>2020-05-30T22:42:54Z</time>
      </trkpt>
      <trkpt lat="45.54746" lon="3.93706">
        <ele>1072</ele>
        <time>2020-05-30T22:42:57Z</time>
      </trkpt>
      <trkpt lat="45.54752" lon="3.93684">
        <ele>1071</ele>
        <time>2020-05-30T22:43:00Z</time>
      </trkpt>
      <trkpt lat="45.54751" lon="3.9366">
        <ele>1070</ele>
        <time>2020-05-30T22:43:03Z</time>
      </trkpt>
      <trkpt lat="45.5475" lon="3.93656">
        <ele>1070</ele>
        <time>2020-05-30T22:43:04Z</time>
      </trkpt>
      <trkpt lat="45.54745" lon="3.9364">
        <ele>1070</ele>
        <time>2020-05-30T22:43:06Z</time>
      </trkpt>
      <trkpt lat="45.54729" lon="3.93619">
        <ele>1069</ele>
        <time>2020-05-30T22:43:10Z</time>
      </trkpt>
      <trkpt lat="45.54634" lon="3.93543">
        <ele>1064</ele>
        <time>2020-05-30T22:43:29Z</time>
      </trkpt>
      <trkpt lat="45.54619" lon="3.93528">
        <ele>1063</ele>
        <time>2020-05-30T22:43:32Z</time>
      </trkpt>
      <trkpt lat="45.54578" lon="3.93471">
        <ele>1068</ele>
        <time>2020-05-30T22:43:43Z</time>
      </trkpt>
      <trkpt lat="45.5456" lon="3.93458">
        <ele>1070</ele>
        <time>2020-05-30T22:43:46Z</time>
      </trkpt>
      <trkpt lat="45.54541" lon="3.93455">
        <ele>1068</ele>
        <time>2020-05-30T22:43:50Z</time>
      </trkpt>
      <trkpt lat="45.54522" lon="3.9346">
        <ele>1065</ele>
        <time>2020-05-30T22:43:53Z</time>
      </trkpt>
      <trkpt lat="45.5447" lon="3.93507">
        <ele>1053</ele>
        <time>2020-05-30T22:44:04Z</time>
      </trkpt>
      <trkpt lat="45.54438" lon="3.93516">
        <ele>1050</ele>
        <time>2020-05-30T22:44:10Z</time>
      </trkpt>
      <trkpt lat="45.54414" lon="3.93514">
        <ele>1049</ele>
        <time>2020-05-30T22:44:14Z</time>
      </trkpt>
      <trkpt lat="45.54402" lon="3.93507">
        <ele>1048</ele>
        <time>2020-05-30T22:44:16Z</time>
      </trkpt>
      <trkpt lat="45.54335" lon="3.9347">
        <ele>1046</ele>
        <time>2020-05-30T22:44:29Z</time>
      </trkpt>
      <trkpt lat="45.54133" lon="3.93357">
        <ele>1033</ele>
        <time>2020-05-30T22:45:08Z</time>
      </trkpt>
      <trkpt lat="45.54095" lon="3.93317">
        <ele>1029</ele>
        <time>2020-05-30T22:45:16Z</time>
      </trkpt>
      <trkpt lat="45.54044" lon="3.93252">
        <ele>1027</ele>
        <time>2020-05-30T22:45:28Z</time>
      </trkpt>
      <trkpt lat="45.54019" lon="3.93228">
        <ele>1025</ele>
        <time>2020-05-30T22:45:34Z</time>
      </trkpt>
      <trkpt lat="45.53996" lon="3.9322">
        <ele>1021</ele>
        <time>2020-05-30T22:45:38Z</time>
      </trkpt>
      <trkpt lat="45.53966" lon="3.93217">
        <ele>1018</ele>
        <time>2020-05-30T22:45:43Z</time>
      </trkpt>
      <trkpt lat="45.53938" lon="3.9321">
        <ele>1015</ele>
        <time>2020-05-30T22:45:48Z</time>
      </trkpt>
      <trkpt lat="45.53917" lon="3.93198">
        <ele>1014</ele>
        <time>2020-05-30T22:45:52Z</time>
      </trkpt>
      <trkpt lat="45.53827" lon="3.93111">
        <ele>1013</ele>
        <time>2020-05-30T22:46:12Z</time>
      </trkpt>
      <trkpt lat="45.53808" lon="3.93096">
        <ele>1012</ele>
        <time>2020-05-30T22:46:16Z</time>
      </trkpt>
      <trkpt lat="45.53759" lon="3.93072">
        <ele>1002</ele>
        <time>2020-05-30T22:46:25Z</time>
      </trkpt>
      <trkpt lat="45.5375" lon="3.93063">
        <ele>1001</ele>
        <time>2020-05-30T22:46:27Z</time>
      </trkpt>
      <trkpt lat="45.53744" lon="3.93058">
        <ele>1001</ele>
        <time>2020-05-30T22:46:28Z</time>
      </trkpt>
      <trkpt lat="45.53733" lon="3.9304">
        <ele>1001</ele>
        <time>2020-05-30T22:46:31Z</time>
      </trkpt>
      <trkpt lat="45.537" lon="3.92939">
        <ele>1003</ele>
        <time>2020-05-30T22:46:45Z</time>
      </trkpt>
      <trkpt lat="45.53683" lon="3.92905">
        <ele>1000</ele>
        <time>2020-05-30T22:46:50Z</time>
      </trkpt>
      <trkpt lat="45.53665" lon="3.92873">
        <ele>996</ele>
        <time>2020-05-30T22:46:55Z</time>
      </trkpt>
      <trkpt lat="45.53618" lon="3.928">
        <ele>992</ele>
        <time>2020-05-30T22:47:07Z</time>
      </trkpt>
      <trkpt lat="45.53602" lon="3.92763">
        <ele>990</ele>
        <time>2020-05-30T22:47:13Z</time>
      </trkpt>
      <trkpt lat="45.53592" lon="3.92726">
        <ele>988</ele>
        <time>2020-05-30T22:47:18Z</time>
      </trkpt>
      <trkpt lat="45.53586" lon="3.92672">
        <ele>985</ele>
        <time>2020-05-30T22:47:25Z</time>
      </trkpt>
      <trkpt lat="45.53585" lon="3.92637">
        <ele>982</ele>
        <time>2020-05-30T22:47:29Z</time>
      </trkpt>
      <trkpt lat="45.53592" lon="3.92574">
        <ele>981</ele>
        <time>2020-05-30T22:47:37Z</time>
      </trkpt>
      <trkpt lat="45.53592" lon="3.92547">
        <ele>980</ele>
        <time>2020-05-30T22:47:40Z</time>
      </trkpt>
      <trkpt lat="45.53589" lon="3.92516">
        <ele>978</ele>
        <time>2020-05-30T22:47:44Z</time>
      </trkpt>
      <trkpt lat="45.53569" lon="3.92467">
        <ele>973</ele>
        <time>2020-05-30T22:47:51Z</time>
      </trkpt>
      <trkpt lat="45.53502" lon="3.92335">
        <ele>962</ele>
        <time>2020-05-30T22:48:12Z</time>
      </trkpt>
      <trkpt lat="45.5347" lon="3.92283">
        <ele>959</ele>
        <time>2020-05-30T22:48:20Z</time>
      </trkpt>
      <trkpt lat="45.53447" lon="3.92254">
        <ele>958</ele>
        <time>2020-05-30T22:48:26Z</time>
      </trkpt>
      <trkpt lat="45.53415" lon="3.92216">
        <ele>959</ele>
        <time>2020-05-30T22:48:33Z</time>
      </trkpt>
      <trkpt lat="45.53395" lon="3.92195">
        <ele>960</ele>
        <time>2020-05-30T22:48:38Z</time>
      </trkpt>
      <trkpt lat="45.53394" lon="3.92194">
        <ele>960</ele>
        <time>2020-05-30T22:48:38Z</time>
      </trkpt>
      <trkpt lat="45.53375" lon="3.92175">
        <ele>959</ele>
        <time>2020-05-30T22:48:42Z</time>
      </trkpt>
      <trkpt lat="45.53347" lon="3.92161">
        <ele>959</ele>
        <time>2020-05-30T22:48:47Z</time>
      </trkpt>
      <trkpt lat="45.53322" lon="3.92158">
        <ele>958</ele>
        <time>2020-05-30T22:48:52Z</time>
      </trkpt>
      <trkpt lat="45.53288" lon="3.92158">
        <ele>956</ele>
        <time>2020-05-30T22:48:58Z</time>
      </trkpt>
      <trkpt lat="45.53237" lon="3.92164">
        <ele>951</ele>
        <time>2020-05-30T22:49:07Z</time>
      </trkpt>
      <trkpt lat="45.53226" lon="3.92165">
        <ele>951</ele>
        <time>2020-05-30T22:49:09Z</time>
      </trkpt>
      <trkpt lat="45.53205" lon="3.92162">
        <ele>951</ele>
        <time>2020-05-30T22:49:12Z</time>
      </trkpt>
      <trkpt lat="45.53179" lon="3.92143">
        <ele>952</ele>
        <time>2020-05-30T22:49:18Z</time>
      </trkpt>
      <trkpt lat="45.53148" lon="3.92092">
        <ele>953</ele>
        <time>2020-05-30T22:49:26Z</time>
      </trkpt>
      <trkpt lat="45.53139" lon="3.92076">
        <ele>954</ele>
        <time>2020-05-30T22:49:29Z</time>
      </trkpt>
      <trkpt lat="45.5313" lon="3.9206">
        <ele>956</ele>
        <time>2020-05-30T22:49:31Z</time>
      </trkpt>
      <trkpt lat="45.53109" lon="3.92034">
        <ele>958</ele>
        <time>2020-05-30T22:49:36Z</time>
      </trkpt>
      <trkpt lat="45.53092" lon="3.92022">
        <ele>959</ele>
        <time>2020-05-30T22:49:40Z</time>
      </trkpt>
      <trkpt lat="45.53027" lon="3.92001">
        <ele>954</ele>
        <time>2020-05-30T22:49:51Z</time>
      </trkpt>
      <trkpt lat="45.52994" lon="3.91987">
        <ele>952</ele>
        <time>2020-05-30T22:49:58Z</time>
      </trkpt>
      <trkpt lat="45.5297" lon="3.91964">
        <ele>951</ele>
        <time>2020-05-30T22:50:03Z</time>
      </trkpt>
      <trkpt lat="45.52957" lon="3.91931">
        <ele>951</ele>
        <time>2020-05-30T22:50:07Z</time>
      </trkpt>
      <trkpt lat="45.52952" lon="3.91899">
        <ele>952</ele>
        <time>2020-05-30T22:50:11Z</time>
      </trkpt>
      <trkpt lat="45.52939" lon="3.91894">
        <ele>951</ele>
        <time>2020-05-30T22:50:14Z</time>
      </trkpt>
      <trkpt lat="45.52934" lon="3.91888">
        <ele>950</ele>
        <time>2020-05-30T22:50:15Z</time>
      </trkpt>
      <trkpt lat="45.52947" lon="3.9193">
        <ele>950</ele>
        <time>2020-05-30T22:50:21Z</time>
      </trkpt>
      <trkpt lat="45.52934" lon="3.91888">
        <ele>950</ele>
        <time>2020-05-30T22:50:26Z</time>
      </trkpt>
      <trkpt lat="45.52941" lon="3.91869">
        <ele>951</ele>
        <time>2020-05-30T22:50:29Z</time>
      </trkpt>
      <trkpt lat="45.52947" lon="3.91862">
        <ele>952</ele>
        <time>2020-05-30T22:50:31Z</time>
      </trkpt>
      <trkpt lat="45.52942" lon="3.91833">
        <ele>953</ele>
        <time>2020-05-30T22:50:34Z</time>
      </trkpt>
      <trkpt lat="45.52924" lon="3.91765">
        <ele>947</ele>
        <time>2020-05-30T22:50:43Z</time>
      </trkpt>
      <trkpt lat="45.52912" lon="3.91727">
        <ele>945</ele>
        <time>2020-05-30T22:50:49Z</time>
      </trkpt>
      <trkpt lat="45.52896" lon="3.91687">
        <ele>943</ele>
        <time>2020-05-30T22:50:54Z</time>
      </trkpt>
      <trkpt lat="45.52884" lon="3.9166">
        <ele>942</ele>
        <time>2020-05-30T22:50:58Z</time>
      </trkpt>
      <trkpt lat="45.52876" lon="3.91641">
        <ele>941</ele>
        <time>2020-05-30T22:51:01Z</time>
      </trkpt>
      <trkpt lat="45.52858" lon="3.91621">
        <ele>940</ele>
        <time>2020-05-30T22:51:05Z</time>
      </trkpt>
      <trkpt lat="45.52847" lon="3.91612">
        <ele>940</ele>
        <time>2020-05-30T22:51:07Z</time>
      </trkpt>
      <trkpt lat="45.52839" lon="3.91608">
        <ele>939</ele>
        <time>2020-05-30T22:51:09Z</time>
      </trkpt>
      <trkpt lat="45.52822" lon="3.91606">
        <ele>939</ele>
        <time>2020-05-30T22:51:12Z</time>
      </trkpt>
      <trkpt lat="45.52807" lon="3.91603">
        <ele>938</ele>
        <time>2020-05-30T22:51:15Z</time>
      </trkpt>
      <trkpt lat="45.52796" lon="3.91601">
        <ele>937</ele>
        <time>2020-05-30T22:51:17Z</time>
      </trkpt>
      <trkpt lat="45.52774" lon="3.91598">
        <ele>936</ele>
        <time>2020-05-30T22:51:20Z</time>
      </trkpt>
      <trkpt lat="45.52761" lon="3.91595">
        <ele>935</ele>
        <time>2020-05-30T22:51:23Z</time>
      </trkpt>
      <trkpt lat="45.52753" lon="3.91588">
        <ele>934</ele>
        <time>2020-05-30T22:51:24Z</time>
      </trkpt>
      <trkpt lat="45.52745" lon="3.91578">
        <ele>934</ele>
        <time>2020-05-30T22:51:26Z</time>
      </trkpt>
      <trkpt lat="45.52739" lon="3.9156">
        <ele>933</ele>
        <time>2020-05-30T22:51:29Z</time>
      </trkpt>
      <trkpt lat="45.52731" lon="3.91535">
        <ele>932</ele>
        <time>2020-05-30T22:51:32Z</time>
      </trkpt>
      <trkpt lat="45.52719" lon="3.91499">
        <ele>931</ele>
        <time>2020-05-30T22:51:37Z</time>
      </trkpt>
      <trkpt lat="45.52711" lon="3.91475">
        <ele>930</ele>
        <time>2020-05-30T22:51:41Z</time>
      </trkpt>
      <trkpt lat="45.52696" lon="3.91429">
        <ele>929</ele>
        <time>2020-05-30T22:51:47Z</time>
      </trkpt>
      <trkpt lat="45.52672" lon="3.91356">
        <ele>930</ele>
        <time>2020-05-30T22:51:57Z</time>
      </trkpt>
      <trkpt lat="45.52655" lon="3.91306">
        <ele>930</ele>
        <time>2020-05-30T22:52:04Z</time>
      </trkpt>
      <trkpt lat="45.52645" lon="3.91288">
        <ele>931</ele>
        <time>2020-05-30T22:52:07Z</time>
      </trkpt>
      <trkpt lat="45.52627" lon="3.91262">
        <ele>931</ele>
        <time>2020-05-30T22:52:11Z</time>
      </trkpt>
      <trkpt lat="45.52602" lon="3.91228">
        <ele>932</ele>
        <time>2020-05-30T22:52:17Z</time>
      </trkpt>
      <trkpt lat="45.52596" lon="3.91218">
        <ele>932</ele>
        <time>2020-05-30T22:52:19Z</time>
      </trkpt>
      <trkpt lat="45.5259" lon="3.91205">
        <ele>932</ele>
        <time>2020-05-30T22:52:21Z</time>
      </trkpt>
      <trkpt lat="45.5259" lon="3.91197">
        <ele>932</ele>
        <time>2020-05-30T22:52:22Z</time>
      </trkpt>
      <trkpt lat="45.52587" lon="3.9119">
        <ele>932</ele>
        <time>2020-05-30T22:52:23Z</time>
      </trkpt>
      <trkpt lat="45.52583" lon="3.91184">
        <ele>932</ele>
        <time>2020-05-30T22:52:24Z</time>
      </trkpt>
      <trkpt lat="45.52578" lon="3.91182">
        <ele>932</ele>
        <time>2020-05-30T22:52:25Z</time>
      </trkpt>
      <trkpt lat="45.52572" lon="3.91183">
        <ele>931</ele>
        <time>2020-05-30T22:52:26Z</time>
      </trkpt>
      <trkpt lat="45.52569" lon="3.91185">
        <ele>931</ele>
        <time>2020-05-30T22:52:27Z</time>
      </trkpt>
      <trkpt lat="45.52547" lon="3.91178">
        <ele>930</ele>
        <time>2020-05-30T22:52:31Z</time>
      </trkpt>
      <trkpt lat="45.52523" lon="3.91164">
        <ele>928</ele>
        <time>2020-05-30T22:52:35Z</time>
      </trkpt>
      <trkpt lat="45.52469" lon="3.9113">
        <ele>928</ele>
        <time>2020-05-30T22:52:46Z</time>
      </trkpt>
      <trkpt lat="45.52424" lon="3.91115">
        <ele>928</ele>
        <time>2020-05-30T22:52:54Z</time>
      </trkpt>
      <trkpt lat="45.524" lon="3.91111">
        <ele>929</ele>
        <time>2020-05-30T22:52:58Z</time>
      </trkpt>
      <trkpt lat="45.52381" lon="3.9111">
        <ele>930</ele>
        <time>2020-05-30T22:53:02Z</time>
      </trkpt>
      <trkpt lat="45.52328" lon="3.91112">
        <ele>934</ele>
        <time>2020-05-30T22:53:11Z</time>
      </trkpt>
      <trkpt lat="45.52289" lon="3.91122">
        <ele>937</ele>
        <time>2020-05-30T22:53:18Z</time>
      </trkpt>
      <trkpt lat="45.5225" lon="3.91139">
        <ele>939</ele>
        <time>2020-05-30T22:53:25Z</time>
      </trkpt>
      <trkpt lat="45.52241" lon="3.91144">
        <ele>939</ele>
        <time>2020-05-30T22:53:27Z</time>
      </trkpt>
      <trkpt lat="45.52229" lon="3.91149">
        <ele>938</ele>
        <time>2020-05-30T22:53:29Z</time>
      </trkpt>
      <trkpt lat="45.52181" lon="3.91172">
        <ele>937</ele>
        <time>2020-05-30T22:53:38Z</time>
      </trkpt>
      <trkpt lat="45.52161" lon="3.91181">
        <ele>937</ele>
        <time>2020-05-30T22:53:42Z</time>
      </trkpt>
      <trkpt lat="45.52115" lon="3.91203">
        <ele>938</ele>
        <time>2020-05-30T22:53:51Z</time>
      </trkpt>
      <trkpt lat="45.52072" lon="3.91222">
        <ele>940</ele>
        <time>2020-05-30T22:53:59Z</time>
      </trkpt>
      <trkpt lat="45.52044" lon="3.9123">
        <ele>943</ele>
        <time>2020-05-30T22:54:04Z</time>
      </trkpt>
      <trkpt lat="45.52017" lon="3.91231">
        <ele>946</ele>
        <time>2020-05-30T22:54:09Z</time>
      </trkpt>
      <trkpt lat="45.51951" lon="3.91224">
        <ele>948</ele>
        <time>2020-05-30T22:54:20Z</time>
      </trkpt>
      <trkpt lat="45.51913" lon="3.91215">
        <ele>948</ele>
        <time>2020-05-30T22:54:27Z</time>
      </trkpt>
      <trkpt lat="45.51896" lon="3.91208">
        <ele>948</ele>
        <time>2020-05-30T22:54:30Z</time>
      </trkpt>
      <trkpt lat="45.5189" lon="3.91205">
        <ele>948</ele>
        <time>2020-05-30T22:54:32Z</time>
      </trkpt>
      <trkpt lat="45.51865" lon="3.91191">
        <ele>947</ele>
        <time>2020-05-30T22:54:36Z</time>
      </trkpt>
      <trkpt lat="45.51787" lon="3.91141">
        <ele>950</ele>
        <time>2020-05-30T22:54:52Z</time>
      </trkpt>
      <trkpt lat="45.51737" lon="3.91113">
        <ele>952</ele>
        <time>2020-05-30T22:55:01Z</time>
      </trkpt>
      <trkpt lat="45.51715" lon="3.91107">
        <ele>953</ele>
        <time>2020-05-30T22:55:05Z</time>
      </trkpt>
      <trkpt lat="45.51696" lon="3.91106">
        <ele>954</ele>
        <time>2020-05-30T22:55:08Z</time>
      </trkpt>
      <trkpt lat="45.51606" lon="3.91121">
        <ele>955</ele>
        <time>2020-05-30T22:55:25Z</time>
      </trkpt>
      <trkpt lat="45.51586" lon="3.91119">
        <ele>956</ele>
        <time>2020-05-30T22:55:28Z</time>
      </trkpt>
      <trkpt lat="45.51567" lon="3.91112">
        <ele>956</ele>
        <time>2020-05-30T22:55:32Z</time>
      </trkpt>
      <trkpt lat="45.51544" lon="3.91099">
        <ele>957</ele>
        <time>2020-05-30T22:55:36Z</time>
      </trkpt>
      <trkpt lat="45.51514" lon="3.91074">
        <ele>958</ele>
        <time>2020-05-30T22:55:42Z</time>
      </trkpt>
      <trkpt lat="45.51485" lon="3.91047">
        <ele>961</ele>
        <time>2020-05-30T22:55:48Z</time>
      </trkpt>
      <trkpt lat="45.51469" lon="3.91022">
        <ele>962</ele>
        <time>2020-05-30T22:55:53Z</time>
      </trkpt>
      <trkpt lat="45.51438" lon="3.90951">
        <ele>964</ele>
        <time>2020-05-30T22:56:03Z</time>
      </trkpt>
      <trkpt lat="45.51427" lon="3.90919">
        <ele>965</ele>
        <time>2020-05-30T22:56:07Z</time>
      </trkpt>
      <trkpt lat="45.51423" lon="3.90901">
        <ele>965</ele>
        <time>2020-05-30T22:56:10Z</time>
      </trkpt>
      <trkpt lat="45.51404" lon="3.90767">
        <ele>970</ele>
        <time>2020-05-30T22:56:27Z</time>
      </trkpt>
      <trkpt lat="45.51392" lon="3.90638">
        <ele>971</ele>
        <time>2020-05-30T22:56:43Z</time>
      </trkpt>
      <trkpt lat="45.51393" lon="3.90614">
        <ele>972</ele>
        <time>2020-05-30T22:56:46Z</time>
      </trkpt>
      <trkpt lat="45.51395" lon="3.9059">
        <ele>972</ele>
        <time>2020-05-30T22:56:49Z</time>
      </trkpt>
      <trkpt lat="45.51401" lon="3.9057">
        <ele>973</ele>
        <time>2020-05-30T22:56:52Z</time>
      </trkpt>
      <trkpt lat="45.51412" lon="3.90543">
        <ele>973</ele>
        <time>2020-05-30T22:56:56Z</time>
      </trkpt>
      <trkpt lat="45.51426" lon="3.9052">
        <ele>975</ele>
        <time>2020-05-30T22:57:00Z</time>
      </trkpt>
      <trkpt lat="45.51487" lon="3.90433">
        <ele>981</ele>
        <time>2020-05-30T22:57:15Z</time>
      </trkpt>
      <trkpt lat="45.51506" lon="3.90401">
        <ele>983</ele>
        <time>2020-05-30T22:57:20Z</time>
      </trkpt>
      <trkpt lat="45.51519" lon="3.9037">
        <ele>984</ele>
        <time>2020-05-30T22:57:25Z</time>
      </trkpt>
      <trkpt lat="45.51529" lon="3.90333">
        <ele>982</ele>
        <time>2020-05-30T22:57:30Z</time>
      </trkpt>
      <trkpt lat="45.51554" lon="3.90195">
        <ele>984</ele>
        <time>2020-05-30T22:57:47Z</time>
      </trkpt>
      <trkpt lat="45.51559" lon="3.9017">
        <ele>986</ele>
        <time>2020-05-30T22:57:51Z</time>
      </trkpt>
      <trkpt lat="45.51567" lon="3.90143">
        <ele>987</ele>
        <time>2020-05-30T22:57:54Z</time>
      </trkpt>
      <trkpt lat="45.51579" lon="3.90115">
        <ele>991</ele>
        <time>2020-05-30T22:57:58Z</time>
      </trkpt>
      <trkpt lat="45.51618" lon="3.90043">
        <ele>998</ele>
        <time>2020-05-30T22:58:10Z</time>
      </trkpt>
      <trkpt lat="45.51625" lon="3.90023">
        <ele>998</ele>
        <time>2020-05-30T22:58:12Z</time>
      </trkpt>
      <trkpt lat="45.5163" lon="3.90003">
        <ele>998</ele>
        <time>2020-05-30T22:58:15Z</time>
      </trkpt>
      <trkpt lat="45.51633" lon="3.89974">
        <ele>999</ele>
        <time>2020-05-30T22:58:19Z</time>
      </trkpt>
      <trkpt lat="45.5163" lon="3.89938">
        <ele>998</ele>
        <time>2020-05-30T22:58:23Z</time>
      </trkpt>
      <trkpt lat="45.51625" lon="3.89904">
        <ele>998</ele>
        <time>2020-05-30T22:58:28Z</time>
      </trkpt>
      <trkpt lat="45.51615" lon="3.89827">
        <ele>1003</ele>
        <time>2020-05-30T22:58:37Z</time>
      </trkpt>
      <trkpt lat="45.51612" lon="3.89801">
        <ele>1002</ele>
        <time>2020-05-30T22:58:41Z</time>
      </trkpt>
      <trkpt lat="45.51613" lon="3.89777">
        <ele>1003</ele>
        <time>2020-05-30T22:58:44Z</time>
      </trkpt>
      <trkpt lat="45.51618" lon="3.8975">
        <ele>1004</ele>
        <time>2020-05-30T22:58:47Z</time>
      </trkpt>
      <trkpt lat="45.51649" lon="3.89659">
        <ele>1002</ele>
        <time>2020-05-30T22:59:00Z</time>
      </trkpt>
      <trkpt lat="45.51657" lon="3.89643">
        <ele>1002</ele>
        <time>2020-05-30T22:59:02Z</time>
      </trkpt>
      <trkpt lat="45.51668" lon="3.89631">
        <ele>1002</ele>
        <time>2020-05-30T22:59:05Z</time>
      </trkpt>
      <trkpt lat="45.5168" lon="3.89621">
        <ele>1003</ele>
        <time>2020-05-30T22:59:07Z</time>
      </trkpt>
      <trkpt lat="45.51708" lon="3.89611">
        <ele>1006</ele>
        <time>2020-05-30T22:59:12Z</time>
      </trkpt>
      <trkpt lat="45.51792" lon="3.89603">
        <ele>1016</ele>
        <time>2020-05-30T22:59:27Z</time>
      </trkpt>
      <trkpt lat="45.51807" lon="3.89599">
        <ele>1017</ele>
        <time>2020-05-30T22:59:30Z</time>
      </trkpt>
      <trkpt lat="45.51823" lon="3.89593">
        <ele>1017</ele>
        <time>2020-05-30T22:59:33Z</time>
      </trkpt>
      <trkpt lat="45.51907" lon="3.89552">
        <ele>1018</ele>
        <time>2020-05-30T22:59:49Z</time>
      </trkpt>
      <trkpt lat="45.51931" lon="3.89543">
        <ele>1018</ele>
        <time>2020-05-30T22:59:53Z</time>
      </trkpt>
      <trkpt lat="45.51952" lon="3.89539">
        <ele>1019</ele>
        <time>2020-05-30T22:59:57Z</time>
      </trkpt>
      <trkpt lat="45.52009" lon="3.89534">
        <ele>1021</ele>
        <time>2020-05-30T23:00:07Z</time>
      </trkpt>
      <trkpt lat="45.52023" lon="3.89529">
        <ele>1022</ele>
        <time>2020-05-30T23:00:10Z</time>
      </trkpt>
      <trkpt lat="45.52036" lon="3.89521">
        <ele>1022</ele>
        <time>2020-05-30T23:00:12Z</time>
      </trkpt>
      <trkpt lat="45.52047" lon="3.89508">
        <ele>1021</ele>
        <time>2020-05-30T23:00:15Z</time>
      </trkpt>
      <trkpt lat="45.5206" lon="3.89486">
        <ele>1022</ele>
        <time>2020-05-30T23:00:18Z</time>
      </trkpt>
      <trkpt lat="45.52066" lon="3.89465">
        <ele>1022</ele>
        <time>2020-05-30T23:00:21Z</time>
      </trkpt>
      <trkpt lat="45.52069" lon="3.89446">
        <ele>1023</ele>
        <time>2020-05-30T23:00:24Z</time>
      </trkpt>
      <trkpt lat="45.52067" lon="3.8942">
        <ele>1022</ele>
        <time>2020-05-30T23:00:27Z</time>
      </trkpt>
      <trkpt lat="45.52061" lon="3.89397">
        <ele>1026</ele>
        <time>2020-05-30T23:00:30Z</time>
      </trkpt>
      <trkpt lat="45.52043" lon="3.89363">
        <ele>1033</ele>
        <time>2020-05-30T23:00:35Z</time>
      </trkpt>
      <trkpt lat="45.52034" lon="3.89355">
        <ele>1035</ele>
        <time>2020-05-30T23:00:37Z</time>
      </trkpt>
      <trkpt lat="45.52023" lon="3.89349">
        <ele>1036</ele>
        <time>2020-05-30T23:00:39Z</time>
      </trkpt>
      <trkpt lat="45.51956" lon="3.89332">
        <ele>1038</ele>
        <time>2020-05-30T23:00:51Z</time>
      </trkpt>
      <trkpt lat="45.51918" lon="3.89318">
        <ele>1040</ele>
        <time>2020-05-30T23:00:58Z</time>
      </trkpt>
      <trkpt lat="45.5188" lon="3.89293">
        <ele>1043</ele>
        <time>2020-05-30T23:01:06Z</time>
      </trkpt>
      <trkpt lat="45.51858" lon="3.89283">
        <ele>1044</ele>
        <time>2020-05-30T23:01:10Z</time>
      </trkpt>
      <trkpt lat="45.5181" lon="3.89274">
        <ele>1043</ele>
        <time>2020-05-30T23:01:18Z</time>
      </trkpt>
      <trkpt lat="45.51776" lon="3.89263">
        <ele>1046</ele>
        <time>2020-05-30T23:01:25Z</time>
      </trkpt>
      <trkpt lat="45.51743" lon="3.89241">
        <ele>1049</ele>
        <time>2020-05-30T23:01:31Z</time>
      </trkpt>
      <trkpt lat="45.51718" lon="3.89219">
        <ele>1047</ele>
        <time>2020-05-30T23:01:36Z</time>
      </trkpt>
      <trkpt lat="45.51703" lon="3.89198">
        <ele>1046</ele>
        <time>2020-05-30T23:01:40Z</time>
      </trkpt>
      <trkpt lat="45.51691" lon="3.8917">
        <ele>1047</ele>
        <time>2020-05-30T23:01:44Z</time>
      </trkpt>
      <trkpt lat="45.51684" lon="3.89135">
        <ele>1049</ele>
        <time>2020-05-30T23:01:49Z</time>
      </trkpt>
      <trkpt lat="45.51674" lon="3.89072">
        <ele>1053</ele>
        <time>2020-05-30T23:01:57Z</time>
      </trkpt>
      <trkpt lat="45.51668" lon="3.89044">
        <ele>1054</ele>
        <time>2020-05-30T23:02:00Z</time>
      </trkpt>
      <trkpt lat="45.5164" lon="3.88953">
        <ele>1051</ele>
        <time>2020-05-30T23:02:13Z</time>
      </trkpt>
      <trkpt lat="45.51634" lon="3.88923">
        <ele>1052</ele>
        <time>2020-05-30T23:02:17Z</time>
      </trkpt>
      <trkpt lat="45.51632" lon="3.88888">
        <ele>1054</ele>
        <time>2020-05-30T23:02:21Z</time>
      </trkpt>
      <trkpt lat="45.51633" lon="3.88854">
        <ele>1058</ele>
        <time>2020-05-30T23:02:25Z</time>
      </trkpt>
      <trkpt lat="45.51639" lon="3.88788">
        <ele>1060</ele>
        <time>2020-05-30T23:02:34Z</time>
      </trkpt>
      <trkpt lat="45.51644" lon="3.88752">
        <ele>1059</ele>
        <time>2020-05-30T23:02:38Z</time>
      </trkpt>
      <trkpt lat="45.51664" lon="3.88666">
        <ele>1064</ele>
        <time>2020-05-30T23:02:49Z</time>
      </trkpt>
      <trkpt lat="45.51666" lon="3.88644">
        <ele>1065</ele>
        <time>2020-05-30T23:02:52Z</time>
      </trkpt>
      <trkpt lat="45.51662" lon="3.88606">
        <ele>1064</ele>
        <time>2020-05-30T23:02:57Z</time>
      </trkpt>
      <trkpt lat="45.51644" lon="3.88523">
        <ele>1062</ele>
        <time>2020-05-30T23:03:08Z</time>
      </trkpt>
      <trkpt lat="45.51643" lon="3.88502">
        <ele>1063</ele>
        <time>2020-05-30T23:03:10Z</time>
      </trkpt>
      <trkpt lat="45.51644" lon="3.88492">
        <ele>1063</ele>
        <time>2020-05-30T23:03:12Z</time>
      </trkpt>
      <trkpt lat="45.51648" lon="3.88479">
        <ele>1064</ele>
        <time>2020-05-30T23:03:13Z</time>
      </trkpt>
      <trkpt lat="45.51655" lon="3.88464">
        <ele>1065</ele>
        <time>2020-05-30T23:03:16Z</time>
      </trkpt>
      <trkpt lat="45.51678" lon="3.88423">
        <ele>1071</ele>
        <time>2020-05-30T23:03:22Z</time>
      </trkpt>
      <trkpt lat="45.51704" lon="3.88382">
        <ele>1071</ele>
        <time>2020-05-30T23:03:29Z</time>
      </trkpt>
      <trkpt lat="45.51728" lon="3.88355">
        <ele>1073</ele>
        <time>2020-05-30T23:03:35Z</time>
      </trkpt>
      <trkpt lat="45.51855" lon="3.8825">
        <ele>1090</ele>
        <time>2020-05-30T23:04:01Z</time>
      </trkpt>
      <trkpt lat="45.51887" lon="3.8822">
        <ele>1094</ele>
        <time>2020-05-30T23:04:08Z</time>
      </trkpt>
      <trkpt lat="45.51897" lon="3.88207">
        <ele>1095</ele>
        <time>2020-05-30T23:04:10Z</time>
      </trkpt>
      <trkpt lat="45.51904" lon="3.88192">
        <ele>1095</ele>
        <time>2020-05-30T23:04:12Z</time>
      </trkpt>
      <trkpt lat="45.51909" lon="3.88168">
        <ele>1093</ele>
        <time>2020-05-30T23:04:15Z</time>
      </trkpt>
      <trkpt lat="45.51909" lon="3.88143">
        <ele>1094</ele>
        <time>2020-05-30T23:04:18Z</time>
      </trkpt>
      <trkpt lat="45.51899" lon="3.88071">
        <ele>1094</ele>
        <time>2020-05-30T23:04:28Z</time>
      </trkpt>
      <trkpt lat="45.51893" lon="3.88015">
        <ele>1096</ele>
        <time>2020-05-30T23:04:35Z</time>
      </trkpt>
      <trkpt lat="45.51894" lon="3.87984">
        <ele>1097</ele>
        <time>2020-05-30T23:04:39Z</time>
      </trkpt>
      <trkpt lat="45.51897" lon="3.87948">
        <ele>1098</ele>
        <time>2020-05-30T23:04:43Z</time>
      </trkpt>
      <trkpt lat="45.51915" lon="3.87786">
        <ele>1103</ele>
        <time>2020-05-30T23:05:03Z</time>
      </trkpt>
      <trkpt lat="45.51915" lon="3.8775">
        <ele>1101</ele>
        <time>2020-05-30T23:05:08Z</time>
      </trkpt>
      <trkpt lat="45.51908" lon="3.87715">
        <ele>1101</ele>
        <time>2020-05-30T23:05:12Z</time>
      </trkpt>
      <trkpt lat="45.51876" lon="3.87632">
        <ele>1099</ele>
        <time>2020-05-30T23:05:24Z</time>
      </trkpt>
      <trkpt lat="45.51848" lon="3.87552">
        <ele>1096</ele>
        <time>2020-05-30T23:05:35Z</time>
      </trkpt>
      <trkpt lat="45.51842" lon="3.87521">
        <ele>1097</ele>
        <time>2020-05-30T23:05:39Z</time>
      </trkpt>
      <trkpt lat="45.51841" lon="3.87494">
        <ele>1099</ele>
        <time>2020-05-30T23:05:43Z</time>
      </trkpt>
      <trkpt lat="45.51854" lon="3.87308">
        <ele>1115</ele>
        <time>2020-05-30T23:06:06Z</time>
      </trkpt>
      <trkpt lat="45.51866" lon="3.8723">
        <ele>1117</ele>
        <time>2020-05-30T23:06:16Z</time>
      </trkpt>
      <trkpt lat="45.51878" lon="3.87167">
        <ele>1118</ele>
        <time>2020-05-30T23:06:24Z</time>
      </trkpt>
      <trkpt lat="45.5191" lon="3.87048">
        <ele>1118</ele>
        <time>2020-05-30T23:06:40Z</time>
      </trkpt>
      <trkpt lat="45.51921" lon="3.87016">
        <ele>1119</ele>
        <time>2020-05-30T23:06:45Z</time>
      </trkpt>
      <trkpt lat="45.51936" lon="3.86992">
        <ele>1123</ele>
        <time>2020-05-30T23:06:49Z</time>
      </trkpt>
      <trkpt lat="45.51987" lon="3.86931">
        <ele>1130</ele>
        <time>2020-05-30T23:07:00Z</time>
      </trkpt>
      <trkpt lat="45.52" lon="3.86909">
        <ele>1130</ele>
        <time>2020-05-30T23:07:04Z</time>
      </trkpt>
      <trkpt lat="45.52009" lon="3.86887">
        <ele>1129</ele>
        <time>2020-05-30T23:07:07Z</time>
      </trkpt>
      <trkpt lat="45.52023" lon="3.8684">
        <ele>1125</ele>
        <time>2020-05-30T23:07:14Z</time>
      </trkpt>
      <trkpt lat="45.5203" lon="3.86823">
        <ele>1125</ele>
        <time>2020-05-30T23:07:16Z</time>
      </trkpt>
      <trkpt lat="45.52048" lon="3.86805">
        <ele>1128</ele>
        <time>2020-05-30T23:07:20Z</time>
      </trkpt>
      <trkpt lat="45.52119" lon="3.86774">
        <ele>1135</ele>
        <time>2020-05-30T23:07:33Z</time>
      </trkpt>
      <trkpt lat="45.5214" lon="3.86761">
        <ele>1137</ele>
        <time>2020-05-30T23:07:37Z</time>
      </trkpt>
      <trkpt lat="45.52155" lon="3.86747">
        <ele>1137</ele>
        <time>2020-05-30T23:07:40Z</time>
      </trkpt>
      <trkpt lat="45.52168" lon="3.86729">
        <ele>1136</ele>
        <time>2020-05-30T23:07:44Z</time>
      </trkpt>
      <trkpt lat="45.5218" lon="3.86707">
        <ele>1137</ele>
        <time>2020-05-30T23:07:47Z</time>
      </trkpt>
      <trkpt lat="45.52218" lon="3.86625">
        <ele>1147</ele>
        <time>2020-05-30T23:07:59Z</time>
      </trkpt>
      <trkpt lat="45.52226" lon="3.86598">
        <ele>1149</ele>
        <time>2020-05-30T23:08:03Z</time>
      </trkpt>
      <trkpt lat="45.52233" lon="3.86567">
        <ele>1151</ele>
        <time>2020-05-30T23:08:07Z</time>
      </trkpt>
      <trkpt lat="45.52239" lon="3.86487">
        <ele>1150</ele>
        <time>2020-05-30T23:08:17Z</time>
      </trkpt>
      <trkpt lat="45.52238" lon="3.86466">
        <ele>1152</ele>
        <time>2020-05-30T23:08:20Z</time>
      </trkpt>
      <trkpt lat="45.5223" lon="3.86425">
        <ele>1154</ele>
        <time>2020-05-30T23:08:25Z</time>
      </trkpt>
      <trkpt lat="45.52228" lon="3.86407">
        <ele>1155</ele>
        <time>2020-05-30T23:08:27Z</time>
      </trkpt>
      <trkpt lat="45.5223" lon="3.86388">
        <ele>1156</ele>
        <time>2020-05-30T23:08:30Z</time>
      </trkpt>
      <trkpt lat="45.52255" lon="3.8626">
        <ele>1156</ele>
        <time>2020-05-30T23:08:46Z</time>
      </trkpt>
      <trkpt lat="45.52272" lon="3.86202">
        <ele>1161</ele>
        <time>2020-05-30T23:08:54Z</time>
      </trkpt>
      <trkpt lat="45.52333" lon="3.86059">
        <ele>1161</ele>
        <time>2020-05-30T23:09:15Z</time>
      </trkpt>
      <trkpt lat="45.52341" lon="3.86045">
        <ele>1162</ele>
        <time>2020-05-30T23:09:17Z</time>
      </trkpt>
      <trkpt lat="45.52361" lon="3.86023">
        <ele>1164</ele>
        <time>2020-05-30T23:09:22Z</time>
      </trkpt>
      <trkpt lat="45.52385" lon="3.86001">
        <ele>1163</ele>
        <time>2020-05-30T23:09:27Z</time>
      </trkpt>
      <trkpt lat="45.52454" lon="3.85918">
        <ele>1162</ele>
        <time>2020-05-30T23:09:43Z</time>
      </trkpt>
      <trkpt lat="45.52642" lon="3.85733">
        <ele>1179</ele>
        <time>2020-05-30T23:10:23Z</time>
      </trkpt>
      <trkpt lat="45.52662" lon="3.85706">
        <ele>1182</ele>
        <time>2020-05-30T23:10:28Z</time>
      </trkpt>
      <trkpt lat="45.52671" lon="3.85688">
        <ele>1181</ele>
        <time>2020-05-30T23:10:31Z</time>
      </trkpt>
      <trkpt lat="45.5268" lon="3.85663">
        <ele>1182</ele>
        <time>2020-05-30T23:10:35Z</time>
      </trkpt>
      <trkpt lat="45.52685" lon="3.85638">
        <ele>1184</ele>
        <time>2020-05-30T23:10:38Z</time>
      </trkpt>
      <trkpt lat="45.52689" lon="3.85616">
        <ele>1185</ele>
        <time>2020-05-30T23:10:41Z</time>
      </trkpt>
      <trkpt lat="45.52689" lon="3.85583">
        <ele>1185</ele>
        <time>2020-05-30T23:10:45Z</time>
      </trkpt>
      <trkpt lat="45.52686" lon="3.85555">
        <ele>1185</ele>
        <time>2020-05-30T23:10:48Z</time>
      </trkpt>
      <trkpt lat="45.5268" lon="3.85528">
        <ele>1184</ele>
        <time>2020-05-30T23:10:52Z</time>
      </trkpt>
      <trkpt lat="45.52662" lon="3.85468">
        <ele>1182</ele>
        <time>2020-05-30T23:11:00Z</time>
      </trkpt>
      <trkpt lat="45.52656" lon="3.85438">
        <ele>1184</ele>
        <time>2020-05-30T23:11:04Z</time>
      </trkpt>
      <trkpt lat="45.52654" lon="3.85408">
        <ele>1186</ele>
        <time>2020-05-30T23:11:08Z</time>
      </trkpt>
      <trkpt lat="45.52653" lon="3.85304">
        <ele>1195</ele>
        <time>2020-05-30T23:11:21Z</time>
      </trkpt>
      <trkpt lat="45.52647" lon="3.8527">
        <ele>1198</ele>
        <time>2020-05-30T23:11:25Z</time>
      </trkpt>
      <trkpt lat="45.52637" lon="3.85239">
        <ele>1200</ele>
        <time>2020-05-30T23:11:29Z</time>
      </trkpt>
      <trkpt lat="45.5259" lon="3.85138">
        <ele>1199</ele>
        <time>2020-05-30T23:11:44Z</time>
      </trkpt>
      <trkpt lat="45.52567" lon="3.85092">
        <ele>1201</ele>
        <time>2020-05-30T23:11:51Z</time>
      </trkpt>
      <trkpt lat="45.52508" lon="3.85">
        <ele>1196</ele>
        <time>2020-05-30T23:12:07Z</time>
      </trkpt>
      <trkpt lat="45.52497" lon="3.8498">
        <ele>1195</ele>
        <time>2020-05-30T23:12:10Z</time>
      </trkpt>
      <trkpt lat="45.52488" lon="3.84957">
        <ele>1196</ele>
        <time>2020-05-30T23:12:13Z</time>
      </trkpt>
      <trkpt lat="45.52486" lon="3.84934">
        <ele>1196</ele>
        <time>2020-05-30T23:12:16Z</time>
      </trkpt>
      <trkpt lat="45.52487" lon="3.84914">
        <ele>1196</ele>
        <time>2020-05-30T23:12:19Z</time>
      </trkpt>
      <trkpt lat="45.52495" lon="3.8488">
        <ele>1195</ele>
        <time>2020-05-30T23:12:23Z</time>
      </trkpt>
      <trkpt lat="45.52529" lon="3.84799">
        <ele>1196</ele>
        <time>2020-05-30T23:12:35Z</time>
      </trkpt>
      <trkpt lat="45.5255" lon="3.84761">
        <ele>1195</ele>
        <time>2020-05-30T23:12:41Z</time>
      </trkpt>
      <trkpt lat="45.52582" lon="3.84716">
        <ele>1195</ele>
        <time>2020-05-30T23:12:49Z</time>
      </trkpt>
      <trkpt lat="45.52596" lon="3.84694">
        <ele>1195</ele>
        <time>2020-05-30T23:12:53Z</time>
      </trkpt>
      <trkpt lat="45.52597" lon="3.84692">
        <ele>1195</ele>
        <time>2020-05-30T23:12:53Z</time>
      </trkpt>
      <trkpt lat="45.52607" lon="3.84671">
        <ele>1194</ele>
        <time>2020-05-30T23:12:56Z</time>
      </trkpt>
      <trkpt lat="45.52614" lon="3.84639">
        <ele>1196</ele>
        <time>2020-05-30T23:13:00Z</time>
      </trkpt>
      <trkpt lat="45.52616" lon="3.84606">
        <ele>1198</ele>
        <time>2020-05-30T23:13:05Z</time>
      </trkpt>
      <trkpt lat="45.52611" lon="3.84549">
        <ele>1199</ele>
        <time>2020-05-30T23:13:12Z</time>
      </trkpt>
      <trkpt lat="45.52611" lon="3.84545">
        <ele>1199</ele>
        <time>2020-05-30T23:13:12Z</time>
      </trkpt>
      <trkpt lat="45.52609" lon="3.84526">
        <ele>1200</ele>
        <time>2020-05-30T23:13:15Z</time>
      </trkpt>
      <trkpt lat="45.52606" lon="3.84481">
        <ele>1199</ele>
        <time>2020-05-30T23:13:20Z</time>
      </trkpt>
      <trkpt lat="45.52615" lon="3.84384">
        <ele>1193</ele>
        <time>2020-05-30T23:13:32Z</time>
      </trkpt>
      <trkpt lat="45.5262" lon="3.84356">
        <ele>1191</ele>
        <time>2020-05-30T23:13:36Z</time>
      </trkpt>
      <trkpt lat="45.52627" lon="3.84332">
        <ele>1189</ele>
        <time>2020-05-30T23:13:39Z</time>
      </trkpt>
      <trkpt lat="45.52637" lon="3.84309">
        <ele>1186</ele>
        <time>2020-05-30T23:13:43Z</time>
      </trkpt>
      <trkpt lat="45.52648" lon="3.84293">
        <ele>1185</ele>
        <time>2020-05-30T23:13:45Z</time>
      </trkpt>
      <trkpt lat="45.52664" lon="3.84275">
        <ele>1184</ele>
        <time>2020-05-30T23:13:49Z</time>
      </trkpt>
      <trkpt lat="45.52681" lon="3.84264">
        <ele>1185</ele>
        <time>2020-05-30T23:13:52Z</time>
      </trkpt>
      <trkpt lat="45.52699" lon="3.84257">
        <ele>1186</ele>
        <time>2020-05-30T23:13:56Z</time>
      </trkpt>
      <trkpt lat="45.52722" lon="3.84251">
        <ele>1189</ele>
        <time>2020-05-30T23:14:00Z</time>
      </trkpt>
      <trkpt lat="45.52737" lon="3.84246">
        <ele>1191</ele>
        <time>2020-05-30T23:14:03Z</time>
      </trkpt>
      <trkpt lat="45.52743" lon="3.84242">
        <ele>1191</ele>
        <time>2020-05-30T23:14:04Z</time>
      </trkpt>
      <trkpt lat="45.52747" lon="3.84235">
        <ele>1192</ele>
        <time>2020-05-30T23:14:05Z</time>
      </trkpt>
      <trkpt lat="45.52751" lon="3.84226">
        <ele>1192</ele>
        <time>2020-05-30T23:14:06Z</time>
      </trkpt>
      <trkpt lat="45.52753" lon="3.84212">
        <ele>1192</ele>
        <time>2020-05-30T23:14:08Z</time>
      </trkpt>
      <trkpt lat="45.52749" lon="3.84198">
        <ele>1190</ele>
        <time>2020-05-30T23:14:10Z</time>
      </trkpt>
      <trkpt lat="45.52739" lon="3.84178">
        <ele>1187</ele>
        <time>2020-05-30T23:14:13Z</time>
      </trkpt>
      <trkpt lat="45.52726" lon="3.84159">
        <ele>1183</ele>
        <time>2020-05-30T23:14:16Z</time>
      </trkpt>
      <trkpt lat="45.52716" lon="3.84138">
        <ele>1181</ele>
        <time>2020-05-30T23:14:19Z</time>
      </trkpt>
      <trkpt lat="45.52711" lon="3.84118">
        <ele>1180</ele>
        <time>2020-05-30T23:14:22Z</time>
      </trkpt>
      <trkpt lat="45.52705" lon="3.84058">
        <ele>1179</ele>
        <time>2020-05-30T23:14:30Z</time>
      </trkpt>
      <trkpt lat="45.52679" lon="3.83947">
        <ele>1171</ele>
        <time>2020-05-30T23:14:44Z</time>
      </trkpt>
      <trkpt lat="45.52678" lon="3.83921">
        <ele>1170</ele>
        <time>2020-05-30T23:14:47Z</time>
      </trkpt>
      <trkpt lat="45.52683" lon="3.83867">
        <ele>1171</ele>
        <time>2020-05-30T23:14:54Z</time>
      </trkpt>
      <trkpt lat="45.52685" lon="3.83843">
        <ele>1172</ele>
        <time>2020-05-30T23:14:57Z</time>
      </trkpt>
      <trkpt lat="45.52686" lon="3.83824">
        <ele>1172</ele>
        <time>2020-05-30T23:15:00Z</time>
      </trkpt>
      <trkpt lat="45.52685" lon="3.83794">
        <ele>1170</ele>
        <time>2020-05-30T23:15:03Z</time>
      </trkpt>
      <trkpt lat="45.52682" lon="3.83767">
        <ele>1168</ele>
        <time>2020-05-30T23:15:07Z</time>
      </trkpt>
      <trkpt lat="45.52671" lon="3.83734">
        <ele>1165</ele>
        <time>2020-05-30T23:15:11Z</time>
      </trkpt>
      <trkpt lat="45.52664" lon="3.83719">
        <ele>1163</ele>
        <time>2020-05-30T23:15:14Z</time>
      </trkpt>
      <trkpt lat="45.52661" lon="3.83714">
        <ele>1163</ele>
        <time>2020-05-30T23:15:14Z</time>
      </trkpt>
      <trkpt lat="45.52649" lon="3.83693">
        <ele>1161</ele>
        <time>2020-05-30T23:15:18Z</time>
      </trkpt>
      <trkpt lat="45.52631" lon="3.83671">
        <ele>1159</ele>
        <time>2020-05-30T23:15:22Z</time>
      </trkpt>
      <trkpt lat="45.5261" lon="3.83652">
        <ele>1156</ele>
        <time>2020-05-30T23:15:26Z</time>
      </trkpt>
      <trkpt lat="45.52565" lon="3.83632">
        <ele>1152</ele>
        <time>2020-05-30T23:15:35Z</time>
      </trkpt>
      <trkpt lat="45.52561" lon="3.83632">
        <ele>1152</ele>
        <time>2020-05-30T23:15:36Z</time>
      </trkpt>
      <trkpt lat="45.52544" lon="3.83627">
        <ele>1151</ele>
        <time>2020-05-30T23:15:39Z</time>
      </trkpt>
      <trkpt lat="45.52534" lon="3.83627">
        <ele>1151</ele>
        <time>2020-05-30T23:15:40Z</time>
      </trkpt>
      <trkpt lat="45.52495" lon="3.83631">
        <ele>1148</ele>
        <time>2020-05-30T23:15:47Z</time>
      </trkpt>
      <trkpt lat="45.52484" lon="3.83627">
        <ele>1147</ele>
        <time>2020-05-30T23:15:49Z</time>
      </trkpt>
      <trkpt lat="45.52471" lon="3.83616">
        <ele>1146</ele>
        <time>2020-05-30T23:15:52Z</time>
      </trkpt>
      <trkpt lat="45.52465" lon="3.83608">
        <ele>1146</ele>
        <time>2020-05-30T23:15:54Z</time>
      </trkpt>
      <trkpt lat="45.52461" lon="3.83598">
        <ele>1146</ele>
        <time>2020-05-30T23:15:55Z</time>
      </trkpt>
      <trkpt lat="45.52459" lon="3.83591">
        <ele>1146</ele>
        <time>2020-05-30T23:15:56Z</time>
      </trkpt>
      <trkpt lat="45.52457" lon="3.83578">
        <ele>1146</ele>
        <time>2020-05-30T23:15:58Z</time>
      </trkpt>
      <trkpt lat="45.52458" lon="3.83561">
        <ele>1145</ele>
        <time>2020-05-30T23:16:00Z</time>
      </trkpt>
      <trkpt lat="45.5246" lon="3.83545">
        <ele>1144</ele>
        <time>2020-05-30T23:16:02Z</time>
      </trkpt>
      <trkpt lat="45.52485" lon="3.83435">
        <ele>1138</ele>
        <time>2020-05-30T23:16:16Z</time>
      </trkpt>
      <trkpt lat="45.52493" lon="3.83385">
        <ele>1138</ele>
        <time>2020-05-30T23:16:23Z</time>
      </trkpt>
      <trkpt lat="45.52498" lon="3.83344">
        <ele>1139</ele>
        <time>2020-05-30T23:16:28Z</time>
      </trkpt>
      <trkpt lat="45.525" lon="3.83316">
        <ele>1140</ele>
        <time>2020-05-30T23:16:31Z</time>
      </trkpt>
      <trkpt lat="45.52497" lon="3.83286">
        <ele>1139</ele>
        <time>2020-05-30T23:16:35Z</time>
      </trkpt>
      <trkpt lat="45.52494" lon="3.83274">
        <ele>1138</ele>
        <time>2020-05-30T23:16:37Z</time>
      </trkpt>
      <trkpt lat="45.52491" lon="3.83263">
        <ele>1138</ele>
        <time>2020-05-30T23:16:38Z</time>
      </trkpt>
      <trkpt lat="45.52483" lon="3.83247">
        <ele>1136</ele>
        <time>2020-05-30T23:16:41Z</time>
      </trkpt>
      <trkpt lat="45.52456" lon="3.83216">
        <ele>1134</ele>
        <time>2020-05-30T23:16:47Z</time>
      </trkpt>
      <trkpt lat="45.52431" lon="3.83194">
        <ele>1132</ele>
        <time>2020-05-30T23:16:52Z</time>
      </trkpt>
      <trkpt lat="45.52413" lon="3.83188">
        <ele>1130</ele>
        <time>2020-05-30T23:16:55Z</time>
      </trkpt>
      <trkpt lat="45.52396" lon="3.83189">
        <ele>1128</ele>
        <time>2020-05-30T23:16:58Z</time>
      </trkpt>
      <trkpt lat="45.5237" lon="3.83203">
        <ele>1124</ele>
        <time>2020-05-30T23:17:03Z</time>
      </trkpt>
      <trkpt lat="45.52333" lon="3.83236">
        <ele>1117</ele>
        <time>2020-05-30T23:17:11Z</time>
      </trkpt>
      <trkpt lat="45.52319" lon="3.83249">
        <ele>1115</ele>
        <time>2020-05-30T23:17:14Z</time>
      </trkpt>
      <trkpt lat="45.52304" lon="3.83259">
        <ele>1113</ele>
        <time>2020-05-30T23:17:17Z</time>
      </trkpt>
      <trkpt lat="45.5229" lon="3.83266">
        <ele>1112</ele>
        <time>2020-05-30T23:17:20Z</time>
      </trkpt>
      <trkpt lat="45.52273" lon="3.83263">
        <ele>1111</ele>
        <time>2020-05-30T23:17:23Z</time>
      </trkpt>
      <trkpt lat="45.52263" lon="3.83257">
        <ele>1110</ele>
        <time>2020-05-30T23:17:24Z</time>
      </trkpt>
      <trkpt lat="45.52254" lon="3.83247">
        <ele>1110</ele>
        <time>2020-05-30T23:17:27Z</time>
      </trkpt>
      <trkpt lat="45.52247" lon="3.83234">
        <ele>1108</ele>
        <time>2020-05-30T23:17:29Z</time>
      </trkpt>
      <trkpt lat="45.52243" lon="3.8322">
        <ele>1107</ele>
        <time>2020-05-30T23:17:30Z</time>
      </trkpt>
      <trkpt lat="45.5224" lon="3.83201">
        <ele>1105</ele>
        <time>2020-05-30T23:17:33Z</time>
      </trkpt>
      <trkpt lat="45.52244" lon="3.83182">
        <ele>1105</ele>
        <time>2020-05-30T23:17:35Z</time>
      </trkpt>
      <trkpt lat="45.52319" lon="3.82972">
        <ele>1098</ele>
        <time>2020-05-30T23:18:05Z</time>
      </trkpt>
      <trkpt lat="45.52345" lon="3.8291">
        <ele>1096</ele>
        <time>2020-05-30T23:18:14Z</time>
      </trkpt>
      <trkpt lat="45.52364" lon="3.82872">
        <ele>1096</ele>
        <time>2020-05-30T23:18:20Z</time>
      </trkpt>
      <trkpt lat="45.52425" lon="3.82766">
        <ele>1096</ele>
        <time>2020-05-30T23:18:37Z</time>
      </trkpt>
      <trkpt lat="45.52452" lon="3.82722">
        <ele>1095</ele>
        <time>2020-05-30T23:18:44Z</time>
      </trkpt>
      <trkpt lat="45.52476" lon="3.82688">
        <ele>1094</ele>
        <time>2020-05-30T23:18:50Z</time>
      </trkpt>
      <trkpt lat="45.52488" lon="3.82665">
        <ele>1093</ele>
        <time>2020-05-30T23:18:54Z</time>
      </trkpt>
      <trkpt lat="45.52496" lon="3.8264">
        <ele>1092</ele>
        <time>2020-05-30T23:18:57Z</time>
      </trkpt>
      <trkpt lat="45.52503" lon="3.82599">
        <ele>1089</ele>
        <time>2020-05-30T23:19:02Z</time>
      </trkpt>
      <trkpt lat="45.52503" lon="3.82579">
        <ele>1088</ele>
        <time>2020-05-30T23:19:05Z</time>
      </trkpt>
      <trkpt lat="45.52501" lon="3.82556">
        <ele>1087</ele>
        <time>2020-05-30T23:19:08Z</time>
      </trkpt>
      <trkpt lat="45.52489" lon="3.82522">
        <ele>1085</ele>
        <time>2020-05-30T23:19:12Z</time>
      </trkpt>
      <trkpt lat="45.52475" lon="3.82499">
        <ele>1082</ele>
        <time>2020-05-30T23:19:16Z</time>
      </trkpt>
      <trkpt lat="45.52455" lon="3.8248">
        <ele>1080</ele>
        <time>2020-05-30T23:19:20Z</time>
      </trkpt>
      <trkpt lat="45.52454" lon="3.82479">
        <ele>1080</ele>
        <time>2020-05-30T23:19:21Z</time>
      </trkpt>
      <trkpt lat="45.52434" lon="3.82461">
        <ele>1078</ele>
        <time>2020-05-30T23:19:25Z</time>
      </trkpt>
      <trkpt lat="45.52423" lon="3.82446">
        <ele>1077</ele>
        <time>2020-05-30T23:19:28Z</time>
      </trkpt>
      <trkpt lat="45.52387" lon="3.82377">
        <ele>1075</ele>
        <time>2020-05-30T23:19:38Z</time>
      </trkpt>
      <trkpt lat="45.52368" lon="3.82347">
        <ele>1072</ele>
        <time>2020-05-30T23:19:43Z</time>
      </trkpt>
      <trkpt lat="45.52344" lon="3.82313">
        <ele>1067</ele>
        <time>2020-05-30T23:19:49Z</time>
      </trkpt>
      <trkpt lat="45.52324" lon="3.82278">
        <ele>1066</ele>
        <time>2020-05-30T23:19:55Z</time>
      </trkpt>
      <trkpt lat="45.5231" lon="3.82243">
        <ele>1066</ele>
        <time>2020-05-30T23:20:00Z</time>
      </trkpt>
      <trkpt lat="45.52274" lon="3.82088">
        <ele>1059</ele>
        <time>2020-05-30T23:20:20Z</time>
      </trkpt>
      <trkpt lat="45.52263" lon="3.82031">
        <ele>1056</ele>
        <time>2020-05-30T23:20:28Z</time>
      </trkpt>
      <trkpt lat="45.52261" lon="3.81995">
        <ele>1054</ele>
        <time>2020-05-30T23:20:32Z</time>
      </trkpt>
      <trkpt lat="45.52263" lon="3.81945">
        <ele>1051</ele>
        <time>2020-05-30T23:20:38Z</time>
      </trkpt>
      <trkpt lat="45.52266" lon="3.81898">
        <ele>1049</ele>
        <time>2020-05-30T23:20:44Z</time>
      </trkpt>
      <trkpt lat="45.52273" lon="3.8185">
        <ele>1046</ele>
        <time>2020-05-30T23:20:50Z</time>
      </trkpt>
      <trkpt lat="45.52301" lon="3.81761">
        <ele>1039</ele>
        <time>2020-05-30T23:21:03Z</time>
      </trkpt>
      <trkpt lat="45.52319" lon="3.81717">
        <ele>1037</ele>
        <time>2020-05-30T23:21:09Z</time>
      </trkpt>
      <trkpt lat="45.52353" lon="3.81659">
        <ele>1033</ele>
        <time>2020-05-30T23:21:18Z</time>
      </trkpt>
      <trkpt lat="45.52373" lon="3.81633">
        <ele>1030</ele>
        <time>2020-05-30T23:21:23Z</time>
      </trkpt>
      <trkpt lat="45.52378" lon="3.81629">
        <ele>1030</ele>
        <time>2020-05-30T23:21:24Z</time>
      </trkpt>
      <trkpt lat="45.52385" lon="3.81624">
        <ele>1029</ele>
        <time>2020-05-30T23:21:26Z</time>
      </trkpt>
      <trkpt lat="45.52404" lon="3.81618">
        <ele>1028</ele>
        <time>2020-05-30T23:21:29Z</time>
      </trkpt>
      <trkpt lat="45.52416" lon="3.81618">
        <ele>1029</ele>
        <time>2020-05-30T23:21:31Z</time>
      </trkpt>
      <trkpt lat="45.52466" lon="3.8163">
        <ele>1031</ele>
        <time>2020-05-30T23:21:40Z</time>
      </trkpt>
      <trkpt lat="45.52485" lon="3.81633">
        <ele>1031</ele>
        <time>2020-05-30T23:21:44Z</time>
      </trkpt>
      <trkpt lat="45.52497" lon="3.8163">
        <ele>1030</ele>
        <time>2020-05-30T23:21:46Z</time>
      </trkpt>
      <trkpt lat="45.52518" lon="3.81614">
        <ele>1029</ele>
        <time>2020-05-30T23:21:50Z</time>
      </trkpt>
      <trkpt lat="45.52534" lon="3.81596">
        <ele>1029</ele>
        <time>2020-05-30T23:21:54Z</time>
      </trkpt>
      <trkpt lat="45.52548" lon="3.81576">
        <ele>1027</ele>
        <time>2020-05-30T23:21:57Z</time>
      </trkpt>
      <trkpt lat="45.52561" lon="3.81555">
        <ele>1026</ele>
        <time>2020-05-30T23:22:01Z</time>
      </trkpt>
      <trkpt lat="45.52581" lon="3.81496">
        <ele>1017</ele>
        <time>2020-05-30T23:22:09Z</time>
      </trkpt>
      <trkpt lat="45.52593" lon="3.81467">
        <ele>1013</ele>
        <time>2020-05-30T23:22:13Z</time>
      </trkpt>
      <trkpt lat="45.52612" lon="3.81437">
        <ele>1011</ele>
        <time>2020-05-30T23:22:18Z</time>
      </trkpt>
      <trkpt lat="45.52629" lon="3.81414">
        <ele>1009</ele>
        <time>2020-05-30T23:22:22Z</time>
      </trkpt>
      <trkpt lat="45.52648" lon="3.81392">
        <ele>1007</ele>
        <time>2020-05-30T23:22:27Z</time>
      </trkpt>
      <trkpt lat="45.52671" lon="3.81373">
        <ele>1006</ele>
        <time>2020-05-30T23:22:31Z</time>
      </trkpt>
      <trkpt lat="45.52749" lon="3.81329">
        <ele>998</ele>
        <time>2020-05-30T23:22:46Z</time>
      </trkpt>
      <trkpt lat="45.52776" lon="3.81308">
        <ele>997</ele>
        <time>2020-05-30T23:22:52Z</time>
      </trkpt>
      <trkpt lat="45.52804" lon="3.81279">
        <ele>995</ele>
        <time>2020-05-30T23:22:58Z</time>
      </trkpt>
      <trkpt lat="45.52808" lon="3.81274">
        <ele>995</ele>
        <time>2020-05-30T23:22:59Z</time>
      </trkpt>
      <trkpt lat="45.52849" lon="3.81231">
        <ele>992</ele>
        <time>2020-05-30T23:23:08Z</time>
      </trkpt>
      <trkpt lat="45.52856" lon="3.81225">
        <ele>991</ele>
        <time>2020-05-30T23:23:09Z</time>
      </trkpt>
      <trkpt lat="45.52867" lon="3.81221">
        <ele>991</ele>
        <time>2020-05-30T23:23:11Z</time>
      </trkpt>
      <trkpt lat="45.52877" lon="3.8122">
        <ele>991</ele>
        <time>2020-05-30T23:23:13Z</time>
      </trkpt>
      <trkpt lat="45.52906" lon="3.81226">
        <ele>993</ele>
        <time>2020-05-30T23:23:18Z</time>
      </trkpt>
      <trkpt lat="45.52919" lon="3.81223">
        <ele>993</ele>
        <time>2020-05-30T23:23:21Z</time>
      </trkpt>
      <trkpt lat="45.52927" lon="3.81215">
        <ele>992</ele>
        <time>2020-05-30T23:23:22Z</time>
      </trkpt>
      <trkpt lat="45.52932" lon="3.81201">
        <ele>990</ele>
        <time>2020-05-30T23:23:24Z</time>
      </trkpt>
      <trkpt lat="45.52931" lon="3.81186">
        <ele>987</ele>
        <time>2020-05-30T23:23:26Z</time>
      </trkpt>
      <trkpt lat="45.52925" lon="3.81173">
        <ele>985</ele>
        <time>2020-05-30T23:23:28Z</time>
      </trkpt>
      <trkpt lat="45.52909" lon="3.81165">
        <ele>983</ele>
        <time>2020-05-30T23:23:31Z</time>
      </trkpt>
      <trkpt lat="45.52837" lon="3.81165">
        <ele>981</ele>
        <time>2020-05-30T23:23:44Z</time>
      </trkpt>
      <trkpt lat="45.52812" lon="3.81163">
        <ele>980</ele>
        <time>2020-05-30T23:23:49Z</time>
      </trkpt>
      <trkpt lat="45.52793" lon="3.81151">
        <ele>978</ele>
        <time>2020-05-30T23:23:52Z</time>
      </trkpt>
      <trkpt lat="45.52788" lon="3.81147">
        <ele>978</ele>
        <time>2020-05-30T23:23:53Z</time>
      </trkpt>
      <trkpt lat="45.52782" lon="3.81141">
        <ele>978</ele>
        <time>2020-05-30T23:23:55Z</time>
      </trkpt>
      <trkpt lat="45.52766" lon="3.8112">
        <ele>977</ele>
        <time>2020-05-30T23:23:58Z</time>
      </trkpt>
      <trkpt lat="45.52704" lon="3.80992">
        <ele>972</ele>
        <time>2020-05-30T23:24:18Z</time>
      </trkpt>
      <trkpt lat="45.52693" lon="3.80942">
        <ele>970</ele>
        <time>2020-05-30T23:24:24Z</time>
      </trkpt>
      <trkpt lat="45.52685" lon="3.80902">
        <ele>968</ele>
        <time>2020-05-30T23:24:30Z</time>
      </trkpt>
      <trkpt lat="45.52683" lon="3.80869">
        <ele>965</ele>
        <time>2020-05-30T23:24:34Z</time>
      </trkpt>
      <trkpt lat="45.52684" lon="3.80761">
        <ele>957</ele>
        <time>2020-05-30T23:24:47Z</time>
      </trkpt>
      <trkpt lat="45.52685" lon="3.8074">
        <ele>955</ele>
        <time>2020-05-30T23:24:50Z</time>
      </trkpt>
      <trkpt lat="45.52696" lon="3.80699">
        <ele>953</ele>
        <time>2020-05-30T23:24:55Z</time>
      </trkpt>
      <trkpt lat="45.52731" lon="3.8062">
        <ele>950</ele>
        <time>2020-05-30T23:25:07Z</time>
      </trkpt>
      <trkpt lat="45.52776" lon="3.80527">
        <ele>947</ele>
        <time>2020-05-30T23:25:21Z</time>
      </trkpt>
      <trkpt lat="45.52792" lon="3.80508">
        <ele>947</ele>
        <time>2020-05-30T23:25:25Z</time>
      </trkpt>
      <trkpt lat="45.52997" lon="3.80309">
        <ele>935</ele>
        <time>2020-05-30T23:26:09Z</time>
      </trkpt>
      <trkpt lat="45.53012" lon="3.80302">
        <ele>933</ele>
        <time>2020-05-30T23:26:12Z</time>
      </trkpt>
      <trkpt lat="45.53023" lon="3.803">
        <ele>932</ele>
        <time>2020-05-30T23:26:14Z</time>
      </trkpt>
      <trkpt lat="45.53035" lon="3.80304">
        <ele>932</ele>
        <time>2020-05-30T23:26:16Z</time>
      </trkpt>
      <trkpt lat="45.53044" lon="3.80312">
        <ele>932</ele>
        <time>2020-05-30T23:26:18Z</time>
      </trkpt>
      <trkpt lat="45.53052" lon="3.80322">
        <ele>934</ele>
        <time>2020-05-30T23:26:20Z</time>
      </trkpt>
      <trkpt lat="45.53063" lon="3.80342">
        <ele>935</ele>
        <time>2020-05-30T23:26:23Z</time>
      </trkpt>
      <trkpt lat="45.53078" lon="3.80362">
        <ele>934</ele>
        <time>2020-05-30T23:26:26Z</time>
      </trkpt>
      <trkpt lat="45.53091" lon="3.80366">
        <ele>931</ele>
        <time>2020-05-30T23:26:29Z</time>
      </trkpt>
      <trkpt lat="45.53102" lon="3.80362">
        <ele>928</ele>
        <time>2020-05-30T23:26:31Z</time>
      </trkpt>
      <trkpt lat="45.53112" lon="3.80345">
        <ele>924</ele>
        <time>2020-05-30T23:26:33Z</time>
      </trkpt>
      <trkpt lat="45.53114" lon="3.80318">
        <ele>922</ele>
        <time>2020-05-30T23:26:37Z</time>
      </trkpt>
      <trkpt lat="45.53111" lon="3.80301">
        <ele>921</ele>
        <time>2020-05-30T23:26:39Z</time>
      </trkpt>
      <trkpt lat="45.53107" lon="3.80287">
        <ele>921</ele>
        <time>2020-05-30T23:26:41Z</time>
      </trkpt>
      <trkpt lat="45.5309" lon="3.80263">
        <ele>922</ele>
        <time>2020-05-30T23:26:45Z</time>
      </trkpt>
      <trkpt lat="45.53074" lon="3.8025">
        <ele>922</ele>
        <time>2020-05-30T23:26:48Z</time>
      </trkpt>
      <trkpt lat="45.5306" lon="3.80242">
        <ele>920</ele>
        <time>2020-05-30T23:26:51Z</time>
      </trkpt>
      <trkpt lat="45.53044" lon="3.80237">
        <ele>919</ele>
        <time>2020-05-30T23:26:54Z</time>
      </trkpt>
      <trkpt lat="45.5287" lon="3.80235">
        <ele>909</ele>
        <time>2020-05-30T23:27:25Z</time>
      </trkpt>
      <trkpt lat="45.52738" lon="3.80264">
        <ele>900</ele>
        <time>2020-05-30T23:27:49Z</time>
      </trkpt>
      <trkpt lat="45.52701" lon="3.80274">
        <ele>896</ele>
        <time>2020-05-30T23:27:55Z</time>
      </trkpt>
      <trkpt lat="45.52688" lon="3.80284">
        <ele>897</ele>
        <time>2020-05-30T23:27:58Z</time>
      </trkpt>
      <trkpt lat="45.52654" lon="3.80327">
        <ele>899</ele>
        <time>2020-05-30T23:28:06Z</time>
      </trkpt>
      <trkpt lat="45.52645" lon="3.80332">
        <ele>898</ele>
        <time>2020-05-30T23:28:08Z</time>
      </trkpt>
      <trkpt lat="45.52636" lon="3.80333">
        <ele>897</ele>
        <time>2020-05-30T23:28:10Z</time>
      </trkpt>
      <trkpt lat="45.5263" lon="3.80329">
        <ele>895</ele>
        <time>2020-05-30T23:28:11Z</time>
      </trkpt>
      <trkpt lat="45.52624" lon="3.80321">
        <ele>892</ele>
        <time>2020-05-30T23:28:12Z</time>
      </trkpt>
      <trkpt lat="45.52622" lon="3.80311">
        <ele>890</ele>
        <time>2020-05-30T23:28:13Z</time>
      </trkpt>
      <trkpt lat="45.52622" lon="3.80301">
        <ele>889</ele>
        <time>2020-05-30T23:28:15Z</time>
      </trkpt>
      <trkpt lat="45.52625" lon="3.80291">
        <ele>888</ele>
        <time>2020-05-30T23:28:16Z</time>
      </trkpt>
      <trkpt lat="45.52629" lon="3.80282">
        <ele>887</ele>
        <time>2020-05-30T23:28:17Z</time>
      </trkpt>
      <trkpt lat="45.52639" lon="3.8027">
        <ele>886</ele>
        <time>2020-05-30T23:28:20Z</time>
      </trkpt>
      <trkpt lat="45.52729" lon="3.8017">
        <ele>881</ele>
        <time>2020-05-30T23:28:40Z</time>
      </trkpt>
      <trkpt lat="45.52751" lon="3.80147">
        <ele>880</ele>
        <time>2020-05-30T23:28:45Z</time>
      </trkpt>
      <trkpt lat="45.52775" lon="3.80128">
        <ele>877</ele>
        <time>2020-05-30T23:28:50Z</time>
      </trkpt>
      <trkpt lat="45.52799" lon="3.80114">
        <ele>876</ele>
        <time>2020-05-30T23:28:54Z</time>
      </trkpt>
      <trkpt lat="45.52819" lon="3.80105">
        <ele>874</ele>
        <time>2020-05-30T23:28:58Z</time>
      </trkpt>
      <trkpt lat="45.52962" lon="3.80079">
        <ele>872</ele>
        <time>2020-05-30T23:29:24Z</time>
      </trkpt>
      <trkpt lat="45.53013" lon="3.80064">
        <ele>870</ele>
        <time>2020-05-30T23:29:33Z</time>
      </trkpt>
      <trkpt lat="45.53064" lon="3.80047">
        <ele>869</ele>
        <time>2020-05-30T23:29:42Z</time>
      </trkpt>
      <trkpt lat="45.53084" lon="3.80029">
        <ele>866</ele>
        <time>2020-05-30T23:29:47Z</time>
      </trkpt>
      <trkpt lat="45.53102" lon="3.80004">
        <ele>862</ele>
        <time>2020-05-30T23:29:51Z</time>
      </trkpt>
      <trkpt lat="45.53108" lon="3.79991">
        <ele>861</ele>
        <time>2020-05-30T23:29:53Z</time>
      </trkpt>
      <trkpt lat="45.53114" lon="3.79978">
        <ele>860</ele>
        <time>2020-05-30T23:29:55Z</time>
      </trkpt>
      <trkpt lat="45.53165" lon="3.7984">
        <ele>847</ele>
        <time>2020-05-30T23:30:14Z</time>
      </trkpt>
      <trkpt lat="45.53218" lon="3.79697">
        <ele>840</ele>
        <time>2020-05-30T23:30:34Z</time>
      </trkpt>
      <trkpt lat="45.53224" lon="3.79681">
        <ele>840</ele>
        <time>2020-05-30T23:30:37Z</time>
      </trkpt>
      <trkpt lat="45.5323" lon="3.79667">
        <ele>839</ele>
        <time>2020-05-30T23:30:39Z</time>
      </trkpt>
      <trkpt lat="45.53226" lon="3.79664">
        <ele>837</ele>
        <time>2020-05-30T23:30:40Z</time>
      </trkpt>
      <trkpt lat="45.53213" lon="3.7968">
        <ele>837</ele>
        <time>2020-05-30T23:30:43Z</time>
      </trkpt>
      <trkpt lat="45.53187" lon="3.79737">
        <ele>838</ele>
        <time>2020-05-30T23:30:51Z</time>
      </trkpt>
      <trkpt lat="45.5317" lon="3.79758">
        <ele>836</ele>
        <time>2020-05-30T23:30:55Z</time>
      </trkpt>
      <trkpt lat="45.53151" lon="3.79776">
        <ele>835</ele>
        <time>2020-05-30T23:30:59Z</time>
      </trkpt>
      <trkpt lat="45.53138" lon="3.79781">
        <ele>834</ele>
        <time>2020-05-30T23:31:02Z</time>
      </trkpt>
      <trkpt lat="45.5311" lon="3.79774">
        <ele>828</ele>
        <time>2020-05-30T23:31:07Z</time>
      </trkpt>
      <trkpt lat="45.53099" lon="3.79777">
        <ele>827</ele>
        <time>2020-05-30T23:31:09Z</time>
      </trkpt>
      <trkpt lat="45.53092" lon="3.79782">
        <ele>826</ele>
        <time>2020-05-30T23:31:10Z</time>
      </trkpt>
      <trkpt lat="45.53083" lon="3.79786">
        <ele>825</ele>
        <time>2020-05-30T23:31:12Z</time>
      </trkpt>
      <trkpt lat="45.53002" lon="3.79837">
        <ele>819</ele>
        <time>2020-05-30T23:31:27Z</time>
      </trkpt>
      <trkpt lat="45.52991" lon="3.7984">
        <ele>820</ele>
        <time>2020-05-30T23:31:29Z</time>
      </trkpt>
      <trkpt lat="45.52979" lon="3.79838">
        <ele>820</ele>
        <time>2020-05-30T23:31:32Z</time>
      </trkpt>
      <trkpt lat="45.52969" lon="3.79828">
        <ele>819</ele>
        <time>2020-05-30T23:31:34Z</time>
      </trkpt>
      <trkpt lat="45.52954" lon="3.79803">
        <ele>816</ele>
        <time>2020-05-30T23:31:38Z</time>
      </trkpt>
      <trkpt lat="45.52942" lon="3.79777">
        <ele>811</ele>
        <time>2020-05-30T23:31:42Z</time>
      </trkpt>
      <trkpt lat="45.52929" lon="3.79758">
        <ele>808</ele>
        <time>2020-05-30T23:31:45Z</time>
      </trkpt>
      <trkpt lat="45.52915" lon="3.79754">
        <ele>807</ele>
        <time>2020-05-30T23:31:48Z</time>
      </trkpt>
      <trkpt lat="45.52902" lon="3.79756">
        <ele>805</ele>
        <time>2020-05-30T23:31:50Z</time>
      </trkpt>
      <trkpt lat="45.52798" lon="3.79784">
        <ele>803</ele>
        <time>2020-05-30T23:32:09Z</time>
      </trkpt>
      <trkpt lat="45.52784" lon="3.79781">
        <ele>802</ele>
        <time>2020-05-30T23:32:11Z</time>
      </trkpt>
      <trkpt lat="45.52772" lon="3.79774">
        <ele>800</ele>
        <time>2020-05-30T23:32:14Z</time>
      </trkpt>
      <trkpt lat="45.52759" lon="3.79753">
        <ele>795</ele>
        <time>2020-05-30T23:32:17Z</time>
      </trkpt>
      <trkpt lat="45.52749" lon="3.79734">
        <ele>793</ele>
        <time>2020-05-30T23:32:20Z</time>
      </trkpt>
      <trkpt lat="45.52758" lon="3.79735">
        <ele>793</ele>
        <time>2020-05-30T23:32:22Z</time>
      </trkpt>
      <trkpt lat="45.52786" lon="3.79738">
        <ele>793</ele>
        <time>2020-05-30T23:32:27Z</time>
      </trkpt>
      <trkpt lat="45.52802" lon="3.79731">
        <ele>792</ele>
        <time>2020-05-30T23:32:30Z</time>
      </trkpt>
      <trkpt lat="45.52817" lon="3.7972">
        <ele>791</ele>
        <time>2020-05-30T23:32:33Z</time>
      </trkpt>
      <trkpt lat="45.52899" lon="3.79604">
        <ele>779</ele>
        <time>2020-05-30T23:32:53Z</time>
      </trkpt>
      <trkpt lat="45.52987" lon="3.79499">
        <ele>769</ele>
        <time>2020-05-30T23:33:14Z</time>
      </trkpt>
      <trkpt lat="45.53015" lon="3.79459">
        <ele>766</ele>
        <time>2020-05-30T23:33:21Z</time>
      </trkpt>
      <trkpt lat="45.53049" lon="3.79406">
        <ele>760</ele>
        <time>2020-05-30T23:33:30Z</time>
      </trkpt>
      <trkpt lat="45.53065" lon="3.79398">
        <ele>760</ele>
        <time>2020-05-30T23:33:33Z</time>
      </trkpt>
      <trkpt lat="45.53103" lon="3.79408">
        <ele>764</ele>
        <time>2020-05-30T23:33:39Z</time>
      </trkpt>
      <trkpt lat="45.53119" lon="3.79399">
        <ele>764</ele>
        <time>2020-05-30T23:33:43Z</time>
      </trkpt>
      <trkpt lat="45.53141" lon="3.79378">
        <ele>762</ele>
        <time>2020-05-30T23:33:47Z</time>
      </trkpt>
      <trkpt lat="45.53156" lon="3.79357">
        <ele>758</ele>
        <time>2020-05-30T23:33:51Z</time>
      </trkpt>
      <trkpt lat="45.53165" lon="3.79343">
        <ele>756</ele>
        <time>2020-05-30T23:33:53Z</time>
      </trkpt>
      <trkpt lat="45.53201" lon="3.79261">
        <ele>752</ele>
        <time>2020-05-30T23:34:05Z</time>
      </trkpt>
      <trkpt lat="45.53244" lon="3.79183">
        <ele>745</ele>
        <time>2020-05-30T23:34:18Z</time>
      </trkpt>
      <trkpt lat="45.53286" lon="3.7912">
        <ele>743</ele>
        <time>2020-05-30T23:34:29Z</time>
      </trkpt>
      <trkpt lat="45.5333" lon="3.79058">
        <ele>741</ele>
        <time>2020-05-30T23:34:40Z</time>
      </trkpt>
      <trkpt lat="45.53387" lon="3.78978">
        <ele>739</ele>
        <time>2020-05-30T23:34:54Z</time>
      </trkpt>
      <trkpt lat="45.53397" lon="3.78964">
        <ele>739</ele>
        <time>2020-05-30T23:34:56Z</time>
      </trkpt>
      <trkpt lat="45.53406" lon="3.78937">
        <ele>736</ele>
        <time>2020-05-30T23:35:00Z</time>
      </trkpt>
      <trkpt lat="45.53403" lon="3.78907">
        <ele>732</ele>
        <time>2020-05-30T23:35:04Z</time>
      </trkpt>
      <trkpt lat="45.5339" lon="3.78884">
        <ele>731</ele>
        <time>2020-05-30T23:35:08Z</time>
      </trkpt>
      <trkpt lat="45.53377" lon="3.78879">
        <ele>730</ele>
        <time>2020-05-30T23:35:10Z</time>
      </trkpt>
      <trkpt lat="45.53349" lon="3.78885">
        <ele>727</ele>
        <time>2020-05-30T23:35:15Z</time>
      </trkpt>
      <trkpt lat="45.53331" lon="3.78884">
        <ele>725</ele>
        <time>2020-05-30T23:35:18Z</time>
      </trkpt>
      <trkpt lat="45.53317" lon="3.78877">
        <ele>723</ele>
        <time>2020-05-30T23:35:21Z</time>
      </trkpt>
      <trkpt lat="45.53307" lon="3.78858">
        <ele>722</ele>
        <time>2020-05-30T23:35:24Z</time>
      </trkpt>
      <trkpt lat="45.53296" lon="3.78825">
        <ele>722</ele>
        <time>2020-05-30T23:35:28Z</time>
      </trkpt>
      <trkpt lat="45.53292" lon="3.78801">
        <ele>720</ele>
        <time>2020-05-30T23:35:31Z</time>
      </trkpt>
      <trkpt lat="45.53292" lon="3.78777">
        <ele>720</ele>
        <time>2020-05-30T23:35:34Z</time>
      </trkpt>
      <trkpt lat="45.53328" lon="3.78672">
        <ele>718</ele>
        <time>2020-05-30T23:35:49Z</time>
      </trkpt>
      <trkpt lat="45.53329" lon="3.78635">
        <ele>715</ele>
        <time>2020-05-30T23:35:54Z</time>
      </trkpt>
      <trkpt lat="45.53326" lon="3.78578">
        <ele>711</ele>
        <time>2020-05-30T23:36:01Z</time>
      </trkpt>
      <trkpt lat="45.53329" lon="3.78541">
        <ele>710</ele>
        <time>2020-05-30T23:36:05Z</time>
      </trkpt>
      <trkpt lat="45.53368" lon="3.78422">
        <ele>704</ele>
        <time>2020-05-30T23:36:22Z</time>
      </trkpt>
      <trkpt lat="45.53384" lon="3.78402">
        <ele>702</ele>
        <time>2020-05-30T23:36:25Z</time>
      </trkpt>
      <trkpt lat="45.53394" lon="3.78399">
        <ele>701</ele>
        <time>2020-05-30T23:36:27Z</time>
      </trkpt>
      <trkpt lat="45.53395" lon="3.78382">
        <ele>699</ele>
        <time>2020-05-30T23:36:29Z</time>
      </trkpt>
      <trkpt lat="45.53402" lon="3.78367">
        <ele>697</ele>
        <time>2020-05-30T23:36:32Z</time>
      </trkpt>
      <trkpt lat="45.5341" lon="3.7836">
        <ele>696</ele>
        <time>2020-05-30T23:36:33Z</time>
      </trkpt>
      <trkpt lat="45.5342" lon="3.78355">
        <ele>695</ele>
        <time>2020-05-30T23:36:35Z</time>
      </trkpt>
      <trkpt lat="45.53442" lon="3.78351">
        <ele>695</ele>
        <time>2020-05-30T23:36:39Z</time>
      </trkpt>
      <trkpt lat="45.53493" lon="3.78327">
        <ele>692</ele>
        <time>2020-05-30T23:36:49Z</time>
      </trkpt>
      <trkpt lat="45.53505" lon="3.7832">
        <ele>692</ele>
        <time>2020-05-30T23:36:51Z</time>
      </trkpt>
      <trkpt lat="45.53518" lon="3.78304">
        <ele>691</ele>
        <time>2020-05-30T23:36:54Z</time>
      </trkpt>
      <trkpt lat="45.53524" lon="3.78287">
        <ele>690</ele>
        <time>2020-05-30T23:36:56Z</time>
      </trkpt>
      <trkpt lat="45.53537" lon="3.78199">
        <ele>682</ele>
        <time>2020-05-30T23:37:08Z</time>
      </trkpt>
      <trkpt lat="45.5354" lon="3.78166">
        <ele>680</ele>
        <time>2020-05-30T23:37:12Z</time>
      </trkpt>
      <trkpt lat="45.53534" lon="3.78124">
        <ele>677</ele>
        <time>2020-05-30T23:37:17Z</time>
      </trkpt>
      <trkpt lat="45.53532" lon="3.78099">
        <ele>676</ele>
        <time>2020-05-30T23:37:20Z</time>
      </trkpt>
      <trkpt lat="45.53534" lon="3.78069">
        <ele>675</ele>
        <time>2020-05-30T23:37:24Z</time>
      </trkpt>
      <trkpt lat="45.53555" lon="3.77937">
        <ele>666</ele>
        <time>2020-05-30T23:37:41Z</time>
      </trkpt>
      <trkpt lat="45.53569" lon="3.77889">
        <ele>666</ele>
        <time>2020-05-30T23:37:47Z</time>
      </trkpt>
      <trkpt lat="45.53575" lon="3.77858">
        <ele>665</ele>
        <time>2020-05-30T23:37:51Z</time>
      </trkpt>
      <trkpt lat="45.53577" lon="3.77796">
        <ele>663</ele>
        <time>2020-05-30T23:37:59Z</time>
      </trkpt>
      <trkpt lat="45.53582" lon="3.77767">
        <ele>663</ele>
        <time>2020-05-30T23:38:03Z</time>
      </trkpt>
      <trkpt lat="45.53587" lon="3.77754">
        <ele>662</ele>
        <time>2020-05-30T23:38:05Z</time>
      </trkpt>
      <trkpt lat="45.536" lon="3.77736">
        <ele>661</ele>
        <time>2020-05-30T23:38:08Z</time>
      </trkpt>
      <trkpt lat="45.53643" lon="3.77709">
        <ele>659</ele>
        <time>2020-05-30T23:38:16Z</time>
      </trkpt>
      <trkpt lat="45.53662" lon="3.77691">
        <ele>659</ele>
        <time>2020-05-30T23:38:20Z</time>
      </trkpt>
      <trkpt lat="45.53671" lon="3.77676">
        <ele>659</ele>
        <time>2020-05-30T23:38:23Z</time>
      </trkpt>
      <trkpt lat="45.53675" lon="3.7766">
        <ele>659</ele>
        <time>2020-05-30T23:38:25Z</time>
      </trkpt>
      <trkpt lat="45.5367" lon="3.77636">
        <ele>659</ele>
        <time>2020-05-30T23:38:28Z</time>
      </trkpt>
      <trkpt lat="45.53656" lon="3.77614">
        <ele>657</ele>
        <time>2020-05-30T23:38:32Z</time>
      </trkpt>
      <trkpt lat="45.53641" lon="3.77598">
        <ele>656</ele>
        <time>2020-05-30T23:38:35Z</time>
      </trkpt>
      <trkpt lat="45.53565" lon="3.77538">
        <ele>647</ele>
        <time>2020-05-30T23:38:51Z</time>
      </trkpt>
      <trkpt lat="45.53555" lon="3.77528">
        <ele>647</ele>
        <time>2020-05-30T23:38:53Z</time>
      </trkpt>
      <trkpt lat="45.53542" lon="3.77509">
        <ele>645</ele>
        <time>2020-05-30T23:38:56Z</time>
      </trkpt>
      <trkpt lat="45.5353" lon="3.77488">
        <ele>643</ele>
        <time>2020-05-30T23:38:59Z</time>
      </trkpt>
      <trkpt lat="45.53509" lon="3.77441">
        <ele>639</ele>
        <time>2020-05-30T23:39:06Z</time>
      </trkpt>
      <trkpt lat="45.53491" lon="3.77355">
        <ele>637</ele>
        <time>2020-05-30T23:39:18Z</time>
      </trkpt>
      <trkpt lat="45.53489" lon="3.77342">
        <ele>637</ele>
        <time>2020-05-30T23:39:19Z</time>
      </trkpt>
      <trkpt lat="45.53489" lon="3.77322">
        <ele>636</ele>
        <time>2020-05-30T23:39:22Z</time>
      </trkpt>
      <trkpt lat="45.53496" lon="3.77268">
        <ele>633</ele>
        <time>2020-05-30T23:39:29Z</time>
      </trkpt>
      <trkpt lat="45.53506" lon="3.77217">
        <ele>629</ele>
        <time>2020-05-30T23:39:35Z</time>
      </trkpt>
      <trkpt lat="45.53507" lon="3.77195">
        <ele>627</ele>
        <time>2020-05-30T23:39:38Z</time>
      </trkpt>
      <trkpt lat="45.53507" lon="3.77174">
        <ele>625</ele>
        <time>2020-05-30T23:39:41Z</time>
      </trkpt>
      <trkpt lat="45.535" lon="3.77098">
        <ele>621</ele>
        <time>2020-05-30T23:39:50Z</time>
      </trkpt>
      <trkpt lat="45.5349" lon="3.77028">
        <ele>618</ele>
        <time>2020-05-30T23:39:59Z</time>
      </trkpt>
      <trkpt lat="45.53489" lon="3.77007">
        <ele>617</ele>
        <time>2020-05-30T23:40:02Z</time>
      </trkpt>
      <trkpt lat="45.53491" lon="3.76988">
        <ele>616</ele>
        <time>2020-05-30T23:40:04Z</time>
      </trkpt>
      <trkpt lat="45.53497" lon="3.76967">
        <ele>615</ele>
        <time>2020-05-30T23:40:07Z</time>
      </trkpt>
      <trkpt lat="45.53504" lon="3.7695">
        <ele>613</ele>
        <time>2020-05-30T23:40:09Z</time>
      </trkpt>
      <trkpt lat="45.53513" lon="3.7694">
        <ele>612</ele>
        <time>2020-05-30T23:40:11Z</time>
      </trkpt>
      <trkpt lat="45.53524" lon="3.76933">
        <ele>611</ele>
        <time>2020-05-30T23:40:13Z</time>
      </trkpt>
      <trkpt lat="45.53535" lon="3.76931">
        <ele>610</ele>
        <time>2020-05-30T23:40:15Z</time>
      </trkpt>
      <trkpt lat="45.5356" lon="3.76939">
        <ele>610</ele>
        <time>2020-05-30T23:40:20Z</time>
      </trkpt>
      <trkpt lat="45.53592" lon="3.76935">
        <ele>608</ele>
        <time>2020-05-30T23:40:26Z</time>
      </trkpt>
      <trkpt lat="45.53611" lon="3.76934">
        <ele>607</ele>
        <time>2020-05-30T23:40:29Z</time>
      </trkpt>
      <trkpt lat="45.53647" lon="3.76939">
        <ele>606</ele>
        <time>2020-05-30T23:40:36Z</time>
      </trkpt>
      <trkpt lat="45.5372" lon="3.76934">
        <ele>601</ele>
        <time>2020-05-30T23:40:49Z</time>
      </trkpt>
      <trkpt lat="45.53734" lon="3.76938">
        <ele>601</ele>
        <time>2020-05-30T23:40:51Z</time>
      </trkpt>
      <trkpt lat="45.53745" lon="3.76945">
        <ele>601</ele>
        <time>2020-05-30T23:40:53Z</time>
      </trkpt>
      <trkpt lat="45.53763" lon="3.76955">
        <ele>601</ele>
        <time>2020-05-30T23:40:57Z</time>
      </trkpt>
      <trkpt lat="45.53778" lon="3.76955">
        <ele>600</ele>
        <time>2020-05-30T23:40:59Z</time>
      </trkpt>
      <trkpt lat="45.53786" lon="3.76949">
        <ele>599</ele>
        <time>2020-05-30T23:41:01Z</time>
      </trkpt>
      <trkpt lat="45.53793" lon="3.76941">
        <ele>597</ele>
        <time>2020-05-30T23:41:02Z</time>
      </trkpt>
      <trkpt lat="45.53799" lon="3.76925">
        <ele>595</ele>
        <time>2020-05-30T23:41:05Z</time>
      </trkpt>
      <trkpt lat="45.53806" lon="3.76884">
        <ele>592</ele>
        <time>2020-05-30T23:41:10Z</time>
      </trkpt>
      <trkpt lat="45.53829" lon="3.76744">
        <ele>584</ele>
        <time>2020-05-30T23:41:28Z</time>
      </trkpt>
      <trkpt lat="45.53847" lon="3.76638">
        <ele>581</ele>
        <time>2020-05-30T23:41:42Z</time>
      </trkpt>
      <trkpt lat="45.53848" lon="3.76631">
        <ele>581</ele>
        <time>2020-05-30T23:41:42Z</time>
      </trkpt>
      <trkpt lat="45.53858" lon="3.76573">
        <ele>579</ele>
        <time>2020-05-30T23:41:50Z</time>
      </trkpt>
      <trkpt lat="45.53867" lon="3.76522">
        <ele>577</ele>
        <time>2020-05-30T23:41:56Z</time>
      </trkpt>
      <trkpt lat="45.53877" lon="3.76488">
        <ele>575</ele>
        <time>2020-05-30T23:42:01Z</time>
      </trkpt>
      <trkpt lat="45.53889" lon="3.76455">
        <ele>574</ele>
        <time>2020-05-30T23:42:06Z</time>
      </trkpt>
      <trkpt lat="45.53909" lon="3.76414">
        <ele>573</ele>
        <time>2020-05-30T23:42:12Z</time>
      </trkpt>
      <trkpt lat="45.53944" lon="3.76348">
        <ele>571</ele>
        <time>2020-05-30T23:42:22Z</time>
      </trkpt>
      <trkpt lat="45.5397" lon="3.76267">
        <ele>569</ele>
        <time>2020-05-30T23:42:33Z</time>
      </trkpt>
      <trkpt lat="45.53978" lon="3.76227">
        <ele>568</ele>
        <time>2020-05-30T23:42:38Z</time>
      </trkpt>
      <trkpt lat="45.53981" lon="3.76215">
        <ele>568</ele>
        <time>2020-05-30T23:42:40Z</time>
      </trkpt>
      <trkpt lat="45.53983" lon="3.7619">
        <ele>568</ele>
        <time>2020-05-30T23:42:43Z</time>
      </trkpt>
      <trkpt lat="45.53984" lon="3.76159">
        <ele>568</ele>
        <time>2020-05-30T23:42:47Z</time>
      </trkpt>
      <trkpt lat="45.53985" lon="3.76141">
        <ele>567</ele>
        <time>2020-05-30T23:42:49Z</time>
      </trkpt>
      <trkpt lat="45.53992" lon="3.76111">
        <ele>567</ele>
        <time>2020-05-30T23:42:53Z</time>
      </trkpt>
      <trkpt lat="45.54002" lon="3.76094">
        <ele>566</ele>
        <time>2020-05-30T23:42:56Z</time>
      </trkpt>
      <trkpt lat="45.54006" lon="3.76089">
        <ele>566</ele>
        <time>2020-05-30T23:42:57Z</time>
      </trkpt>
      <trkpt lat="45.54015" lon="3.76078">
        <ele>565</ele>
        <time>2020-05-30T23:42:59Z</time>
      </trkpt>
      <trkpt lat="45.54033" lon="3.76061">
        <ele>564</ele>
        <time>2020-05-30T23:43:03Z</time>
      </trkpt>
      <trkpt lat="45.5408" lon="3.76015">
        <ele>560</ele>
        <time>2020-05-30T23:43:13Z</time>
      </trkpt>
      <trkpt lat="45.5412" lon="3.75976">
        <ele>558</ele>
        <time>2020-05-30T23:43:22Z</time>
      </trkpt>
      <trkpt lat="45.54232" lon="3.75866">
        <ele>554</ele>
        <time>2020-05-30T23:43:46Z</time>
      </trkpt>
      <trkpt lat="45.54268" lon="3.7583">
        <ele>554</ele>
        <time>2020-05-30T23:43:54Z</time>
      </trkpt>
      <trkpt lat="45.54329" lon="3.75769">
        <ele>556</ele>
        <time>2020-05-30T23:44:07Z</time>
      </trkpt>
      <trkpt lat="45.54334" lon="3.75764">
        <ele>556</ele>
        <time>2020-05-30T23:44:08Z</time>
      </trkpt>
      <trkpt lat="45.54339" lon="3.75759">
        <ele>557</ele>
        <time>2020-05-30T23:44:09Z</time>
      </trkpt>
      <trkpt lat="45.5435" lon="3.75748">
        <ele>559</ele>
        <time>2020-05-30T23:44:12Z</time>
      </trkpt>
      <trkpt lat="45.5437" lon="3.75718">
        <ele>562</ele>
        <time>2020-05-30T23:44:17Z</time>
      </trkpt>
      <trkpt lat="45.54386" lon="3.75674">
        <ele>563</ele>
        <time>2020-05-30T23:44:23Z</time>
      </trkpt>
      <trkpt lat="45.5441" lon="3.75566">
        <ele>561</ele>
        <time>2020-05-30T23:44:37Z</time>
      </trkpt>
      <trkpt lat="45.54416" lon="3.75538">
        <ele>560</ele>
        <time>2020-05-30T23:44:41Z</time>
      </trkpt>
      <trkpt lat="45.54418" lon="3.75517">
        <ele>560</ele>
        <time>2020-05-30T23:44:43Z</time>
      </trkpt>
      <trkpt lat="45.54418" lon="3.75495">
        <ele>559</ele>
        <time>2020-05-30T23:44:46Z</time>
      </trkpt>
      <trkpt lat="45.54412" lon="3.75428">
        <ele>559</ele>
        <time>2020-05-30T23:44:54Z</time>
      </trkpt>
      <trkpt lat="45.54411" lon="3.75393">
        <ele>559</ele>
        <time>2020-05-30T23:44:59Z</time>
      </trkpt>
      <trkpt lat="45.54413" lon="3.75376">
        <ele>560</ele>
        <time>2020-05-30T23:45:01Z</time>
      </trkpt>
      <trkpt lat="45.54417" lon="3.75363">
        <ele>560</ele>
        <time>2020-05-30T23:45:03Z</time>
      </trkpt>
      <trkpt lat="45.54446" lon="3.75305">
        <ele>561</ele>
        <time>2020-05-30T23:45:12Z</time>
      </trkpt>
      <trkpt lat="45.54485" lon="3.75231">
        <ele>562</ele>
        <time>2020-05-30T23:45:23Z</time>
      </trkpt>
      <trkpt lat="45.54631" lon="3.74952">
        <ele>557</ele>
        <time>2020-05-30T23:46:07Z</time>
      </trkpt>
      <trkpt lat="45.54675" lon="3.7487">
        <ele>556</ele>
        <time>2020-05-30T23:46:19Z</time>
      </trkpt>
      <trkpt lat="45.54677" lon="3.74865">
        <ele>556</ele>
        <time>2020-05-30T23:46:20Z</time>
      </trkpt>
      <trkpt lat="45.54756" lon="3.74713">
        <ele>551</ele>
        <time>2020-05-30T23:46:44Z</time>
      </trkpt>
      <trkpt lat="45.54766" lon="3.74695">
        <ele>550</ele>
        <time>2020-05-30T23:46:47Z</time>
      </trkpt>
      <trkpt lat="45.548" lon="3.74628">
        <ele>548</ele>
        <time>2020-05-30T23:46:57Z</time>
      </trkpt>
      <trkpt lat="45.54831" lon="3.74575">
        <ele>548</ele>
        <time>2020-05-30T23:47:05Z</time>
      </trkpt>
      <trkpt lat="45.54845" lon="3.74545">
        <ele>548</ele>
        <time>2020-05-30T23:47:10Z</time>
      </trkpt>
      <trkpt lat="45.54854" lon="3.74527">
        <ele>547</ele>
        <time>2020-05-30T23:47:13Z</time>
      </trkpt>
      <trkpt lat="45.54897" lon="3.74526">
        <ele>546</ele>
        <time>2020-05-30T23:47:20Z</time>
      </trkpt>
      <trkpt lat="45.54904" lon="3.74521">
        <ele>546</ele>
        <time>2020-05-30T23:47:22Z</time>
      </trkpt>
      <trkpt lat="45.54909" lon="3.74526">
        <ele>546</ele>
        <time>2020-05-30T23:47:23Z</time>
      </trkpt>
      <trkpt lat="45.54943" lon="3.74537">
        <ele>543</ele>
        <time>2020-05-30T23:47:29Z</time>
      </trkpt>
      <trkpt lat="45.54962" lon="3.74539">
        <ele>541</ele>
        <time>2020-05-30T23:47:32Z</time>
      </trkpt>
      <trkpt lat="45.54978" lon="3.74516">
        <ele>540</ele>
        <time>2020-05-30T23:47:36Z</time>
      </trkpt>
      <trkpt lat="45.55006" lon="3.74456">
        <ele>538</ele>
        <time>2020-05-30T23:47:45Z</time>
      </trkpt>
      <trkpt lat="45.55012" lon="3.74439">
        <ele>538</ele>
        <time>2020-05-30T23:47:48Z</time>
      </trkpt>
      <trkpt lat="45.55016" lon="3.74433">
        <ele>538</ele>
        <time>2020-05-30T23:47:49Z</time>
      </trkpt>
      <trkpt lat="45.55017" lon="3.74428">
        <ele>538</ele>
        <time>2020-05-30T23:47:50Z</time>
      </trkpt>
      <trkpt lat="45.55041" lon="3.74377">
        <ele>536</ele>
        <time>2020-05-30T23:47:57Z</time>
      </trkpt>
      <trkpt lat="45.55079" lon="3.74285">
        <ele>533</ele>
        <time>2020-05-30T23:48:10Z</time>
      </trkpt>
      <trkpt lat="45.55081" lon="3.7428">
        <ele>533</ele>
        <time>2020-05-30T23:48:11Z</time>
      </trkpt>
      <trkpt lat="45.55083" lon="3.74276">
        <ele>533</ele>
        <time>2020-05-30T23:48:12Z</time>
      </trkpt>
      <trkpt lat="45.55128" lon="3.74182">
        <ele>533</ele>
        <time>2020-05-30T23:48:26Z</time>
      </trkpt>
      <trkpt lat="45.55133" lon="3.74171">
        <ele>533</ele>
        <time>2020-05-30T23:48:28Z</time>
      </trkpt>
      <trkpt lat="45.55138" lon="3.74152">
        <ele>533</ele>
        <time>2020-05-30T23:48:30Z</time>
      </trkpt>
      <trkpt lat="45.55145" lon="3.74125">
        <ele>533</ele>
        <time>2020-05-30T23:48:34Z</time>
      </trkpt>
      <trkpt lat="45.55157" lon="3.74063">
        <ele>533</ele>
        <time>2020-05-30T23:48:42Z</time>
      </trkpt>
      <trkpt lat="45.55161" lon="3.74044">
        <ele>532</ele>
        <time>2020-05-30T23:48:44Z</time>
      </trkpt>
      <trkpt lat="45.55165" lon="3.7403">
        <ele>532</ele>
        <time>2020-05-30T23:48:46Z</time>
      </trkpt>
      <trkpt lat="45.55169" lon="3.74015">
        <ele>531</ele>
        <time>2020-05-30T23:48:48Z</time>
      </trkpt>
      <trkpt lat="45.55177" lon="3.73991">
        <ele>531</ele>
        <time>2020-05-30T23:48:51Z</time>
      </trkpt>
      <trkpt lat="45.55179" lon="3.73992">
        <ele>531</ele>
        <time>2020-05-30T23:48:52Z</time>
      </trkpt>
      <trkpt lat="45.55182" lon="3.73992">
        <ele>531</ele>
        <time>2020-05-30T23:48:52Z</time>
      </trkpt>
      <trkpt lat="45.55184" lon="3.73991">
        <ele>531</ele>
        <time>2020-05-30T23:48:53Z</time>
      </trkpt>
      <trkpt lat="45.55186" lon="3.73989">
        <ele>531</ele>
        <time>2020-05-30T23:48:53Z</time>
      </trkpt>
      <trkpt lat="45.55188" lon="3.73986">
        <ele>531</ele>
        <time>2020-05-30T23:48:54Z</time>
      </trkpt>
      <trkpt lat="45.55189" lon="3.73983">
        <ele>531</ele>
        <time>2020-05-30T23:48:54Z</time>
      </trkpt>
      <trkpt lat="45.55196" lon="3.73977">
        <ele>531</ele>
        <time>2020-05-30T23:48:56Z</time>
      </trkpt>
      <trkpt lat="45.5521" lon="3.73978">
        <ele>531</ele>
        <time>2020-05-30T23:48:58Z</time>
      </trkpt>
      <trkpt lat="45.55223" lon="3.73977">
        <ele>531</ele>
        <time>2020-05-30T23:49:00Z</time>
      </trkpt>
      <trkpt lat="45.55229" lon="3.73979">
        <ele>531</ele>
        <time>2020-05-30T23:49:01Z</time>
      </trkpt>
      <trkpt lat="45.55237" lon="3.73982">
        <ele>531</ele>
        <time>2020-05-30T23:49:03Z</time>
      </trkpt>
      <trkpt lat="45.55278" lon="3.73997">
        <ele>532</ele>
        <time>2020-05-30T23:49:10Z</time>
      </trkpt>
      <trkpt lat="45.55285" lon="3.73998">
        <ele>532</ele>
        <time>2020-05-30T23:49:12Z</time>
      </trkpt>
      <trkpt lat="45.55291" lon="3.74001">
        <ele>532</ele>
        <time>2020-05-30T23:49:13Z</time>
      </trkpt>
      <trkpt lat="45.553" lon="3.74003">
        <ele>532</ele>
        <time>2020-05-30T23:49:14Z</time>
      </trkpt>
      <trkpt lat="45.55376" lon="3.74028">
        <ele>531</ele>
        <time>2020-05-30T23:49:28Z</time>
      </trkpt>
      <trkpt lat="45.5543" lon="3.74047">
        <ele>530</ele>
        <time>2020-05-30T23:49:38Z</time>
      </trkpt>
      <trkpt lat="45.55494" lon="3.74068">
        <ele>529</ele>
        <time>2020-05-30T23:49:50Z</time>
      </trkpt>
      <trkpt lat="45.55569" lon="3.74093">
        <ele>527</ele>
        <time>2020-05-30T23:50:04Z</time>
      </trkpt>
      <trkpt lat="45.55579" lon="3.74097">
        <ele>526</ele>
        <time>2020-05-30T23:50:05Z</time>
      </trkpt>
      <trkpt lat="45.55694" lon="3.74136">
        <ele>528</ele>
        <time>2020-05-30T23:50:26Z</time>
      </trkpt>
      <trkpt lat="45.55968" lon="3.74224">
        <ele>534</ele>
        <time>2020-05-30T23:51:16Z</time>
      </trkpt>
      <trkpt lat="45.56145" lon="3.74281">
        <ele>537</ele>
        <time>2020-05-30T23:51:49Z</time>
      </trkpt>
      <trkpt lat="45.56211" lon="3.74303">
        <ele>539</ele>
        <time>2020-05-30T23:52:01Z</time>
      </trkpt>
      <trkpt lat="45.56221" lon="3.74307">
        <ele>540</ele>
        <time>2020-05-30T23:52:03Z</time>
      </trkpt>
      <trkpt lat="45.56333" lon="3.74344">
        <ele>545</ele>
        <time>2020-05-30T23:52:23Z</time>
      </trkpt>
      <trkpt lat="45.56378" lon="3.74358">
        <ele>548</ele>
        <time>2020-05-30T23:52:31Z</time>
      </trkpt>
      <trkpt lat="45.56701" lon="3.74464">
        <ele>553</ele>
        <time>2020-05-30T23:53:30Z</time>
      </trkpt>
      <trkpt lat="45.56747" lon="3.7448">
        <ele>554</ele>
        <time>2020-05-30T23:53:39Z</time>
      </trkpt>
      <trkpt lat="45.56846" lon="3.74511">
        <ele>557</ele>
        <time>2020-05-30T23:53:57Z</time>
      </trkpt>
      <trkpt lat="45.56999" lon="3.74562">
        <ele>560</ele>
        <time>2020-05-30T23:54:25Z</time>
      </trkpt>
      <trkpt lat="45.57253" lon="3.74645">
        <ele>567</ele>
        <time>2020-05-30T23:55:11Z</time>
      </trkpt>
      <trkpt lat="45.57314" lon="3.74678">
        <ele>570</ele>
        <time>2020-05-30T23:55:23Z</time>
      </trkpt>
      <trkpt lat="45.57331" lon="3.74685">
        <ele>571</ele>
        <time>2020-05-30T23:55:26Z</time>
      </trkpt>
      <trkpt lat="45.57367" lon="3.74707">
        <ele>574</ele>
        <time>2020-05-30T23:55:33Z</time>
      </trkpt>
      <trkpt lat="45.57391" lon="3.74721">
        <ele>577</ele>
        <time>2020-05-30T23:55:37Z</time>
      </trkpt>
      <trkpt lat="45.57399" lon="3.74733">
        <ele>578</ele>
        <time>2020-05-30T23:55:39Z</time>
      </trkpt>
      <trkpt lat="45.574" lon="3.7474">
        <ele>579</ele>
        <time>2020-05-30T23:55:40Z</time>
      </trkpt>
      <trkpt lat="45.57402" lon="3.74746">
        <ele>580</ele>
        <time>2020-05-30T23:55:41Z</time>
      </trkpt>
      <trkpt lat="45.57399" lon="3.74757">
        <ele>579</ele>
        <time>2020-05-30T23:55:43Z</time>
      </trkpt>
      <trkpt lat="45.57394" lon="3.74759">
        <ele>579</ele>
        <time>2020-05-30T23:55:44Z</time>
      </trkpt>
      <trkpt lat="45.57345" lon="3.74709">
        <ele>572</ele>
        <time>2020-05-30T23:55:54Z</time>
      </trkpt>
      <trkpt lat="45.57326" lon="3.74702">
        <ele>571</ele>
        <time>2020-05-30T23:55:58Z</time>
      </trkpt>
      <trkpt lat="45.57311" lon="3.74701">
        <ele>570</ele>
        <time>2020-05-30T23:56:00Z</time>
      </trkpt>
      <trkpt lat="45.57311" lon="3.74703">
        <ele>570</ele>
        <time>2020-05-30T23:56:01Z</time>
      </trkpt>
      <trkpt lat="45.57311" lon="3.74701">
        <ele>570</ele>
        <time>2020-05-30T23:56:01Z</time>
      </trkpt>
      <trkpt lat="45.57326" lon="3.74702">
        <ele>571</ele>
        <time>2020-05-30T23:56:04Z</time>
      </trkpt>
      <trkpt lat="45.57345" lon="3.74709">
        <ele>572</ele>
        <time>2020-05-30T23:56:07Z</time>
      </trkpt>
      <trkpt lat="45.574" lon="3.74767">
        <ele>579</ele>
        <time>2020-05-30T23:56:19Z</time>
      </trkpt>
      <trkpt lat="45.5741" lon="3.74761">
        <ele>581</ele>
        <time>2020-05-30T23:56:21Z</time>
      </trkpt>
      <trkpt lat="45.57415" lon="3.7476">
        <ele>581</ele>
        <time>2020-05-30T23:56:22Z</time>
      </trkpt>
      <trkpt lat="45.57422" lon="3.74761">
        <ele>581</ele>
        <time>2020-05-30T23:56:23Z</time>
      </trkpt>
      <trkpt lat="45.57431" lon="3.74772">
        <ele>581</ele>
        <time>2020-05-30T23:56:25Z</time>
      </trkpt>
      <trkpt lat="45.5744" lon="3.74793">
        <ele>580</ele>
        <time>2020-05-30T23:56:29Z</time>
      </trkpt>
      <trkpt lat="45.57457" lon="3.74824">
        <ele>579</ele>
        <time>2020-05-30T23:56:33Z</time>
      </trkpt>
      <trkpt lat="45.57507" lon="3.74875">
        <ele>578</ele>
        <time>2020-05-30T23:56:44Z</time>
      </trkpt>
      <trkpt lat="45.57563" lon="3.74931">
        <ele>577</ele>
        <time>2020-05-30T23:56:57Z</time>
      </trkpt>
      <trkpt lat="45.57625" lon="3.74988">
        <ele>578</ele>
        <time>2020-05-30T23:57:10Z</time>
      </trkpt>
      <trkpt lat="45.57725" lon="3.75051">
        <ele>572</ele>
        <time>2020-05-30T23:57:29Z</time>
      </trkpt>
      <trkpt lat="45.57753" lon="3.75072">
        <ele>570</ele>
        <time>2020-05-30T23:57:35Z</time>
      </trkpt>
      <trkpt lat="45.57835" lon="3.75149">
        <ele>563</ele>
        <time>2020-05-30T23:57:52Z</time>
      </trkpt>
      <trkpt lat="45.57841" lon="3.75155">
        <ele>563</ele>
        <time>2020-05-30T23:57:53Z</time>
      </trkpt>
      <trkpt lat="45.57902" lon="3.75215">
        <ele>566</ele>
        <time>2020-05-30T23:58:07Z</time>
      </trkpt>
      <trkpt lat="45.57927" lon="3.75253">
        <ele>568</ele>
        <time>2020-05-30T23:58:13Z</time>
      </trkpt>
      <trkpt lat="45.57942" lon="3.75279">
        <ele>569</ele>
        <time>2020-05-30T23:58:17Z</time>
      </trkpt>
      <trkpt lat="45.57945" lon="3.75285">
        <ele>569</ele>
        <time>2020-05-30T23:58:18Z</time>
      </trkpt>
      <trkpt lat="45.5795" lon="3.75293">
        <ele>569</ele>
        <time>2020-05-30T23:58:20Z</time>
      </trkpt>
      <trkpt lat="45.57961" lon="3.75301">
        <ele>569</ele>
        <time>2020-05-30T23:58:22Z</time>
      </trkpt>
      <trkpt lat="45.57977" lon="3.75314">
        <ele>569</ele>
        <time>2020-05-30T23:58:25Z</time>
      </trkpt>
      <trkpt lat="45.58037" lon="3.75352">
        <ele>570</ele>
        <time>2020-05-30T23:58:37Z</time>
      </trkpt>
      <trkpt lat="45.5806" lon="3.75365">
        <ele>570</ele>
        <time>2020-05-30T23:58:41Z</time>
      </trkpt>
      <trkpt lat="45.58083" lon="3.75381">
        <ele>571</ele>
        <time>2020-05-30T23:58:46Z</time>
      </trkpt>
      <trkpt lat="45.58101" lon="3.75399">
        <ele>572</ele>
        <time>2020-05-30T23:58:50Z</time>
      </trkpt>
      <trkpt lat="45.58157" lon="3.75476">
        <ele>574</ele>
        <time>2020-05-30T23:59:03Z</time>
      </trkpt>
      <trkpt lat="45.58172" lon="3.755">
        <ele>574</ele>
        <time>2020-05-30T23:59:07Z</time>
      </trkpt>
      <trkpt lat="45.582" lon="3.75565">
        <ele>578</ele>
        <time>2020-05-30T23:59:17Z</time>
      </trkpt>
      <trkpt lat="45.5821" lon="3.75578">
        <ele>579</ele>
        <time>2020-05-30T23:59:19Z</time>
      </trkpt>
      <trkpt lat="45.5823" lon="3.75597">
        <ele>579</ele>
        <time>2020-05-30T23:59:24Z</time>
      </trkpt>
      <trkpt lat="45.58243" lon="3.75607">
        <ele>580</ele>
        <time>2020-05-30T23:59:26Z</time>
      </trkpt>
      <trkpt lat="45.5829" lon="3.75642">
        <ele>581</ele>
        <time>2020-05-30T23:59:36Z</time>
      </trkpt>
      <trkpt lat="45.58323" lon="3.75669">
        <ele>582</ele>
        <time>2020-05-30T23:59:42Z</time>
      </trkpt>
      <trkpt lat="45.58342" lon="3.75691">
        <ele>582</ele>
        <time>2020-05-30T23:59:47Z</time>
      </trkpt>
      <trkpt lat="45.584" lon="3.75795">
        <ele>586</ele>
        <time>2020-05-31T00:00:03Z</time>
      </trkpt>
      <trkpt lat="45.58448" lon="3.75868">
        <ele>590</ele>
        <time>2020-05-31T00:00:16Z</time>
      </trkpt>
      <trkpt lat="45.5846" lon="3.75882">
        <ele>589</ele>
        <time>2020-05-31T00:00:19Z</time>
      </trkpt>
      <trkpt lat="45.58472" lon="3.75893">
        <ele>587</ele>
        <time>2020-05-31T00:00:21Z</time>
      </trkpt>
      <trkpt lat="45.58485" lon="3.75904">
        <ele>585</ele>
        <time>2020-05-31T00:00:24Z</time>
      </trkpt>
      <trkpt lat="45.58555" lon="3.75956">
        <ele>582</ele>
        <time>2020-05-31T00:00:38Z</time>
      </trkpt>
      <trkpt lat="45.58576" lon="3.75976">
        <ele>581</ele>
        <time>2020-05-31T00:00:42Z</time>
      </trkpt>
      <trkpt lat="45.58613" lon="3.76023">
        <ele>584</ele>
        <time>2020-05-31T00:00:51Z</time>
      </trkpt>
      <trkpt lat="45.58624" lon="3.76035">
        <ele>584</ele>
        <time>2020-05-31T00:00:54Z</time>
      </trkpt>
      <trkpt lat="45.58628" lon="3.76037">
        <ele>584</ele>
        <time>2020-05-31T00:00:54Z</time>
      </trkpt>
      <trkpt lat="45.58638" lon="3.76042">
        <ele>585</ele>
        <time>2020-05-31T00:00:56Z</time>
      </trkpt>
      <trkpt lat="45.5866" lon="3.76048">
        <ele>586</ele>
        <time>2020-05-31T00:01:00Z</time>
      </trkpt>
      <trkpt lat="45.58691" lon="3.7605">
        <ele>587</ele>
        <time>2020-05-31T00:01:06Z</time>
      </trkpt>
      <trkpt lat="45.58718" lon="3.76061">
        <ele>588</ele>
        <time>2020-05-31T00:01:11Z</time>
      </trkpt>
      <trkpt lat="45.58758" lon="3.76091">
        <ele>589</ele>
        <time>2020-05-31T00:01:19Z</time>
      </trkpt>
      <trkpt lat="45.5879" lon="3.76115">
        <ele>590</ele>
        <time>2020-05-31T00:01:25Z</time>
      </trkpt>
      <trkpt lat="45.58836" lon="3.76135">
        <ele>592</ele>
        <time>2020-05-31T00:01:34Z</time>
      </trkpt>
      <trkpt lat="45.58854" lon="3.76141">
        <ele>592</ele>
        <time>2020-05-31T00:01:37Z</time>
      </trkpt>
      <trkpt lat="45.58865" lon="3.76142">
        <ele>593</ele>
        <time>2020-05-31T00:01:39Z</time>
      </trkpt>
      <trkpt lat="45.58881" lon="3.7614">
        <ele>593</ele>
        <time>2020-05-31T00:01:42Z</time>
      </trkpt>
      <trkpt lat="45.58902" lon="3.76137">
        <ele>594</ele>
        <time>2020-05-31T00:01:46Z</time>
      </trkpt>
      <trkpt lat="45.58913" lon="3.76136">
        <ele>594</ele>
        <time>2020-05-31T00:01:48Z</time>
      </trkpt>
      <trkpt lat="45.58925" lon="3.76134">
        <ele>595</ele>
        <time>2020-05-31T00:01:50Z</time>
      </trkpt>
      <trkpt lat="45.5893" lon="3.76133">
        <ele>595</ele>
        <time>2020-05-31T00:01:51Z</time>
      </trkpt>
      <trkpt lat="45.58936" lon="3.76131">
        <ele>595</ele>
        <time>2020-05-31T00:01:52Z</time>
      </trkpt>
      <trkpt lat="45.58956" lon="3.76128">
        <ele>595</ele>
        <time>2020-05-31T00:01:55Z</time>
      </trkpt>
      <trkpt lat="45.58965" lon="3.76131">
        <ele>595</ele>
        <time>2020-05-31T00:01:57Z</time>
      </trkpt>
      <trkpt lat="45.58998" lon="3.7616">
        <ele>597</ele>
        <time>2020-05-31T00:02:04Z</time>
      </trkpt>
      <trkpt lat="45.59012" lon="3.76177">
        <ele>597</ele>
        <time>2020-05-31T00:02:07Z</time>
      </trkpt>
      <trkpt lat="45.59027" lon="3.76193">
        <ele>598</ele>
        <time>2020-05-31T00:02:10Z</time>
      </trkpt>
      <trkpt lat="45.59041" lon="3.76211">
        <ele>599</ele>
        <time>2020-05-31T00:02:14Z</time>
      </trkpt>
      <trkpt lat="45.59049" lon="3.76214">
        <ele>600</ele>
        <time>2020-05-31T00:02:15Z</time>
      </trkpt>
      <trkpt lat="45.59061" lon="3.76214">
        <ele>600</ele>
        <time>2020-05-31T00:02:17Z</time>
      </trkpt>
      <trkpt lat="45.59073" lon="3.76208">
        <ele>601</ele>
        <time>2020-05-31T00:02:20Z</time>
      </trkpt>
      <trkpt lat="45.59086" lon="3.76197">
        <ele>601</ele>
        <time>2020-05-31T00:02:22Z</time>
      </trkpt>
      <trkpt lat="45.59094" lon="3.76188">
        <ele>601</ele>
        <time>2020-05-31T00:02:24Z</time>
      </trkpt>
      <trkpt lat="45.59104" lon="3.76178">
        <ele>601</ele>
        <time>2020-05-31T00:02:26Z</time>
      </trkpt>
      <trkpt lat="45.59111" lon="3.76169">
        <ele>601</ele>
        <time>2020-05-31T00:02:28Z</time>
      </trkpt>
      <trkpt lat="45.59114" lon="3.7616">
        <ele>601</ele>
        <time>2020-05-31T00:02:29Z</time>
      </trkpt>
      <trkpt lat="45.59141" lon="3.76089">
        <ele>598</ele>
        <time>2020-05-31T00:02:39Z</time>
      </trkpt>
      <trkpt lat="45.59176" lon="3.76028">
        <ele>599</ele>
        <time>2020-05-31T00:02:49Z</time>
      </trkpt>
      <trkpt lat="45.59199" lon="3.75983">
        <ele>600</ele>
        <time>2020-05-31T00:02:56Z</time>
      </trkpt>
      <trkpt lat="45.59209" lon="3.75965">
        <ele>599</ele>
        <time>2020-05-31T00:02:59Z</time>
      </trkpt>
      <trkpt lat="45.59219" lon="3.75947">
        <ele>599</ele>
        <time>2020-05-31T00:03:02Z</time>
      </trkpt>
      <trkpt lat="45.59241" lon="3.75914">
        <ele>598</ele>
        <time>2020-05-31T00:03:07Z</time>
      </trkpt>
      <trkpt lat="45.59254" lon="3.75898">
        <ele>599</ele>
        <time>2020-05-31T00:03:11Z</time>
      </trkpt>
      <trkpt lat="45.59291" lon="3.7585">
        <ele>602</ele>
        <time>2020-05-31T00:03:19Z</time>
      </trkpt>
      <trkpt lat="45.59308" lon="3.75828">
        <ele>602</ele>
        <time>2020-05-31T00:03:23Z</time>
      </trkpt>
      <trkpt lat="45.59312" lon="3.75824">
        <ele>602</ele>
        <time>2020-05-31T00:03:24Z</time>
      </trkpt>
      <trkpt lat="45.59336" lon="3.75802">
        <ele>602</ele>
        <time>2020-05-31T00:03:29Z</time>
      </trkpt>
      <trkpt lat="45.59356" lon="3.7579">
        <ele>601</ele>
        <time>2020-05-31T00:03:33Z</time>
      </trkpt>
      <trkpt lat="45.59374" lon="3.75782">
        <ele>601</ele>
        <time>2020-05-31T00:03:37Z</time>
      </trkpt>
      <trkpt lat="45.59398" lon="3.7578">
        <ele>602</ele>
        <time>2020-05-31T00:03:41Z</time>
      </trkpt>
      <trkpt lat="45.59421" lon="3.75783">
        <ele>603</ele>
        <time>2020-05-31T00:03:45Z</time>
      </trkpt>
      <trkpt lat="45.59433" lon="3.75788">
        <ele>604</ele>
        <time>2020-05-31T00:03:47Z</time>
      </trkpt>
      <trkpt lat="45.59444" lon="3.75799">
        <ele>606</ele>
        <time>2020-05-31T00:03:50Z</time>
      </trkpt>
      <trkpt lat="45.5945" lon="3.75809">
        <ele>608</ele>
        <time>2020-05-31T00:03:51Z</time>
      </trkpt>
      <trkpt lat="45.59453" lon="3.75813">
        <ele>608</ele>
        <time>2020-05-31T00:03:52Z</time>
      </trkpt>
      <trkpt lat="45.59468" lon="3.75837">
        <ele>612</ele>
        <time>2020-05-31T00:03:56Z</time>
      </trkpt>
      <trkpt lat="45.59476" lon="3.75847">
        <ele>614</ele>
        <time>2020-05-31T00:03:58Z</time>
      </trkpt>
      <trkpt lat="45.59481" lon="3.75851">
        <ele>614</ele>
        <time>2020-05-31T00:03:59Z</time>
      </trkpt>
      <trkpt lat="45.59506" lon="3.75859">
        <ele>615</ele>
        <time>2020-05-31T00:04:03Z</time>
      </trkpt>
      <trkpt lat="45.5952" lon="3.75853">
        <ele>615</ele>
        <time>2020-05-31T00:04:06Z</time>
      </trkpt>
      <trkpt lat="45.59549" lon="3.75826">
        <ele>611</ele>
        <time>2020-05-31T00:04:12Z</time>
      </trkpt>
      <trkpt lat="45.59567" lon="3.75815">
        <ele>610</ele>
        <time>2020-05-31T00:04:16Z</time>
      </trkpt>
      <trkpt lat="45.59592" lon="3.75811">
        <ele>610</ele>
        <time>2020-05-31T00:04:20Z</time>
      </trkpt>
      <trkpt lat="45.5961" lon="3.75815">
        <ele>610</ele>
        <time>2020-05-31T00:04:23Z</time>
      </trkpt>
      <trkpt lat="45.59637" lon="3.75827">
        <ele>611</ele>
        <time>2020-05-31T00:04:28Z</time>
      </trkpt>
      <trkpt lat="45.59647" lon="3.75827">
        <ele>611</ele>
        <time>2020-05-31T00:04:30Z</time>
      </trkpt>
      <trkpt lat="45.59666" lon="3.75822">
        <ele>611</ele>
        <time>2020-05-31T00:04:34Z</time>
      </trkpt>
      <trkpt lat="45.59734" lon="3.75781">
        <ele>611</ele>
        <time>2020-05-31T00:04:47Z</time>
      </trkpt>
      <trkpt lat="45.59789" lon="3.75745">
        <ele>612</ele>
        <time>2020-05-31T00:04:58Z</time>
      </trkpt>
      <trkpt lat="45.59813" lon="3.75727">
        <ele>612</ele>
        <time>2020-05-31T00:05:02Z</time>
      </trkpt>
      <trkpt lat="45.59873" lon="3.75668">
        <ele>616</ele>
        <time>2020-05-31T00:05:15Z</time>
      </trkpt>
      <trkpt lat="45.59889" lon="3.7564">
        <ele>617</ele>
        <time>2020-05-31T00:05:20Z</time>
      </trkpt>
      <trkpt lat="45.59899" lon="3.75614">
        <ele>619</ele>
        <time>2020-05-31T00:05:24Z</time>
      </trkpt>
      <trkpt lat="45.59901" lon="3.75585">
        <ele>618</ele>
        <time>2020-05-31T00:05:27Z</time>
      </trkpt>
      <trkpt lat="45.59918" lon="3.75584">
        <ele>621</ele>
        <time>2020-05-31T00:05:30Z</time>
      </trkpt>
      <trkpt lat="45.59942" lon="3.75587">
        <ele>623</ele>
        <time>2020-05-31T00:05:35Z</time>
      </trkpt>
      <trkpt lat="45.59981" lon="3.75602">
        <ele>627</ele>
        <time>2020-05-31T00:05:42Z</time>
      </trkpt>
      <trkpt lat="45.59994" lon="3.75604">
        <ele>628</ele>
        <time>2020-05-31T00:05:44Z</time>
      </trkpt>
      <trkpt lat="45.60001" lon="3.7561">
        <ele>628</ele>
        <time>2020-05-31T00:05:45Z</time>
      </trkpt>
      <trkpt lat="45.60007" lon="3.75624">
        <ele>629</ele>
        <time>2020-05-31T00:05:48Z</time>
      </trkpt>
      <trkpt lat="45.60008" lon="3.75636">
        <ele>628</ele>
        <time>2020-05-31T00:05:49Z</time>
      </trkpt>
      <trkpt lat="45.60005" lon="3.75648">
        <ele>628</ele>
        <time>2020-05-31T00:05:51Z</time>
      </trkpt>
      <trkpt lat="45.59997" lon="3.75658">
        <ele>627</ele>
        <time>2020-05-31T00:05:53Z</time>
      </trkpt>
      <trkpt lat="45.59966" lon="3.75671">
        <ele>625</ele>
        <time>2020-05-31T00:05:58Z</time>
      </trkpt>
      <trkpt lat="45.59953" lon="3.75682">
        <ele>625</ele>
        <time>2020-05-31T00:06:01Z</time>
      </trkpt>
      <trkpt lat="45.59943" lon="3.75695">
        <ele>626</ele>
        <time>2020-05-31T00:06:03Z</time>
      </trkpt>
      <trkpt lat="45.59937" lon="3.75709">
        <ele>626</ele>
        <time>2020-05-31T00:06:05Z</time>
      </trkpt>
      <trkpt lat="45.59932" lon="3.75731">
        <ele>627</ele>
        <time>2020-05-31T00:06:08Z</time>
      </trkpt>
      <trkpt lat="45.59932" lon="3.75742">
        <ele>628</ele>
        <time>2020-05-31T00:06:10Z</time>
      </trkpt>
      <trkpt lat="45.59933" lon="3.75751">
        <ele>628</ele>
        <time>2020-05-31T00:06:11Z</time>
      </trkpt>
      <trkpt lat="45.59952" lon="3.75823">
        <ele>636</ele>
        <time>2020-05-31T00:06:20Z</time>
      </trkpt>
      <trkpt lat="45.59963" lon="3.75864">
        <ele>642</ele>
        <time>2020-05-31T00:06:26Z</time>
      </trkpt>
      <trkpt lat="45.59974" lon="3.75895">
        <ele>646</ele>
        <time>2020-05-31T00:06:30Z</time>
      </trkpt>
      <trkpt lat="45.59981" lon="3.75915">
        <ele>648</ele>
        <time>2020-05-31T00:06:33Z</time>
      </trkpt>
      <trkpt lat="45.59983" lon="3.75932">
        <ele>650</ele>
        <time>2020-05-31T00:06:35Z</time>
      </trkpt>
      <trkpt lat="45.59981" lon="3.75947">
        <ele>653</ele>
        <time>2020-05-31T00:06:37Z</time>
      </trkpt>
      <trkpt lat="45.59973" lon="3.75961">
        <ele>655</ele>
        <time>2020-05-31T00:06:39Z</time>
      </trkpt>
      <trkpt lat="45.5996" lon="3.75966">
        <ele>656</ele>
        <time>2020-05-31T00:06:42Z</time>
      </trkpt>
      <trkpt lat="45.59946" lon="3.75964">
        <ele>656</ele>
        <time>2020-05-31T00:06:44Z</time>
      </trkpt>
      <trkpt lat="45.59904" lon="3.75948">
        <ele>651</ele>
        <time>2020-05-31T00:06:52Z</time>
      </trkpt>
      <trkpt lat="45.59892" lon="3.75952">
        <ele>650</ele>
        <time>2020-05-31T00:06:54Z</time>
      </trkpt>
      <trkpt lat="45.59844" lon="3.75995">
        <ele>652</ele>
        <time>2020-05-31T00:07:04Z</time>
      </trkpt>
      <trkpt lat="45.59816" lon="3.76012">
        <ele>652</ele>
        <time>2020-05-31T00:07:10Z</time>
      </trkpt>
      <trkpt lat="45.59811" lon="3.76015">
        <ele>652</ele>
        <time>2020-05-31T00:07:11Z</time>
      </trkpt>
      <trkpt lat="45.59805" lon="3.76021">
        <ele>652</ele>
        <time>2020-05-31T00:07:12Z</time>
      </trkpt>
      <trkpt lat="45.5979" lon="3.76035">
        <ele>654</ele>
        <time>2020-05-31T00:07:15Z</time>
      </trkpt>
      <trkpt lat="45.59771" lon="3.76066">
        <ele>657</ele>
        <time>2020-05-31T00:07:20Z</time>
      </trkpt>
      <trkpt lat="45.59728" lon="3.7611">
        <ele>663</ele>
        <time>2020-05-31T00:07:30Z</time>
      </trkpt>
      <trkpt lat="45.5971" lon="3.76142">
        <ele>671</ele>
        <time>2020-05-31T00:07:35Z</time>
      </trkpt>
      <trkpt lat="45.597" lon="3.76151">
        <ele>673</ele>
        <time>2020-05-31T00:07:37Z</time>
      </trkpt>
      <trkpt lat="45.59682" lon="3.76152">
        <ele>672</ele>
        <time>2020-05-31T00:07:40Z</time>
      </trkpt>
      <trkpt lat="45.59654" lon="3.76136">
        <ele>667</ele>
        <time>2020-05-31T00:07:45Z</time>
      </trkpt>
      <trkpt lat="45.59625" lon="3.76134">
        <ele>667</ele>
        <time>2020-05-31T00:07:50Z</time>
      </trkpt>
      <trkpt lat="45.59558" lon="3.76143">
        <ele>668</ele>
        <time>2020-05-31T00:08:02Z</time>
      </trkpt>
      <trkpt lat="45.59523" lon="3.76157">
        <ele>669</ele>
        <time>2020-05-31T00:08:09Z</time>
      </trkpt>
      <trkpt lat="45.59494" lon="3.76168">
        <ele>670</ele>
        <time>2020-05-31T00:08:14Z</time>
      </trkpt>
      <trkpt lat="45.59449" lon="3.76191">
        <ele>669</ele>
        <time>2020-05-31T00:08:23Z</time>
      </trkpt>
      <trkpt lat="45.59425" lon="3.76222">
        <ele>672</ele>
        <time>2020-05-31T00:08:29Z</time>
      </trkpt>
      <trkpt lat="45.59402" lon="3.76275">
        <ele>674</ele>
        <time>2020-05-31T00:08:36Z</time>
      </trkpt>
      <trkpt lat="45.59399" lon="3.76321">
        <ele>679</ele>
        <time>2020-05-31T00:08:42Z</time>
      </trkpt>
      <trkpt lat="45.59399" lon="3.76347">
        <ele>681</ele>
        <time>2020-05-31T00:08:45Z</time>
      </trkpt>
      <trkpt lat="45.59403" lon="3.76388">
        <ele>683</ele>
        <time>2020-05-31T00:08:50Z</time>
      </trkpt>
      <trkpt lat="45.5941" lon="3.76474">
        <ele>686</ele>
        <time>2020-05-31T00:09:01Z</time>
      </trkpt>
      <trkpt lat="45.59418" lon="3.7655">
        <ele>690</ele>
        <time>2020-05-31T00:09:11Z</time>
      </trkpt>
      <trkpt lat="45.59424" lon="3.76566">
        <ele>692</ele>
        <time>2020-05-31T00:09:13Z</time>
      </trkpt>
      <trkpt lat="45.59462" lon="3.76653">
        <ele>698</ele>
        <time>2020-05-31T00:09:26Z</time>
      </trkpt>
      <trkpt lat="45.59463" lon="3.7667">
        <ele>699</ele>
        <time>2020-05-31T00:09:28Z</time>
      </trkpt>
      <trkpt lat="45.59458" lon="3.76701">
        <ele>696</ele>
        <time>2020-05-31T00:09:32Z</time>
      </trkpt>
      <trkpt lat="45.59457" lon="3.76725">
        <ele>694</ele>
        <time>2020-05-31T00:09:35Z</time>
      </trkpt>
      <trkpt lat="45.59467" lon="3.76756">
        <ele>696</ele>
        <time>2020-05-31T00:09:39Z</time>
      </trkpt>
      <trkpt lat="45.59478" lon="3.76774">
        <ele>697</ele>
        <time>2020-05-31T00:09:42Z</time>
      </trkpt>
      <trkpt lat="45.59507" lon="3.7681">
        <ele>702</ele>
        <time>2020-05-31T00:09:49Z</time>
      </trkpt>
      <trkpt lat="45.59515" lon="3.7683">
        <ele>703</ele>
        <time>2020-05-31T00:09:52Z</time>
      </trkpt>
      <trkpt lat="45.59526" lon="3.76848">
        <ele>704</ele>
        <time>2020-05-31T00:09:55Z</time>
      </trkpt>
      <trkpt lat="45.59541" lon="3.76864">
        <ele>709</ele>
        <time>2020-05-31T00:09:58Z</time>
      </trkpt>
      <trkpt lat="45.5956" lon="3.76894">
        <ele>715</ele>
        <time>2020-05-31T00:10:03Z</time>
      </trkpt>
      <trkpt lat="45.59564" lon="3.76903">
        <ele>717</ele>
        <time>2020-05-31T00:10:04Z</time>
      </trkpt>
      <trkpt lat="45.59572" lon="3.76954">
        <ele>715</ele>
        <time>2020-05-31T00:10:11Z</time>
      </trkpt>
      <trkpt lat="45.59585" lon="3.77007">
        <ele>715</ele>
        <time>2020-05-31T00:10:18Z</time>
      </trkpt>
      <trkpt lat="45.59595" lon="3.77022">
        <ele>718</ele>
        <time>2020-05-31T00:10:21Z</time>
      </trkpt>
      <trkpt lat="45.59605" lon="3.77029">
        <ele>724</ele>
        <time>2020-05-31T00:10:23Z</time>
      </trkpt>
      <trkpt lat="45.59612" lon="3.77037">
        <ele>727</ele>
        <time>2020-05-31T00:10:24Z</time>
      </trkpt>
      <trkpt lat="45.59617" lon="3.77049">
        <ele>728</ele>
        <time>2020-05-31T00:10:26Z</time>
      </trkpt>
      <trkpt lat="45.59622" lon="3.77082">
        <ele>727</ele>
        <time>2020-05-31T00:10:30Z</time>
      </trkpt>
      <trkpt lat="45.59622" lon="3.77101">
        <ele>728</ele>
        <time>2020-05-31T00:10:32Z</time>
      </trkpt>
      <trkpt lat="45.59619" lon="3.77128">
        <ele>728</ele>
        <time>2020-05-31T00:10:36Z</time>
      </trkpt>
      <trkpt lat="45.59608" lon="3.77173">
        <ele>726</ele>
        <time>2020-05-31T00:10:42Z</time>
      </trkpt>
      <trkpt lat="45.59555" lon="3.77309">
        <ele>728</ele>
        <time>2020-05-31T00:11:01Z</time>
      </trkpt>
      <trkpt lat="45.59544" lon="3.77332">
        <ele>726</ele>
        <time>2020-05-31T00:11:05Z</time>
      </trkpt>
      <trkpt lat="45.59544" lon="3.77352">
        <ele>725</ele>
        <time>2020-05-31T00:11:07Z</time>
      </trkpt>
      <trkpt lat="45.59546" lon="3.7737">
        <ele>725</ele>
        <time>2020-05-31T00:11:09Z</time>
      </trkpt>
      <trkpt lat="45.59564" lon="3.77396">
        <ele>731</ele>
        <time>2020-05-31T00:11:14Z</time>
      </trkpt>
      <trkpt lat="45.59577" lon="3.77403">
        <ele>736</ele>
        <time>2020-05-31T00:11:16Z</time>
      </trkpt>
      <trkpt lat="45.59597" lon="3.77408">
        <ele>743</ele>
        <time>2020-05-31T00:11:20Z</time>
      </trkpt>
      <trkpt lat="45.59634" lon="3.77414">
        <ele>753</ele>
        <time>2020-05-31T00:11:27Z</time>
      </trkpt>
      <trkpt lat="45.59647" lon="3.7742">
        <ele>756</ele>
        <time>2020-05-31T00:11:29Z</time>
      </trkpt>
      <trkpt lat="45.59703" lon="3.7746">
        <ele>765</ele>
        <time>2020-05-31T00:11:40Z</time>
      </trkpt>
      <trkpt lat="45.59717" lon="3.7747">
        <ele>767</ele>
        <time>2020-05-31T00:11:43Z</time>
      </trkpt>
      <trkpt lat="45.59727" lon="3.77484">
        <ele>765</ele>
        <time>2020-05-31T00:11:46Z</time>
      </trkpt>
      <trkpt lat="45.59732" lon="3.77503">
        <ele>762</ele>
        <time>2020-05-31T00:11:48Z</time>
      </trkpt>
      <trkpt lat="45.5973" lon="3.77523">
        <ele>763</ele>
        <time>2020-05-31T00:11:51Z</time>
      </trkpt>
      <trkpt lat="45.5972" lon="3.77537">
        <ele>763</ele>
        <time>2020-05-31T00:11:53Z</time>
      </trkpt>
      <trkpt lat="45.59687" lon="3.77556">
        <ele>759</ele>
        <time>2020-05-31T00:11:59Z</time>
      </trkpt>
      <trkpt lat="45.59661" lon="3.77585">
        <ele>759</ele>
        <time>2020-05-31T00:12:05Z</time>
      </trkpt>
      <trkpt lat="45.59615" lon="3.77645">
        <ele>760</ele>
        <time>2020-05-31T00:12:16Z</time>
      </trkpt>
      <trkpt lat="45.59554" lon="3.77751">
        <ele>763</ele>
        <time>2020-05-31T00:12:33Z</time>
      </trkpt>
      <trkpt lat="45.59525" lon="3.77769">
        <ele>754</ele>
        <time>2020-05-31T00:12:39Z</time>
      </trkpt>
      <trkpt lat="45.59512" lon="3.77783">
        <ele>750</ele>
        <time>2020-05-31T00:12:42Z</time>
      </trkpt>
      <trkpt lat="45.59505" lon="3.77799">
        <ele>748</ele>
        <time>2020-05-31T00:12:44Z</time>
      </trkpt>
      <trkpt lat="45.59501" lon="3.77836">
        <ele>748</ele>
        <time>2020-05-31T00:12:49Z</time>
      </trkpt>
      <trkpt lat="45.59504" lon="3.77852">
        <ele>750</ele>
        <time>2020-05-31T00:12:51Z</time>
      </trkpt>
      <trkpt lat="45.5951" lon="3.77867">
        <ele>754</ele>
        <time>2020-05-31T00:12:53Z</time>
      </trkpt>
      <trkpt lat="45.59517" lon="3.77873">
        <ele>758</ele>
        <time>2020-05-31T00:12:55Z</time>
      </trkpt>
      <trkpt lat="45.5953" lon="3.77889">
        <ele>765</ele>
        <time>2020-05-31T00:12:58Z</time>
      </trkpt>
      <trkpt lat="45.59534" lon="3.77906">
        <ele>768</ele>
        <time>2020-05-31T00:13:00Z</time>
      </trkpt>
      <trkpt lat="45.59534" lon="3.77932">
        <ele>771</ele>
        <time>2020-05-31T00:13:03Z</time>
      </trkpt>
      <trkpt lat="45.59531" lon="3.77961">
        <ele>774</ele>
        <time>2020-05-31T00:13:07Z</time>
      </trkpt>
      <trkpt lat="45.59525" lon="3.77985">
        <ele>776</ele>
        <time>2020-05-31T00:13:10Z</time>
      </trkpt>
      <trkpt lat="45.59512" lon="3.78012">
        <ele>775</ele>
        <time>2020-05-31T00:13:14Z</time>
      </trkpt>
      <trkpt lat="45.59495" lon="3.78045">
        <ele>774</ele>
        <time>2020-05-31T00:13:19Z</time>
      </trkpt>
      <trkpt lat="45.59469" lon="3.78069">
        <ele>769</ele>
        <time>2020-05-31T00:13:25Z</time>
      </trkpt>
      <trkpt lat="45.59462" lon="3.78103">
        <ele>774</ele>
        <time>2020-05-31T00:13:29Z</time>
      </trkpt>
      <trkpt lat="45.59456" lon="3.78118">
        <ele>775</ele>
        <time>2020-05-31T00:13:31Z</time>
      </trkpt>
      <trkpt lat="45.59437" lon="3.78144">
        <ele>775</ele>
        <time>2020-05-31T00:13:36Z</time>
      </trkpt>
      <trkpt lat="45.59427" lon="3.78165">
        <ele>778</ele>
        <time>2020-05-31T00:13:39Z</time>
      </trkpt>
      <trkpt lat="45.59418" lon="3.78196">
        <ele>781</ele>
        <time>2020-05-31T00:13:43Z</time>
      </trkpt>
      <trkpt lat="45.59381" lon="3.78241">
        <ele>779</ele>
        <time>2020-05-31T00:13:52Z</time>
      </trkpt>
      <trkpt lat="45.59365" lon="3.78277">
        <ele>780</ele>
        <time>2020-05-31T00:13:57Z</time>
      </trkpt>
      <trkpt lat="45.59356" lon="3.78315">
        <ele>782</ele>
        <time>2020-05-31T00:14:02Z</time>
      </trkpt>
      <trkpt lat="45.59355" lon="3.78348">
        <ele>784</ele>
        <time>2020-05-31T00:14:06Z</time>
      </trkpt>
      <trkpt lat="45.59359" lon="3.78378">
        <ele>785</ele>
        <time>2020-05-31T00:14:10Z</time>
      </trkpt>
      <trkpt lat="45.5937" lon="3.78405">
        <ele>789</ele>
        <time>2020-05-31T00:14:14Z</time>
      </trkpt>
      <trkpt lat="45.59389" lon="3.7843">
        <ele>795</ele>
        <time>2020-05-31T00:14:19Z</time>
      </trkpt>
      <trkpt lat="45.5941" lon="3.78452">
        <ele>801</ele>
        <time>2020-05-31T00:14:23Z</time>
      </trkpt>
      <trkpt lat="45.59417" lon="3.78465">
        <ele>802</ele>
        <time>2020-05-31T00:14:25Z</time>
      </trkpt>
      <trkpt lat="45.5942" lon="3.78492">
        <ele>801</ele>
        <time>2020-05-31T00:14:29Z</time>
      </trkpt>
      <trkpt lat="45.59428" lon="3.78524">
        <ele>802</ele>
        <time>2020-05-31T00:14:33Z</time>
      </trkpt>
      <trkpt lat="45.59451" lon="3.78565">
        <ele>809</ele>
        <time>2020-05-31T00:14:39Z</time>
      </trkpt>
      <trkpt lat="45.59454" lon="3.7858">
        <ele>809</ele>
        <time>2020-05-31T00:14:41Z</time>
      </trkpt>
      <trkpt lat="45.59454" lon="3.78593">
        <ele>811</ele>
        <time>2020-05-31T00:14:43Z</time>
      </trkpt>
      <trkpt lat="45.59449" lon="3.78612">
        <ele>812</ele>
        <time>2020-05-31T00:14:46Z</time>
      </trkpt>
      <trkpt lat="45.59439" lon="3.78623">
        <ele>811</ele>
        <time>2020-05-31T00:14:48Z</time>
      </trkpt>
      <trkpt lat="45.59429" lon="3.7863">
        <ele>809</ele>
        <time>2020-05-31T00:14:50Z</time>
      </trkpt>
      <trkpt lat="45.59409" lon="3.78634">
        <ele>803</ele>
        <time>2020-05-31T00:14:53Z</time>
      </trkpt>
      <trkpt lat="45.59396" lon="3.7865">
        <ele>802</ele>
        <time>2020-05-31T00:14:56Z</time>
      </trkpt>
      <trkpt lat="45.59387" lon="3.7867">
        <ele>803</ele>
        <time>2020-05-31T00:14:59Z</time>
      </trkpt>
      <trkpt lat="45.59384" lon="3.78684">
        <ele>804</ele>
        <time>2020-05-31T00:15:01Z</time>
      </trkpt>
      <trkpt lat="45.59386" lon="3.78696">
        <ele>806</ele>
        <time>2020-05-31T00:15:03Z</time>
      </trkpt>
      <trkpt lat="45.59397" lon="3.78731">
        <ele>812</ele>
        <time>2020-05-31T00:15:07Z</time>
      </trkpt>
      <trkpt lat="45.59405" lon="3.7876">
        <ele>816</ele>
        <time>2020-05-31T00:15:11Z</time>
      </trkpt>
      <trkpt lat="45.59404" lon="3.78779">
        <ele>817</ele>
        <time>2020-05-31T00:15:14Z</time>
      </trkpt>
      <trkpt lat="45.59396" lon="3.78794">
        <ele>817</ele>
        <time>2020-05-31T00:15:16Z</time>
      </trkpt>
      <trkpt lat="45.5938" lon="3.78801">
        <ele>816</ele>
        <time>2020-05-31T00:15:19Z</time>
      </trkpt>
      <trkpt lat="45.59365" lon="3.78798">
        <ele>813</ele>
        <time>2020-05-31T00:15:22Z</time>
      </trkpt>
      <trkpt lat="45.59351" lon="3.78791">
        <ele>811</ele>
        <time>2020-05-31T00:15:24Z</time>
      </trkpt>
      <trkpt lat="45.59335" lon="3.7879">
        <ele>809</ele>
        <time>2020-05-31T00:15:27Z</time>
      </trkpt>
      <trkpt lat="45.59325" lon="3.78796">
        <ele>807</ele>
        <time>2020-05-31T00:15:29Z</time>
      </trkpt>
      <trkpt lat="45.59316" lon="3.7881">
        <ele>807</ele>
        <time>2020-05-31T00:15:32Z</time>
      </trkpt>
      <trkpt lat="45.59306" lon="3.78872">
        <ele>810</ele>
        <time>2020-05-31T00:15:39Z</time>
      </trkpt>
      <trkpt lat="45.59305" lon="3.78897">
        <ele>811</ele>
        <time>2020-05-31T00:15:43Z</time>
      </trkpt>
      <trkpt lat="45.59308" lon="3.78917">
        <ele>813</ele>
        <time>2020-05-31T00:15:45Z</time>
      </trkpt>
      <trkpt lat="45.59315" lon="3.78932">
        <ele>813</ele>
        <time>2020-05-31T00:15:47Z</time>
      </trkpt>
      <trkpt lat="45.59327" lon="3.78942">
        <ele>815</ele>
        <time>2020-05-31T00:15:50Z</time>
      </trkpt>
      <trkpt lat="45.59365" lon="3.78963">
        <ele>819</ele>
        <time>2020-05-31T00:15:57Z</time>
      </trkpt>
      <trkpt lat="45.59386" lon="3.7898">
        <ele>820</ele>
        <time>2020-05-31T00:16:01Z</time>
      </trkpt>
      <trkpt lat="45.59402" lon="3.79008">
        <ele>819</ele>
        <time>2020-05-31T00:16:06Z</time>
      </trkpt>
      <trkpt lat="45.59411" lon="3.79014">
        <ele>820</ele>
        <time>2020-05-31T00:16:08Z</time>
      </trkpt>
      <trkpt lat="45.59427" lon="3.7902">
        <ele>823</ele>
        <time>2020-05-31T00:16:11Z</time>
      </trkpt>
      <trkpt lat="45.59452" lon="3.79044">
        <ele>826</ele>
        <time>2020-05-31T00:16:16Z</time>
      </trkpt>
      <trkpt lat="45.59472" lon="3.79058">
        <ele>829</ele>
        <time>2020-05-31T00:16:20Z</time>
      </trkpt>
      <trkpt lat="45.59513" lon="3.79086">
        <ele>836</ele>
        <time>2020-05-31T00:16:28Z</time>
      </trkpt>
      <trkpt lat="45.59523" lon="3.79099">
        <ele>839</ele>
        <time>2020-05-31T00:16:30Z</time>
      </trkpt>
      <trkpt lat="45.59528" lon="3.79112">
        <ele>840</ele>
        <time>2020-05-31T00:16:32Z</time>
      </trkpt>
      <trkpt lat="45.59532" lon="3.79155">
        <ele>839</ele>
        <time>2020-05-31T00:16:38Z</time>
      </trkpt>
      <trkpt lat="45.59534" lon="3.79198">
        <ele>842</ele>
        <time>2020-05-31T00:16:43Z</time>
      </trkpt>
      <trkpt lat="45.59529" lon="3.79247">
        <ele>844</ele>
        <time>2020-05-31T00:16:49Z</time>
      </trkpt>
      <trkpt lat="45.59523" lon="3.7927">
        <ele>846</ele>
        <time>2020-05-31T00:16:52Z</time>
      </trkpt>
      <trkpt lat="45.59515" lon="3.79282">
        <ele>845</ele>
        <time>2020-05-31T00:16:54Z</time>
      </trkpt>
      <trkpt lat="45.59501" lon="3.79289">
        <ele>843</ele>
        <time>2020-05-31T00:16:57Z</time>
      </trkpt>
      <trkpt lat="45.59479" lon="3.79301">
        <ele>842</ele>
        <time>2020-05-31T00:17:01Z</time>
      </trkpt>
      <trkpt lat="45.59474" lon="3.7931">
        <ele>842</ele>
        <time>2020-05-31T00:17:03Z</time>
      </trkpt>
      <trkpt lat="45.59458" lon="3.79345">
        <ele>847</ele>
        <time>2020-05-31T00:17:08Z</time>
      </trkpt>
      <trkpt lat="45.59448" lon="3.7936">
        <ele>849</ele>
        <time>2020-05-31T00:17:10Z</time>
      </trkpt>
      <trkpt lat="45.5943" lon="3.79382">
        <ele>851</ele>
        <time>2020-05-31T00:17:15Z</time>
      </trkpt>
      <trkpt lat="45.59387" lon="3.79416">
        <ele>853</ele>
        <time>2020-05-31T00:17:23Z</time>
      </trkpt>
      <trkpt lat="45.59354" lon="3.79435">
        <ele>855</ele>
        <time>2020-05-31T00:17:30Z</time>
      </trkpt>
      <trkpt lat="45.59346" lon="3.79438">
        <ele>855</ele>
        <time>2020-05-31T00:17:31Z</time>
      </trkpt>
      <trkpt lat="45.59331" lon="3.79444">
        <ele>854</ele>
        <time>2020-05-31T00:17:34Z</time>
      </trkpt>
      <trkpt lat="45.59309" lon="3.7945">
        <ele>855</ele>
        <time>2020-05-31T00:17:38Z</time>
      </trkpt>
      <trkpt lat="45.59271" lon="3.79454">
        <ele>856</ele>
        <time>2020-05-31T00:17:45Z</time>
      </trkpt>
      <trkpt lat="45.59251" lon="3.7947">
        <ele>858</ele>
        <time>2020-05-31T00:17:49Z</time>
      </trkpt>
      <trkpt lat="45.59248" lon="3.79478">
        <ele>859</ele>
        <time>2020-05-31T00:17:50Z</time>
      </trkpt>
      <trkpt lat="45.59249" lon="3.79491">
        <ele>860</ele>
        <time>2020-05-31T00:17:51Z</time>
      </trkpt>
      <trkpt lat="45.59249" lon="3.79497">
        <ele>861</ele>
        <time>2020-05-31T00:17:52Z</time>
      </trkpt>
      <trkpt lat="45.59251" lon="3.79502">
        <ele>861</ele>
        <time>2020-05-31T00:17:53Z</time>
      </trkpt>
      <trkpt lat="45.59265" lon="3.79525">
        <ele>862</ele>
        <time>2020-05-31T00:17:57Z</time>
      </trkpt>
      <trkpt lat="45.59278" lon="3.79551">
        <ele>863</ele>
        <time>2020-05-31T00:18:01Z</time>
      </trkpt>
      <trkpt lat="45.59284" lon="3.79567">
        <ele>864</ele>
        <time>2020-05-31T00:18:03Z</time>
      </trkpt>
      <trkpt lat="45.593" lon="3.79579">
        <ele>866</ele>
        <time>2020-05-31T00:18:06Z</time>
      </trkpt>
      <trkpt lat="45.59315" lon="3.79577">
        <ele>867</ele>
        <time>2020-05-31T00:18:09Z</time>
      </trkpt>
      <trkpt lat="45.59322" lon="3.79572">
        <ele>867</ele>
        <time>2020-05-31T00:18:10Z</time>
      </trkpt>
      <trkpt lat="45.59357" lon="3.79574">
        <ele>874</ele>
        <time>2020-05-31T00:18:17Z</time>
      </trkpt>
      <trkpt lat="45.59363" lon="3.7957">
        <ele>875</ele>
        <time>2020-05-31T00:18:18Z</time>
      </trkpt>
      <trkpt lat="45.5937" lon="3.79558">
        <ele>875</ele>
        <time>2020-05-31T00:18:20Z</time>
      </trkpt>
      <trkpt lat="45.59382" lon="3.79544">
        <ele>877</ele>
        <time>2020-05-31T00:18:22Z</time>
      </trkpt>
      <trkpt lat="45.59416" lon="3.79522">
        <ele>882</ele>
        <time>2020-05-31T00:18:29Z</time>
      </trkpt>
      <trkpt lat="45.59423" lon="3.79521">
        <ele>883</ele>
        <time>2020-05-31T00:18:30Z</time>
      </trkpt>
      <trkpt lat="45.59427" lon="3.79524">
        <ele>883</ele>
        <time>2020-05-31T00:18:31Z</time>
      </trkpt>
      <trkpt lat="45.59428" lon="3.79531">
        <ele>884</ele>
        <time>2020-05-31T00:18:32Z</time>
      </trkpt>
      <trkpt lat="45.59423" lon="3.79549">
        <ele>886</ele>
        <time>2020-05-31T00:18:34Z</time>
      </trkpt>
      <trkpt lat="45.59423" lon="3.79558">
        <ele>887</ele>
        <time>2020-05-31T00:18:36Z</time>
      </trkpt>
      <trkpt lat="45.59426" lon="3.79568">
        <ele>889</ele>
        <time>2020-05-31T00:18:37Z</time>
      </trkpt>
      <trkpt lat="45.59444" lon="3.79582">
        <ele>893</ele>
        <time>2020-05-31T00:18:41Z</time>
      </trkpt>
      <trkpt lat="45.59449" lon="3.79582">
        <ele>894</ele>
        <time>2020-05-31T00:18:41Z</time>
      </trkpt>
      <trkpt lat="45.59451" lon="3.79599">
        <ele>895</ele>
        <time>2020-05-31T00:18:44Z</time>
      </trkpt>
      <trkpt lat="45.59458" lon="3.79621">
        <ele>897</ele>
        <time>2020-05-31T00:18:47Z</time>
      </trkpt>
      <trkpt lat="45.5946" lon="3.79628">
        <ele>898</ele>
        <time>2020-05-31T00:18:47Z</time>
      </trkpt>
      <trkpt lat="45.5947" lon="3.79655">
        <ele>901</ele>
        <time>2020-05-31T00:18:51Z</time>
      </trkpt>
      <trkpt lat="45.59517" lon="3.79791">
        <ele>908</ele>
        <time>2020-05-31T00:19:10Z</time>
      </trkpt>
      <trkpt lat="45.59527" lon="3.79829">
        <ele>908</ele>
        <time>2020-05-31T00:19:15Z</time>
      </trkpt>
      <trkpt lat="45.59537" lon="3.7984">
        <ele>909</ele>
        <time>2020-05-31T00:19:17Z</time>
      </trkpt>
      <trkpt lat="45.59555" lon="3.79848">
        <ele>912</ele>
        <time>2020-05-31T00:19:21Z</time>
      </trkpt>
      <trkpt lat="45.59584" lon="3.79848">
        <ele>919</ele>
        <time>2020-05-31T00:19:26Z</time>
      </trkpt>
      <trkpt lat="45.59596" lon="3.79854">
        <ele>921</ele>
        <time>2020-05-31T00:19:28Z</time>
      </trkpt>
      <trkpt lat="45.59623" lon="3.79906">
        <ele>923</ele>
        <time>2020-05-31T00:19:36Z</time>
      </trkpt>
      <trkpt lat="45.59628" lon="3.79914">
        <ele>924</ele>
        <time>2020-05-31T00:19:38Z</time>
      </trkpt>
      <trkpt lat="45.5966" lon="3.79972">
        <ele>928</ele>
        <time>2020-05-31T00:19:47Z</time>
      </trkpt>
      <trkpt lat="45.59684" lon="3.80023">
        <ele>931</ele>
        <time>2020-05-31T00:19:55Z</time>
      </trkpt>
      <trkpt lat="45.59699" lon="3.80053">
        <ele>933</ele>
        <time>2020-05-31T00:19:59Z</time>
      </trkpt>
      <trkpt lat="45.59744" lon="3.80115">
        <ele>942</ele>
        <time>2020-05-31T00:20:10Z</time>
      </trkpt>
      <trkpt lat="45.59772" lon="3.80165">
        <ele>943</ele>
        <time>2020-05-31T00:20:18Z</time>
      </trkpt>
      <trkpt lat="45.59785" lon="3.80191">
        <ele>943</ele>
        <time>2020-05-31T00:20:22Z</time>
      </trkpt>
      <trkpt lat="45.59801" lon="3.80212">
        <ele>945</ele>
        <time>2020-05-31T00:20:26Z</time>
      </trkpt>
      <trkpt lat="45.59875" lon="3.8029">
        <ele>949</ele>
        <time>2020-05-31T00:20:42Z</time>
      </trkpt>
      <trkpt lat="45.59901" lon="3.80305">
        <ele>951</ele>
        <time>2020-05-31T00:20:47Z</time>
      </trkpt>
      <trkpt lat="45.5993" lon="3.8031">
        <ele>953</ele>
        <time>2020-05-31T00:20:53Z</time>
      </trkpt>
      <trkpt lat="45.59973" lon="3.80304">
        <ele>954</ele>
        <time>2020-05-31T00:21:00Z</time>
      </trkpt>
      <trkpt lat="45.6" lon="3.80298">
        <ele>956</ele>
        <time>2020-05-31T00:21:05Z</time>
      </trkpt>
      <trkpt lat="45.60037" lon="3.8027">
        <ele>962</ele>
        <time>2020-05-31T00:21:13Z</time>
      </trkpt>
      <trkpt lat="45.60051" lon="3.80247">
        <ele>965</ele>
        <time>2020-05-31T00:21:16Z</time>
      </trkpt>
      <trkpt lat="45.60085" lon="3.80175">
        <ele>977</ele>
        <time>2020-05-31T00:21:27Z</time>
      </trkpt>
      <trkpt lat="45.60093" lon="3.80162">
        <ele>980</ele>
        <time>2020-05-31T00:21:29Z</time>
      </trkpt>
      <trkpt lat="45.60145" lon="3.80105">
        <ele>988</ele>
        <time>2020-05-31T00:21:41Z</time>
      </trkpt>
      <trkpt lat="45.60166" lon="3.80092">
        <ele>984</ele>
        <time>2020-05-31T00:21:45Z</time>
      </trkpt>
      <trkpt lat="45.60179" lon="3.8009">
        <ele>986</ele>
        <time>2020-05-31T00:21:47Z</time>
      </trkpt>
      <trkpt lat="45.60185" lon="3.80099">
        <ele>986</ele>
        <time>2020-05-31T00:21:49Z</time>
      </trkpt>
      <trkpt lat="45.60189" lon="3.80109">
        <ele>986</ele>
        <time>2020-05-31T00:21:50Z</time>
      </trkpt>
      <trkpt lat="45.6019" lon="3.8012">
        <ele>986</ele>
        <time>2020-05-31T00:21:52Z</time>
      </trkpt>
      <trkpt lat="45.60186" lon="3.80139">
        <ele>984</ele>
        <time>2020-05-31T00:21:54Z</time>
      </trkpt>
      <trkpt lat="45.60171" lon="3.80169">
        <ele>978</ele>
        <time>2020-05-31T00:21:59Z</time>
      </trkpt>
      <trkpt lat="45.60165" lon="3.80189">
        <ele>977</ele>
        <time>2020-05-31T00:22:02Z</time>
      </trkpt>
      <trkpt lat="45.60155" lon="3.80266">
        <ele>974</ele>
        <time>2020-05-31T00:22:11Z</time>
      </trkpt>
      <trkpt lat="45.60155" lon="3.8029">
        <ele>974</ele>
        <time>2020-05-31T00:22:14Z</time>
      </trkpt>
      <trkpt lat="45.60166" lon="3.80343">
        <ele>978</ele>
        <time>2020-05-31T00:22:21Z</time>
      </trkpt>
      <trkpt lat="45.60189" lon="3.80398">
        <ele>988</ele>
        <time>2020-05-31T00:22:29Z</time>
      </trkpt>
      <trkpt lat="45.60194" lon="3.80416">
        <ele>989</ele>
        <time>2020-05-31T00:22:32Z</time>
      </trkpt>
      <trkpt lat="45.60196" lon="3.8044">
        <ele>993</ele>
        <time>2020-05-31T00:22:35Z</time>
      </trkpt>
      <trkpt lat="45.60195" lon="3.80465">
        <ele>996</ele>
        <time>2020-05-31T00:22:38Z</time>
      </trkpt>
      <trkpt lat="45.60186" lon="3.80495">
        <ele>998</ele>
        <time>2020-05-31T00:22:42Z</time>
      </trkpt>
      <trkpt lat="45.60172" lon="3.80517">
        <ele>997</ele>
        <time>2020-05-31T00:22:45Z</time>
      </trkpt>
      <trkpt lat="45.60151" lon="3.80556">
        <ele>998</ele>
        <time>2020-05-31T00:22:52Z</time>
      </trkpt>
      <trkpt lat="45.60138" lon="3.80575">
        <ele>998</ele>
        <time>2020-05-31T00:22:55Z</time>
      </trkpt>
      <trkpt lat="45.60104" lon="3.80607">
        <ele>996</ele>
        <time>2020-05-31T00:23:02Z</time>
      </trkpt>
      <trkpt lat="45.60066" lon="3.80654">
        <ele>1005</ele>
        <time>2020-05-31T00:23:11Z</time>
      </trkpt>
      <trkpt lat="45.60056" lon="3.80661">
        <ele>1007</ele>
        <time>2020-05-31T00:23:13Z</time>
      </trkpt>
      <trkpt lat="45.59992" lon="3.80672">
        <ele>1011</ele>
        <time>2020-05-31T00:23:24Z</time>
      </trkpt>
      <trkpt lat="45.5997" lon="3.80682">
        <ele>1014</ele>
        <time>2020-05-31T00:23:29Z</time>
      </trkpt>
      <trkpt lat="45.59951" lon="3.80687">
        <ele>1014</ele>
        <time>2020-05-31T00:23:32Z</time>
      </trkpt>
      <trkpt lat="45.59905" lon="3.80689">
        <ele>1012</ele>
        <time>2020-05-31T00:23:40Z</time>
      </trkpt>
      <trkpt lat="45.59887" lon="3.80695">
        <ele>1012</ele>
        <time>2020-05-31T00:23:44Z</time>
      </trkpt>
      <trkpt lat="45.59843" lon="3.80721">
        <ele>1015</ele>
        <time>2020-05-31T00:23:52Z</time>
      </trkpt>
      <trkpt lat="45.59792" lon="3.80764">
        <ele>1020</ele>
        <time>2020-05-31T00:24:03Z</time>
      </trkpt>
      <trkpt lat="45.59787" lon="3.80776">
        <ele>1021</ele>
        <time>2020-05-31T00:24:04Z</time>
      </trkpt>
      <trkpt lat="45.59784" lon="3.80793">
        <ele>1021</ele>
        <time>2020-05-31T00:24:06Z</time>
      </trkpt>
      <trkpt lat="45.59787" lon="3.80821">
        <ele>1023</ele>
        <time>2020-05-31T00:24:10Z</time>
      </trkpt>
      <trkpt lat="45.59793" lon="3.80838">
        <ele>1023</ele>
        <time>2020-05-31T00:24:12Z</time>
      </trkpt>
      <trkpt lat="45.59815" lon="3.80865">
        <ele>1020</ele>
        <time>2020-05-31T00:24:18Z</time>
      </trkpt>
      <trkpt lat="45.59843" lon="3.80893">
        <ele>1020</ele>
        <time>2020-05-31T00:24:24Z</time>
      </trkpt>
      <trkpt lat="45.59987" lon="3.81014">
        <ele>1025</ele>
        <time>2020-05-31T00:24:53Z</time>
      </trkpt>
      <trkpt lat="45.60038" lon="3.81046">
        <ele>1032</ele>
        <time>2020-05-31T00:25:03Z</time>
      </trkpt>
      <trkpt lat="45.60046" lon="3.81055">
        <ele>1032</ele>
        <time>2020-05-31T00:25:05Z</time>
      </trkpt>
      <trkpt lat="45.60056" lon="3.81084">
        <ele>1029</ele>
        <time>2020-05-31T00:25:09Z</time>
      </trkpt>
      <trkpt lat="45.60076" lon="3.8122">
        <ele>1018</ele>
        <time>2020-05-31T00:25:26Z</time>
      </trkpt>
      <trkpt lat="45.60081" lon="3.81235">
        <ele>1018</ele>
        <time>2020-05-31T00:25:28Z</time>
      </trkpt>
      <trkpt lat="45.6009" lon="3.81245">
        <ele>1018</ele>
        <time>2020-05-31T00:25:30Z</time>
      </trkpt>
      <trkpt lat="45.60098" lon="3.81251">
        <ele>1017</ele>
        <time>2020-05-31T00:25:32Z</time>
      </trkpt>
      <trkpt lat="45.60134" lon="3.81256">
        <ele>1019</ele>
        <time>2020-05-31T00:25:38Z</time>
      </trkpt>
      <trkpt lat="45.60165" lon="3.8124">
        <ele>1028</ele>
        <time>2020-05-31T00:25:44Z</time>
      </trkpt>
      <trkpt lat="45.60204" lon="3.81229">
        <ele>1030</ele>
        <time>2020-05-31T00:25:51Z</time>
      </trkpt>
      <trkpt lat="45.60229" lon="3.81229">
        <ele>1029</ele>
        <time>2020-05-31T00:25:56Z</time>
      </trkpt>
      <trkpt lat="45.60273" lon="3.81234">
        <ele>1028</ele>
        <time>2020-05-31T00:26:04Z</time>
      </trkpt>
      <trkpt lat="45.60338" lon="3.81279">
        <ele>1023</ele>
        <time>2020-05-31T00:26:17Z</time>
      </trkpt>
      <trkpt lat="45.6036" lon="3.81296">
        <ele>1025</ele>
        <time>2020-05-31T00:26:21Z</time>
      </trkpt>
      <trkpt lat="45.60366" lon="3.81307">
        <ele>1024</ele>
        <time>2020-05-31T00:26:23Z</time>
      </trkpt>
      <trkpt lat="45.60369" lon="3.81316">
        <ele>1023</ele>
        <time>2020-05-31T00:26:24Z</time>
      </trkpt>
      <trkpt lat="45.60369" lon="3.81328">
        <ele>1020</ele>
        <time>2020-05-31T00:26:26Z</time>
      </trkpt>
      <trkpt lat="45.60365" lon="3.81342">
        <ele>1019</ele>
        <time>2020-05-31T00:26:27Z</time>
      </trkpt>
      <trkpt lat="45.60358" lon="3.81353">
        <ele>1021</ele>
        <time>2020-05-31T00:26:29Z</time>
      </trkpt>
      <trkpt lat="45.60339" lon="3.81362">
        <ele>1020</ele>
        <time>2020-05-31T00:26:33Z</time>
      </trkpt>
      <trkpt lat="45.60284" lon="3.81373">
        <ele>1016</ele>
        <time>2020-05-31T00:26:43Z</time>
      </trkpt>
      <trkpt lat="45.60261" lon="3.81384">
        <ele>1016</ele>
        <time>2020-05-31T00:26:47Z</time>
      </trkpt>
      <trkpt lat="45.60234" lon="3.81405">
        <ele>1016</ele>
        <time>2020-05-31T00:26:52Z</time>
      </trkpt>
      <trkpt lat="45.60206" lon="3.81435">
        <ele>1015</ele>
        <time>2020-05-31T00:26:59Z</time>
      </trkpt>
      <trkpt lat="45.60189" lon="3.81465">
        <ele>1017</ele>
        <time>2020-05-31T00:27:03Z</time>
      </trkpt>
      <trkpt lat="45.60183" lon="3.81489">
        <ele>1021</ele>
        <time>2020-05-31T00:27:07Z</time>
      </trkpt>
      <trkpt lat="45.60178" lon="3.81563">
        <ele>1029</ele>
        <time>2020-05-31T00:27:16Z</time>
      </trkpt>
      <trkpt lat="45.60183" lon="3.81607">
        <ele>1039</ele>
        <time>2020-05-31T00:27:21Z</time>
      </trkpt>
      <trkpt lat="45.60184" lon="3.81631">
        <ele>1044</ele>
        <time>2020-05-31T00:27:24Z</time>
      </trkpt>
      <trkpt lat="45.60179" lon="3.81655">
        <ele>1046</ele>
        <time>2020-05-31T00:27:28Z</time>
      </trkpt>
      <trkpt lat="45.60169" lon="3.81682">
        <ele>1047</ele>
        <time>2020-05-31T00:27:31Z</time>
      </trkpt>
      <trkpt lat="45.60163" lon="3.81689">
        <ele>1048</ele>
        <time>2020-05-31T00:27:33Z</time>
      </trkpt>
      <trkpt lat="45.60156" lon="3.81691">
        <ele>1048</ele>
        <time>2020-05-31T00:27:34Z</time>
      </trkpt>
      <trkpt lat="45.60096" lon="3.81683">
        <ele>1048</ele>
        <time>2020-05-31T00:27:45Z</time>
      </trkpt>
      <trkpt lat="45.60078" lon="3.81685">
        <ele>1049</ele>
        <time>2020-05-31T00:27:48Z</time>
      </trkpt>
      <trkpt lat="45.60059" lon="3.81692">
        <ele>1054</ele>
        <time>2020-05-31T00:27:51Z</time>
      </trkpt>
      <trkpt lat="45.60047" lon="3.81699">
        <ele>1058</ele>
        <time>2020-05-31T00:27:54Z</time>
      </trkpt>
      <trkpt lat="45.60032" lon="3.81695">
        <ele>1059</ele>
        <time>2020-05-31T00:27:56Z</time>
      </trkpt>
      <trkpt lat="45.59998" lon="3.81668">
        <ele>1054</ele>
        <time>2020-05-31T00:28:03Z</time>
      </trkpt>
      <trkpt lat="45.59976" lon="3.81656">
        <ele>1053</ele>
        <time>2020-05-31T00:28:08Z</time>
      </trkpt>
      <trkpt lat="45.59919" lon="3.81642">
        <ele>1057</ele>
        <time>2020-05-31T00:28:18Z</time>
      </trkpt>
      <trkpt lat="45.59896" lon="3.81643">
        <ele>1057</ele>
        <time>2020-05-31T00:28:22Z</time>
      </trkpt>
      <trkpt lat="45.59853" lon="3.81651">
        <ele>1057</ele>
        <time>2020-05-31T00:28:30Z</time>
      </trkpt>
      <trkpt lat="45.59701" lon="3.81697">
        <ele>1061</ele>
        <time>2020-05-31T00:28:57Z</time>
      </trkpt>
      <trkpt lat="45.59684" lon="3.81706">
        <ele>1062</ele>
        <time>2020-05-31T00:29:01Z</time>
      </trkpt>
      <trkpt lat="45.59661" lon="3.81731">
        <ele>1067</ele>
        <time>2020-05-31T00:29:06Z</time>
      </trkpt>
      <trkpt lat="45.59641" lon="3.81762">
        <ele>1072</ele>
        <time>2020-05-31T00:29:11Z</time>
      </trkpt>
      <trkpt lat="45.59596" lon="3.81853">
        <ele>1076</ele>
        <time>2020-05-31T00:29:25Z</time>
      </trkpt>
      <trkpt lat="45.59587" lon="3.8188">
        <ele>1078</ele>
        <time>2020-05-31T00:29:29Z</time>
      </trkpt>
      <trkpt lat="45.59579" lon="3.81946">
        <ele>1081</ele>
        <time>2020-05-31T00:29:37Z</time>
      </trkpt>
      <trkpt lat="45.59578" lon="3.81974">
        <ele>1082</ele>
        <time>2020-05-31T00:29:40Z</time>
      </trkpt>
      <trkpt lat="45.5958" lon="3.82002">
        <ele>1084</ele>
        <time>2020-05-31T00:29:44Z</time>
      </trkpt>
      <trkpt lat="45.59591" lon="3.82055">
        <ele>1089</ele>
        <time>2020-05-31T00:29:51Z</time>
      </trkpt>
      <trkpt lat="45.59608" lon="3.82117">
        <ele>1095</ele>
        <time>2020-05-31T00:29:59Z</time>
      </trkpt>
      <trkpt lat="45.59612" lon="3.82146">
        <ele>1096</ele>
        <time>2020-05-31T00:30:03Z</time>
      </trkpt>
      <trkpt lat="45.59609" lon="3.82299">
        <ele>1099</ele>
        <time>2020-05-31T00:30:22Z</time>
      </trkpt>
      <trkpt lat="45.59611" lon="3.82324">
        <ele>1101</ele>
        <time>2020-05-31T00:30:25Z</time>
      </trkpt>
      <trkpt lat="45.59616" lon="3.82337">
        <ele>1104</ele>
        <time>2020-05-31T00:30:27Z</time>
      </trkpt>
      <trkpt lat="45.59629" lon="3.82353">
        <ele>1109</ele>
        <time>2020-05-31T00:30:30Z</time>
      </trkpt>
      <trkpt lat="45.59635" lon="3.8237">
        <ele>1111</ele>
        <time>2020-05-31T00:30:32Z</time>
      </trkpt>
      <trkpt lat="45.59658" lon="3.82474">
        <ele>1121</ele>
        <time>2020-05-31T00:30:46Z</time>
      </trkpt>
      <trkpt lat="45.59659" lon="3.82494">
        <ele>1122</ele>
        <time>2020-05-31T00:30:48Z</time>
      </trkpt>
      <trkpt lat="45.59651" lon="3.82518">
        <ele>1123</ele>
        <time>2020-05-31T00:30:52Z</time>
      </trkpt>
      <trkpt lat="45.59626" lon="3.82555">
        <ele>1125</ele>
        <time>2020-05-31T00:30:58Z</time>
      </trkpt>
      <trkpt lat="45.59563" lon="3.82623">
        <ele>1122</ele>
        <time>2020-05-31T00:31:12Z</time>
      </trkpt>
      <trkpt lat="45.59558" lon="3.82638">
        <ele>1123</ele>
        <time>2020-05-31T00:31:14Z</time>
      </trkpt>
      <trkpt lat="45.59552" lon="3.82679">
        <ele>1128</ele>
        <time>2020-05-31T00:31:19Z</time>
      </trkpt>
      <trkpt lat="45.5956" lon="3.82734">
        <ele>1137</ele>
        <time>2020-05-31T00:31:26Z</time>
      </trkpt>
      <trkpt lat="45.59559" lon="3.82747">
        <ele>1138</ele>
        <time>2020-05-31T00:31:28Z</time>
      </trkpt>
      <trkpt lat="45.59551" lon="3.82767">
        <ele>1139</ele>
        <time>2020-05-31T00:31:31Z</time>
      </trkpt>
      <trkpt lat="45.59525" lon="3.82825">
        <ele>1140</ele>
        <time>2020-05-31T00:31:39Z</time>
      </trkpt>
      <trkpt lat="45.59497" lon="3.82877">
        <ele>1139</ele>
        <time>2020-05-31T00:31:48Z</time>
      </trkpt>
      <trkpt lat="45.59488" lon="3.82903">
        <ele>1142</ele>
        <time>2020-05-31T00:31:51Z</time>
      </trkpt>
      <trkpt lat="45.59408" lon="3.83173">
        <ele>1167</ele>
        <time>2020-05-31T00:32:28Z</time>
      </trkpt>
      <trkpt lat="45.59401" lon="3.83187">
        <ele>1171</ele>
        <time>2020-05-31T00:32:30Z</time>
      </trkpt>
      <trkpt lat="45.59396" lon="3.83191">
        <ele>1173</ele>
        <time>2020-05-31T00:32:31Z</time>
      </trkpt>
      <trkpt lat="45.59388" lon="3.83192">
        <ele>1174</ele>
        <time>2020-05-31T00:32:32Z</time>
      </trkpt>
      <trkpt lat="45.59378" lon="3.83188">
        <ele>1175</ele>
        <time>2020-05-31T00:32:34Z</time>
      </trkpt>
      <trkpt lat="45.59265" lon="3.82987">
        <ele>1173</ele>
        <time>2020-05-31T00:33:06Z</time>
      </trkpt>
      <trkpt lat="45.59219" lon="3.82922">
        <ele>1179</ele>
        <time>2020-05-31T00:33:18Z</time>
      </trkpt>
      <trkpt lat="45.59191" lon="3.82867">
        <ele>1177</ele>
        <time>2020-05-31T00:33:26Z</time>
      </trkpt>
      <trkpt lat="45.59168" lon="3.82834">
        <ele>1178</ele>
        <time>2020-05-31T00:33:32Z</time>
      </trkpt>
      <trkpt lat="45.5908" lon="3.82748">
        <ele>1181</ele>
        <time>2020-05-31T00:33:51Z</time>
      </trkpt>
      <trkpt lat="45.59011" lon="3.82687">
        <ele>1185</ele>
        <time>2020-05-31T00:34:05Z</time>
      </trkpt>
      <trkpt lat="45.58988" lon="3.8267">
        <ele>1186</ele>
        <time>2020-05-31T00:34:10Z</time>
      </trkpt>
      <trkpt lat="45.58932" lon="3.82646">
        <ele>1186</ele>
        <time>2020-05-31T00:34:20Z</time>
      </trkpt>
      <trkpt lat="45.58914" lon="3.82642">
        <ele>1187</ele>
        <time>2020-05-31T00:34:24Z</time>
      </trkpt>
      <trkpt lat="45.58883" lon="3.82646">
        <ele>1189</ele>
        <time>2020-05-31T00:34:29Z</time>
      </trkpt>
      <trkpt lat="45.5881" lon="3.82675">
        <ele>1197</ele>
        <time>2020-05-31T00:34:43Z</time>
      </trkpt>
      <trkpt lat="45.58736" lon="3.82707">
        <ele>1203</ele>
        <time>2020-05-31T00:34:56Z</time>
      </trkpt>
      <trkpt lat="45.58674" lon="3.82739">
        <ele>1206</ele>
        <time>2020-05-31T00:35:08Z</time>
      </trkpt>
      <trkpt lat="45.58615" lon="3.82755">
        <ele>1208</ele>
        <time>2020-05-31T00:35:19Z</time>
      </trkpt>
      <trkpt lat="45.58591" lon="3.82766">
        <ele>1210</ele>
        <time>2020-05-31T00:35:23Z</time>
      </trkpt>
      <trkpt lat="45.58566" lon="3.82782">
        <ele>1211</ele>
        <time>2020-05-31T00:35:28Z</time>
      </trkpt>
      <trkpt lat="45.58541" lon="3.82793">
        <ele>1210</ele>
        <time>2020-05-31T00:35:33Z</time>
      </trkpt>
      <trkpt lat="45.58519" lon="3.82794">
        <ele>1207</ele>
        <time>2020-05-31T00:35:37Z</time>
      </trkpt>
      <trkpt lat="45.5851" lon="3.82798">
        <ele>1207</ele>
        <time>2020-05-31T00:35:38Z</time>
      </trkpt>
      <trkpt lat="45.58503" lon="3.82809">
        <ele>1209</ele>
        <time>2020-05-31T00:35:40Z</time>
      </trkpt>
      <trkpt lat="45.58503" lon="3.82832">
        <ele>1214</ele>
        <time>2020-05-31T00:35:43Z</time>
      </trkpt>
      <trkpt lat="45.58516" lon="3.82844">
        <ele>1218</ele>
        <time>2020-05-31T00:35:46Z</time>
      </trkpt>
      <trkpt lat="45.58536" lon="3.82839">
        <ele>1220</ele>
        <time>2020-05-31T00:35:50Z</time>
      </trkpt>
      <trkpt lat="45.58558" lon="3.82817">
        <ele>1217</ele>
        <time>2020-05-31T00:35:54Z</time>
      </trkpt>
      <trkpt lat="45.58579" lon="3.82815">
        <ele>1219</ele>
        <time>2020-05-31T00:35:58Z</time>
      </trkpt>
      <trkpt lat="45.5865" lon="3.82836">
        <ele>1226</ele>
        <time>2020-05-31T00:36:11Z</time>
      </trkpt>
      <trkpt lat="45.58703" lon="3.82849">
        <ele>1232</ele>
        <time>2020-05-31T00:36:21Z</time>
      </trkpt>
      <trkpt lat="45.58782" lon="3.82895">
        <ele>1243</ele>
        <time>2020-05-31T00:36:36Z</time>
      </trkpt>
      <trkpt lat="45.58945" lon="3.82966">
        <ele>1253</ele>
        <time>2020-05-31T00:37:06Z</time>
      </trkpt>
      <trkpt lat="45.58966" lon="3.82972">
        <ele>1255</ele>
        <time>2020-05-31T00:37:10Z</time>
      </trkpt>
      <trkpt lat="45.5899" lon="3.82975">
        <ele>1256</ele>
        <time>2020-05-31T00:37:14Z</time>
      </trkpt>
      <trkpt lat="45.5901" lon="3.82984">
        <ele>1257</ele>
        <time>2020-05-31T00:37:18Z</time>
      </trkpt>
      <trkpt lat="45.59037" lon="3.83001">
        <ele>1259</ele>
        <time>2020-05-31T00:37:23Z</time>
      </trkpt>
      <trkpt lat="45.59057" lon="3.83027">
        <ele>1262</ele>
        <time>2020-05-31T00:37:28Z</time>
      </trkpt>
      <trkpt lat="45.59066" lon="3.83048">
        <ele>1266</ele>
        <time>2020-05-31T00:37:31Z</time>
      </trkpt>
      <trkpt lat="45.59086" lon="3.83131">
        <ele>1281</ele>
        <time>2020-05-31T00:37:42Z</time>
      </trkpt>
      <trkpt lat="45.59165" lon="3.8328">
        <ele>1283</ele>
        <time>2020-05-31T00:38:05Z</time>
      </trkpt>
      <trkpt lat="45.59184" lon="3.83329">
        <ele>1287</ele>
        <time>2020-05-31T00:38:12Z</time>
      </trkpt>
      <trkpt lat="45.59199" lon="3.8338">
        <ele>1290</ele>
        <time>2020-05-31T00:38:19Z</time>
      </trkpt>
      <trkpt lat="45.59211" lon="3.83445">
        <ele>1294</ele>
        <time>2020-05-31T00:38:27Z</time>
      </trkpt>
      <trkpt lat="45.59217" lon="3.83494">
        <ele>1296</ele>
        <time>2020-05-31T00:38:34Z</time>
      </trkpt>
      <trkpt lat="45.59223" lon="3.83524">
        <ele>1296</ele>
        <time>2020-05-31T00:38:37Z</time>
      </trkpt>
      <trkpt lat="45.59226" lon="3.83572">
        <ele>1301</ele>
        <time>2020-05-31T00:38:43Z</time>
      </trkpt>
      <trkpt lat="45.5924" lon="3.83679">
        <ele>1307</ele>
        <time>2020-05-31T00:38:57Z</time>
      </trkpt>
      <trkpt lat="45.59251" lon="3.83746">
        <ele>1307</ele>
        <time>2020-05-31T00:39:06Z</time>
      </trkpt>
      <trkpt lat="45.59255" lon="3.8381">
        <ele>1312</ele>
        <time>2020-05-31T00:39:14Z</time>
      </trkpt>
      <trkpt lat="45.59257" lon="3.8386">
        <ele>1316</ele>
        <time>2020-05-31T00:39:20Z</time>
      </trkpt>
      <trkpt lat="45.59262" lon="3.83903">
        <ele>1318</ele>
        <time>2020-05-31T00:39:25Z</time>
      </trkpt>
      <trkpt lat="45.59277" lon="3.83969">
        <ele>1321</ele>
        <time>2020-05-31T00:39:34Z</time>
      </trkpt>
      <trkpt lat="45.59296" lon="3.84032">
        <ele>1324</ele>
        <time>2020-05-31T00:39:42Z</time>
      </trkpt>
      <trkpt lat="45.59312" lon="3.84066">
        <ele>1325</ele>
        <time>2020-05-31T00:39:48Z</time>
      </trkpt>
      <trkpt lat="45.59323" lon="3.84084">
        <ele>1325</ele>
        <time>2020-05-31T00:39:51Z</time>
      </trkpt>
      <trkpt lat="45.59327" lon="3.8409">
        <ele>1324</ele>
        <time>2020-05-31T00:39:52Z</time>
      </trkpt>
      <trkpt lat="45.5934" lon="3.84108">
        <ele>1325</ele>
        <time>2020-05-31T00:39:55Z</time>
      </trkpt>
      <trkpt lat="45.5936" lon="3.84126">
        <ele>1327</ele>
        <time>2020-05-31T00:39:59Z</time>
      </trkpt>
      <trkpt lat="45.59388" lon="3.8414">
        <ele>1330</ele>
        <time>2020-05-31T00:40:04Z</time>
      </trkpt>
      <trkpt lat="45.59427" lon="3.84147">
        <ele>1334</ele>
        <time>2020-05-31T00:40:11Z</time>
      </trkpt>
      <trkpt lat="45.59448" lon="3.84143">
        <ele>1336</ele>
        <time>2020-05-31T00:40:15Z</time>
      </trkpt>
      <trkpt lat="45.59455" lon="3.84139">
        <ele>1337</ele>
        <time>2020-05-31T00:40:16Z</time>
      </trkpt>
      <trkpt lat="45.59477" lon="3.84116">
        <ele>1336</ele>
        <time>2020-05-31T00:40:21Z</time>
      </trkpt>
      <trkpt lat="45.59483" lon="3.84112">
        <ele>1336</ele>
        <time>2020-05-31T00:40:22Z</time>
      </trkpt>
      <trkpt lat="45.59491" lon="3.84111">
        <ele>1337</ele>
        <time>2020-05-31T00:40:24Z</time>
      </trkpt>
      <trkpt lat="45.59502" lon="3.84116">
        <ele>1340</ele>
        <time>2020-05-31T00:40:26Z</time>
      </trkpt>
      <trkpt lat="45.59508" lon="3.84124">
        <ele>1343</ele>
        <time>2020-05-31T00:40:27Z</time>
      </trkpt>
      <trkpt lat="45.59511" lon="3.84136">
        <ele>1346</ele>
        <time>2020-05-31T00:40:29Z</time>
      </trkpt>
      <trkpt lat="45.5951" lon="3.84151">
        <ele>1348</ele>
        <time>2020-05-31T00:40:31Z</time>
      </trkpt>
      <trkpt lat="45.59507" lon="3.84159">
        <ele>1348</ele>
        <time>2020-05-31T00:40:32Z</time>
      </trkpt>
      <trkpt lat="45.59492" lon="3.84175">
        <ele>1348</ele>
        <time>2020-05-31T00:40:35Z</time>
      </trkpt>
      <trkpt lat="45.59464" lon="3.84194">
        <ele>1347</ele>
        <time>2020-05-31T00:40:41Z</time>
      </trkpt>
      <trkpt lat="45.59424" lon="3.84238">
        <ele>1347</ele>
        <time>2020-05-31T00:40:50Z</time>
      </trkpt>
      <trkpt lat="45.59397" lon="3.84272">
        <ele>1349</ele>
        <time>2020-05-31T00:40:56Z</time>
      </trkpt>
      <trkpt lat="45.59373" lon="3.84306">
        <ele>1351</ele>
        <time>2020-05-31T00:41:02Z</time>
      </trkpt>
      <trkpt lat="45.59304" lon="3.8441">
        <ele>1360</ele>
        <time>2020-05-31T00:41:20Z</time>
      </trkpt>
      <trkpt lat="45.59286" lon="3.84445">
        <ele>1362</ele>
        <time>2020-05-31T00:41:25Z</time>
      </trkpt>
      <trkpt lat="45.59274" lon="3.84479">
        <ele>1364</ele>
        <time>2020-05-31T00:41:30Z</time>
      </trkpt>
      <trkpt lat="45.59249" lon="3.8457">
        <ele>1366</ele>
        <time>2020-05-31T00:41:42Z</time>
      </trkpt>
      <trkpt lat="45.59232" lon="3.84628">
        <ele>1365</ele>
        <time>2020-05-31T00:41:50Z</time>
      </trkpt>
      <trkpt lat="45.59223" lon="3.84651">
        <ele>1365</ele>
        <time>2020-05-31T00:41:53Z</time>
      </trkpt>
      <trkpt lat="45.59209" lon="3.84667">
        <ele>1364</ele>
        <time>2020-05-31T00:41:57Z</time>
      </trkpt>
      <trkpt lat="45.59168" lon="3.84692">
        <ele>1361</ele>
        <time>2020-05-31T00:42:05Z</time>
      </trkpt>
      <trkpt lat="45.59155" lon="3.84712">
        <ele>1359</ele>
        <time>2020-05-31T00:42:08Z</time>
      </trkpt>
      <trkpt lat="45.59142" lon="3.84742">
        <ele>1355</ele>
        <time>2020-05-31T00:42:12Z</time>
      </trkpt>
      <trkpt lat="45.59123" lon="3.84777">
        <ele>1351</ele>
        <time>2020-05-31T00:42:18Z</time>
      </trkpt>
      <trkpt lat="45.59103" lon="3.84785">
        <ele>1349</ele>
        <time>2020-05-31T00:42:22Z</time>
      </trkpt>
      <trkpt lat="45.59089" lon="3.84779">
        <ele>1349</ele>
        <time>2020-05-31T00:42:24Z</time>
      </trkpt>
      <trkpt lat="45.59072" lon="3.84761">
        <ele>1350</ele>
        <time>2020-05-31T00:42:28Z</time>
      </trkpt>
      <trkpt lat="45.59056" lon="3.8474">
        <ele>1351</ele>
        <time>2020-05-31T00:42:32Z</time>
      </trkpt>
      <trkpt lat="45.59029" lon="3.84711">
        <ele>1354</ele>
        <time>2020-05-31T00:42:38Z</time>
      </trkpt>
      <trkpt lat="45.59008" lon="3.84704">
        <ele>1354</ele>
        <time>2020-05-31T00:42:42Z</time>
      </trkpt>
      <trkpt lat="45.58995" lon="3.84711">
        <ele>1352</ele>
        <time>2020-05-31T00:42:44Z</time>
      </trkpt>
      <trkpt lat="45.58983" lon="3.84726">
        <ele>1350</ele>
        <time>2020-05-31T00:42:47Z</time>
      </trkpt>
      <trkpt lat="45.58974" lon="3.84751">
        <ele>1346</ele>
        <time>2020-05-31T00:42:50Z</time>
      </trkpt>
      <trkpt lat="45.58979" lon="3.84781">
        <ele>1345</ele>
        <time>2020-05-31T00:42:54Z</time>
      </trkpt>
      <trkpt lat="45.58989" lon="3.8481">
        <ele>1343</ele>
        <time>2020-05-31T00:42:58Z</time>
      </trkpt>
      <trkpt lat="45.59006" lon="3.84874">
        <ele>1342</ele>
        <time>2020-05-31T00:43:07Z</time>
      </trkpt>
      <trkpt lat="45.59013" lon="3.84918">
        <ele>1342</ele>
        <time>2020-05-31T00:43:12Z</time>
      </trkpt>
      <trkpt lat="45.59019" lon="3.85043">
        <ele>1338</ele>
        <time>2020-05-31T00:43:28Z</time>
      </trkpt>
      <trkpt lat="45.59032" lon="3.8515">
        <ele>1332</ele>
        <time>2020-05-31T00:43:42Z</time>
      </trkpt>
      <trkpt lat="45.59076" lon="3.85366">
        <ele>1322</ele>
        <time>2020-05-31T00:44:10Z</time>
      </trkpt>
      <trkpt lat="45.59083" lon="3.85424">
        <ele>1320</ele>
        <time>2020-05-31T00:44:17Z</time>
      </trkpt>
      <trkpt lat="45.59084" lon="3.85478">
        <ele>1315</ele>
        <time>2020-05-31T00:44:24Z</time>
      </trkpt>
      <trkpt lat="45.59079" lon="3.85522">
        <ele>1313</ele>
        <time>2020-05-31T00:44:29Z</time>
      </trkpt>
      <trkpt lat="45.59072" lon="3.85557">
        <ele>1311</ele>
        <time>2020-05-31T00:44:34Z</time>
      </trkpt>
      <trkpt lat="45.59025" lon="3.85732">
        <ele>1305</ele>
        <time>2020-05-31T00:44:57Z</time>
      </trkpt>
      <trkpt lat="45.5901" lon="3.85778">
        <ele>1302</ele>
        <time>2020-05-31T00:45:03Z</time>
      </trkpt>
      <trkpt lat="45.58987" lon="3.85829">
        <ele>1298</ele>
        <time>2020-05-31T00:45:11Z</time>
      </trkpt>
      <trkpt lat="45.58971" lon="3.85896">
        <ele>1294</ele>
        <time>2020-05-31T00:45:20Z</time>
      </trkpt>
      <trkpt lat="45.58969" lon="3.85921">
        <ele>1291</ele>
        <time>2020-05-31T00:45:23Z</time>
      </trkpt>
      <trkpt lat="45.58972" lon="3.8596">
        <ele>1289</ele>
        <time>2020-05-31T00:45:28Z</time>
      </trkpt>
      <trkpt lat="45.58971" lon="3.85999">
        <ele>1288</ele>
        <time>2020-05-31T00:45:33Z</time>
      </trkpt>
      <trkpt lat="45.58966" lon="3.86036">
        <ele>1284</ele>
        <time>2020-05-31T00:45:37Z</time>
      </trkpt>
      <trkpt lat="45.58926" lon="3.86174">
        <ele>1277</ele>
        <time>2020-05-31T00:45:56Z</time>
      </trkpt>
      <trkpt lat="45.58925" lon="3.86207">
        <ele>1275</ele>
        <time>2020-05-31T00:46:00Z</time>
      </trkpt>
      <trkpt lat="45.58937" lon="3.86316">
        <ele>1268</ele>
        <time>2020-05-31T00:46:14Z</time>
      </trkpt>
      <trkpt lat="45.58933" lon="3.86347">
        <ele>1267</ele>
        <time>2020-05-31T00:46:18Z</time>
      </trkpt>
      <trkpt lat="45.58924" lon="3.86389">
        <ele>1266</ele>
        <time>2020-05-31T00:46:23Z</time>
      </trkpt>
      <trkpt lat="45.58919" lon="3.86423">
        <ele>1264</ele>
        <time>2020-05-31T00:46:28Z</time>
      </trkpt>
      <trkpt lat="45.58919" lon="3.86438">
        <ele>1264</ele>
        <time>2020-05-31T00:46:29Z</time>
      </trkpt>
      <trkpt lat="45.5893" lon="3.86474">
        <ele>1261</ele>
        <time>2020-05-31T00:46:34Z</time>
      </trkpt>
      <trkpt lat="45.58993" lon="3.86632">
        <ele>1257</ele>
        <time>2020-05-31T00:46:57Z</time>
      </trkpt>
      <trkpt lat="45.59002" lon="3.86647">
        <ele>1257</ele>
        <time>2020-05-31T00:46:59Z</time>
      </trkpt>
      <trkpt lat="45.59009" lon="3.86656">
        <ele>1256</ele>
        <time>2020-05-31T00:47:01Z</time>
      </trkpt>
      <trkpt lat="45.59019" lon="3.86661">
        <ele>1256</ele>
        <time>2020-05-31T00:47:03Z</time>
      </trkpt>
      <trkpt lat="45.591" lon="3.8669">
        <ele>1248</ele>
        <time>2020-05-31T00:47:18Z</time>
      </trkpt>
      <trkpt lat="45.59114" lon="3.86701">
        <ele>1246</ele>
        <time>2020-05-31T00:47:21Z</time>
      </trkpt>
      <trkpt lat="45.59123" lon="3.86715">
        <ele>1245</ele>
        <time>2020-05-31T00:47:23Z</time>
      </trkpt>
      <trkpt lat="45.59126" lon="3.86724">
        <ele>1244</ele>
        <time>2020-05-31T00:47:24Z</time>
      </trkpt>
      <trkpt lat="45.59128" lon="3.86733">
        <ele>1244</ele>
        <time>2020-05-31T00:47:25Z</time>
      </trkpt>
      <trkpt lat="45.59129" lon="3.86755">
        <ele>1243</ele>
        <time>2020-05-31T00:47:28Z</time>
      </trkpt>
      <trkpt lat="45.59124" lon="3.86778">
        <ele>1241</ele>
        <time>2020-05-31T00:47:31Z</time>
      </trkpt>
      <trkpt lat="45.59112" lon="3.868">
        <ele>1240</ele>
        <time>2020-05-31T00:47:35Z</time>
      </trkpt>
      <trkpt lat="45.59099" lon="3.86821">
        <ele>1240</ele>
        <time>2020-05-31T00:47:38Z</time>
      </trkpt>
      <trkpt lat="45.59083" lon="3.86841">
        <ele>1239</ele>
        <time>2020-05-31T00:47:42Z</time>
      </trkpt>
      <trkpt lat="45.59056" lon="3.86866">
        <ele>1236</ele>
        <time>2020-05-31T00:47:48Z</time>
      </trkpt>
      <trkpt lat="45.59025" lon="3.86892">
        <ele>1235</ele>
        <time>2020-05-31T00:47:54Z</time>
      </trkpt>
      <trkpt lat="45.59002" lon="3.86906">
        <ele>1235</ele>
        <time>2020-05-31T00:47:58Z</time>
      </trkpt>
      <trkpt lat="45.58996" lon="3.86913">
        <ele>1234</ele>
        <time>2020-05-31T00:48:00Z</time>
      </trkpt>
      <trkpt lat="45.58973" lon="3.86958">
        <ele>1228</ele>
        <time>2020-05-31T00:48:07Z</time>
      </trkpt>
      <trkpt lat="45.58964" lon="3.8697">
        <ele>1227</ele>
        <time>2020-05-31T00:48:09Z</time>
      </trkpt>
      <trkpt lat="45.58951" lon="3.86979">
        <ele>1226</ele>
        <time>2020-05-31T00:48:12Z</time>
      </trkpt>
      <trkpt lat="45.58919" lon="3.86988">
        <ele>1225</ele>
        <time>2020-05-31T00:48:17Z</time>
      </trkpt>
      <trkpt lat="45.58905" lon="3.86989">
        <ele>1224</ele>
        <time>2020-05-31T00:48:20Z</time>
      </trkpt>
      <trkpt lat="45.58862" lon="3.86987">
        <ele>1221</ele>
        <time>2020-05-31T00:48:27Z</time>
      </trkpt>
      <trkpt lat="45.58851" lon="3.8699">
        <ele>1220</ele>
        <time>2020-05-31T00:48:29Z</time>
      </trkpt>
      <trkpt lat="45.5884" lon="3.86997">
        <ele>1219</ele>
        <time>2020-05-31T00:48:32Z</time>
      </trkpt>
      <trkpt lat="45.58833" lon="3.87005">
        <ele>1218</ele>
        <time>2020-05-31T00:48:33Z</time>
      </trkpt>
      <trkpt lat="45.58828" lon="3.87013">
        <ele>1216</ele>
        <time>2020-05-31T00:48:35Z</time>
      </trkpt>
      <trkpt lat="45.58825" lon="3.87025">
        <ele>1215</ele>
        <time>2020-05-31T00:48:36Z</time>
      </trkpt>
      <trkpt lat="45.58826" lon="3.87038">
        <ele>1214</ele>
        <time>2020-05-31T00:48:38Z</time>
      </trkpt>
      <trkpt lat="45.58831" lon="3.87053">
        <ele>1215</ele>
        <time>2020-05-31T00:48:40Z</time>
      </trkpt>
      <trkpt lat="45.58837" lon="3.87062">
        <ele>1215</ele>
        <time>2020-05-31T00:48:41Z</time>
      </trkpt>
      <trkpt lat="45.58845" lon="3.87067">
        <ele>1215</ele>
        <time>2020-05-31T00:48:43Z</time>
      </trkpt>
      <trkpt lat="45.58857" lon="3.87069">
        <ele>1215</ele>
        <time>2020-05-31T00:48:45Z</time>
      </trkpt>
      <trkpt lat="45.58885" lon="3.87064">
        <ele>1215</ele>
        <time>2020-05-31T00:48:50Z</time>
      </trkpt>
      <trkpt lat="45.58933" lon="3.87075">
        <ele>1213</ele>
        <time>2020-05-31T00:48:59Z</time>
      </trkpt>
      <trkpt lat="45.58992" lon="3.87069">
        <ele>1211</ele>
        <time>2020-05-31T00:49:09Z</time>
      </trkpt>
      <trkpt lat="45.59037" lon="3.87048">
        <ele>1209</ele>
        <time>2020-05-31T00:49:18Z</time>
      </trkpt>
      <trkpt lat="45.59065" lon="3.87038">
        <ele>1206</ele>
        <time>2020-05-31T00:49:23Z</time>
      </trkpt>
      <trkpt lat="45.59089" lon="3.87037">
        <ele>1204</ele>
        <time>2020-05-31T00:49:27Z</time>
      </trkpt>
      <trkpt lat="45.59107" lon="3.87043">
        <ele>1203</ele>
        <time>2020-05-31T00:49:30Z</time>
      </trkpt>
      <trkpt lat="45.59122" lon="3.87065">
        <ele>1202</ele>
        <time>2020-05-31T00:49:34Z</time>
      </trkpt>
      <trkpt lat="45.59137" lon="3.8709">
        <ele>1202</ele>
        <time>2020-05-31T00:49:38Z</time>
      </trkpt>
      <trkpt lat="45.59141" lon="3.87101">
        <ele>1204</ele>
        <time>2020-05-31T00:49:40Z</time>
      </trkpt>
      <trkpt lat="45.59142" lon="3.87117">
        <ele>1205</ele>
        <time>2020-05-31T00:49:42Z</time>
      </trkpt>
      <trkpt lat="45.59139" lon="3.87128">
        <ele>1206</ele>
        <time>2020-05-31T00:49:43Z</time>
      </trkpt>
      <trkpt lat="45.59124" lon="3.87153">
        <ele>1208</ele>
        <time>2020-05-31T00:49:47Z</time>
      </trkpt>
      <trkpt lat="45.59052" lon="3.87211">
        <ele>1213</ele>
        <time>2020-05-31T00:50:02Z</time>
      </trkpt>
      <trkpt lat="45.59007" lon="3.87254">
        <ele>1215</ele>
        <time>2020-05-31T00:50:12Z</time>
      </trkpt>
      <trkpt lat="45.58988" lon="3.87277">
        <ele>1218</ele>
        <time>2020-05-31T00:50:16Z</time>
      </trkpt>
      <trkpt lat="45.58967" lon="3.87296">
        <ele>1222</ele>
        <time>2020-05-31T00:50:21Z</time>
      </trkpt>
      <trkpt lat="45.58941" lon="3.87298">
        <ele>1224</ele>
        <time>2020-05-31T00:50:25Z</time>
      </trkpt>
      <trkpt lat="45.58895" lon="3.8731">
        <ele>1227</ele>
        <time>2020-05-31T00:50:34Z</time>
      </trkpt>
      <trkpt lat="45.58838" lon="3.87332">
        <ele>1233</ele>
        <time>2020-05-31T00:50:44Z</time>
      </trkpt>
      <trkpt lat="45.5869" lon="3.87329">
        <ele>1234</ele>
        <time>2020-05-31T00:51:10Z</time>
      </trkpt>
      <trkpt lat="45.58669" lon="3.87338">
        <ele>1234</ele>
        <time>2020-05-31T00:51:14Z</time>
      </trkpt>
      <trkpt lat="45.58651" lon="3.87352">
        <ele>1233</ele>
        <time>2020-05-31T00:51:18Z</time>
      </trkpt>
      <trkpt lat="45.58638" lon="3.87367">
        <ele>1233</ele>
        <time>2020-05-31T00:51:21Z</time>
      </trkpt>
      <trkpt lat="45.58627" lon="3.87388">
        <ele>1234</ele>
        <time>2020-05-31T00:51:24Z</time>
      </trkpt>
      <trkpt lat="45.58606" lon="3.87455">
        <ele>1239</ele>
        <time>2020-05-31T00:51:33Z</time>
      </trkpt>
      <trkpt lat="45.58587" lon="3.87492">
        <ele>1241</ele>
        <time>2020-05-31T00:51:39Z</time>
      </trkpt>
      <trkpt lat="45.58554" lon="3.8753">
        <ele>1241</ele>
        <time>2020-05-31T00:51:47Z</time>
      </trkpt>
      <trkpt lat="45.58544" lon="3.87556">
        <ele>1241</ele>
        <time>2020-05-31T00:51:50Z</time>
      </trkpt>
      <trkpt lat="45.58545" lon="3.8759">
        <ele>1244</ele>
        <time>2020-05-31T00:51:55Z</time>
      </trkpt>
      <trkpt lat="45.5855" lon="3.8762">
        <ele>1247</ele>
        <time>2020-05-31T00:51:58Z</time>
      </trkpt>
      <trkpt lat="45.58551" lon="3.87667">
        <ele>1250</ele>
        <time>2020-05-31T00:52:04Z</time>
      </trkpt>
      <trkpt lat="45.5853" lon="3.87703">
        <ele>1251</ele>
        <time>2020-05-31T00:52:10Z</time>
      </trkpt>
      <trkpt lat="45.58507" lon="3.87711">
        <ele>1249</ele>
        <time>2020-05-31T00:52:14Z</time>
      </trkpt>
      <trkpt lat="45.58441" lon="3.8772">
        <ele>1245</ele>
        <time>2020-05-31T00:52:26Z</time>
      </trkpt>
      <trkpt lat="45.5842" lon="3.8773">
        <ele>1245</ele>
        <time>2020-05-31T00:52:30Z</time>
      </trkpt>
      <trkpt lat="45.58223" lon="3.87999">
        <ele>1251</ele>
        <time>2020-05-31T00:53:19Z</time>
      </trkpt>
      <trkpt lat="45.58203" lon="3.88034">
        <ele>1251</ele>
        <time>2020-05-31T00:53:24Z</time>
      </trkpt>
      <trkpt lat="45.58191" lon="3.88071">
        <ele>1254</ele>
        <time>2020-05-31T00:53:29Z</time>
      </trkpt>
      <trkpt lat="45.58171" lon="3.8812">
        <ele>1255</ele>
        <time>2020-05-31T00:53:36Z</time>
      </trkpt>
      <trkpt lat="45.58106" lon="3.88182">
        <ele>1252</ele>
        <time>2020-05-31T00:53:50Z</time>
      </trkpt>
      <trkpt lat="45.58089" lon="3.88216">
        <ele>1250</ele>
        <time>2020-05-31T00:53:55Z</time>
      </trkpt>
      <trkpt lat="45.58088" lon="3.88238">
        <ele>1250</ele>
        <time>2020-05-31T00:53:58Z</time>
      </trkpt>
      <trkpt lat="45.58094" lon="3.88259">
        <ele>1250</ele>
        <time>2020-05-31T00:54:01Z</time>
      </trkpt>
      <trkpt lat="45.58136" lon="3.88299">
        <ele>1251</ele>
        <time>2020-05-31T00:54:10Z</time>
      </trkpt>
      <trkpt lat="45.58144" lon="3.88317">
        <ele>1251</ele>
        <time>2020-05-31T00:54:13Z</time>
      </trkpt>
      <trkpt lat="45.58142" lon="3.88341">
        <ele>1250</ele>
        <time>2020-05-31T00:54:16Z</time>
      </trkpt>
      <trkpt lat="45.58137" lon="3.88353">
        <ele>1250</ele>
        <time>2020-05-31T00:54:17Z</time>
      </trkpt>
      <trkpt lat="45.58124" lon="3.88363">
        <ele>1251</ele>
        <time>2020-05-31T00:54:20Z</time>
      </trkpt>
      <trkpt lat="45.58068" lon="3.88372">
        <ele>1250</ele>
        <time>2020-05-31T00:54:30Z</time>
      </trkpt>
      <trkpt lat="45.57979" lon="3.88397">
        <ele>1247</ele>
        <time>2020-05-31T00:54:46Z</time>
      </trkpt>
      <trkpt lat="45.57944" lon="3.88413">
        <ele>1246</ele>
        <time>2020-05-31T00:54:53Z</time>
      </trkpt>
      <trkpt lat="45.57922" lon="3.8844">
        <ele>1247</ele>
        <time>2020-05-31T00:54:58Z</time>
      </trkpt>
      <trkpt lat="45.57895" lon="3.8849">
        <ele>1248</ele>
        <time>2020-05-31T00:55:06Z</time>
      </trkpt>
      <trkpt lat="45.57874" lon="3.88521">
        <ele>1248</ele>
        <time>2020-05-31T00:55:11Z</time>
      </trkpt>
      <trkpt lat="45.57809" lon="3.88579">
        <ele>1248</ele>
        <time>2020-05-31T00:55:25Z</time>
      </trkpt>
      <trkpt lat="45.57741" lon="3.88613">
        <ele>1248</ele>
        <time>2020-05-31T00:55:38Z</time>
      </trkpt>
      <trkpt lat="45.57712" lon="3.8863">
        <ele>1249</ele>
        <time>2020-05-31T00:55:43Z</time>
      </trkpt>
      <trkpt lat="45.57694" lon="3.88648">
        <ele>1249</ele>
        <time>2020-05-31T00:55:47Z</time>
      </trkpt>
      <trkpt lat="45.57679" lon="3.88669">
        <ele>1249</ele>
        <time>2020-05-31T00:55:51Z</time>
      </trkpt>
      <trkpt lat="45.57671" lon="3.88688">
        <ele>1248</ele>
        <time>2020-05-31T00:55:54Z</time>
      </trkpt>
      <trkpt lat="45.57684" lon="3.88709">
        <ele>1248</ele>
        <time>2020-05-31T00:55:57Z</time>
      </trkpt>
      <trkpt lat="45.57745" lon="3.88947">
        <ele>1255</ele>
        <time>2020-05-31T00:56:29Z</time>
      </trkpt>
      <trkpt lat="45.5775" lon="3.8898">
        <ele>1257</ele>
        <time>2020-05-31T00:56:33Z</time>
      </trkpt>
      <trkpt lat="45.57755" lon="3.8913">
        <ele>1252</ele>
        <time>2020-05-31T00:56:51Z</time>
      </trkpt>
      <trkpt lat="45.57764" lon="3.89168">
        <ele>1251</ele>
        <time>2020-05-31T00:56:56Z</time>
      </trkpt>
      <trkpt lat="45.57777" lon="3.892">
        <ele>1251</ele>
        <time>2020-05-31T00:57:01Z</time>
      </trkpt>
      <trkpt lat="45.57801" lon="3.89237">
        <ele>1252</ele>
        <time>2020-05-31T00:57:07Z</time>
      </trkpt>
      <trkpt lat="45.57819" lon="3.89257">
        <ele>1254</ele>
        <time>2020-05-31T00:57:11Z</time>
      </trkpt>
      <trkpt lat="45.57837" lon="3.89289">
        <ele>1255</ele>
        <time>2020-05-31T00:57:17Z</time>
      </trkpt>
      <trkpt lat="45.57876" lon="3.89372">
        <ele>1253</ele>
        <time>2020-05-31T00:57:29Z</time>
      </trkpt>
      <trkpt lat="45.57909" lon="3.89437">
        <ele>1252</ele>
        <time>2020-05-31T00:57:39Z</time>
      </trkpt>
      <trkpt lat="45.57927" lon="3.89468">
        <ele>1251</ele>
        <time>2020-05-31T00:57:44Z</time>
      </trkpt>
      <trkpt lat="45.57997" lon="3.89564">
        <ele>1249</ele>
        <time>2020-05-31T00:58:01Z</time>
      </trkpt>
      <trkpt lat="45.58016" lon="3.8959">
        <ele>1248</ele>
        <time>2020-05-31T00:58:06Z</time>
      </trkpt>
      <trkpt lat="45.58019" lon="3.89595">
        <ele>1248</ele>
        <time>2020-05-31T00:58:07Z</time>
      </trkpt>
      <trkpt lat="45.58035" lon="3.89618">
        <ele>1249</ele>
        <time>2020-05-31T00:58:11Z</time>
      </trkpt>
      <trkpt lat="45.58048" lon="3.89633">
        <ele>1249</ele>
        <time>2020-05-31T00:58:14Z</time>
      </trkpt>
      <trkpt lat="45.58065" lon="3.89646">
        <ele>1250</ele>
        <time>2020-05-31T00:58:17Z</time>
      </trkpt>
      <trkpt lat="45.58076" lon="3.89653">
        <ele>1251</ele>
        <time>2020-05-31T00:58:19Z</time>
      </trkpt>
      <trkpt lat="45.58085" lon="3.89668">
        <ele>1250</ele>
        <time>2020-05-31T00:58:22Z</time>
      </trkpt>
      <trkpt lat="45.58092" lon="3.89692">
        <ele>1251</ele>
        <time>2020-05-31T00:58:25Z</time>
      </trkpt>
      <trkpt lat="45.58094" lon="3.89721">
        <ele>1252</ele>
        <time>2020-05-31T00:58:29Z</time>
      </trkpt>
      <trkpt lat="45.58094" lon="3.89747">
        <ele>1252</ele>
        <time>2020-05-31T00:58:32Z</time>
      </trkpt>
      <trkpt lat="45.58095" lon="3.89776">
        <ele>1252</ele>
        <time>2020-05-31T00:58:36Z</time>
      </trkpt>
      <trkpt lat="45.58096" lon="3.89814">
        <ele>1253</ele>
        <time>2020-05-31T00:58:40Z</time>
      </trkpt>
      <trkpt lat="45.581" lon="3.89837">
        <ele>1253</ele>
        <time>2020-05-31T00:58:43Z</time>
      </trkpt>
      <trkpt lat="45.58107" lon="3.89861">
        <ele>1254</ele>
        <time>2020-05-31T00:58:46Z</time>
      </trkpt>
      <trkpt lat="45.58115" lon="3.89881">
        <ele>1254</ele>
        <time>2020-05-31T00:58:49Z</time>
      </trkpt>
      <trkpt lat="45.58122" lon="3.89896">
        <ele>1254</ele>
        <time>2020-05-31T00:58:52Z</time>
      </trkpt>
      <trkpt lat="45.58131" lon="3.89908">
        <ele>1254</ele>
        <time>2020-05-31T00:58:54Z</time>
      </trkpt>
      <trkpt lat="45.58145" lon="3.89921">
        <ele>1253</ele>
        <time>2020-05-31T00:58:57Z</time>
      </trkpt>
      <trkpt lat="45.58158" lon="3.89926">
        <ele>1253</ele>
        <time>2020-05-31T00:58:59Z</time>
      </trkpt>
      <trkpt lat="45.58188" lon="3.89928">
        <ele>1252</ele>
        <time>2020-05-31T00:59:04Z</time>
      </trkpt>
      <trkpt lat="45.58254" lon="3.8993">
        <ele>1250</ele>
        <time>2020-05-31T00:59:16Z</time>
      </trkpt>
      <trkpt lat="45.58276" lon="3.89928">
        <ele>1248</ele>
        <time>2020-05-31T00:59:20Z</time>
      </trkpt>
      <trkpt lat="45.58293" lon="3.89919">
        <ele>1248</ele>
        <time>2020-05-31T00:59:23Z</time>
      </trkpt>
      <trkpt lat="45.58356" lon="3.89877">
        <ele>1252</ele>
        <time>2020-05-31T00:59:36Z</time>
      </trkpt>
      <trkpt lat="45.58389" lon="3.89858">
        <ele>1255</ele>
        <time>2020-05-31T00:59:42Z</time>
      </trkpt>
      <trkpt lat="45.58412" lon="3.8984">
        <ele>1259</ele>
        <time>2020-05-31T00:59:47Z</time>
      </trkpt>
      <trkpt lat="45.58428" lon="3.8984">
        <ele>1259</ele>
        <time>2020-05-31T00:59:50Z</time>
      </trkpt>
      <trkpt lat="45.5844" lon="3.89847">
        <ele>1258</ele>
        <time>2020-05-31T00:59:52Z</time>
      </trkpt>
      <trkpt lat="45.58451" lon="3.89863">
        <ele>1257</ele>
        <time>2020-05-31T00:59:55Z</time>
      </trkpt>
      <trkpt lat="45.58453" lon="3.89886">
        <ele>1254</ele>
        <time>2020-05-31T00:59:58Z</time>
      </trkpt>
      <trkpt lat="45.58448" lon="3.89911">
        <ele>1250</ele>
        <time>2020-05-31T01:00:01Z</time>
      </trkpt>
      <trkpt lat="45.58446" lon="3.89951">
        <ele>1248</ele>
        <time>2020-05-31T01:00:06Z</time>
      </trkpt>
      <trkpt lat="45.58444" lon="3.90035">
        <ele>1246</ele>
        <time>2020-05-31T01:00:16Z</time>
      </trkpt>
      <trkpt lat="45.58445" lon="3.90079">
        <ele>1247</ele>
        <time>2020-05-31T01:00:22Z</time>
      </trkpt>
      <trkpt lat="45.58441" lon="3.90109">
        <ele>1247</ele>
        <time>2020-05-31T01:00:26Z</time>
      </trkpt>
      <trkpt lat="45.58429" lon="3.90129">
        <ele>1245</ele>
        <time>2020-05-31T01:00:29Z</time>
      </trkpt>
      <trkpt lat="45.58411" lon="3.90146">
        <ele>1243</ele>
        <time>2020-05-31T01:00:33Z</time>
      </trkpt>
      <trkpt lat="45.58376" lon="3.90168">
        <ele>1239</ele>
        <time>2020-05-31T01:00:39Z</time>
      </trkpt>
      <trkpt lat="45.58361" lon="3.90181">
        <ele>1238</ele>
        <time>2020-05-31T01:00:43Z</time>
      </trkpt>
      <trkpt lat="45.58342" lon="3.90201">
        <ele>1237</ele>
        <time>2020-05-31T01:00:47Z</time>
      </trkpt>
      <trkpt lat="45.58321" lon="3.90228">
        <ele>1237</ele>
        <time>2020-05-31T01:00:52Z</time>
      </trkpt>
      <trkpt lat="45.58307" lon="3.90256">
        <ele>1237</ele>
        <time>2020-05-31T01:00:56Z</time>
      </trkpt>
      <trkpt lat="45.58301" lon="3.90278">
        <ele>1236</ele>
        <time>2020-05-31T01:00:59Z</time>
      </trkpt>
      <trkpt lat="45.58287" lon="3.90392">
        <ele>1234</ele>
        <time>2020-05-31T01:01:13Z</time>
      </trkpt>
      <trkpt lat="45.58271" lon="3.90504">
        <ele>1227</ele>
        <time>2020-05-31T01:01:28Z</time>
      </trkpt>
      <trkpt lat="45.5827" lon="3.90527">
        <ele>1225</ele>
        <time>2020-05-31T01:01:31Z</time>
      </trkpt>
      <trkpt lat="45.58271" lon="3.90546">
        <ele>1223</ele>
        <time>2020-05-31T01:01:33Z</time>
      </trkpt>
      <trkpt lat="45.58281" lon="3.90583">
        <ele>1223</ele>
        <time>2020-05-31T01:01:38Z</time>
      </trkpt>
      <trkpt lat="45.5829" lon="3.90601">
        <ele>1223</ele>
        <time>2020-05-31T01:01:41Z</time>
      </trkpt>
      <trkpt lat="45.5833" lon="3.9066">
        <ele>1224</ele>
        <time>2020-05-31T01:01:51Z</time>
      </trkpt>
      <trkpt lat="45.58354" lon="3.90705">
        <ele>1223</ele>
        <time>2020-05-31T01:01:58Z</time>
      </trkpt>
      <trkpt lat="45.58356" lon="3.90722">
        <ele>1223</ele>
        <time>2020-05-31T01:02:00Z</time>
      </trkpt>
      <trkpt lat="45.58353" lon="3.9074">
        <ele>1222</ele>
        <time>2020-05-31T01:02:02Z</time>
      </trkpt>
      <trkpt lat="45.58348" lon="3.90753">
        <ele>1221</ele>
        <time>2020-05-31T01:02:04Z</time>
      </trkpt>
      <trkpt lat="45.58339" lon="3.90763">
        <ele>1222</ele>
        <time>2020-05-31T01:02:06Z</time>
      </trkpt>
      <trkpt lat="45.58325" lon="3.90765">
        <ele>1222</ele>
        <time>2020-05-31T01:02:09Z</time>
      </trkpt>
      <trkpt lat="45.58257" lon="3.90755">
        <ele>1227</ele>
        <time>2020-05-31T01:02:21Z</time>
      </trkpt>
      <trkpt lat="45.58216" lon="3.90755">
        <ele>1227</ele>
        <time>2020-05-31T01:02:28Z</time>
      </trkpt>
      <trkpt lat="45.58188" lon="3.90761">
        <ele>1227</ele>
        <time>2020-05-31T01:02:33Z</time>
      </trkpt>
      <trkpt lat="45.58149" lon="3.90796">
        <ele>1229</ele>
        <time>2020-05-31T01:02:41Z</time>
      </trkpt>
      <trkpt lat="45.58125" lon="3.90846">
        <ele>1230</ele>
        <time>2020-05-31T01:02:49Z</time>
      </trkpt>
      <trkpt lat="45.58112" lon="3.90913">
        <ele>1232</ele>
        <time>2020-05-31T01:02:58Z</time>
      </trkpt>
      <trkpt lat="45.58097" lon="3.91074">
        <ele>1233</ele>
        <time>2020-05-31T01:03:18Z</time>
      </trkpt>
      <trkpt lat="45.58099" lon="3.91244">
        <ele>1240</ele>
        <time>2020-05-31T01:03:39Z</time>
      </trkpt>
      <trkpt lat="45.58099" lon="3.91265">
        <ele>1240</ele>
        <time>2020-05-31T01:03:42Z</time>
      </trkpt>
      <trkpt lat="45.58096" lon="3.913">
        <ele>1241</ele>
        <time>2020-05-31T01:03:46Z</time>
      </trkpt>
      <trkpt lat="45.58091" lon="3.91346">
        <ele>1243</ele>
        <time>2020-05-31T01:03:52Z</time>
      </trkpt>
      <trkpt lat="45.58072" lon="3.91471">
        <ele>1248</ele>
        <time>2020-05-31T01:04:08Z</time>
      </trkpt>
      <trkpt lat="45.58064" lon="3.91494">
        <ele>1248</ele>
        <time>2020-05-31T01:04:11Z</time>
      </trkpt>
      <trkpt lat="45.58048" lon="3.91519">
        <ele>1248</ele>
        <time>2020-05-31T01:04:15Z</time>
      </trkpt>
      <trkpt lat="45.58002" lon="3.91576">
        <ele>1247</ele>
        <time>2020-05-31T01:04:26Z</time>
      </trkpt>
      <trkpt lat="45.57975" lon="3.91619">
        <ele>1249</ele>
        <time>2020-05-31T01:04:33Z</time>
      </trkpt>
      <trkpt lat="45.57954" lon="3.91658">
        <ele>1251</ele>
        <time>2020-05-31T01:04:39Z</time>
      </trkpt>
      <trkpt lat="45.57946" lon="3.91684">
        <ele>1251</ele>
        <time>2020-05-31T01:04:43Z</time>
      </trkpt>
      <trkpt lat="45.57941" lon="3.91707">
        <ele>1252</ele>
        <time>2020-05-31T01:04:46Z</time>
      </trkpt>
      <trkpt lat="45.57934" lon="3.91762">
        <ele>1254</ele>
        <time>2020-05-31T01:04:53Z</time>
      </trkpt>
      <trkpt lat="45.57931" lon="3.91802">
        <ele>1255</ele>
        <time>2020-05-31T01:04:58Z</time>
      </trkpt>
      <trkpt lat="45.5792" lon="3.91864">
        <ele>1255</ele>
        <time>2020-05-31T01:05:06Z</time>
      </trkpt>
      <trkpt lat="45.5792" lon="3.91887">
        <ele>1255</ele>
        <time>2020-05-31T01:05:09Z</time>
      </trkpt>
      <trkpt lat="45.57924" lon="3.91916">
        <ele>1256</ele>
        <time>2020-05-31T01:05:12Z</time>
      </trkpt>
      <trkpt lat="45.57937" lon="3.91971">
        <ele>1259</ele>
        <time>2020-05-31T01:05:20Z</time>
      </trkpt>
      <trkpt lat="45.57941" lon="3.91996">
        <ele>1260</ele>
        <time>2020-05-31T01:05:23Z</time>
      </trkpt>
      <trkpt lat="45.5794" lon="3.92022">
        <ele>1261</ele>
        <time>2020-05-31T01:05:26Z</time>
      </trkpt>
      <trkpt lat="45.57936" lon="3.92045">
        <ele>1262</ele>
        <time>2020-05-31T01:05:29Z</time>
      </trkpt>
      <trkpt lat="45.57928" lon="3.92067">
        <ele>1262</ele>
        <time>2020-05-31T01:05:32Z</time>
      </trkpt>
      <trkpt lat="45.57909" lon="3.92136">
        <ele>1262</ele>
        <time>2020-05-31T01:05:41Z</time>
      </trkpt>
      <trkpt lat="45.57881" lon="3.92205">
        <ele>1263</ele>
        <time>2020-05-31T01:05:51Z</time>
      </trkpt>
      <trkpt lat="45.5787" lon="3.92243">
        <ele>1263</ele>
        <time>2020-05-31T01:05:56Z</time>
      </trkpt>
      <trkpt lat="45.57855" lon="3.9231">
        <ele>1264</ele>
        <time>2020-05-31T01:06:05Z</time>
      </trkpt>
      <trkpt lat="45.57834" lon="3.92424">
        <ele>1263</ele>
        <time>2020-05-31T01:06:20Z</time>
      </trkpt>
      <trkpt lat="45.57831" lon="3.92437">
        <ele>1264</ele>
        <time>2020-05-31T01:06:21Z</time>
      </trkpt>
      <trkpt lat="45.57812" lon="3.92541">
        <ele>1265</ele>
        <time>2020-05-31T01:06:35Z</time>
      </trkpt>
      <trkpt lat="45.57808" lon="3.92562">
        <ele>1266</ele>
        <time>2020-05-31T01:06:38Z</time>
      </trkpt>
      <trkpt lat="45.57805" lon="3.92585">
        <ele>1266</ele>
        <time>2020-05-31T01:06:41Z</time>
      </trkpt>
      <trkpt lat="45.57805" lon="3.92626">
        <ele>1266</ele>
        <time>2020-05-31T01:06:46Z</time>
      </trkpt>
      <trkpt lat="45.57808" lon="3.92651">
        <ele>1266</ele>
        <time>2020-05-31T01:06:49Z</time>
      </trkpt>
      <trkpt lat="45.57871" lon="3.92994">
        <ele>1271</ele>
        <time>2020-05-31T01:07:33Z</time>
      </trkpt>
      <trkpt lat="45.57883" lon="3.93056">
        <ele>1270</ele>
        <time>2020-05-31T01:07:41Z</time>
      </trkpt>
      <trkpt lat="45.57894" lon="3.93095">
        <ele>1269</ele>
        <time>2020-05-31T01:07:46Z</time>
      </trkpt>
      <trkpt lat="45.57926" lon="3.93155">
        <ele>1268</ele>
        <time>2020-05-31T01:07:56Z</time>
      </trkpt>
      <trkpt lat="45.57947" lon="3.93196">
        <ele>1267</ele>
        <time>2020-05-31T01:08:02Z</time>
      </trkpt>
      <trkpt lat="45.57973" lon="3.9324">
        <ele>1267</ele>
        <time>2020-05-31T01:08:09Z</time>
      </trkpt>
      <trkpt lat="45.57997" lon="3.93275">
        <ele>1268</ele>
        <time>2020-05-31T01:08:15Z</time>
      </trkpt>
      <trkpt lat="45.58004" lon="3.93295">
        <ele>1268</ele>
        <time>2020-05-31T01:08:18Z</time>
      </trkpt>
      <trkpt lat="45.58006" lon="3.93312">
        <ele>1268</ele>
        <time>2020-05-31T01:08:20Z</time>
      </trkpt>
      <trkpt lat="45.57988" lon="3.93405">
        <ele>1264</ele>
        <time>2020-05-31T01:08:32Z</time>
      </trkpt>
      <trkpt lat="45.57985" lon="3.93429">
        <ele>1264</ele>
        <time>2020-05-31T01:08:35Z</time>
      </trkpt>
      <trkpt lat="45.57983" lon="3.93447">
        <ele>1264</ele>
        <time>2020-05-31T01:08:37Z</time>
      </trkpt>
      <trkpt lat="45.57982" lon="3.93466">
        <ele>1265</ele>
        <time>2020-05-31T01:08:40Z</time>
      </trkpt>
      <trkpt lat="45.57978" lon="3.9365">
        <ele>1262</ele>
        <time>2020-05-31T01:09:03Z</time>
      </trkpt>
      <trkpt lat="45.57973" lon="3.93771">
        <ele>1261</ele>
        <time>2020-05-31T01:09:18Z</time>
      </trkpt>
      <trkpt lat="45.5797" lon="3.93804">
        <ele>1260</ele>
        <time>2020-05-31T01:09:22Z</time>
      </trkpt>
      <trkpt lat="45.57963" lon="3.93838">
        <ele>1260</ele>
        <time>2020-05-31T01:09:26Z</time>
      </trkpt>
      <trkpt lat="45.57953" lon="3.93871">
        <ele>1258</ele>
        <time>2020-05-31T01:09:31Z</time>
      </trkpt>
      <trkpt lat="45.57873" lon="3.94071">
        <ele>1249</ele>
        <time>2020-05-31T01:10:00Z</time>
      </trkpt>
      <trkpt lat="45.57867" lon="3.94091">
        <ele>1249</ele>
        <time>2020-05-31T01:10:02Z</time>
      </trkpt>
      <trkpt lat="45.57864" lon="3.9411">
        <ele>1249</ele>
        <time>2020-05-31T01:10:05Z</time>
      </trkpt>
      <trkpt lat="45.57866" lon="3.9413">
        <ele>1248</ele>
        <time>2020-05-31T01:10:07Z</time>
      </trkpt>
      <trkpt lat="45.57873" lon="3.94148">
        <ele>1247</ele>
        <time>2020-05-31T01:10:10Z</time>
      </trkpt>
      <trkpt lat="45.57881" lon="3.94162">
        <ele>1246</ele>
        <time>2020-05-31T01:10:12Z</time>
      </trkpt>
      <trkpt lat="45.57939" lon="3.94223">
        <ele>1243</ele>
        <time>2020-05-31T01:10:25Z</time>
      </trkpt>
      <trkpt lat="45.57997" lon="3.94287">
        <ele>1237</ele>
        <time>2020-05-31T01:10:38Z</time>
      </trkpt>
      <trkpt lat="45.5801" lon="3.94308">
        <ele>1236</ele>
        <time>2020-05-31T01:10:41Z</time>
      </trkpt>
      <trkpt lat="45.58033" lon="3.9437">
        <ele>1236</ele>
        <time>2020-05-31T01:10:50Z</time>
      </trkpt>
      <trkpt lat="45.58042" lon="3.9438">
        <ele>1235</ele>
        <time>2020-05-31T01:10:52Z</time>
      </trkpt>
      <trkpt lat="45.58054" lon="3.94384">
        <ele>1233</ele>
        <time>2020-05-31T01:10:54Z</time>
      </trkpt>
      <trkpt lat="45.58066" lon="3.9438">
        <ele>1231</ele>
        <time>2020-05-31T01:10:57Z</time>
      </trkpt>
      <trkpt lat="45.58076" lon="3.94368">
        <ele>1229</ele>
        <time>2020-05-31T01:10:59Z</time>
      </trkpt>
      <trkpt lat="45.5808" lon="3.94352">
        <ele>1228</ele>
        <time>2020-05-31T01:11:01Z</time>
      </trkpt>
      <trkpt lat="45.58079" lon="3.94334">
        <ele>1228</ele>
        <time>2020-05-31T01:11:03Z</time>
      </trkpt>
      <trkpt lat="45.58071" lon="3.94314">
        <ele>1228</ele>
        <time>2020-05-31T01:11:06Z</time>
      </trkpt>
      <trkpt lat="45.5806" lon="3.94294">
        <ele>1228</ele>
        <time>2020-05-31T01:11:09Z</time>
      </trkpt>
      <trkpt lat="45.58052" lon="3.94265">
        <ele>1227</ele>
        <time>2020-05-31T01:11:13Z</time>
      </trkpt>
      <trkpt lat="45.58048" lon="3.9422">
        <ele>1226</ele>
        <time>2020-05-31T01:11:19Z</time>
      </trkpt>
      <trkpt lat="45.58051" lon="3.94156">
        <ele>1224</ele>
        <time>2020-05-31T01:11:27Z</time>
      </trkpt>
      <trkpt lat="45.58052" lon="3.94143">
        <ele>1224</ele>
        <time>2020-05-31T01:11:28Z</time>
      </trkpt>
      <trkpt lat="45.58053" lon="3.94132">
        <ele>1224</ele>
        <time>2020-05-31T01:11:30Z</time>
      </trkpt>
      <trkpt lat="45.58062" lon="3.94115">
        <ele>1223</ele>
        <time>2020-05-31T01:11:32Z</time>
      </trkpt>
      <trkpt lat="45.58072" lon="3.94098">
        <ele>1222</ele>
        <time>2020-05-31T01:11:35Z</time>
      </trkpt>
      <trkpt lat="45.58085" lon="3.94089">
        <ele>1221</ele>
        <time>2020-05-31T01:11:38Z</time>
      </trkpt>
      <trkpt lat="45.58191" lon="3.94052">
        <ele>1218</ele>
        <time>2020-05-31T01:11:57Z</time>
      </trkpt>
      <trkpt lat="45.5822" lon="3.94047">
        <ele>1216</ele>
        <time>2020-05-31T01:12:02Z</time>
      </trkpt>
      <trkpt lat="45.58269" lon="3.94057">
        <ele>1210</ele>
        <time>2020-05-31T01:12:11Z</time>
      </trkpt>
      <trkpt lat="45.58289" lon="3.94054">
        <ele>1208</ele>
        <time>2020-05-31T01:12:15Z</time>
      </trkpt>
      <trkpt lat="45.58354" lon="3.94023">
        <ele>1206</ele>
        <time>2020-05-31T01:12:27Z</time>
      </trkpt>
      <trkpt lat="45.58373" lon="3.9401">
        <ele>1205</ele>
        <time>2020-05-31T01:12:31Z</time>
      </trkpt>
      <trkpt lat="45.58387" lon="3.93988">
        <ele>1206</ele>
        <time>2020-05-31T01:12:34Z</time>
      </trkpt>
      <trkpt lat="45.58424" lon="3.93885">
        <ele>1202</ele>
        <time>2020-05-31T01:12:49Z</time>
      </trkpt>
      <trkpt lat="45.58432" lon="3.93844">
        <ele>1200</ele>
        <time>2020-05-31T01:12:54Z</time>
      </trkpt>
      <trkpt lat="45.58435" lon="3.93827">
        <ele>1201</ele>
        <time>2020-05-31T01:12:56Z</time>
      </trkpt>
      <trkpt lat="45.5844" lon="3.93811">
        <ele>1202</ele>
        <time>2020-05-31T01:12:58Z</time>
      </trkpt>
      <trkpt lat="45.58446" lon="3.93789">
        <ele>1205</ele>
        <time>2020-05-31T01:13:01Z</time>
      </trkpt>
      <trkpt lat="45.58459" lon="3.9378">
        <ele>1203</ele>
        <time>2020-05-31T01:13:04Z</time>
      </trkpt>
      <trkpt lat="45.58524" lon="3.93762">
        <ele>1192</ele>
        <time>2020-05-31T01:13:16Z</time>
      </trkpt>
      <trkpt lat="45.58548" lon="3.93748">
        <ele>1192</ele>
        <time>2020-05-31T01:13:20Z</time>
      </trkpt>
      <trkpt lat="45.58597" lon="3.93713">
        <ele>1191</ele>
        <time>2020-05-31T01:13:30Z</time>
      </trkpt>
      <trkpt lat="45.58631" lon="3.93679">
        <ele>1192</ele>
        <time>2020-05-31T01:13:38Z</time>
      </trkpt>
      <trkpt lat="45.58647" lon="3.9367">
        <ele>1190</ele>
        <time>2020-05-31T01:13:41Z</time>
      </trkpt>
      <trkpt lat="45.58656" lon="3.93671">
        <ele>1187</ele>
        <time>2020-05-31T01:13:42Z</time>
      </trkpt>
      <trkpt lat="45.58676" lon="3.93693">
        <ele>1181</ele>
        <time>2020-05-31T01:13:47Z</time>
      </trkpt>
      <trkpt lat="45.58742" lon="3.93835">
        <ele>1163</ele>
        <time>2020-05-31T01:14:08Z</time>
      </trkpt>
      <trkpt lat="45.58761" lon="3.93854">
        <ele>1161</ele>
        <time>2020-05-31T01:14:12Z</time>
      </trkpt>
      <trkpt lat="45.58787" lon="3.93866">
        <ele>1159</ele>
        <time>2020-05-31T01:14:17Z</time>
      </trkpt>
      <trkpt lat="45.5881" lon="3.93867">
        <ele>1159</ele>
        <time>2020-05-31T01:14:21Z</time>
      </trkpt>
      <trkpt lat="45.58837" lon="3.93856">
        <ele>1161</ele>
        <time>2020-05-31T01:14:26Z</time>
      </trkpt>
      <trkpt lat="45.58883" lon="3.9383">
        <ele>1158</ele>
        <time>2020-05-31T01:14:35Z</time>
      </trkpt>
      <trkpt lat="45.58908" lon="3.93819">
        <ele>1157</ele>
        <time>2020-05-31T01:14:39Z</time>
      </trkpt>
      <trkpt lat="45.58955" lon="3.93805">
        <ele>1159</ele>
        <time>2020-05-31T01:14:48Z</time>
      </trkpt>
      <trkpt lat="45.58991" lon="3.93798">
        <ele>1160</ele>
        <time>2020-05-31T01:14:54Z</time>
      </trkpt>
      <trkpt lat="45.5902" lon="3.9381">
        <ele>1157</ele>
        <time>2020-05-31T01:15:00Z</time>
      </trkpt>
      <trkpt lat="45.59101" lon="3.93875">
        <ele>1149</ele>
        <time>2020-05-31T01:15:16Z</time>
      </trkpt>
      <trkpt lat="45.59112" lon="3.93888">
        <ele>1148</ele>
        <time>2020-05-31T01:15:19Z</time>
      </trkpt>
      <trkpt lat="45.59141" lon="3.93949">
        <ele>1138</ele>
        <time>2020-05-31T01:15:28Z</time>
      </trkpt>
      <trkpt lat="45.59158" lon="3.93976">
        <ele>1135</ele>
        <time>2020-05-31T01:15:33Z</time>
      </trkpt>
      <trkpt lat="45.59174" lon="3.9399">
        <ele>1134</ele>
        <time>2020-05-31T01:15:36Z</time>
      </trkpt>
      <trkpt lat="45.59332" lon="3.94058">
        <ele>1120</ele>
        <time>2020-05-31T01:16:05Z</time>
      </trkpt>
      <trkpt lat="45.59367" lon="3.94063">
        <ele>1115</ele>
        <time>2020-05-31T01:16:12Z</time>
      </trkpt>
      <trkpt lat="45.59387" lon="3.94059">
        <ele>1114</ele>
        <time>2020-05-31T01:16:15Z</time>
      </trkpt>
      <trkpt lat="45.5941" lon="3.94063">
        <ele>1110</ele>
        <time>2020-05-31T01:16:19Z</time>
      </trkpt>
      <trkpt lat="45.59419" lon="3.94068">
        <ele>1109</ele>
        <time>2020-05-31T01:16:21Z</time>
      </trkpt>
      <trkpt lat="45.59424" lon="3.94074">
        <ele>1107</ele>
        <time>2020-05-31T01:16:22Z</time>
      </trkpt>
      <trkpt lat="45.59428" lon="3.9408">
        <ele>1106</ele>
        <time>2020-05-31T01:16:23Z</time>
      </trkpt>
      <trkpt lat="45.59433" lon="3.9409">
        <ele>1105</ele>
        <time>2020-05-31T01:16:25Z</time>
      </trkpt>
      <trkpt lat="45.59434" lon="3.94096">
        <ele>1104</ele>
        <time>2020-05-31T01:16:25Z</time>
      </trkpt>
      <trkpt lat="45.59435" lon="3.94105">
        <ele>1104</ele>
        <time>2020-05-31T01:16:27Z</time>
      </trkpt>
      <trkpt lat="45.59433" lon="3.94125">
        <ele>1103</ele>
        <time>2020-05-31T01:16:29Z</time>
      </trkpt>
      <trkpt lat="45.5943" lon="3.94133">
        <ele>1103</ele>
        <time>2020-05-31T01:16:30Z</time>
      </trkpt>
      <trkpt lat="45.59427" lon="3.94139">
        <ele>1102</ele>
        <time>2020-05-31T01:16:31Z</time>
      </trkpt>
      <trkpt lat="45.59414" lon="3.94149">
        <ele>1102</ele>
        <time>2020-05-31T01:16:34Z</time>
      </trkpt>
      <trkpt lat="45.59401" lon="3.9415">
        <ele>1101</ele>
        <time>2020-05-31T01:16:36Z</time>
      </trkpt>
      <trkpt lat="45.59389" lon="3.94144">
        <ele>1102</ele>
        <time>2020-05-31T01:16:38Z</time>
      </trkpt>
      <trkpt lat="45.59361" lon="3.94117">
        <ele>1107</ele>
        <time>2020-05-31T01:16:44Z</time>
      </trkpt>
      <trkpt lat="45.59346" lon="3.94109">
        <ele>1109</ele>
        <time>2020-05-31T01:16:47Z</time>
      </trkpt>
      <trkpt lat="45.59192" lon="3.94084">
        <ele>1111</ele>
        <time>2020-05-31T01:17:15Z</time>
      </trkpt>
      <trkpt lat="45.59147" lon="3.94073">
        <ele>1107</ele>
        <time>2020-05-31T01:17:23Z</time>
      </trkpt>
      <trkpt lat="45.59127" lon="3.94065">
        <ele>1104</ele>
        <time>2020-05-31T01:17:27Z</time>
      </trkpt>
      <trkpt lat="45.59107" lon="3.9405">
        <ele>1103</ele>
        <time>2020-05-31T01:17:31Z</time>
      </trkpt>
      <trkpt lat="45.59084" lon="3.94027">
        <ele>1103</ele>
        <time>2020-05-31T01:17:36Z</time>
      </trkpt>
      <trkpt lat="45.59047" lon="3.93977">
        <ele>1112</ele>
        <time>2020-05-31T01:17:45Z</time>
      </trkpt>
      <trkpt lat="45.59027" lon="3.93969">
        <ele>1111</ele>
        <time>2020-05-31T01:17:48Z</time>
      </trkpt>
      <trkpt lat="45.59008" lon="3.93983">
        <ele>1106</ele>
        <time>2020-05-31T01:17:52Z</time>
      </trkpt>
      <trkpt lat="45.59001" lon="3.9401">
        <ele>1098</ele>
        <time>2020-05-31T01:17:56Z</time>
      </trkpt>
      <trkpt lat="45.59007" lon="3.94032">
        <ele>1093</ele>
        <time>2020-05-31T01:17:59Z</time>
      </trkpt>
      <trkpt lat="45.59024" lon="3.94042">
        <ele>1093</ele>
        <time>2020-05-31T01:18:02Z</time>
      </trkpt>
      <trkpt lat="45.59067" lon="3.94054">
        <ele>1094</ele>
        <time>2020-05-31T01:18:10Z</time>
      </trkpt>
      <trkpt lat="45.59084" lon="3.94067">
        <ele>1092</ele>
        <time>2020-05-31T01:18:13Z</time>
      </trkpt>
      <trkpt lat="45.59118" lon="3.94111">
        <ele>1088</ele>
        <time>2020-05-31T01:18:21Z</time>
      </trkpt>
      <trkpt lat="45.59155" lon="3.94137">
        <ele>1088</ele>
        <time>2020-05-31T01:18:29Z</time>
      </trkpt>
      <trkpt lat="45.59239" lon="3.94211">
        <ele>1076</ele>
        <time>2020-05-31T01:18:46Z</time>
      </trkpt>
      <trkpt lat="45.59282" lon="3.94231">
        <ele>1074</ele>
        <time>2020-05-31T01:18:54Z</time>
      </trkpt>
      <trkpt lat="45.59314" lon="3.94265">
        <ele>1069</ele>
        <time>2020-05-31T01:19:01Z</time>
      </trkpt>
      <trkpt lat="45.5948" lon="3.94518">
        <ele>1051</ele>
        <time>2020-05-31T01:19:45Z</time>
      </trkpt>
      <trkpt lat="45.59493" lon="3.94543">
        <ele>1050</ele>
        <time>2020-05-31T01:19:48Z</time>
      </trkpt>
      <trkpt lat="45.59505" lon="3.94567">
        <ele>1049</ele>
        <time>2020-05-31T01:19:52Z</time>
      </trkpt>
      <trkpt lat="45.59511" lon="3.9458">
        <ele>1048</ele>
        <time>2020-05-31T01:19:54Z</time>
      </trkpt>
      <trkpt lat="45.59531" lon="3.94632">
        <ele>1046</ele>
        <time>2020-05-31T01:20:01Z</time>
      </trkpt>
      <trkpt lat="45.59545" lon="3.94677">
        <ele>1044</ele>
        <time>2020-05-31T01:20:08Z</time>
      </trkpt>
      <trkpt lat="45.59557" lon="3.94723">
        <ele>1041</ele>
        <time>2020-05-31T01:20:14Z</time>
      </trkpt>
      <trkpt lat="45.59566" lon="3.94749">
        <ele>1040</ele>
        <time>2020-05-31T01:20:17Z</time>
      </trkpt>
      <trkpt lat="45.59576" lon="3.9477">
        <ele>1038</ele>
        <time>2020-05-31T01:20:20Z</time>
      </trkpt>
      <trkpt lat="45.59592" lon="3.94782">
        <ele>1037</ele>
        <time>2020-05-31T01:20:24Z</time>
      </trkpt>
      <trkpt lat="45.59625" lon="3.94808">
        <ele>1036</ele>
        <time>2020-05-31T01:20:30Z</time>
      </trkpt>
      <trkpt lat="45.59649" lon="3.94821">
        <ele>1035</ele>
        <time>2020-05-31T01:20:35Z</time>
      </trkpt>
      <trkpt lat="45.59698" lon="3.94882">
        <ele>1029</ele>
        <time>2020-05-31T01:20:47Z</time>
      </trkpt>
      <trkpt lat="45.59721" lon="3.94905">
        <ele>1026</ele>
        <time>2020-05-31T01:20:52Z</time>
      </trkpt>
      <trkpt lat="45.59949" lon="3.95065">
        <ele>1005</ele>
        <time>2020-05-31T01:21:37Z</time>
      </trkpt>
      <trkpt lat="45.59959" lon="3.95075">
        <ele>1004</ele>
        <time>2020-05-31T01:21:39Z</time>
      </trkpt>
      <trkpt lat="45.59967" lon="3.95098">
        <ele>1002</ele>
        <time>2020-05-31T01:21:42Z</time>
      </trkpt>
      <trkpt lat="45.5997" lon="3.95126">
        <ele>1002</ele>
        <time>2020-05-31T01:21:46Z</time>
      </trkpt>
      <trkpt lat="45.59966" lon="3.9515">
        <ele>1002</ele>
        <time>2020-05-31T01:21:49Z</time>
      </trkpt>
      <trkpt lat="45.59958" lon="3.9517">
        <ele>1001</ele>
        <time>2020-05-31T01:21:52Z</time>
      </trkpt>
      <trkpt lat="45.59948" lon="3.95183">
        <ele>1001</ele>
        <time>2020-05-31T01:21:54Z</time>
      </trkpt>
      <trkpt lat="45.59932" lon="3.95194">
        <ele>1001</ele>
        <time>2020-05-31T01:21:57Z</time>
      </trkpt>
      <trkpt lat="45.59914" lon="3.95196">
        <ele>1001</ele>
        <time>2020-05-31T01:22:00Z</time>
      </trkpt>
      <trkpt lat="45.59843" lon="3.95196">
        <ele>999</ele>
        <time>2020-05-31T01:22:13Z</time>
      </trkpt>
      <trkpt lat="45.59821" lon="3.95205">
        <ele>998</ele>
        <time>2020-05-31T01:22:17Z</time>
      </trkpt>
      <trkpt lat="45.59807" lon="3.95224">
        <ele>995</ele>
        <time>2020-05-31T01:22:20Z</time>
      </trkpt>
      <trkpt lat="45.59801" lon="3.9525">
        <ele>992</ele>
        <time>2020-05-31T01:22:24Z</time>
      </trkpt>
      <trkpt lat="45.59801" lon="3.95274">
        <ele>990</ele>
        <time>2020-05-31T01:22:27Z</time>
      </trkpt>
      <trkpt lat="45.59806" lon="3.95289">
        <ele>989</ele>
        <time>2020-05-31T01:22:29Z</time>
      </trkpt>
      <trkpt lat="45.59817" lon="3.9531">
        <ele>988</ele>
        <time>2020-05-31T01:22:32Z</time>
      </trkpt>
      <trkpt lat="45.5984" lon="3.95346">
        <ele>987</ele>
        <time>2020-05-31T01:22:38Z</time>
      </trkpt>
      <trkpt lat="45.59862" lon="3.95386">
        <ele>985</ele>
        <time>2020-05-31T01:22:45Z</time>
      </trkpt>
      <trkpt lat="45.59872" lon="3.95413">
        <ele>984</ele>
        <time>2020-05-31T01:22:48Z</time>
      </trkpt>
      <trkpt lat="45.59895" lon="3.95452">
        <ele>982</ele>
        <time>2020-05-31T01:22:55Z</time>
      </trkpt>
      <trkpt lat="45.59933" lon="3.95516">
        <ele>978</ele>
        <time>2020-05-31T01:23:05Z</time>
      </trkpt>
      <trkpt lat="45.59952" lon="3.95534">
        <ele>976</ele>
        <time>2020-05-31T01:23:09Z</time>
      </trkpt>
      <trkpt lat="45.59973" lon="3.95539">
        <ele>975</ele>
        <time>2020-05-31T01:23:13Z</time>
      </trkpt>
      <trkpt lat="45.60057" lon="3.95547">
        <ele>971</ele>
        <time>2020-05-31T01:23:28Z</time>
      </trkpt>
      <trkpt lat="45.60117" lon="3.95549">
        <ele>966</ele>
        <time>2020-05-31T01:23:39Z</time>
      </trkpt>
      <trkpt lat="45.60144" lon="3.95538">
        <ele>965</ele>
        <time>2020-05-31T01:23:44Z</time>
      </trkpt>
      <trkpt lat="45.60182" lon="3.95484">
        <ele>969</ele>
        <time>2020-05-31T01:23:53Z</time>
      </trkpt>
      <trkpt lat="45.60197" lon="3.95469">
        <ele>969</ele>
        <time>2020-05-31T01:23:56Z</time>
      </trkpt>
      <trkpt lat="45.60193" lon="3.95385">
        <ele>969</ele>
        <time>2020-05-31T01:24:07Z</time>
      </trkpt>
      <trkpt lat="45.60116" lon="3.95189">
        <ele>975</ele>
        <time>2020-05-31T01:24:35Z</time>
      </trkpt>
      <trkpt lat="45.60106" lon="3.95144">
        <ele>976</ele>
        <time>2020-05-31T01:24:41Z</time>
      </trkpt>
      <trkpt lat="45.60106" lon="3.95101">
        <ele>975</ele>
        <time>2020-05-31T01:24:46Z</time>
      </trkpt>
      <trkpt lat="45.60111" lon="3.95047">
        <ele>973</ele>
        <time>2020-05-31T01:24:53Z</time>
      </trkpt>
      <trkpt lat="45.60127" lon="3.94944">
        <ele>973</ele>
        <time>2020-05-31T01:25:06Z</time>
      </trkpt>
      <trkpt lat="45.6015" lon="3.94863">
        <ele>971</ele>
        <time>2020-05-31T01:25:17Z</time>
      </trkpt>
      <trkpt lat="45.60152" lon="3.94845">
        <ele>972</ele>
        <time>2020-05-31T01:25:19Z</time>
      </trkpt>
      <trkpt lat="45.60145" lon="3.9471">
        <ele>974</ele>
        <time>2020-05-31T01:25:36Z</time>
      </trkpt>
      <trkpt lat="45.60152" lon="3.94677">
        <ele>973</ele>
        <time>2020-05-31T01:25:40Z</time>
      </trkpt>
      <trkpt lat="45.60162" lon="3.94661">
        <ele>970</ele>
        <time>2020-05-31T01:25:43Z</time>
      </trkpt>
      <trkpt lat="45.60187" lon="3.94636">
        <ele>970</ele>
        <time>2020-05-31T01:25:49Z</time>
      </trkpt>
      <trkpt lat="45.60248" lon="3.94617">
        <ele>970</ele>
        <time>2020-05-31T01:26:00Z</time>
      </trkpt>
      <trkpt lat="45.6027" lon="3.94624">
        <ele>974</ele>
        <time>2020-05-31T01:26:04Z</time>
      </trkpt>
      <trkpt lat="45.60295" lon="3.9466">
        <ele>977</ele>
        <time>2020-05-31T01:26:10Z</time>
      </trkpt>
      <trkpt lat="45.60315" lon="3.94729">
        <ele>975</ele>
        <time>2020-05-31T01:26:19Z</time>
      </trkpt>
      <trkpt lat="45.60317" lon="3.94737">
        <ele>975</ele>
        <time>2020-05-31T01:26:20Z</time>
      </trkpt>
      <trkpt lat="45.60334" lon="3.94795">
        <ele>975</ele>
        <time>2020-05-31T01:26:28Z</time>
      </trkpt>
      <trkpt lat="45.60334" lon="3.94796">
        <ele>975</ele>
        <time>2020-05-31T01:26:28Z</time>
      </trkpt>
      <trkpt lat="45.60351" lon="3.94872">
        <ele>974</ele>
        <time>2020-05-31T01:26:38Z</time>
      </trkpt>
      <trkpt lat="45.60356" lon="3.94892">
        <ele>974</ele>
        <time>2020-05-31T01:26:41Z</time>
      </trkpt>
      <trkpt lat="45.60372" lon="3.95005">
        <ele>967</ele>
        <time>2020-05-31T01:26:55Z</time>
      </trkpt>
      <trkpt lat="45.60382" lon="3.95034">
        <ele>965</ele>
        <time>2020-05-31T01:26:59Z</time>
      </trkpt>
      <trkpt lat="45.60398" lon="3.95047">
        <ele>965</ele>
        <time>2020-05-31T01:27:02Z</time>
      </trkpt>
      <trkpt lat="45.60443" lon="3.95063">
        <ele>972</ele>
        <time>2020-05-31T01:27:11Z</time>
      </trkpt>
      <trkpt lat="45.60499" lon="3.95127">
        <ele>970</ele>
        <time>2020-05-31T01:27:23Z</time>
      </trkpt>
      <trkpt lat="45.60544" lon="3.95168">
        <ele>966</ele>
        <time>2020-05-31T01:27:33Z</time>
      </trkpt>
      <trkpt lat="45.60646" lon="3.952">
        <ele>967</ele>
        <time>2020-05-31T01:27:52Z</time>
      </trkpt>
      <trkpt lat="45.60714" lon="3.95201">
        <ele>965</ele>
        <time>2020-05-31T01:28:04Z</time>
      </trkpt>
      <trkpt lat="45.60846" lon="3.95189">
        <ele>963</ele>
        <time>2020-05-31T01:28:27Z</time>
      </trkpt>
      <trkpt lat="45.6088" lon="3.95198">
        <ele>960</ele>
        <time>2020-05-31T01:28:33Z</time>
      </trkpt>
      <trkpt lat="45.60918" lon="3.9522">
        <ele>958</ele>
        <time>2020-05-31T01:28:41Z</time>
      </trkpt>
      <trkpt lat="45.60964" lon="3.95245">
        <ele>956</ele>
        <time>2020-05-31T01:28:49Z</time>
      </trkpt>
      <trkpt lat="45.60985" lon="3.95237">
        <ele>956</ele>
        <time>2020-05-31T01:28:53Z</time>
      </trkpt>
      <trkpt lat="45.61002" lon="3.95219">
        <ele>955</ele>
        <time>2020-05-31T01:28:57Z</time>
      </trkpt>
      <trkpt lat="45.61086" lon="3.95099">
        <ele>950</ele>
        <time>2020-05-31T01:29:18Z</time>
      </trkpt>
      <trkpt lat="45.61147" lon="3.94981">
        <ele>949</ele>
        <time>2020-05-31T01:29:36Z</time>
      </trkpt>
      <trkpt lat="45.61152" lon="3.94969">
        <ele>948</ele>
        <time>2020-05-31T01:29:38Z</time>
      </trkpt>
      <trkpt lat="45.6119" lon="3.94981">
        <ele>947</ele>
        <time>2020-05-31T01:29:45Z</time>
      </trkpt>
      <trkpt lat="45.61233" lon="3.94992">
        <ele>946</ele>
        <time>2020-05-31T01:29:53Z</time>
      </trkpt>
      <trkpt lat="45.6125" lon="3.94983">
        <ele>945</ele>
        <time>2020-05-31T01:29:56Z</time>
      </trkpt>
      <trkpt lat="45.61267" lon="3.94982">
        <ele>944</ele>
        <time>2020-05-31T01:29:59Z</time>
      </trkpt>
      <trkpt lat="45.61304" lon="3.94987">
        <ele>943</ele>
        <time>2020-05-31T01:30:06Z</time>
      </trkpt>
      <trkpt lat="45.61312" lon="3.94978">
        <ele>942</ele>
        <time>2020-05-31T01:30:08Z</time>
      </trkpt>
      <trkpt lat="45.61323" lon="3.94953">
        <ele>940</ele>
        <time>2020-05-31T01:30:11Z</time>
      </trkpt>
      <trkpt lat="45.61325" lon="3.94927">
        <ele>939</ele>
        <time>2020-05-31T01:30:14Z</time>
      </trkpt>
      <trkpt lat="45.61307" lon="3.94881">
        <ele>938</ele>
        <time>2020-05-31T01:30:21Z</time>
      </trkpt>
      <trkpt lat="45.61306" lon="3.94862">
        <ele>938</ele>
        <time>2020-05-31T01:30:23Z</time>
      </trkpt>
      <trkpt lat="45.61311" lon="3.94849">
        <ele>937</ele>
        <time>2020-05-31T01:30:25Z</time>
      </trkpt>
      <trkpt lat="45.61322" lon="3.9484">
        <ele>936</ele>
        <time>2020-05-31T01:30:27Z</time>
      </trkpt>
      <trkpt lat="45.6133" lon="3.94838">
        <ele>935</ele>
        <time>2020-05-31T01:30:29Z</time>
      </trkpt>
      <trkpt lat="45.61339" lon="3.94845">
        <ele>935</ele>
        <time>2020-05-31T01:30:31Z</time>
      </trkpt>
      <trkpt lat="45.6136" lon="3.94878">
        <ele>933</ele>
        <time>2020-05-31T01:30:36Z</time>
      </trkpt>
      <trkpt lat="45.61371" lon="3.94891">
        <ele>931</ele>
        <time>2020-05-31T01:30:39Z</time>
      </trkpt>
      <trkpt lat="45.61379" lon="3.94891">
        <ele>930</ele>
        <time>2020-05-31T01:30:40Z</time>
      </trkpt>
      <trkpt lat="45.6139" lon="3.94878">
        <ele>928</ele>
        <time>2020-05-31T01:30:43Z</time>
      </trkpt>
      <trkpt lat="45.61393" lon="3.94864">
        <ele>928</ele>
        <time>2020-05-31T01:30:45Z</time>
      </trkpt>
      <trkpt lat="45.61393" lon="3.94849">
        <ele>928</ele>
        <time>2020-05-31T01:30:47Z</time>
      </trkpt>
      <trkpt lat="45.61375" lon="3.94794">
        <ele>930</ele>
        <time>2020-05-31T01:30:54Z</time>
      </trkpt>
      <trkpt lat="45.61387" lon="3.94774">
        <ele>929</ele>
        <time>2020-05-31T01:30:57Z</time>
      </trkpt>
      <trkpt lat="45.61393" lon="3.94789">
        <ele>929</ele>
        <time>2020-05-31T01:30:59Z</time>
      </trkpt>
      <trkpt lat="45.61441" lon="3.94824">
        <ele>927</ele>
        <time>2020-05-31T01:31:09Z</time>
      </trkpt>
      <trkpt lat="45.61454" lon="3.94846">
        <ele>926</ele>
        <time>2020-05-31T01:31:13Z</time>
      </trkpt>
      <trkpt lat="45.61467" lon="3.94876">
        <ele>923</ele>
        <time>2020-05-31T01:31:17Z</time>
      </trkpt>
      <trkpt lat="45.61491" lon="3.94907">
        <ele>918</ele>
        <time>2020-05-31T01:31:23Z</time>
      </trkpt>
      <trkpt lat="45.615" lon="3.94929">
        <ele>916</ele>
        <time>2020-05-31T01:31:26Z</time>
      </trkpt>
      <trkpt lat="45.61522" lon="3.95021">
        <ele>912</ele>
        <time>2020-05-31T01:31:38Z</time>
      </trkpt>
      <trkpt lat="45.61615" lon="3.95293">
        <ele>905</ele>
        <time>2020-05-31T01:32:16Z</time>
      </trkpt>
      <trkpt lat="45.61644" lon="3.95335">
        <ele>904</ele>
        <time>2020-05-31T01:32:23Z</time>
      </trkpt>
      <trkpt lat="45.61705" lon="3.95405">
        <ele>902</ele>
        <time>2020-05-31T01:32:37Z</time>
      </trkpt>
      <trkpt lat="45.61755" lon="3.95442">
        <ele>900</ele>
        <time>2020-05-31T01:32:47Z</time>
      </trkpt>
      <trkpt lat="45.61792" lon="3.95477">
        <ele>902</ele>
        <time>2020-05-31T01:32:55Z</time>
      </trkpt>
      <trkpt lat="45.61835" lon="3.95554">
        <ele>896</ele>
        <time>2020-05-31T01:33:07Z</time>
      </trkpt>
      <trkpt lat="45.61857" lon="3.95601">
        <ele>894</ele>
        <time>2020-05-31T01:33:14Z</time>
      </trkpt>
      <trkpt lat="45.61868" lon="3.95642">
        <ele>891</ele>
        <time>2020-05-31T01:33:20Z</time>
      </trkpt>
      <trkpt lat="45.61873" lon="3.95677">
        <ele>888</ele>
        <time>2020-05-31T01:33:24Z</time>
      </trkpt>
      <trkpt lat="45.61869" lon="3.95718">
        <ele>888</ele>
        <time>2020-05-31T01:33:29Z</time>
      </trkpt>
      <trkpt lat="45.61864" lon="3.95804">
        <ele>888</ele>
        <time>2020-05-31T01:33:40Z</time>
      </trkpt>
      <trkpt lat="45.61865" lon="3.95835">
        <ele>888</ele>
        <time>2020-05-31T01:33:44Z</time>
      </trkpt>
      <trkpt lat="45.61872" lon="3.95854">
        <ele>886</ele>
        <time>2020-05-31T01:33:47Z</time>
      </trkpt>
      <trkpt lat="45.61882" lon="3.95869">
        <ele>884</ele>
        <time>2020-05-31T01:33:49Z</time>
      </trkpt>
      <trkpt lat="45.61919" lon="3.95892">
        <ele>876</ele>
        <time>2020-05-31T01:33:56Z</time>
      </trkpt>
      <trkpt lat="45.61941" lon="3.95924">
        <ele>876</ele>
        <time>2020-05-31T01:34:02Z</time>
      </trkpt>
      <trkpt lat="45.61955" lon="3.95963">
        <ele>875</ele>
        <time>2020-05-31T01:34:07Z</time>
      </trkpt>
      <trkpt lat="45.62003" lon="3.9609">
        <ele>860</ele>
        <time>2020-05-31T01:34:25Z</time>
      </trkpt>
      <trkpt lat="45.62016" lon="3.96139">
        <ele>856</ele>
        <time>2020-05-31T01:34:32Z</time>
      </trkpt>
      <trkpt lat="45.6202" lon="3.96178">
        <ele>852</ele>
        <time>2020-05-31T01:34:37Z</time>
      </trkpt>
      <trkpt lat="45.62018" lon="3.96233">
        <ele>850</ele>
        <time>2020-05-31T01:34:44Z</time>
      </trkpt>
      <trkpt lat="45.62024" lon="3.96343">
        <ele>842</ele>
        <time>2020-05-31T01:34:57Z</time>
      </trkpt>
      <trkpt lat="45.62059" lon="3.96488">
        <ele>830</ele>
        <time>2020-05-31T01:35:16Z</time>
      </trkpt>
      <trkpt lat="45.6209" lon="3.96594">
        <ele>819</ele>
        <time>2020-05-31T01:35:31Z</time>
      </trkpt>
      <trkpt lat="45.62101" lon="3.96702">
        <ele>813</ele>
        <time>2020-05-31T01:35:44Z</time>
      </trkpt>
      <trkpt lat="45.62099" lon="3.9677">
        <ele>809</ele>
        <time>2020-05-31T01:35:53Z</time>
      </trkpt>
      <trkpt lat="45.62082" lon="3.96871">
        <ele>800</ele>
        <time>2020-05-31T01:36:06Z</time>
      </trkpt>
      <trkpt lat="45.62081" lon="3.96904">
        <ele>798</ele>
        <time>2020-05-31T01:36:10Z</time>
      </trkpt>
      <trkpt lat="45.62086" lon="3.96936">
        <ele>795</ele>
        <time>2020-05-31T01:36:14Z</time>
      </trkpt>
      <trkpt lat="45.62105" lon="3.96975">
        <ele>793</ele>
        <time>2020-05-31T01:36:20Z</time>
      </trkpt>
      <trkpt lat="45.6213" lon="3.97016">
        <ele>793</ele>
        <time>2020-05-31T01:36:27Z</time>
      </trkpt>
      <trkpt lat="45.62142" lon="3.97045">
        <ele>791</ele>
        <time>2020-05-31T01:36:31Z</time>
      </trkpt>
      <trkpt lat="45.62163" lon="3.97149">
        <ele>784</ele>
        <time>2020-05-31T01:36:44Z</time>
      </trkpt>
      <trkpt lat="45.62171" lon="3.97173">
        <ele>782</ele>
        <time>2020-05-31T01:36:48Z</time>
      </trkpt>
      <trkpt lat="45.62192" lon="3.97208">
        <ele>781</ele>
        <time>2020-05-31T01:36:53Z</time>
      </trkpt>
      <trkpt lat="45.62209" lon="3.97251">
        <ele>778</ele>
        <time>2020-05-31T01:36:59Z</time>
      </trkpt>
      <trkpt lat="45.62218" lon="3.9728">
        <ele>773</ele>
        <time>2020-05-31T01:37:03Z</time>
      </trkpt>
      <trkpt lat="45.62232" lon="3.97287">
        <ele>772</ele>
        <time>2020-05-31T01:37:06Z</time>
      </trkpt>
      <trkpt lat="45.62319" lon="3.97272">
        <ele>767</ele>
        <time>2020-05-31T01:37:22Z</time>
      </trkpt>
      <trkpt lat="45.62336" lon="3.97252">
        <ele>770</ele>
        <time>2020-05-31T01:37:26Z</time>
      </trkpt>
      <trkpt lat="45.62342" lon="3.97199">
        <ele>777</ele>
        <time>2020-05-31T01:37:32Z</time>
      </trkpt>
      <trkpt lat="45.62358" lon="3.97127">
        <ele>777</ele>
        <time>2020-05-31T01:37:42Z</time>
      </trkpt>
      <trkpt lat="45.6237" lon="3.97091">
        <ele>773</ele>
        <time>2020-05-31T01:37:47Z</time>
      </trkpt>
      <trkpt lat="45.62384" lon="3.97044">
        <ele>768</ele>
        <time>2020-05-31T01:37:53Z</time>
      </trkpt>
      <trkpt lat="45.62413" lon="3.96966">
        <ele>761</ele>
        <time>2020-05-31T01:38:04Z</time>
      </trkpt>
      <trkpt lat="45.6242" lon="3.96931">
        <ele>762</ele>
        <time>2020-05-31T01:38:08Z</time>
      </trkpt>
      <trkpt lat="45.62439" lon="3.96877">
        <ele>770</ele>
        <time>2020-05-31T01:38:16Z</time>
      </trkpt>
      <trkpt lat="45.62454" lon="3.96822">
        <ele>775</ele>
        <time>2020-05-31T01:38:23Z</time>
      </trkpt>
      <trkpt lat="45.62467" lon="3.96801">
        <ele>774</ele>
        <time>2020-05-31T01:38:27Z</time>
      </trkpt>
      <trkpt lat="45.62485" lon="3.9678">
        <ele>771</ele>
        <time>2020-05-31T01:38:31Z</time>
      </trkpt>
      <trkpt lat="45.62502" lon="3.96778">
        <ele>766</ele>
        <time>2020-05-31T01:38:34Z</time>
      </trkpt>
      <trkpt lat="45.62518" lon="3.96781">
        <ele>766</ele>
        <time>2020-05-31T01:38:37Z</time>
      </trkpt>
      <trkpt lat="45.6253" lon="3.96764">
        <ele>767</ele>
        <time>2020-05-31T01:38:40Z</time>
      </trkpt>
      <trkpt lat="45.62539" lon="3.96732">
        <ele>771</ele>
        <time>2020-05-31T01:38:44Z</time>
      </trkpt>
      <trkpt lat="45.62542" lon="3.96695">
        <ele>777</ele>
        <time>2020-05-31T01:38:49Z</time>
      </trkpt>
      <trkpt lat="45.62551" lon="3.96659">
        <ele>783</ele>
        <time>2020-05-31T01:38:54Z</time>
      </trkpt>
      <trkpt lat="45.62565" lon="3.9663">
        <ele>788</ele>
        <time>2020-05-31T01:38:58Z</time>
      </trkpt>
      <trkpt lat="45.62643" lon="3.96584">
        <ele>781</ele>
        <time>2020-05-31T01:39:13Z</time>
      </trkpt>
      <trkpt lat="45.62678" lon="3.9657">
        <ele>778</ele>
        <time>2020-05-31T01:39:19Z</time>
      </trkpt>
      <trkpt lat="45.62688" lon="3.96551">
        <ele>781</ele>
        <time>2020-05-31T01:39:22Z</time>
      </trkpt>
      <trkpt lat="45.62709" lon="3.96466">
        <ele>787</ele>
        <time>2020-05-31T01:39:34Z</time>
      </trkpt>
      <trkpt lat="45.62722" lon="3.96437">
        <ele>784</ele>
        <time>2020-05-31T01:39:38Z</time>
      </trkpt>
      <trkpt lat="45.6274" lon="3.96426">
        <ele>778</ele>
        <time>2020-05-31T01:39:41Z</time>
      </trkpt>
      <trkpt lat="45.62751" lon="3.96439">
        <ele>774</ele>
        <time>2020-05-31T01:39:44Z</time>
      </trkpt>
      <trkpt lat="45.62756" lon="3.96456">
        <ele>776</ele>
        <time>2020-05-31T01:39:46Z</time>
      </trkpt>
      <trkpt lat="45.62758" lon="3.96488">
        <ele>777</ele>
        <time>2020-05-31T01:39:50Z</time>
      </trkpt>
      <trkpt lat="45.62746" lon="3.96567">
        <ele>776</ele>
        <time>2020-05-31T01:40:00Z</time>
      </trkpt>
      <trkpt lat="45.62745" lon="3.96601">
        <ele>779</ele>
        <time>2020-05-31T01:40:04Z</time>
      </trkpt>
      <trkpt lat="45.62738" lon="3.96629">
        <ele>783</ele>
        <time>2020-05-31T01:40:08Z</time>
      </trkpt>
      <trkpt lat="45.6272" lon="3.96664">
        <ele>785</ele>
        <time>2020-05-31T01:40:14Z</time>
      </trkpt>
      <trkpt lat="45.62691" lon="3.9669">
        <ele>784</ele>
        <time>2020-05-31T01:40:20Z</time>
      </trkpt>
      <trkpt lat="45.62668" lon="3.96715">
        <ele>783</ele>
        <time>2020-05-31T01:40:25Z</time>
      </trkpt>
      <trkpt lat="45.62653" lon="3.96736">
        <ele>783</ele>
        <time>2020-05-31T01:40:29Z</time>
      </trkpt>
      <trkpt lat="45.62643" lon="3.96766">
        <ele>783</ele>
        <time>2020-05-31T01:40:33Z</time>
      </trkpt>
      <trkpt lat="45.62634" lon="3.96811">
        <ele>785</ele>
        <time>2020-05-31T01:40:39Z</time>
      </trkpt>
      <trkpt lat="45.62627" lon="3.96836">
        <ele>786</ele>
        <time>2020-05-31T01:40:42Z</time>
      </trkpt>
      <trkpt lat="45.62618" lon="3.96858">
        <ele>787</ele>
        <time>2020-05-31T01:40:45Z</time>
      </trkpt>
      <trkpt lat="45.62607" lon="3.96878">
        <ele>787</ele>
        <time>2020-05-31T01:40:48Z</time>
      </trkpt>
      <trkpt lat="45.62596" lon="3.9689">
        <ele>785</ele>
        <time>2020-05-31T01:40:51Z</time>
      </trkpt>
      <trkpt lat="45.62587" lon="3.96907">
        <ele>785</ele>
        <time>2020-05-31T01:40:53Z</time>
      </trkpt>
      <trkpt lat="45.62584" lon="3.96928">
        <ele>785</ele>
        <time>2020-05-31T01:40:56Z</time>
      </trkpt>
      <trkpt lat="45.62586" lon="3.9696">
        <ele>787</ele>
        <time>2020-05-31T01:41:00Z</time>
      </trkpt>
      <trkpt lat="45.62593" lon="3.96995">
        <ele>790</ele>
        <time>2020-05-31T01:41:05Z</time>
      </trkpt>
      <trkpt lat="45.62596" lon="3.97041">
        <ele>792</ele>
        <time>2020-05-31T01:41:10Z</time>
      </trkpt>
      <trkpt lat="45.62596" lon="3.97078">
        <ele>793</ele>
        <time>2020-05-31T01:41:15Z</time>
      </trkpt>
      <trkpt lat="45.6259" lon="3.97142">
        <ele>797</ele>
        <time>2020-05-31T01:41:23Z</time>
      </trkpt>
      <trkpt lat="45.62577" lon="3.97249">
        <ele>801</ele>
        <time>2020-05-31T01:41:36Z</time>
      </trkpt>
      <trkpt lat="45.62566" lon="3.97288">
        <ele>802</ele>
        <time>2020-05-31T01:41:42Z</time>
      </trkpt>
      <trkpt lat="45.62528" lon="3.97346">
        <ele>801</ele>
        <time>2020-05-31T01:41:52Z</time>
      </trkpt>
      <trkpt lat="45.62497" lon="3.97421">
        <ele>806</ele>
        <time>2020-05-31T01:42:02Z</time>
      </trkpt>
      <trkpt lat="45.62496" lon="3.97445">
        <ele>805</ele>
        <time>2020-05-31T01:42:05Z</time>
      </trkpt>
      <trkpt lat="45.62506" lon="3.97464">
        <ele>805</ele>
        <time>2020-05-31T01:42:08Z</time>
      </trkpt>
      <trkpt lat="45.62526" lon="3.97479">
        <ele>805</ele>
        <time>2020-05-31T01:42:12Z</time>
      </trkpt>
      <trkpt lat="45.62545" lon="3.97476">
        <ele>806</ele>
        <time>2020-05-31T01:42:16Z</time>
      </trkpt>
      <trkpt lat="45.62575" lon="3.97455">
        <ele>810</ele>
        <time>2020-05-31T01:42:22Z</time>
      </trkpt>
      <trkpt lat="45.62614" lon="3.97416">
        <ele>813</ele>
        <time>2020-05-31T01:42:30Z</time>
      </trkpt>
      <trkpt lat="45.62626" lon="3.9739">
        <ele>813</ele>
        <time>2020-05-31T01:42:34Z</time>
      </trkpt>
      <trkpt lat="45.62665" lon="3.9721">
        <ele>826</ele>
        <time>2020-05-31T01:42:57Z</time>
      </trkpt>
      <trkpt lat="45.62702" lon="3.97025">
        <ele>834</ele>
        <time>2020-05-31T01:43:21Z</time>
      </trkpt>
      <trkpt lat="45.6271" lon="3.96999">
        <ele>836</ele>
        <time>2020-05-31T01:43:25Z</time>
      </trkpt>
      <trkpt lat="45.62721" lon="3.96973">
        <ele>836</ele>
        <time>2020-05-31T01:43:29Z</time>
      </trkpt>
      <trkpt lat="45.62731" lon="3.96955">
        <ele>837</ele>
        <time>2020-05-31T01:43:32Z</time>
      </trkpt>
      <trkpt lat="45.62758" lon="3.96919">
        <ele>841</ele>
        <time>2020-05-31T01:43:38Z</time>
      </trkpt>
      <trkpt lat="45.62831" lon="3.96831">
        <ele>845</ele>
        <time>2020-05-31T01:43:55Z</time>
      </trkpt>
      <trkpt lat="45.62865" lon="3.96763">
        <ele>846</ele>
        <time>2020-05-31T01:44:06Z</time>
      </trkpt>
      <trkpt lat="45.62882" lon="3.96731">
        <ele>847</ele>
        <time>2020-05-31T01:44:11Z</time>
      </trkpt>
      <trkpt lat="45.62924" lon="3.96674">
        <ele>851</ele>
        <time>2020-05-31T01:44:21Z</time>
      </trkpt>
      <trkpt lat="45.62947" lon="3.96635">
        <ele>854</ele>
        <time>2020-05-31T01:44:27Z</time>
      </trkpt>
      <trkpt lat="45.62984" lon="3.96586">
        <ele>858</ele>
        <time>2020-05-31T01:44:36Z</time>
      </trkpt>
      <trkpt lat="45.63021" lon="3.96567">
        <ele>869</ele>
        <time>2020-05-31T01:44:43Z</time>
      </trkpt>
      <trkpt lat="45.6303" lon="3.9655">
        <ele>870</ele>
        <time>2020-05-31T01:44:46Z</time>
      </trkpt>
      <trkpt lat="45.63037" lon="3.96533">
        <ele>870</ele>
        <time>2020-05-31T01:44:48Z</time>
      </trkpt>
      <trkpt lat="45.63039" lon="3.9651">
        <ele>867</ele>
        <time>2020-05-31T01:44:51Z</time>
      </trkpt>
      <trkpt lat="45.63039" lon="3.96478">
        <ele>864</ele>
        <time>2020-05-31T01:44:55Z</time>
      </trkpt>
      <trkpt lat="45.63041" lon="3.96443">
        <ele>861</ele>
        <time>2020-05-31T01:45:00Z</time>
      </trkpt>
      <trkpt lat="45.6305" lon="3.96378">
        <ele>862</ele>
        <time>2020-05-31T01:45:08Z</time>
      </trkpt>
      <trkpt lat="45.63063" lon="3.96314">
        <ele>867</ele>
        <time>2020-05-31T01:45:16Z</time>
      </trkpt>
      <trkpt lat="45.63072" lon="3.96282">
        <ele>870</ele>
        <time>2020-05-31T01:45:20Z</time>
      </trkpt>
      <trkpt lat="45.63083" lon="3.96229">
        <ele>873</ele>
        <time>2020-05-31T01:45:27Z</time>
      </trkpt>
      <trkpt lat="45.63094" lon="3.96163">
        <ele>875</ele>
        <time>2020-05-31T01:45:36Z</time>
      </trkpt>
      <trkpt lat="45.63101" lon="3.96115">
        <ele>877</ele>
        <time>2020-05-31T01:45:42Z</time>
      </trkpt>
      <trkpt lat="45.63102" lon="3.96077">
        <ele>877</ele>
        <time>2020-05-31T01:45:47Z</time>
      </trkpt>
      <trkpt lat="45.63102" lon="3.96018">
        <ele>878</ele>
        <time>2020-05-31T01:45:54Z</time>
      </trkpt>
      <trkpt lat="45.63098" lon="3.95971">
        <ele>878</ele>
        <time>2020-05-31T01:46:00Z</time>
      </trkpt>
      <trkpt lat="45.63097" lon="3.95937">
        <ele>880</ele>
        <time>2020-05-31T01:46:04Z</time>
      </trkpt>
      <trkpt lat="45.63101" lon="3.9591">
        <ele>882</ele>
        <time>2020-05-31T01:46:07Z</time>
      </trkpt>
      <trkpt lat="45.6311" lon="3.95866">
        <ele>886</ele>
        <time>2020-05-31T01:46:13Z</time>
      </trkpt>
      <trkpt lat="45.63109" lon="3.9585">
        <ele>887</ele>
        <time>2020-05-31T01:46:15Z</time>
      </trkpt>
      <trkpt lat="45.631" lon="3.95832">
        <ele>886</ele>
        <time>2020-05-31T01:46:18Z</time>
      </trkpt>
      <trkpt lat="45.63096" lon="3.95813">
        <ele>885</ele>
        <time>2020-05-31T01:46:20Z</time>
      </trkpt>
      <trkpt lat="45.63096" lon="3.95788">
        <ele>886</ele>
        <time>2020-05-31T01:46:23Z</time>
      </trkpt>
      <trkpt lat="45.63101" lon="3.95745">
        <ele>888</ele>
        <time>2020-05-31T01:46:29Z</time>
      </trkpt>
      <trkpt lat="45.63101" lon="3.95714">
        <ele>890</ele>
        <time>2020-05-31T01:46:33Z</time>
      </trkpt>
      <trkpt lat="45.63089" lon="3.95568">
        <ele>898</ele>
        <time>2020-05-31T01:46:51Z</time>
      </trkpt>
      <trkpt lat="45.63082" lon="3.9554">
        <ele>900</ele>
        <time>2020-05-31T01:46:55Z</time>
      </trkpt>
      <trkpt lat="45.63065" lon="3.95488">
        <ele>899</ele>
        <time>2020-05-31T01:47:02Z</time>
      </trkpt>
      <trkpt lat="45.63065" lon="3.95471">
        <ele>900</ele>
        <time>2020-05-31T01:47:04Z</time>
      </trkpt>
      <trkpt lat="45.63073" lon="3.95456">
        <ele>904</ele>
        <time>2020-05-31T01:47:06Z</time>
      </trkpt>
      <trkpt lat="45.63082" lon="3.9545">
        <ele>908</ele>
        <time>2020-05-31T01:47:08Z</time>
      </trkpt>
      <trkpt lat="45.63093" lon="3.95454">
        <ele>910</ele>
        <time>2020-05-31T01:47:10Z</time>
      </trkpt>
      <trkpt lat="45.63102" lon="3.95469">
        <ele>910</ele>
        <time>2020-05-31T01:47:13Z</time>
      </trkpt>
      <trkpt lat="45.63125" lon="3.95542">
        <ele>908</ele>
        <time>2020-05-31T01:47:23Z</time>
      </trkpt>
      <trkpt lat="45.63137" lon="3.95564">
        <ele>909</ele>
        <time>2020-05-31T01:47:26Z</time>
      </trkpt>
      <trkpt lat="45.63206" lon="3.95625">
        <ele>917</ele>
        <time>2020-05-31T01:47:40Z</time>
      </trkpt>
      <trkpt lat="45.63234" lon="3.95656">
        <ele>920</ele>
        <time>2020-05-31T01:47:47Z</time>
      </trkpt>
      <trkpt lat="45.63251" lon="3.95682">
        <ele>921</ele>
        <time>2020-05-31T01:47:51Z</time>
      </trkpt>
      <trkpt lat="45.63276" lon="3.95741">
        <ele>920</ele>
        <time>2020-05-31T01:48:00Z</time>
      </trkpt>
      <trkpt lat="45.6329" lon="3.95782">
        <ele>920</ele>
        <time>2020-05-31T01:48:05Z</time>
      </trkpt>
      <trkpt lat="45.63302" lon="3.95809">
        <ele>921</ele>
        <time>2020-05-31T01:48:09Z</time>
      </trkpt>
      <trkpt lat="45.63316" lon="3.95836">
        <ele>922</ele>
        <time>2020-05-31T01:48:14Z</time>
      </trkpt>
      <trkpt lat="45.63333" lon="3.95859">
        <ele>924</ele>
        <time>2020-05-31T01:48:18Z</time>
      </trkpt>
      <trkpt lat="45.6335" lon="3.95874">
        <ele>924</ele>
        <time>2020-05-31T01:48:21Z</time>
      </trkpt>
      <trkpt lat="45.6336" lon="3.9589">
        <ele>924</ele>
        <time>2020-05-31T01:48:24Z</time>
      </trkpt>
      <trkpt lat="45.63373" lon="3.9593">
        <ele>922</ele>
        <time>2020-05-31T01:48:29Z</time>
      </trkpt>
      <trkpt lat="45.63383" lon="3.95937">
        <ele>922</ele>
        <time>2020-05-31T01:48:31Z</time>
      </trkpt>
      <trkpt lat="45.63396" lon="3.95942">
        <ele>922</ele>
        <time>2020-05-31T01:48:34Z</time>
      </trkpt>
      <trkpt lat="45.6342" lon="3.96079">
        <ele>919</ele>
        <time>2020-05-31T01:48:51Z</time>
      </trkpt>
      <trkpt lat="45.63438" lon="3.96166">
        <ele>915</ele>
        <time>2020-05-31T01:49:03Z</time>
      </trkpt>
      <trkpt lat="45.63446" lon="3.96181">
        <ele>915</ele>
        <time>2020-05-31T01:49:05Z</time>
      </trkpt>
      <trkpt lat="45.63494" lon="3.96238">
        <ele>912</ele>
        <time>2020-05-31T01:49:16Z</time>
      </trkpt>
      <trkpt lat="45.63525" lon="3.96282">
        <ele>909</ele>
        <time>2020-05-31T01:49:24Z</time>
      </trkpt>
      <trkpt lat="45.63494" lon="3.96238">
        <ele>912</ele>
        <time>2020-05-31T01:49:32Z</time>
      </trkpt>
      <trkpt lat="45.63446" lon="3.96181">
        <ele>915</ele>
        <time>2020-05-31T01:49:43Z</time>
      </trkpt>
      <trkpt lat="45.63438" lon="3.96166">
        <ele>915</ele>
        <time>2020-05-31T01:49:45Z</time>
      </trkpt>
      <trkpt lat="45.6342" lon="3.96079">
        <ele>919</ele>
        <time>2020-05-31T01:49:56Z</time>
      </trkpt>
      <trkpt lat="45.63396" lon="3.95942">
        <ele>922</ele>
        <time>2020-05-31T01:50:14Z</time>
      </trkpt>
      <trkpt lat="45.63398" lon="3.95931">
        <ele>923</ele>
        <time>2020-05-31T01:50:15Z</time>
      </trkpt>
      <trkpt lat="45.63461" lon="3.95934">
        <ele>923</ele>
        <time>2020-05-31T01:50:27Z</time>
      </trkpt>
      <trkpt lat="45.63491" lon="3.95929">
        <ele>924</ele>
        <time>2020-05-31T01:50:32Z</time>
      </trkpt>
      <trkpt lat="45.63521" lon="3.95912">
        <ele>925</ele>
        <time>2020-05-31T01:50:38Z</time>
      </trkpt>
      <trkpt lat="45.63575" lon="3.95874">
        <ele>925</ele>
        <time>2020-05-31T01:50:48Z</time>
      </trkpt>
      <trkpt lat="45.6362" lon="3.95846">
        <ele>926</ele>
        <time>2020-05-31T01:50:57Z</time>
      </trkpt>
      <trkpt lat="45.6367" lon="3.95831">
        <ele>925</ele>
        <time>2020-05-31T01:51:06Z</time>
      </trkpt>
      <trkpt lat="45.63722" lon="3.95818">
        <ele>923</ele>
        <time>2020-05-31T01:51:16Z</time>
      </trkpt>
      <trkpt lat="45.63833" lon="3.95725">
        <ele>923</ele>
        <time>2020-05-31T01:51:39Z</time>
      </trkpt>
      <trkpt lat="45.63881" lon="3.9564">
        <ele>928</ele>
        <time>2020-05-31T01:51:52Z</time>
      </trkpt>
      <trkpt lat="45.63916" lon="3.95569">
        <ele>928</ele>
        <time>2020-05-31T01:52:03Z</time>
      </trkpt>
      <trkpt lat="45.63932" lon="3.95511">
        <ele>930</ele>
        <time>2020-05-31T01:52:11Z</time>
      </trkpt>
      <trkpt lat="45.6395" lon="3.9541">
        <ele>935</ele>
        <time>2020-05-31T01:52:24Z</time>
      </trkpt>
      <trkpt lat="45.63962" lon="3.95374">
        <ele>937</ele>
        <time>2020-05-31T01:52:29Z</time>
      </trkpt>
      <trkpt lat="45.63975" lon="3.95351">
        <ele>938</ele>
        <time>2020-05-31T01:52:32Z</time>
      </trkpt>
      <trkpt lat="45.64008" lon="3.95336">
        <ele>938</ele>
        <time>2020-05-31T01:52:38Z</time>
      </trkpt>
      <trkpt lat="45.64094" lon="3.95359">
        <ele>939</ele>
        <time>2020-05-31T01:52:54Z</time>
      </trkpt>
      <trkpt lat="45.64144" lon="3.95365">
        <ele>941</ele>
        <time>2020-05-31T01:53:03Z</time>
      </trkpt>
      <trkpt lat="45.64217" lon="3.95367">
        <ele>944</ele>
        <time>2020-05-31T01:53:16Z</time>
      </trkpt>
      <trkpt lat="45.64261" lon="3.95371">
        <ele>946</ele>
        <time>2020-05-31T01:53:24Z</time>
      </trkpt>
      <trkpt lat="45.6428" lon="3.95368">
        <ele>946</ele>
        <time>2020-05-31T01:53:27Z</time>
      </trkpt>
      <trkpt lat="45.64298" lon="3.95356">
        <ele>946</ele>
        <time>2020-05-31T01:53:31Z</time>
      </trkpt>
      <trkpt lat="45.64311" lon="3.9534">
        <ele>946</ele>
        <time>2020-05-31T01:53:34Z</time>
      </trkpt>
      <trkpt lat="45.64317" lon="3.95329">
        <ele>946</ele>
        <time>2020-05-31T01:53:36Z</time>
      </trkpt>
      <trkpt lat="45.64325" lon="3.95305">
        <ele>947</ele>
        <time>2020-05-31T01:53:39Z</time>
      </trkpt>
      <trkpt lat="45.64341" lon="3.95202">
        <ele>949</ele>
        <time>2020-05-31T01:53:52Z</time>
      </trkpt>
      <trkpt lat="45.64351" lon="3.95168">
        <ele>947</ele>
        <time>2020-05-31T01:53:57Z</time>
      </trkpt>
      <trkpt lat="45.64384" lon="3.95092">
        <ele>949</ele>
        <time>2020-05-31T01:54:08Z</time>
      </trkpt>
      <trkpt lat="45.6444" lon="3.94992">
        <ele>954</ele>
        <time>2020-05-31T01:54:24Z</time>
      </trkpt>
      <trkpt lat="45.64584" lon="3.94803">
        <ele>951</ele>
        <time>2020-05-31T01:54:58Z</time>
      </trkpt>
      <trkpt lat="45.64615" lon="3.94773">
        <ele>955</ele>
        <time>2020-05-31T01:55:05Z</time>
      </trkpt>
      <trkpt lat="45.64644" lon="3.94762">
        <ele>957</ele>
        <time>2020-05-31T01:55:10Z</time>
      </trkpt>
      <trkpt lat="45.64681" lon="3.94758">
        <ele>955</ele>
        <time>2020-05-31T01:55:17Z</time>
      </trkpt>
      <trkpt lat="45.64725" lon="3.94747">
        <ele>954</ele>
        <time>2020-05-31T01:55:25Z</time>
      </trkpt>
      <trkpt lat="45.64809" lon="3.9467">
        <ele>961</ele>
        <time>2020-05-31T01:55:43Z</time>
      </trkpt>
      <trkpt lat="45.64867" lon="3.94612">
        <ele>968</ele>
        <time>2020-05-31T01:55:55Z</time>
      </trkpt>
      <trkpt lat="45.64918" lon="3.94593">
        <ele>965</ele>
        <time>2020-05-31T01:56:05Z</time>
      </trkpt>
      <trkpt lat="45.64944" lon="3.94593">
        <ele>966</ele>
        <time>2020-05-31T01:56:09Z</time>
      </trkpt>
      <trkpt lat="45.64977" lon="3.94614">
        <ele>962</ele>
        <time>2020-05-31T01:56:16Z</time>
      </trkpt>
      <trkpt lat="45.65001" lon="3.94633">
        <ele>959</ele>
        <time>2020-05-31T01:56:21Z</time>
      </trkpt>
      <trkpt lat="45.65031" lon="3.94631">
        <ele>956</ele>
        <time>2020-05-31T01:56:26Z</time>
      </trkpt>
      <trkpt lat="45.65049" lon="3.94623">
        <ele>956</ele>
        <time>2020-05-31T01:56:29Z</time>
      </trkpt>
      <trkpt lat="45.65077" lon="3.94586">
        <ele>959</ele>
        <time>2020-05-31T01:56:36Z</time>
      </trkpt>
      <trkpt lat="45.65098" lon="3.94545">
        <ele>963</ele>
        <time>2020-05-31T01:56:42Z</time>
      </trkpt>
      <trkpt lat="45.65121" lon="3.94515">
        <ele>963</ele>
        <time>2020-05-31T01:56:48Z</time>
      </trkpt>
      <trkpt lat="45.65152" lon="3.94487">
        <ele>961</ele>
        <time>2020-05-31T01:56:54Z</time>
      </trkpt>
      <trkpt lat="45.65182" lon="3.94449">
        <ele>961</ele>
        <time>2020-05-31T01:57:02Z</time>
      </trkpt>
      <trkpt lat="45.65197" lon="3.94399">
        <ele>964</ele>
        <time>2020-05-31T01:57:08Z</time>
      </trkpt>
      <trkpt lat="45.65197" lon="3.94352">
        <ele>969</ele>
        <time>2020-05-31T01:57:14Z</time>
      </trkpt>
      <trkpt lat="45.65208" lon="3.94314">
        <ele>972</ele>
        <time>2020-05-31T01:57:19Z</time>
      </trkpt>
      <trkpt lat="45.65229" lon="3.94294">
        <ele>973</ele>
        <time>2020-05-31T01:57:24Z</time>
      </trkpt>
      <trkpt lat="45.65257" lon="3.94301">
        <ele>972</ele>
        <time>2020-05-31T01:57:29Z</time>
      </trkpt>
      <trkpt lat="45.65287" lon="3.9432">
        <ele>975</ele>
        <time>2020-05-31T01:57:35Z</time>
      </trkpt>
      <trkpt lat="45.65343" lon="3.94344">
        <ele>981</ele>
        <time>2020-05-31T01:57:45Z</time>
      </trkpt>
      <trkpt lat="45.65365" lon="3.94372">
        <ele>982</ele>
        <time>2020-05-31T01:57:50Z</time>
      </trkpt>
      <trkpt lat="45.65398" lon="3.94442">
        <ele>982</ele>
        <time>2020-05-31T01:58:01Z</time>
      </trkpt>
      <trkpt lat="45.6541" lon="3.94505">
        <ele>982</ele>
        <time>2020-05-31T01:58:09Z</time>
      </trkpt>
      <trkpt lat="45.65416" lon="3.94569">
        <ele>983</ele>
        <time>2020-05-31T01:58:17Z</time>
      </trkpt>
      <trkpt lat="45.65412" lon="3.94648">
        <ele>985</ele>
        <time>2020-05-31T01:58:27Z</time>
      </trkpt>
      <trkpt lat="45.65403" lon="3.94766">
        <ele>985</ele>
        <time>2020-05-31T01:58:42Z</time>
      </trkpt>
      <trkpt lat="45.65406" lon="3.94822">
        <ele>985</ele>
        <time>2020-05-31T01:58:49Z</time>
      </trkpt>
      <trkpt lat="45.65422" lon="3.94865">
        <ele>986</ele>
        <time>2020-05-31T01:58:55Z</time>
      </trkpt>
      <trkpt lat="45.65449" lon="3.94906">
        <ele>987</ele>
        <time>2020-05-31T01:59:02Z</time>
      </trkpt>
      <trkpt lat="45.65505" lon="3.94953">
        <ele>989</ele>
        <time>2020-05-31T01:59:13Z</time>
      </trkpt>
      <trkpt lat="45.65536" lon="3.94959">
        <ele>990</ele>
        <time>2020-05-31T01:59:19Z</time>
      </trkpt>
      <trkpt lat="45.6559" lon="3.94962">
        <ele>992</ele>
        <time>2020-05-31T01:59:28Z</time>
      </trkpt>
      <trkpt lat="45.65639" lon="3.94923">
        <ele>994</ele>
        <time>2020-05-31T01:59:38Z</time>
      </trkpt>
      <trkpt lat="45.65673" lon="3.94868">
        <ele>997</ele>
        <time>2020-05-31T01:59:47Z</time>
      </trkpt>
      <trkpt lat="45.65696" lon="3.94818">
        <ele>1000</ele>
        <time>2020-05-31T01:59:55Z</time>
      </trkpt>
      <trkpt lat="45.65738" lon="3.94741">
        <ele>1005</ele>
        <time>2020-05-31T02:00:07Z</time>
      </trkpt>
      <trkpt lat="45.65818" lon="3.94551">
        <ele>1015</ele>
        <time>2020-05-31T02:00:35Z</time>
      </trkpt>
      <trkpt lat="45.65876" lon="3.94467">
        <ele>1021</ele>
        <time>2020-05-31T02:00:49Z</time>
      </trkpt>
      <trkpt lat="45.65931" lon="3.94432">
        <ele>1023</ele>
        <time>2020-05-31T02:01:00Z</time>
      </trkpt>
      <trkpt lat="45.6597" lon="3.94405">
        <ele>1028</ele>
        <time>2020-05-31T02:01:08Z</time>
      </trkpt>
      <trkpt lat="45.65978" lon="3.94406">
        <ele>1028</ele>
        <time>2020-05-31T02:01:09Z</time>
      </trkpt>
      <trkpt lat="45.65995" lon="3.94412">
        <ele>1028</ele>
        <time>2020-05-31T02:01:12Z</time>
      </trkpt>
      <trkpt lat="45.66036" lon="3.94417">
        <ele>1030</ele>
        <time>2020-05-31T02:01:20Z</time>
      </trkpt>
      <trkpt lat="45.66047" lon="3.94445">
        <ele>1025</ele>
        <time>2020-05-31T02:01:24Z</time>
      </trkpt>
      <trkpt lat="45.66101" lon="3.94509">
        <ele>1021</ele>
        <time>2020-05-31T02:01:36Z</time>
      </trkpt>
      <trkpt lat="45.66141" lon="3.94567">
        <ele>1014</ele>
        <time>2020-05-31T02:01:46Z</time>
      </trkpt>
      <trkpt lat="45.66217" lon="3.94618">
        <ele>1006</ele>
        <time>2020-05-31T02:02:01Z</time>
      </trkpt>
      <trkpt lat="45.66237" lon="3.94627">
        <ele>1005</ele>
        <time>2020-05-31T02:02:05Z</time>
      </trkpt>
      <trkpt lat="45.66256" lon="3.94625">
        <ele>1006</ele>
        <time>2020-05-31T02:02:08Z</time>
      </trkpt>
      <trkpt lat="45.66365" lon="3.94601">
        <ele>1002</ele>
        <time>2020-05-31T02:02:28Z</time>
      </trkpt>
      <trkpt lat="45.6639" lon="3.94602">
        <ele>1000</ele>
        <time>2020-05-31T02:02:32Z</time>
      </trkpt>
      <trkpt lat="45.66476" lon="3.94632">
        <ele>993</ele>
        <time>2020-05-31T02:02:48Z</time>
      </trkpt>
      <trkpt lat="45.66498" lon="3.94645">
        <ele>992</ele>
        <time>2020-05-31T02:02:52Z</time>
      </trkpt>
      <trkpt lat="45.6652" lon="3.94671">
        <ele>991</ele>
        <time>2020-05-31T02:02:57Z</time>
      </trkpt>
      <trkpt lat="45.66528" lon="3.9469">
        <ele>989</ele>
        <time>2020-05-31T02:03:00Z</time>
      </trkpt>
      <trkpt lat="45.66535" lon="3.94714">
        <ele>988</ele>
        <time>2020-05-31T02:03:03Z</time>
      </trkpt>
      <trkpt lat="45.66549" lon="3.94807">
        <ele>982</ele>
        <time>2020-05-31T02:03:15Z</time>
      </trkpt>
      <trkpt lat="45.66579" lon="3.94946">
        <ele>973</ele>
        <time>2020-05-31T02:03:33Z</time>
      </trkpt>
      <trkpt lat="45.66604" lon="3.94995">
        <ele>970</ele>
        <time>2020-05-31T02:03:41Z</time>
      </trkpt>
      <trkpt lat="45.66635" lon="3.95043">
        <ele>966</ele>
        <time>2020-05-31T02:03:49Z</time>
      </trkpt>
      <trkpt lat="45.66663" lon="3.95101">
        <ele>963</ele>
        <time>2020-05-31T02:03:58Z</time>
      </trkpt>
      <trkpt lat="45.66683" lon="3.95148">
        <ele>962</ele>
        <time>2020-05-31T02:04:05Z</time>
      </trkpt>
      <trkpt lat="45.66703" lon="3.9521">
        <ele>959</ele>
        <time>2020-05-31T02:04:13Z</time>
      </trkpt>
      <trkpt lat="45.66719" lon="3.95273">
        <ele>955</ele>
        <time>2020-05-31T02:04:21Z</time>
      </trkpt>
      <trkpt lat="45.66732" lon="3.95306">
        <ele>953</ele>
        <time>2020-05-31T02:04:26Z</time>
      </trkpt>
      <trkpt lat="45.66825" lon="3.95441">
        <ele>944</ele>
        <time>2020-05-31T02:04:50Z</time>
      </trkpt>
      <trkpt lat="45.66845" lon="3.95498">
        <ele>942</ele>
        <time>2020-05-31T02:04:58Z</time>
      </trkpt>
      <trkpt lat="45.66885" lon="3.95657">
        <ele>934</ele>
        <time>2020-05-31T02:05:19Z</time>
      </trkpt>
      <trkpt lat="45.66897" lon="3.95685">
        <ele>933</ele>
        <time>2020-05-31T02:05:23Z</time>
      </trkpt>
      <trkpt lat="45.66937" lon="3.95734">
        <ele>933</ele>
        <time>2020-05-31T02:05:32Z</time>
      </trkpt>
      <trkpt lat="45.66953" lon="3.95778">
        <ele>931</ele>
        <time>2020-05-31T02:05:38Z</time>
      </trkpt>
      <trkpt lat="45.66963" lon="3.95825">
        <ele>927</ele>
        <time>2020-05-31T02:05:44Z</time>
      </trkpt>
      <trkpt lat="45.66981" lon="3.95874">
        <ele>923</ele>
        <time>2020-05-31T02:05:51Z</time>
      </trkpt>
      <trkpt lat="45.67025" lon="3.9592">
        <ele>919</ele>
        <time>2020-05-31T02:06:01Z</time>
      </trkpt>
      <trkpt lat="45.67072" lon="3.95961">
        <ele>917</ele>
        <time>2020-05-31T02:06:11Z</time>
      </trkpt>
      <trkpt lat="45.67097" lon="3.95974">
        <ele>915</ele>
        <time>2020-05-31T02:06:15Z</time>
      </trkpt>
      <trkpt lat="45.6712" lon="3.9598">
        <ele>914</ele>
        <time>2020-05-31T02:06:20Z</time>
      </trkpt>
      <trkpt lat="45.67146" lon="3.95978">
        <ele>913</ele>
        <time>2020-05-31T02:06:24Z</time>
      </trkpt>
      <trkpt lat="45.6717" lon="3.95971">
        <ele>913</ele>
        <time>2020-05-31T02:06:29Z</time>
      </trkpt>
      <trkpt lat="45.67193" lon="3.95973">
        <ele>914</ele>
        <time>2020-05-31T02:06:33Z</time>
      </trkpt>
      <trkpt lat="45.67207" lon="3.95984">
        <ele>913</ele>
        <time>2020-05-31T02:06:36Z</time>
      </trkpt>
      <trkpt lat="45.67215" lon="3.96001">
        <ele>911</ele>
        <time>2020-05-31T02:06:38Z</time>
      </trkpt>
      <trkpt lat="45.6722" lon="3.96018">
        <ele>908</ele>
        <time>2020-05-31T02:06:40Z</time>
      </trkpt>
      <trkpt lat="45.67235" lon="3.96051">
        <ele>904</ele>
        <time>2020-05-31T02:06:45Z</time>
      </trkpt>
      <trkpt lat="45.67253" lon="3.96072">
        <ele>902</ele>
        <time>2020-05-31T02:06:49Z</time>
      </trkpt>
      <trkpt lat="45.67277" lon="3.96087">
        <ele>901</ele>
        <time>2020-05-31T02:06:54Z</time>
      </trkpt>
      <trkpt lat="45.67385" lon="3.96132">
        <ele>894</ele>
        <time>2020-05-31T02:07:14Z</time>
      </trkpt>
      <trkpt lat="45.6747" lon="3.96118">
        <ele>892</ele>
        <time>2020-05-31T02:07:29Z</time>
      </trkpt>
      <trkpt lat="45.67632" lon="3.96144">
        <ele>875</ele>
        <time>2020-05-31T02:07:58Z</time>
      </trkpt>
      <trkpt lat="45.67765" lon="3.9605">
        <ele>868</ele>
        <time>2020-05-31T02:08:25Z</time>
      </trkpt>
      <trkpt lat="45.67898" lon="3.96016">
        <ele>859</ele>
        <time>2020-05-31T02:08:49Z</time>
      </trkpt>
      <trkpt lat="45.6793" lon="3.95992">
        <ele>858</ele>
        <time>2020-05-31T02:08:55Z</time>
      </trkpt>
      <trkpt lat="45.67953" lon="3.95993">
        <ele>857</ele>
        <time>2020-05-31T02:08:59Z</time>
      </trkpt>
      <trkpt lat="45.68014" lon="3.96034">
        <ele>850</ele>
        <time>2020-05-31T02:09:11Z</time>
      </trkpt>
      <trkpt lat="45.68059" lon="3.96084">
        <ele>845</ele>
        <time>2020-05-31T02:09:21Z</time>
      </trkpt>
      <trkpt lat="45.68101" lon="3.96108">
        <ele>842</ele>
        <time>2020-05-31T02:09:29Z</time>
      </trkpt>
      <trkpt lat="45.68166" lon="3.96127">
        <ele>838</ele>
        <time>2020-05-31T02:09:41Z</time>
      </trkpt>
      <trkpt lat="45.68271" lon="3.96178">
        <ele>831</ele>
        <time>2020-05-31T02:10:01Z</time>
      </trkpt>
      <trkpt lat="45.68401" lon="3.96201">
        <ele>823</ele>
        <time>2020-05-31T02:10:24Z</time>
      </trkpt>
      <trkpt lat="45.68414" lon="3.96215">
        <ele>822</ele>
        <time>2020-05-31T02:10:27Z</time>
      </trkpt>
      <trkpt lat="45.6842" lon="3.96249">
        <ele>819</ele>
        <time>2020-05-31T02:10:32Z</time>
      </trkpt>
      <trkpt lat="45.68422" lon="3.96338">
        <ele>813</ele>
        <time>2020-05-31T02:10:43Z</time>
      </trkpt>
      <trkpt lat="45.68498" lon="3.96411">
        <ele>811</ele>
        <time>2020-05-31T02:10:59Z</time>
      </trkpt>
      <trkpt lat="45.68509" lon="3.96437">
        <ele>810</ele>
        <time>2020-05-31T02:11:03Z</time>
      </trkpt>
      <trkpt lat="45.68516" lon="3.96488">
        <ele>807</ele>
        <time>2020-05-31T02:11:09Z</time>
      </trkpt>
      <trkpt lat="45.68526" lon="3.96533">
        <ele>804</ele>
        <time>2020-05-31T02:11:15Z</time>
      </trkpt>
      <trkpt lat="45.68541" lon="3.96564">
        <ele>802</ele>
        <time>2020-05-31T02:11:20Z</time>
      </trkpt>
      <trkpt lat="45.68564" lon="3.96595">
        <ele>800</ele>
        <time>2020-05-31T02:11:25Z</time>
      </trkpt>
      <trkpt lat="45.68614" lon="3.96652">
        <ele>797</ele>
        <time>2020-05-31T02:11:37Z</time>
      </trkpt>
      <trkpt lat="45.68626" lon="3.96671">
        <ele>796</ele>
        <time>2020-05-31T02:11:40Z</time>
      </trkpt>
      <trkpt lat="45.68646" lon="3.96716">
        <ele>794</ele>
        <time>2020-05-31T02:11:47Z</time>
      </trkpt>
      <trkpt lat="45.68665" lon="3.96749">
        <ele>793</ele>
        <time>2020-05-31T02:11:52Z</time>
      </trkpt>
      <trkpt lat="45.6869" lon="3.96775">
        <ele>790</ele>
        <time>2020-05-31T02:11:57Z</time>
      </trkpt>
      <trkpt lat="45.68748" lon="3.96817">
        <ele>783</ele>
        <time>2020-05-31T02:12:09Z</time>
      </trkpt>
      <trkpt lat="45.68763" lon="3.96824">
        <ele>782</ele>
        <time>2020-05-31T02:12:12Z</time>
      </trkpt>
      <trkpt lat="45.68794" lon="3.96822">
        <ele>781</ele>
        <time>2020-05-31T02:12:17Z</time>
      </trkpt>
      <trkpt lat="45.68882" lon="3.96808">
        <ele>779</ele>
        <time>2020-05-31T02:12:33Z</time>
      </trkpt>
      <trkpt lat="45.68926" lon="3.96776">
        <ele>780</ele>
        <time>2020-05-31T02:12:42Z</time>
      </trkpt>
      <trkpt lat="45.6894" lon="3.96779">
        <ele>778</ele>
        <time>2020-05-31T02:12:44Z</time>
      </trkpt>
      <trkpt lat="45.6895" lon="3.96787">
        <ele>775</ele>
        <time>2020-05-31T02:12:46Z</time>
      </trkpt>
      <trkpt lat="45.68955" lon="3.96807">
        <ele>773</ele>
        <time>2020-05-31T02:12:49Z</time>
      </trkpt>
      <trkpt lat="45.68952" lon="3.96829">
        <ele>771</ele>
        <time>2020-05-31T02:12:52Z</time>
      </trkpt>
      <trkpt lat="45.68944" lon="3.96844">
        <ele>770</ele>
        <time>2020-05-31T02:12:54Z</time>
      </trkpt>
      <trkpt lat="45.68895" lon="3.96872">
        <ele>771</ele>
        <time>2020-05-31T02:13:03Z</time>
      </trkpt>
      <trkpt lat="45.68872" lon="3.96895">
        <ele>769</ele>
        <time>2020-05-31T02:13:08Z</time>
      </trkpt>
      <trkpt lat="45.68831" lon="3.9695">
        <ele>765</ele>
        <time>2020-05-31T02:13:18Z</time>
      </trkpt>
      <trkpt lat="45.68813" lon="3.96968">
        <ele>763</ele>
        <time>2020-05-31T02:13:22Z</time>
      </trkpt>
      <trkpt lat="45.68789" lon="3.96983">
        <ele>761</ele>
        <time>2020-05-31T02:13:27Z</time>
      </trkpt>
      <trkpt lat="45.68753" lon="3.96997">
        <ele>759</ele>
        <time>2020-05-31T02:13:34Z</time>
      </trkpt>
      <trkpt lat="45.68722" lon="3.97004">
        <ele>755</ele>
        <time>2020-05-31T02:13:39Z</time>
      </trkpt>
      <trkpt lat="45.68691" lon="3.96996">
        <ele>753</ele>
        <time>2020-05-31T02:13:45Z</time>
      </trkpt>
      <trkpt lat="45.68675" lon="3.96994">
        <ele>752</ele>
        <time>2020-05-31T02:13:48Z</time>
      </trkpt>
      <trkpt lat="45.68665" lon="3.96996">
        <ele>751</ele>
        <time>2020-05-31T02:13:50Z</time>
      </trkpt>
      <trkpt lat="45.68651" lon="3.97004">
        <ele>750</ele>
        <time>2020-05-31T02:13:52Z</time>
      </trkpt>
      <trkpt lat="45.68635" lon="3.97009">
        <ele>751</ele>
        <time>2020-05-31T02:13:55Z</time>
      </trkpt>
      <trkpt lat="45.68613" lon="3.97009">
        <ele>752</ele>
        <time>2020-05-31T02:13:59Z</time>
      </trkpt>
      <trkpt lat="45.68604" lon="3.97013">
        <ele>752</ele>
        <time>2020-05-31T02:14:01Z</time>
      </trkpt>
      <trkpt lat="45.68596" lon="3.97023">
        <ele>753</ele>
        <time>2020-05-31T02:14:03Z</time>
      </trkpt>
      <trkpt lat="45.6859" lon="3.97036">
        <ele>753</ele>
        <time>2020-05-31T02:14:05Z</time>
      </trkpt>
      <trkpt lat="45.68589" lon="3.97049">
        <ele>753</ele>
        <time>2020-05-31T02:14:06Z</time>
      </trkpt>
      <trkpt lat="45.68596" lon="3.97071">
        <ele>752</ele>
        <time>2020-05-31T02:14:09Z</time>
      </trkpt>
      <trkpt lat="45.68606" lon="3.97081">
        <ele>751</ele>
        <time>2020-05-31T02:14:11Z</time>
      </trkpt>
      <trkpt lat="45.68638" lon="3.97099">
        <ele>748</ele>
        <time>2020-05-31T02:14:17Z</time>
      </trkpt>
      <trkpt lat="45.68656" lon="3.9711">
        <ele>747</ele>
        <time>2020-05-31T02:14:21Z</time>
      </trkpt>
      <trkpt lat="45.6867" lon="3.97113">
        <ele>745</ele>
        <time>2020-05-31T02:14:23Z</time>
      </trkpt>
      <trkpt lat="45.6868" lon="3.97108">
        <ele>745</ele>
        <time>2020-05-31T02:14:25Z</time>
      </trkpt>
      <trkpt lat="45.68694" lon="3.97089">
        <ele>744</ele>
        <time>2020-05-31T02:14:29Z</time>
      </trkpt>
      <trkpt lat="45.68703" lon="3.97084">
        <ele>744</ele>
        <time>2020-05-31T02:14:31Z</time>
      </trkpt>
      <trkpt lat="45.68711" lon="3.97087">
        <ele>743</ele>
        <time>2020-05-31T02:14:32Z</time>
      </trkpt>
      <trkpt lat="45.68719" lon="3.97094">
        <ele>743</ele>
        <time>2020-05-31T02:14:34Z</time>
      </trkpt>
      <trkpt lat="45.68732" lon="3.97111">
        <ele>742</ele>
        <time>2020-05-31T02:14:37Z</time>
      </trkpt>
      <trkpt lat="45.68772" lon="3.97134">
        <ele>741</ele>
        <time>2020-05-31T02:14:44Z</time>
      </trkpt>
      <trkpt lat="45.68784" lon="3.97149">
        <ele>740</ele>
        <time>2020-05-31T02:14:47Z</time>
      </trkpt>
      <trkpt lat="45.68807" lon="3.97187">
        <ele>737</ele>
        <time>2020-05-31T02:14:54Z</time>
      </trkpt>
      <trkpt lat="45.68815" lon="3.97196">
        <ele>736</ele>
        <time>2020-05-31T02:14:55Z</time>
      </trkpt>
      <trkpt lat="45.68825" lon="3.97204">
        <ele>735</ele>
        <time>2020-05-31T02:14:57Z</time>
      </trkpt>
      <trkpt lat="45.68839" lon="3.97206">
        <ele>735</ele>
        <time>2020-05-31T02:15:00Z</time>
      </trkpt>
      <trkpt lat="45.68884" lon="3.97206">
        <ele>738</ele>
        <time>2020-05-31T02:15:08Z</time>
      </trkpt>
      <trkpt lat="45.68898" lon="3.9721">
        <ele>738</ele>
        <time>2020-05-31T02:15:10Z</time>
      </trkpt>
      <trkpt lat="45.68918" lon="3.97219">
        <ele>738</ele>
        <time>2020-05-31T02:15:14Z</time>
      </trkpt>
      <trkpt lat="45.68961" lon="3.97243">
        <ele>736</ele>
        <time>2020-05-31T02:15:22Z</time>
      </trkpt>
      <trkpt lat="45.68974" lon="3.97245">
        <ele>736</ele>
        <time>2020-05-31T02:15:25Z</time>
      </trkpt>
      <trkpt lat="45.69014" lon="3.97231">
        <ele>740</ele>
        <time>2020-05-31T02:15:32Z</time>
      </trkpt>
      <trkpt lat="45.69029" lon="3.97229">
        <ele>742</ele>
        <time>2020-05-31T02:15:35Z</time>
      </trkpt>
      <trkpt lat="45.69043" lon="3.97224">
        <ele>744</ele>
        <time>2020-05-31T02:15:37Z</time>
      </trkpt>
      <trkpt lat="45.69051" lon="3.97216">
        <ele>745</ele>
        <time>2020-05-31T02:15:39Z</time>
      </trkpt>
      <trkpt lat="45.69059" lon="3.97203">
        <ele>745</ele>
        <time>2020-05-31T02:15:41Z</time>
      </trkpt>
      <trkpt lat="45.6907" lon="3.97172">
        <ele>746</ele>
        <time>2020-05-31T02:15:45Z</time>
      </trkpt>
      <trkpt lat="45.6908" lon="3.97159">
        <ele>746</ele>
        <time>2020-05-31T02:15:48Z</time>
      </trkpt>
      <trkpt lat="45.69089" lon="3.97152">
        <ele>747</ele>
        <time>2020-05-31T02:15:50Z</time>
      </trkpt>
      <trkpt lat="45.69137" lon="3.97122">
        <ele>749</ele>
        <time>2020-05-31T02:15:59Z</time>
      </trkpt>
      <trkpt lat="45.69186" lon="3.97086">
        <ele>746</ele>
        <time>2020-05-31T02:16:09Z</time>
      </trkpt>
      <trkpt lat="45.69201" lon="3.9708">
        <ele>745</ele>
        <time>2020-05-31T02:16:12Z</time>
      </trkpt>
      <trkpt lat="45.69213" lon="3.97079">
        <ele>745</ele>
        <time>2020-05-31T02:16:14Z</time>
      </trkpt>
      <trkpt lat="45.69253" lon="3.97086">
        <ele>746</ele>
        <time>2020-05-31T02:16:21Z</time>
      </trkpt>
      <trkpt lat="45.69269" lon="3.97091">
        <ele>747</ele>
        <time>2020-05-31T02:16:24Z</time>
      </trkpt>
      <trkpt lat="45.69284" lon="3.97101">
        <ele>748</ele>
        <time>2020-05-31T02:16:27Z</time>
      </trkpt>
      <trkpt lat="45.69324" lon="3.97135">
        <ele>750</ele>
        <time>2020-05-31T02:16:35Z</time>
      </trkpt>
      <trkpt lat="45.69501" lon="3.97275">
        <ele>745</ele>
        <time>2020-05-31T02:17:11Z</time>
      </trkpt>
      <trkpt lat="45.6958" lon="3.97309">
        <ele>744</ele>
        <time>2020-05-31T02:17:26Z</time>
      </trkpt>
      <trkpt lat="45.69607" lon="3.9734">
        <ele>744</ele>
        <time>2020-05-31T02:17:32Z</time>
      </trkpt>
      <trkpt lat="45.69634" lon="3.97377">
        <ele>744</ele>
        <time>2020-05-31T02:17:39Z</time>
      </trkpt>
      <trkpt lat="45.69639" lon="3.97404">
        <ele>744</ele>
        <time>2020-05-31T02:17:42Z</time>
      </trkpt>
      <trkpt lat="45.69649" lon="3.97484">
        <ele>741</ele>
        <time>2020-05-31T02:17:52Z</time>
      </trkpt>
      <trkpt lat="45.69671" lon="3.9755">
        <ele>737</ele>
        <time>2020-05-31T02:18:01Z</time>
      </trkpt>
      <trkpt lat="45.69667" lon="3.97572">
        <ele>736</ele>
        <time>2020-05-31T02:18:04Z</time>
      </trkpt>
      <trkpt lat="45.69647" lon="3.97673">
        <ele>735</ele>
        <time>2020-05-31T02:18:17Z</time>
      </trkpt>
      <trkpt lat="45.69644" lon="3.97703">
        <ele>735</ele>
        <time>2020-05-31T02:18:21Z</time>
      </trkpt>
      <trkpt lat="45.69646" lon="3.97737">
        <ele>735</ele>
        <time>2020-05-31T02:18:25Z</time>
      </trkpt>
      <trkpt lat="45.69653" lon="3.97776">
        <ele>734</ele>
        <time>2020-05-31T02:18:30Z</time>
      </trkpt>
      <trkpt lat="45.69671" lon="3.97834">
        <ele>731</ele>
        <time>2020-05-31T02:18:38Z</time>
      </trkpt>
      <trkpt lat="45.69734" lon="3.97971">
        <ele>725</ele>
        <time>2020-05-31T02:18:58Z</time>
      </trkpt>
      <trkpt lat="45.69741" lon="3.97992">
        <ele>725</ele>
        <time>2020-05-31T02:19:01Z</time>
      </trkpt>
      <trkpt lat="45.69832" lon="3.98332">
        <ele>719</ele>
        <time>2020-05-31T02:19:46Z</time>
      </trkpt>
      <trkpt lat="45.69898" lon="3.9849">
        <ele>719</ele>
        <time>2020-05-31T02:20:09Z</time>
      </trkpt>
      <trkpt lat="45.6992" lon="3.98588">
        <ele>719</ele>
        <time>2020-05-31T02:20:22Z</time>
      </trkpt>
      <trkpt lat="45.69937" lon="3.98636">
        <ele>722</ele>
        <time>2020-05-31T02:20:29Z</time>
      </trkpt>
      <trkpt lat="45.69937" lon="3.98646">
        <ele>722</ele>
        <time>2020-05-31T02:20:30Z</time>
      </trkpt>
      <trkpt lat="45.69945" lon="3.98674">
        <ele>724</ele>
        <time>2020-05-31T02:20:34Z</time>
      </trkpt>
      <trkpt lat="45.69969" lon="3.98738">
        <ele>728</ele>
        <time>2020-05-31T02:20:43Z</time>
      </trkpt>
      <trkpt lat="45.69996" lon="3.9879">
        <ele>730</ele>
        <time>2020-05-31T02:20:51Z</time>
      </trkpt>
      <trkpt lat="45.70064" lon="3.98911">
        <ele>726</ele>
        <time>2020-05-31T02:21:10Z</time>
      </trkpt>
      <trkpt lat="45.70069" lon="3.98938">
        <ele>724</ele>
        <time>2020-05-31T02:21:14Z</time>
      </trkpt>
      <trkpt lat="45.70074" lon="3.98995">
        <ele>720</ele>
        <time>2020-05-31T02:21:21Z</time>
      </trkpt>
      <trkpt lat="45.70078" lon="3.99023">
        <ele>718</ele>
        <time>2020-05-31T02:21:24Z</time>
      </trkpt>
      <trkpt lat="45.70086" lon="3.99043">
        <ele>716</ele>
        <time>2020-05-31T02:21:27Z</time>
      </trkpt>
      <trkpt lat="45.70094" lon="3.99086">
        <ele>713</ele>
        <time>2020-05-31T02:21:33Z</time>
      </trkpt>
      <trkpt lat="45.70098" lon="3.991">
        <ele>711</ele>
        <time>2020-05-31T02:21:35Z</time>
      </trkpt>
      <trkpt lat="45.70108" lon="3.99116">
        <ele>710</ele>
        <time>2020-05-31T02:21:37Z</time>
      </trkpt>
      <trkpt lat="45.7015" lon="3.99152">
        <ele>708</ele>
        <time>2020-05-31T02:21:46Z</time>
      </trkpt>
      <trkpt lat="45.70156" lon="3.99169">
        <ele>707</ele>
        <time>2020-05-31T02:21:48Z</time>
      </trkpt>
      <trkpt lat="45.70157" lon="3.99186">
        <ele>706</ele>
        <time>2020-05-31T02:21:51Z</time>
      </trkpt>
      <trkpt lat="45.70152" lon="3.99238">
        <ele>704</ele>
        <time>2020-05-31T02:21:57Z</time>
      </trkpt>
      <trkpt lat="45.70155" lon="3.99265">
        <ele>704</ele>
        <time>2020-05-31T02:22:00Z</time>
      </trkpt>
      <trkpt lat="45.70173" lon="3.99339">
        <ele>704</ele>
        <time>2020-05-31T02:22:10Z</time>
      </trkpt>
      <trkpt lat="45.7019" lon="3.99423">
        <ele>702</ele>
        <time>2020-05-31T02:22:21Z</time>
      </trkpt>
      <trkpt lat="45.70197" lon="3.99445">
        <ele>704</ele>
        <time>2020-05-31T02:22:24Z</time>
      </trkpt>
      <trkpt lat="45.70208" lon="3.99463">
        <ele>706</ele>
        <time>2020-05-31T02:22:27Z</time>
      </trkpt>
      <trkpt lat="45.70223" lon="3.99481">
        <ele>708</ele>
        <time>2020-05-31T02:22:30Z</time>
      </trkpt>
      <trkpt lat="45.70235" lon="3.99499">
        <ele>709</ele>
        <time>2020-05-31T02:22:34Z</time>
      </trkpt>
      <trkpt lat="45.70242" lon="3.99514">
        <ele>709</ele>
        <time>2020-05-31T02:22:36Z</time>
      </trkpt>
      <trkpt lat="45.70252" lon="3.9955">
        <ele>710</ele>
        <time>2020-05-31T02:22:41Z</time>
      </trkpt>
      <trkpt lat="45.70271" lon="3.99634">
        <ele>709</ele>
        <time>2020-05-31T02:22:52Z</time>
      </trkpt>
      <trkpt lat="45.70281" lon="3.99661">
        <ele>708</ele>
        <time>2020-05-31T02:22:55Z</time>
      </trkpt>
      <trkpt lat="45.70298" lon="3.99698">
        <ele>707</ele>
        <time>2020-05-31T02:23:01Z</time>
      </trkpt>
      <trkpt lat="45.70353" lon="3.99801">
        <ele>700</ele>
        <time>2020-05-31T02:23:17Z</time>
      </trkpt>
      <trkpt lat="45.70366" lon="3.99824">
        <ele>698</ele>
        <time>2020-05-31T02:23:21Z</time>
      </trkpt>
      <trkpt lat="45.70404" lon="3.99861">
        <ele>698</ele>
        <time>2020-05-31T02:23:29Z</time>
      </trkpt>
      <trkpt lat="45.70415" lon="3.99877">
        <ele>696</ele>
        <time>2020-05-31T02:23:32Z</time>
      </trkpt>
      <trkpt lat="45.70421" lon="3.99898">
        <ele>694</ele>
        <time>2020-05-31T02:23:34Z</time>
      </trkpt>
      <trkpt lat="45.7043" lon="3.99962">
        <ele>686</ele>
        <time>2020-05-31T02:23:43Z</time>
      </trkpt>
      <trkpt lat="45.70436" lon="3.99991">
        <ele>684</ele>
        <time>2020-05-31T02:23:46Z</time>
      </trkpt>
      <trkpt lat="45.70439" lon="4.00059">
        <ele>677</ele>
        <time>2020-05-31T02:23:55Z</time>
      </trkpt>
      <trkpt lat="45.70448" lon="4.00101">
        <ele>673</ele>
        <time>2020-05-31T02:24:00Z</time>
      </trkpt>
      <trkpt lat="45.70449" lon="4.00112">
        <ele>672</ele>
        <time>2020-05-31T02:24:02Z</time>
      </trkpt>
      <trkpt lat="45.70442" lon="4.00116">
        <ele>670</ele>
        <time>2020-05-31T02:24:03Z</time>
      </trkpt>
      <trkpt lat="45.70433" lon="4.0011">
        <ele>670</ele>
        <time>2020-05-31T02:24:05Z</time>
      </trkpt>
      <trkpt lat="45.70427" lon="4.00102">
        <ele>669</ele>
        <time>2020-05-31T02:24:06Z</time>
      </trkpt>
      <trkpt lat="45.70418" lon="4.00099">
        <ele>668</ele>
        <time>2020-05-31T02:24:08Z</time>
      </trkpt>
      <trkpt lat="45.70412" lon="4.00102">
        <ele>667</ele>
        <time>2020-05-31T02:24:09Z</time>
      </trkpt>
      <trkpt lat="45.70413" lon="4.00115">
        <ele>666</ele>
        <time>2020-05-31T02:24:11Z</time>
      </trkpt>
      <trkpt lat="45.70447" lon="4.00204">
        <ele>659</ele>
        <time>2020-05-31T02:24:23Z</time>
      </trkpt>
      <trkpt lat="45.70452" lon="4.00228">
        <ele>656</ele>
        <time>2020-05-31T02:24:26Z</time>
      </trkpt>
      <trkpt lat="45.70479" lon="4.003">
        <ele>649</ele>
        <time>2020-05-31T02:24:36Z</time>
      </trkpt>
      <trkpt lat="45.70515" lon="4.00382">
        <ele>640</ele>
        <time>2020-05-31T02:24:49Z</time>
      </trkpt>
      <trkpt lat="45.70533" lon="4.00401">
        <ele>636</ele>
        <time>2020-05-31T02:24:53Z</time>
      </trkpt>
      <trkpt lat="45.7055" lon="4.00406">
        <ele>635</ele>
        <time>2020-05-31T02:24:56Z</time>
      </trkpt>
      <trkpt lat="45.70625" lon="4.00397">
        <ele>631</ele>
        <time>2020-05-31T02:25:09Z</time>
      </trkpt>
      <trkpt lat="45.70641" lon="4.00405">
        <ele>629</ele>
        <time>2020-05-31T02:25:12Z</time>
      </trkpt>
      <trkpt lat="45.70666" lon="4.0041">
        <ele>627</ele>
        <time>2020-05-31T02:25:16Z</time>
      </trkpt>
      <trkpt lat="45.70681" lon="4.00415">
        <ele>625</ele>
        <time>2020-05-31T02:25:19Z</time>
      </trkpt>
      <trkpt lat="45.70685" lon="4.00423">
        <ele>623</ele>
        <time>2020-05-31T02:25:20Z</time>
      </trkpt>
      <trkpt lat="45.70686" lon="4.00433">
        <ele>622</ele>
        <time>2020-05-31T02:25:22Z</time>
      </trkpt>
      <trkpt lat="45.70682" lon="4.00443">
        <ele>621</ele>
        <time>2020-05-31T02:25:23Z</time>
      </trkpt>
      <trkpt lat="45.70637" lon="4.00469">
        <ele>623</ele>
        <time>2020-05-31T02:25:32Z</time>
      </trkpt>
      <trkpt lat="45.70626" lon="4.00482">
        <ele>622</ele>
        <time>2020-05-31T02:25:34Z</time>
      </trkpt>
      <trkpt lat="45.70622" lon="4.00502">
        <ele>621</ele>
        <time>2020-05-31T02:25:37Z</time>
      </trkpt>
      <trkpt lat="45.70628" lon="4.00541">
        <ele>615</ele>
        <time>2020-05-31T02:25:42Z</time>
      </trkpt>
      <trkpt lat="45.70644" lon="4.00623">
        <ele>604</ele>
        <time>2020-05-31T02:25:52Z</time>
      </trkpt>
      <trkpt lat="45.70642" lon="4.00646">
        <ele>602</ele>
        <time>2020-05-31T02:25:55Z</time>
      </trkpt>
      <trkpt lat="45.70638" lon="4.00667">
        <ele>600</ele>
        <time>2020-05-31T02:25:58Z</time>
      </trkpt>
      <trkpt lat="45.70629" lon="4.00686">
        <ele>598</ele>
        <time>2020-05-31T02:26:01Z</time>
      </trkpt>
      <trkpt lat="45.70618" lon="4.00697">
        <ele>597</ele>
        <time>2020-05-31T02:26:03Z</time>
      </trkpt>
      <trkpt lat="45.70615" lon="4.00705">
        <ele>596</ele>
        <time>2020-05-31T02:26:04Z</time>
      </trkpt>
      <trkpt lat="45.70615" lon="4.00713">
        <ele>595</ele>
        <time>2020-05-31T02:26:05Z</time>
      </trkpt>
      <trkpt lat="45.70619" lon="4.00717">
        <ele>594</ele>
        <time>2020-05-31T02:26:06Z</time>
      </trkpt>
      <trkpt lat="45.70631" lon="4.00717">
        <ele>594</ele>
        <time>2020-05-31T02:26:08Z</time>
      </trkpt>
      <trkpt lat="45.70654" lon="4.00705">
        <ele>594</ele>
        <time>2020-05-31T02:26:13Z</time>
      </trkpt>
      <trkpt lat="45.70657" lon="4.00708">
        <ele>594</ele>
        <time>2020-05-31T02:26:13Z</time>
      </trkpt>
      <trkpt lat="45.70657" lon="4.00721">
        <ele>592</ele>
        <time>2020-05-31T02:26:15Z</time>
      </trkpt>
      <trkpt lat="45.7065" lon="4.00743">
        <ele>589</ele>
        <time>2020-05-31T02:26:18Z</time>
      </trkpt>
      <trkpt lat="45.70647" lon="4.00765">
        <ele>587</ele>
        <time>2020-05-31T02:26:21Z</time>
      </trkpt>
      <trkpt lat="45.7065" lon="4.00786">
        <ele>586</ele>
        <time>2020-05-31T02:26:23Z</time>
      </trkpt>
      <trkpt lat="45.70658" lon="4.00803">
        <ele>584</ele>
        <time>2020-05-31T02:26:26Z</time>
      </trkpt>
      <trkpt lat="45.70663" lon="4.00824">
        <ele>583</ele>
        <time>2020-05-31T02:26:29Z</time>
      </trkpt>
      <trkpt lat="45.70675" lon="4.00836">
        <ele>581</ele>
        <time>2020-05-31T02:26:31Z</time>
      </trkpt>
      <trkpt lat="45.70684" lon="4.00838">
        <ele>580</ele>
        <time>2020-05-31T02:26:33Z</time>
      </trkpt>
      <trkpt lat="45.70697" lon="4.00832">
        <ele>579</ele>
        <time>2020-05-31T02:26:35Z</time>
      </trkpt>
      <trkpt lat="45.70708" lon="4.0083">
        <ele>578</ele>
        <time>2020-05-31T02:26:37Z</time>
      </trkpt>
      <trkpt lat="45.70719" lon="4.00837">
        <ele>577</ele>
        <time>2020-05-31T02:26:40Z</time>
      </trkpt>
      <trkpt lat="45.70745" lon="4.00861">
        <ele>576</ele>
        <time>2020-05-31T02:26:45Z</time>
      </trkpt>
      <trkpt lat="45.70761" lon="4.00866">
        <ele>574</ele>
        <time>2020-05-31T02:26:48Z</time>
      </trkpt>
      <trkpt lat="45.70805" lon="4.00862">
        <ele>564</ele>
        <time>2020-05-31T02:26:56Z</time>
      </trkpt>
      <trkpt lat="45.70822" lon="4.00867">
        <ele>561</ele>
        <time>2020-05-31T02:26:59Z</time>
      </trkpt>
      <trkpt lat="45.70834" lon="4.00876">
        <ele>559</ele>
        <time>2020-05-31T02:27:01Z</time>
      </trkpt>
      <trkpt lat="45.70847" lon="4.009">
        <ele>558</ele>
        <time>2020-05-31T02:27:05Z</time>
      </trkpt>
      <trkpt lat="45.7088" lon="4.00978">
        <ele>547</ele>
        <time>2020-05-31T02:27:16Z</time>
      </trkpt>
      <trkpt lat="45.70883" lon="4.00999">
        <ele>546</ele>
        <time>2020-05-31T02:27:19Z</time>
      </trkpt>
      <trkpt lat="45.70882" lon="4.01012">
        <ele>544</ele>
        <time>2020-05-31T02:27:21Z</time>
      </trkpt>
      <trkpt lat="45.70877" lon="4.01031">
        <ele>542</ele>
        <time>2020-05-31T02:27:23Z</time>
      </trkpt>
      <trkpt lat="45.70877" lon="4.01044">
        <ele>540</ele>
        <time>2020-05-31T02:27:25Z</time>
      </trkpt>
      <trkpt lat="45.70879" lon="4.01051">
        <ele>538</ele>
        <time>2020-05-31T02:27:26Z</time>
      </trkpt>
      <trkpt lat="45.70883" lon="4.01057">
        <ele>536</ele>
        <time>2020-05-31T02:27:27Z</time>
      </trkpt>
      <trkpt lat="45.70899" lon="4.01059">
        <ele>533</ele>
        <time>2020-05-31T02:27:30Z</time>
      </trkpt>
      <trkpt lat="45.70949" lon="4.01006">
        <ele>528</ele>
        <time>2020-05-31T02:27:41Z</time>
      </trkpt>
      <trkpt lat="45.70964" lon="4.00988">
        <ele>524</ele>
        <time>2020-05-31T02:27:44Z</time>
      </trkpt>
      <trkpt lat="45.70969" lon="4.00968">
        <ele>523</ele>
        <time>2020-05-31T02:27:47Z</time>
      </trkpt>
      <trkpt lat="45.70973" lon="4.00943">
        <ele>522</ele>
        <time>2020-05-31T02:27:50Z</time>
      </trkpt>
      <trkpt lat="45.70979" lon="4.00932">
        <ele>520</ele>
        <time>2020-05-31T02:27:52Z</time>
      </trkpt>
      <trkpt lat="45.70986" lon="4.00927">
        <ele>518</ele>
        <time>2020-05-31T02:27:53Z</time>
      </trkpt>
      <trkpt lat="45.70993" lon="4.00927">
        <ele>517</ele>
        <time>2020-05-31T02:27:54Z</time>
      </trkpt>
      <trkpt lat="45.71" lon="4.00934">
        <ele>515</ele>
        <time>2020-05-31T02:27:56Z</time>
      </trkpt>
      <trkpt lat="45.71005" lon="4.00955">
        <ele>514</ele>
        <time>2020-05-31T02:27:59Z</time>
      </trkpt>
      <trkpt lat="45.71021" lon="4.01044">
        <ele>509</ele>
        <time>2020-05-31T02:28:10Z</time>
      </trkpt>
      <trkpt lat="45.71011" lon="4.01093">
        <ele>508</ele>
        <time>2020-05-31T02:28:16Z</time>
      </trkpt>
      <trkpt lat="45.7101" lon="4.01107">
        <ele>507</ele>
        <time>2020-05-31T02:28:18Z</time>
      </trkpt>
      <trkpt lat="45.71014" lon="4.01144">
        <ele>504</ele>
        <time>2020-05-31T02:28:23Z</time>
      </trkpt>
      <trkpt lat="45.71023" lon="4.01177">
        <ele>500</ele>
        <time>2020-05-31T02:28:27Z</time>
      </trkpt>
      <trkpt lat="45.71035" lon="4.01203">
        <ele>497</ele>
        <time>2020-05-31T02:28:31Z</time>
      </trkpt>
      <trkpt lat="45.71053" lon="4.01253">
        <ele>491</ele>
        <time>2020-05-31T02:28:38Z</time>
      </trkpt>
      <trkpt lat="45.71058" lon="4.0128">
        <ele>489</ele>
        <time>2020-05-31T02:28:42Z</time>
      </trkpt>
      <trkpt lat="45.71063" lon="4.0128">
        <ele>489</ele>
        <time>2020-05-31T02:28:42Z</time>
      </trkpt>
      <trkpt lat="45.71115" lon="4.01294">
        <ele>485</ele>
        <time>2020-05-31T02:28:52Z</time>
      </trkpt>
      <trkpt lat="45.71141" lon="4.01278">
        <ele>484</ele>
        <time>2020-05-31T02:28:57Z</time>
      </trkpt>
      <trkpt lat="45.71163" lon="4.01263">
        <ele>482</ele>
        <time>2020-05-31T02:29:01Z</time>
      </trkpt>
      <trkpt lat="45.71167" lon="4.01256">
        <ele>482</ele>
        <time>2020-05-31T02:29:02Z</time>
      </trkpt>
      <trkpt lat="45.7117" lon="4.01244">
        <ele>481</ele>
        <time>2020-05-31T02:29:04Z</time>
      </trkpt>
      <trkpt lat="45.71161" lon="4.01151">
        <ele>482</ele>
        <time>2020-05-31T02:29:16Z</time>
      </trkpt>
      <trkpt lat="45.71159" lon="4.01112">
        <ele>483</ele>
        <time>2020-05-31T02:29:20Z</time>
      </trkpt>
      <trkpt lat="45.71162" lon="4.01095">
        <ele>483</ele>
        <time>2020-05-31T02:29:23Z</time>
      </trkpt>
      <trkpt lat="45.71171" lon="4.01078">
        <ele>483</ele>
        <time>2020-05-31T02:29:25Z</time>
      </trkpt>
      <trkpt lat="45.71181" lon="4.0107">
        <ele>483</ele>
        <time>2020-05-31T02:29:27Z</time>
      </trkpt>
      <trkpt lat="45.71195" lon="4.0107">
        <ele>483</ele>
        <time>2020-05-31T02:29:30Z</time>
      </trkpt>
      <trkpt lat="45.71207" lon="4.01074">
        <ele>482</ele>
        <time>2020-05-31T02:29:32Z</time>
      </trkpt>
      <trkpt lat="45.71219" lon="4.01092">
        <ele>481</ele>
        <time>2020-05-31T02:29:35Z</time>
      </trkpt>
      <trkpt lat="45.7127" lon="4.01189">
        <ele>473</ele>
        <time>2020-05-31T02:29:50Z</time>
      </trkpt>
      <trkpt lat="45.71284" lon="4.01209">
        <ele>472</ele>
        <time>2020-05-31T02:29:54Z</time>
      </trkpt>
      <trkpt lat="45.71319" lon="4.01241">
        <ele>471</ele>
        <time>2020-05-31T02:30:01Z</time>
      </trkpt>
      <trkpt lat="45.71332" lon="4.0126">
        <ele>470</ele>
        <time>2020-05-31T02:30:04Z</time>
      </trkpt>
      <trkpt lat="45.71352" lon="4.01318">
        <ele>469</ele>
        <time>2020-05-31T02:30:12Z</time>
      </trkpt>
      <trkpt lat="45.71359" lon="4.01333">
        <ele>468</ele>
        <time>2020-05-31T02:30:15Z</time>
      </trkpt>
      <trkpt lat="45.71404" lon="4.0139">
        <ele>468</ele>
        <time>2020-05-31T02:30:25Z</time>
      </trkpt>
      <trkpt lat="45.71428" lon="4.01417">
        <ele>467</ele>
        <time>2020-05-31T02:30:31Z</time>
      </trkpt>
      <trkpt lat="45.71452" lon="4.01434">
        <ele>466</ele>
        <time>2020-05-31T02:30:36Z</time>
      </trkpt>
      <trkpt lat="45.71473" lon="4.01442">
        <ele>466</ele>
        <time>2020-05-31T02:30:39Z</time>
      </trkpt>
      <trkpt lat="45.71489" lon="4.01443">
        <ele>466</ele>
        <time>2020-05-31T02:30:42Z</time>
      </trkpt>
      <trkpt lat="45.71506" lon="4.01438">
        <ele>466</ele>
        <time>2020-05-31T02:30:45Z</time>
      </trkpt>
      <trkpt lat="45.71571" lon="4.01397">
        <ele>464</ele>
        <time>2020-05-31T02:30:58Z</time>
      </trkpt>
      <trkpt lat="45.71593" lon="4.01381">
        <ele>463</ele>
        <time>2020-05-31T02:31:02Z</time>
      </trkpt>
      <trkpt lat="45.71812" lon="4.01149">
        <ele>459</ele>
        <time>2020-05-31T02:31:51Z</time>
      </trkpt>
      <trkpt lat="45.71827" lon="4.01138">
        <ele>458</ele>
        <time>2020-05-31T02:31:54Z</time>
      </trkpt>
      <trkpt lat="45.71844" lon="4.01133">
        <ele>458</ele>
        <time>2020-05-31T02:31:57Z</time>
      </trkpt>
      <trkpt lat="45.71871" lon="4.01135">
        <ele>457</ele>
        <time>2020-05-31T02:32:02Z</time>
      </trkpt>
      <trkpt lat="45.71901" lon="4.01144">
        <ele>456</ele>
        <time>2020-05-31T02:32:07Z</time>
      </trkpt>
      <trkpt lat="45.71914" lon="4.01152">
        <ele>455</ele>
        <time>2020-05-31T02:32:10Z</time>
      </trkpt>
      <trkpt lat="45.71958" lon="4.01201">
        <ele>451</ele>
        <time>2020-05-31T02:32:20Z</time>
      </trkpt>
      <trkpt lat="45.71977" lon="4.01212">
        <ele>450</ele>
        <time>2020-05-31T02:32:23Z</time>
      </trkpt>
      <trkpt lat="45.72018" lon="4.01214">
        <ele>450</ele>
        <time>2020-05-31T02:32:31Z</time>
      </trkpt>
      <trkpt lat="45.72238" lon="4.01214">
        <ele>444</ele>
        <time>2020-05-31T02:33:10Z</time>
      </trkpt>
      <trkpt lat="45.7226" lon="4.01209">
        <ele>443</ele>
        <time>2020-05-31T02:33:14Z</time>
      </trkpt>
      <trkpt lat="45.72269" lon="4.01206">
        <ele>443</ele>
        <time>2020-05-31T02:33:15Z</time>
      </trkpt>
      <trkpt lat="45.72299" lon="4.01179">
        <ele>442</ele>
        <time>2020-05-31T02:33:22Z</time>
      </trkpt>
      <trkpt lat="45.72376" lon="4.01089">
        <ele>441</ele>
        <time>2020-05-31T02:33:39Z</time>
      </trkpt>
      <trkpt lat="45.72422" lon="4.01032">
        <ele>440</ele>
        <time>2020-05-31T02:33:50Z</time>
      </trkpt>
      <trkpt lat="45.72463" lon="4.00986">
        <ele>439</ele>
        <time>2020-05-31T02:33:59Z</time>
      </trkpt>
      <trkpt lat="45.72481" lon="4.00958">
        <ele>438</ele>
        <time>2020-05-31T02:34:04Z</time>
      </trkpt>
      <trkpt lat="45.72549" lon="4.00813">
        <ele>437</ele>
        <time>2020-05-31T02:34:26Z</time>
      </trkpt>
      <trkpt lat="45.72568" lon="4.00801">
        <ele>437</ele>
        <time>2020-05-31T02:34:30Z</time>
      </trkpt>
      <trkpt lat="45.72583" lon="4.00801">
        <ele>436</ele>
        <time>2020-05-31T02:34:32Z</time>
      </trkpt>
      <trkpt lat="45.72677" lon="4.00892">
        <ele>428</ele>
        <time>2020-05-31T02:34:52Z</time>
      </trkpt>
      <trkpt lat="45.72714" lon="4.00925">
        <ele>427</ele>
        <time>2020-05-31T02:35:00Z</time>
      </trkpt>
      <trkpt lat="45.72798" lon="4.00963">
        <ele>422</ele>
        <time>2020-05-31T02:35:16Z</time>
      </trkpt>
      <trkpt lat="45.72823" lon="4.00968">
        <ele>420</ele>
        <time>2020-05-31T02:35:20Z</time>
      </trkpt>
      <trkpt lat="45.729" lon="4.00975">
        <ele>418</ele>
        <time>2020-05-31T02:35:34Z</time>
      </trkpt>
      <trkpt lat="45.7291" lon="4.00971">
        <ele>418</ele>
        <time>2020-05-31T02:35:36Z</time>
      </trkpt>
      <trkpt lat="45.7292" lon="4.00964">
        <ele>418</ele>
        <time>2020-05-31T02:35:38Z</time>
      </trkpt>
      <trkpt lat="45.72935" lon="4.00984">
        <ele>416</ele>
        <time>2020-05-31T02:35:42Z</time>
      </trkpt>
      <trkpt lat="45.72966" lon="4.00993">
        <ele>412</ele>
        <time>2020-05-31T02:35:47Z</time>
      </trkpt>
      <trkpt lat="45.73145" lon="4.00982">
        <ele>402</ele>
        <time>2020-05-31T02:36:19Z</time>
      </trkpt>
      <trkpt lat="45.73167" lon="4.00978">
        <ele>401</ele>
        <time>2020-05-31T02:36:23Z</time>
      </trkpt>
      <trkpt lat="45.73187" lon="4.0097">
        <ele>400</ele>
        <time>2020-05-31T02:36:27Z</time>
      </trkpt>
      <trkpt lat="45.73314" lon="4.00878">
        <ele>397</ele>
        <time>2020-05-31T02:36:52Z</time>
      </trkpt>
      <trkpt lat="45.73371" lon="4.00845">
        <ele>392</ele>
        <time>2020-05-31T02:37:03Z</time>
      </trkpt>
      <trkpt lat="45.7339" lon="4.00825">
        <ele>391</ele>
        <time>2020-05-31T02:37:07Z</time>
      </trkpt>
      <trkpt lat="45.73412" lon="4.00792">
        <ele>389</ele>
        <time>2020-05-31T02:37:13Z</time>
      </trkpt>
      <trkpt lat="45.73425" lon="4.00798">
        <ele>387</ele>
        <time>2020-05-31T02:37:15Z</time>
      </trkpt>
      <trkpt lat="45.73447" lon="4.00763">
        <ele>389</ele>
        <time>2020-05-31T02:37:21Z</time>
      </trkpt>
      <trkpt lat="45.73475" lon="4.00719">
        <ele>392</ele>
        <time>2020-05-31T02:37:28Z</time>
      </trkpt>
      <trkpt lat="45.73504" lon="4.00659">
        <ele>400</ele>
        <time>2020-05-31T02:37:38Z</time>
      </trkpt>
      <trkpt lat="45.73565" lon="4.00616">
        <ele>401</ele>
        <time>2020-05-31T02:37:50Z</time>
      </trkpt>
      <trkpt lat="45.73685" lon="4.006">
        <ele>395</ele>
        <time>2020-05-31T02:38:11Z</time>
      </trkpt>
      <trkpt lat="45.7374" lon="4.00599">
        <ele>395</ele>
        <time>2020-05-31T02:38:21Z</time>
      </trkpt>
      <trkpt lat="45.73799" lon="4.00599">
        <ele>392</ele>
        <time>2020-05-31T02:38:31Z</time>
      </trkpt>
      <trkpt lat="45.73808" lon="4.006">
        <ele>392</ele>
        <time>2020-05-31T02:38:33Z</time>
      </trkpt>
      <trkpt lat="45.7386" lon="4.00611">
        <ele>391</ele>
        <time>2020-05-31T02:38:42Z</time>
      </trkpt>
      <trkpt lat="45.73951" lon="4.00643">
        <ele>391</ele>
        <time>2020-05-31T02:38:59Z</time>
      </trkpt>
      <trkpt lat="45.73961" lon="4.00647">
        <ele>391</ele>
        <time>2020-05-31T02:39:01Z</time>
      </trkpt>
      <trkpt lat="45.73994" lon="4.00672">
        <ele>390</ele>
        <time>2020-05-31T02:39:07Z</time>
      </trkpt>
      <trkpt lat="45.74008" lon="4.00694">
        <ele>389</ele>
        <time>2020-05-31T02:39:11Z</time>
      </trkpt>
      <trkpt lat="45.74016" lon="4.00708">
        <ele>389</ele>
        <time>2020-05-31T02:39:13Z</time>
      </trkpt>
      <trkpt lat="45.74018" lon="4.00713">
        <ele>389</ele>
        <time>2020-05-31T02:39:14Z</time>
      </trkpt>
      <trkpt lat="45.7402" lon="4.00717">
        <ele>389</ele>
        <time>2020-05-31T02:39:15Z</time>
      </trkpt>
      <trkpt lat="45.74038" lon="4.00758">
        <ele>390</ele>
        <time>2020-05-31T02:39:21Z</time>
      </trkpt>
      <trkpt lat="45.74046" lon="4.00772">
        <ele>392</ele>
        <time>2020-05-31T02:39:23Z</time>
      </trkpt>
      <trkpt lat="45.74044" lon="4.00774">
        <ele>392</ele>
        <time>2020-05-31T02:39:23Z</time>
      </trkpt>
      <trkpt lat="45.74042" lon="4.00777">
        <ele>392</ele>
        <time>2020-05-31T02:39:24Z</time>
      </trkpt>
      <trkpt lat="45.74042" lon="4.00778">
        <ele>392</ele>
        <time>2020-05-31T02:39:24Z</time>
      </trkpt>
      <trkpt lat="45.74042" lon="4.0078">
        <ele>393</ele>
        <time>2020-05-31T02:39:24Z</time>
      </trkpt>
      <trkpt lat="45.74044" lon="4.00786">
        <ele>393</ele>
        <time>2020-05-31T02:39:25Z</time>
      </trkpt>
      <trkpt lat="45.74045" lon="4.00788">
        <ele>394</ele>
        <time>2020-05-31T02:39:25Z</time>
      </trkpt>
      <trkpt lat="45.74037" lon="4.00798">
        <ele>394</ele>
        <time>2020-05-31T02:39:27Z</time>
      </trkpt>
      <trkpt lat="45.73992" lon="4.0082">
        <ele>392</ele>
        <time>2020-05-31T02:39:36Z</time>
      </trkpt>
      <trkpt lat="45.73944" lon="4.00831">
        <ele>391</ele>
        <time>2020-05-31T02:39:44Z</time>
      </trkpt>
      <trkpt lat="45.73926" lon="4.00839">
        <ele>392</ele>
        <time>2020-05-31T02:39:48Z</time>
      </trkpt>
      <trkpt lat="45.73906" lon="4.00855">
        <ele>394</ele>
        <time>2020-05-31T02:39:52Z</time>
      </trkpt>
      <trkpt lat="45.73895" lon="4.00866">
        <ele>395</ele>
        <time>2020-05-31T02:39:54Z</time>
      </trkpt>
      <trkpt lat="45.73885" lon="4.00884">
        <ele>397</ele>
        <time>2020-05-31T02:39:57Z</time>
      </trkpt>
      <trkpt lat="45.73873" lon="4.00925">
        <ele>401</ele>
        <time>2020-05-31T02:40:03Z</time>
      </trkpt>
      <trkpt lat="45.73869" lon="4.00961">
        <ele>402</ele>
        <time>2020-05-31T02:40:07Z</time>
      </trkpt>
      <trkpt lat="45.73867" lon="4.01055">
        <ele>403</ele>
        <time>2020-05-31T02:40:19Z</time>
      </trkpt>
      <trkpt lat="45.7387" lon="4.0126">
        <ele>401</ele>
        <time>2020-05-31T02:40:44Z</time>
      </trkpt>
      <trkpt lat="45.73869" lon="4.01368">
        <ele>401</ele>
        <time>2020-05-31T02:40:58Z</time>
      </trkpt>
      <trkpt lat="45.73869" lon="4.01436">
        <ele>401</ele>
        <time>2020-05-31T02:41:06Z</time>
      </trkpt>
      <trkpt lat="45.73869" lon="4.01534">
        <ele>399</ele>
        <time>2020-05-31T02:41:18Z</time>
      </trkpt>
      <trkpt lat="45.73868" lon="4.01618">
        <ele>398</ele>
        <time>2020-05-31T02:41:29Z</time>
      </trkpt>
      <trkpt lat="45.73867" lon="4.0172">
        <ele>397</ele>
        <time>2020-05-31T02:41:41Z</time>
      </trkpt>
      <trkpt lat="45.73867" lon="4.01754">
        <ele>396</ele>
        <time>2020-05-31T02:41:46Z</time>
      </trkpt>
      <trkpt lat="45.73856" lon="4.01757">
        <ele>396</ele>
        <time>2020-05-31T02:41:48Z</time>
      </trkpt>
      <trkpt lat="45.73849" lon="4.01766">
        <ele>395</ele>
        <time>2020-05-31T02:41:49Z</time>
      </trkpt>
      <trkpt lat="45.73844" lon="4.01783">
        <ele>395</ele>
        <time>2020-05-31T02:41:52Z</time>
      </trkpt>
      <trkpt lat="45.73845" lon="4.01797">
        <ele>395</ele>
        <time>2020-05-31T02:41:53Z</time>
      </trkpt>
      <trkpt lat="45.7385" lon="4.0181">
        <ele>395</ele>
        <time>2020-05-31T02:41:55Z</time>
      </trkpt>
      <trkpt lat="45.73855" lon="4.01815">
        <ele>395</ele>
        <time>2020-05-31T02:41:56Z</time>
      </trkpt>
      <trkpt lat="45.73866" lon="4.01818">
        <ele>396</ele>
        <time>2020-05-31T02:41:58Z</time>
      </trkpt>
      <trkpt lat="45.73874" lon="4.01817">
        <ele>396</ele>
        <time>2020-05-31T02:42:00Z</time>
      </trkpt>
      <trkpt lat="45.73887" lon="4.01802">
        <ele>397</ele>
        <time>2020-05-31T02:42:03Z</time>
      </trkpt>
      <trkpt lat="45.73899" lon="4.01825">
        <ele>397</ele>
        <time>2020-05-31T02:42:06Z</time>
      </trkpt>
      <trkpt lat="45.73887" lon="4.01839">
        <ele>396</ele>
        <time>2020-05-31T02:42:09Z</time>
      </trkpt>
      <trkpt lat="45.73883" lon="4.01866">
        <ele>396</ele>
        <time>2020-05-31T02:42:12Z</time>
      </trkpt>
      <trkpt lat="45.73887" lon="4.01839">
        <ele>396</ele>
        <time>2020-05-31T02:42:16Z</time>
      </trkpt>
      <trkpt lat="45.73899" lon="4.01825">
        <ele>397</ele>
        <time>2020-05-31T02:42:19Z</time>
      </trkpt>
      <trkpt lat="45.73887" lon="4.01802">
        <ele>397</ele>
        <time>2020-05-31T02:42:22Z</time>
      </trkpt>
      <trkpt lat="45.73889" lon="4.01789">
        <ele>397</ele>
        <time>2020-05-31T02:42:24Z</time>
      </trkpt>
      <trkpt lat="45.73888" lon="4.01777">
        <ele>397</ele>
        <time>2020-05-31T02:42:25Z</time>
      </trkpt>
      <trkpt lat="45.73912" lon="4.01771">
        <ele>398</ele>
        <time>2020-05-31T02:42:30Z</time>
      </trkpt>
      <trkpt lat="45.73936" lon="4.01774">
        <ele>398</ele>
        <time>2020-05-31T02:42:34Z</time>
      </trkpt>
      <trkpt lat="45.73961" lon="4.01786">
        <ele>399</ele>
        <time>2020-05-31T02:42:39Z</time>
      </trkpt>
      <trkpt lat="45.74017" lon="4.01857">
        <ele>399</ele>
        <time>2020-05-31T02:42:52Z</time>
      </trkpt>
      <trkpt lat="45.74043" lon="4.01883">
        <ele>398</ele>
        <time>2020-05-31T02:42:58Z</time>
      </trkpt>
      <trkpt lat="45.74071" lon="4.01905">
        <ele>398</ele>
        <time>2020-05-31T02:43:03Z</time>
      </trkpt>
      <trkpt lat="45.74085" lon="4.01914">
        <ele>398</ele>
        <time>2020-05-31T02:43:06Z</time>
      </trkpt>
      <trkpt lat="45.7413" lon="4.01927">
        <ele>398</ele>
        <time>2020-05-31T02:43:14Z</time>
      </trkpt>
      <trkpt lat="45.74178" lon="4.01929">
        <ele>398</ele>
        <time>2020-05-31T02:43:23Z</time>
      </trkpt>
      <trkpt lat="45.74283" lon="4.01915">
        <ele>397</ele>
        <time>2020-05-31T02:43:42Z</time>
      </trkpt>
      <trkpt lat="45.74325" lon="4.01919">
        <ele>396</ele>
        <time>2020-05-31T02:43:49Z</time>
      </trkpt>
      <trkpt lat="45.74373" lon="4.01934">
        <ele>394</ele>
        <time>2020-05-31T02:43:58Z</time>
      </trkpt>
      <trkpt lat="45.74433" lon="4.01974">
        <ele>391</ele>
        <time>2020-05-31T02:44:10Z</time>
      </trkpt>
      <trkpt lat="45.74472" lon="4.02016">
        <ele>389</ele>
        <time>2020-05-31T02:44:18Z</time>
      </trkpt>
      <trkpt lat="45.74551" lon="4.02136">
        <ele>385</ele>
        <time>2020-05-31T02:44:39Z</time>
      </trkpt>
      <trkpt lat="45.7458" lon="4.02167">
        <ele>384</ele>
        <time>2020-05-31T02:44:45Z</time>
      </trkpt>
      <trkpt lat="45.74621" lon="4.02201">
        <ele>382</ele>
        <time>2020-05-31T02:44:54Z</time>
      </trkpt>
      <trkpt lat="45.74781" lon="4.02293">
        <ele>378</ele>
        <time>2020-05-31T02:45:24Z</time>
      </trkpt>
      <trkpt lat="45.74995" lon="4.02407">
        <ele>378</ele>
        <time>2020-05-31T02:46:05Z</time>
      </trkpt>
      <trkpt lat="45.75105" lon="4.02458">
        <ele>377</ele>
        <time>2020-05-31T02:46:25Z</time>
      </trkpt>
      <trkpt lat="45.75248" lon="4.02499">
        <ele>378</ele>
        <time>2020-05-31T02:46:51Z</time>
      </trkpt>
      <trkpt lat="45.75331" lon="4.0254">
        <ele>379</ele>
        <time>2020-05-31T02:47:07Z</time>
      </trkpt>
      <trkpt lat="45.75403" lon="4.02579">
        <ele>379</ele>
        <time>2020-05-31T02:47:21Z</time>
      </trkpt>
      <trkpt lat="45.75471" lon="4.02607">
        <ele>378</ele>
        <time>2020-05-31T02:47:33Z</time>
      </trkpt>
      <trkpt lat="45.75511" lon="4.0262">
        <ele>378</ele>
        <time>2020-05-31T02:47:41Z</time>
      </trkpt>
      <trkpt lat="45.75675" lon="4.02662">
        <ele>380</ele>
        <time>2020-05-31T02:48:10Z</time>
      </trkpt>
      <trkpt lat="45.75923" lon="4.02708">
        <ele>384</ele>
        <time>2020-05-31T02:48:55Z</time>
      </trkpt>
      <trkpt lat="45.76029" lon="4.02703">
        <ele>385</ele>
        <time>2020-05-31T02:49:14Z</time>
      </trkpt>
      <trkpt lat="45.76201" lon="4.02671">
        <ele>387</ele>
        <time>2020-05-31T02:49:44Z</time>
      </trkpt>
      <trkpt lat="45.76302" lon="4.02671">
        <ele>389</ele>
        <time>2020-05-31T02:50:02Z</time>
      </trkpt>
      <trkpt lat="45.7641" lon="4.02689">
        <ele>392</ele>
        <time>2020-05-31T02:50:22Z</time>
      </trkpt>
      <trkpt lat="45.76503" lon="4.02723">
        <ele>394</ele>
        <time>2020-05-31T02:50:39Z</time>
      </trkpt>
      <trkpt lat="45.76672" lon="4.02822">
        <ele>398</ele>
        <time>2020-05-31T02:51:11Z</time>
      </trkpt>
      <trkpt lat="45.77025" lon="4.02987">
        <ele>403</ele>
        <time>2020-05-31T02:52:17Z</time>
      </trkpt>
      <trkpt lat="45.77134" lon="4.03013">
        <ele>401</ele>
        <time>2020-05-31T02:52:37Z</time>
      </trkpt>
      <trkpt lat="45.77298" lon="4.03069">
        <ele>399</ele>
        <time>2020-05-31T02:53:07Z</time>
      </trkpt>
      <trkpt lat="45.77329" lon="4.03082">
        <ele>398</ele>
        <time>2020-05-31T02:53:13Z</time>
      </trkpt>
      <trkpt lat="45.77354" lon="4.03095">
        <ele>399</ele>
        <time>2020-05-31T02:53:18Z</time>
      </trkpt>
      <trkpt lat="45.77377" lon="4.03111">
        <ele>399</ele>
        <time>2020-05-31T02:53:22Z</time>
      </trkpt>
      <trkpt lat="45.77397" lon="4.03132">
        <ele>399</ele>
        <time>2020-05-31T02:53:26Z</time>
      </trkpt>
      <trkpt lat="45.77412" lon="4.03136">
        <ele>399</ele>
        <time>2020-05-31T02:53:29Z</time>
      </trkpt>
      <trkpt lat="45.77536" lon="4.03182">
        <ele>398</ele>
        <time>2020-05-31T02:53:52Z</time>
      </trkpt>
      <trkpt lat="45.7764" lon="4.03204">
        <ele>397</ele>
        <time>2020-05-31T02:54:11Z</time>
      </trkpt>
      <trkpt lat="45.77661" lon="4.03214">
        <ele>397</ele>
        <time>2020-05-31T02:54:15Z</time>
      </trkpt>
      <trkpt lat="45.77716" lon="4.03248">
        <ele>397</ele>
        <time>2020-05-31T02:54:25Z</time>
      </trkpt>
      <trkpt lat="45.77745" lon="4.03268">
        <ele>396</ele>
        <time>2020-05-31T02:54:31Z</time>
      </trkpt>
      <trkpt lat="45.77805" lon="4.03299">
        <ele>397</ele>
        <time>2020-05-31T02:54:42Z</time>
      </trkpt>
      <trkpt lat="45.77851" lon="4.03311">
        <ele>398</ele>
        <time>2020-05-31T02:54:51Z</time>
      </trkpt>
      <trkpt lat="45.78869" lon="4.03376">
        <ele>387</ele>
        <time>2020-05-31T02:57:52Z</time>
      </trkpt>
      <trkpt lat="45.78894" lon="4.03376">
        <ele>386</ele>
        <time>2020-05-31T02:57:56Z</time>
      </trkpt>
      <trkpt lat="45.78943" lon="4.0336">
        <ele>385</ele>
        <time>2020-05-31T02:58:05Z</time>
      </trkpt>
      <trkpt lat="45.79022" lon="4.03302">
        <ele>385</ele>
        <time>2020-05-31T02:58:21Z</time>
      </trkpt>
      <trkpt lat="45.79102" lon="4.03239">
        <ele>385</ele>
        <time>2020-05-31T02:58:37Z</time>
      </trkpt>
      <trkpt lat="45.79126" lon="4.03227">
        <ele>385</ele>
        <time>2020-05-31T02:58:42Z</time>
      </trkpt>
      <trkpt lat="45.7915" lon="4.03225">
        <ele>385</ele>
        <time>2020-05-31T02:58:46Z</time>
      </trkpt>
      <trkpt lat="45.79219" lon="4.03253">
        <ele>383</ele>
        <time>2020-05-31T02:58:59Z</time>
      </trkpt>
      <trkpt lat="45.7929" lon="4.03295">
        <ele>381</ele>
        <time>2020-05-31T02:59:13Z</time>
      </trkpt>
      <trkpt lat="45.79311" lon="4.03315">
        <ele>381</ele>
        <time>2020-05-31T02:59:17Z</time>
      </trkpt>
      <trkpt lat="45.79346" lon="4.03358">
        <ele>381</ele>
        <time>2020-05-31T02:59:25Z</time>
      </trkpt>
      <trkpt lat="45.79403" lon="4.03448">
        <ele>381</ele>
        <time>2020-05-31T02:59:40Z</time>
      </trkpt>
      <trkpt lat="45.79431" lon="4.03473">
        <ele>380</ele>
        <time>2020-05-31T02:59:46Z</time>
      </trkpt>
      <trkpt lat="45.79496" lon="4.03475">
        <ele>378</ele>
        <time>2020-05-31T02:59:58Z</time>
      </trkpt>
      <trkpt lat="45.79495" lon="4.03543">
        <ele>378</ele>
        <time>2020-05-31T03:00:06Z</time>
      </trkpt>
      <trkpt lat="45.79493" lon="4.03644">
        <ele>374</ele>
        <time>2020-05-31T03:00:19Z</time>
      </trkpt>
      <trkpt lat="45.79488" lon="4.0372">
        <ele>372</ele>
        <time>2020-05-31T03:00:28Z</time>
      </trkpt>
      <trkpt lat="45.79487" lon="4.03734">
        <ele>372</ele>
        <time>2020-05-31T03:00:30Z</time>
      </trkpt>
      <trkpt lat="45.79483" lon="4.0382">
        <ele>370</ele>
        <time>2020-05-31T03:00:41Z</time>
      </trkpt>
      <trkpt lat="45.79472" lon="4.03874">
        <ele>368</ele>
        <time>2020-05-31T03:00:48Z</time>
      </trkpt>
      <trkpt lat="45.79472" lon="4.03888">
        <ele>368</ele>
        <time>2020-05-31T03:00:49Z</time>
      </trkpt>
      <trkpt lat="45.79472" lon="4.03908">
        <ele>367</ele>
        <time>2020-05-31T03:00:52Z</time>
      </trkpt>
      <trkpt lat="45.79486" lon="4.03952">
        <ele>366</ele>
        <time>2020-05-31T03:00:58Z</time>
      </trkpt>
      <trkpt lat="45.79597" lon="4.04189">
        <ele>360</ele>
        <time>2020-05-31T03:01:33Z</time>
      </trkpt>
      <trkpt lat="45.79661" lon="4.04288">
        <ele>357</ele>
        <time>2020-05-31T03:01:50Z</time>
      </trkpt>
      <trkpt lat="45.79691" lon="4.04326">
        <ele>356</ele>
        <time>2020-05-31T03:01:57Z</time>
      </trkpt>
      <trkpt lat="45.79721" lon="4.04358">
        <ele>356</ele>
        <time>2020-05-31T03:02:04Z</time>
      </trkpt>
      <trkpt lat="45.79789" lon="4.04414">
        <ele>356</ele>
        <time>2020-05-31T03:02:18Z</time>
      </trkpt>
      <trkpt lat="45.7981" lon="4.04446">
        <ele>356</ele>
        <time>2020-05-31T03:02:23Z</time>
      </trkpt>
      <trkpt lat="45.79864" lon="4.04592">
        <ele>357</ele>
        <time>2020-05-31T03:02:44Z</time>
      </trkpt>
      <trkpt lat="45.79888" lon="4.04631">
        <ele>357</ele>
        <time>2020-05-31T03:02:50Z</time>
      </trkpt>
      <trkpt lat="45.79917" lon="4.04661">
        <ele>357</ele>
        <time>2020-05-31T03:02:57Z</time>
      </trkpt>
      <trkpt lat="45.7997" lon="4.04708">
        <ele>357</ele>
        <time>2020-05-31T03:03:08Z</time>
      </trkpt>
      <trkpt lat="45.80012" lon="4.04757">
        <ele>357</ele>
        <time>2020-05-31T03:03:17Z</time>
      </trkpt>
      <trkpt lat="45.80025" lon="4.04774">
        <ele>357</ele>
        <time>2020-05-31T03:03:20Z</time>
      </trkpt>
      <trkpt lat="45.80038" lon="4.04791">
        <ele>357</ele>
        <time>2020-05-31T03:03:24Z</time>
      </trkpt>
      <trkpt lat="45.80068" lon="4.04815">
        <ele>357</ele>
        <time>2020-05-31T03:03:30Z</time>
      </trkpt>
      <trkpt lat="45.80101" lon="4.04834">
        <ele>357</ele>
        <time>2020-05-31T03:03:36Z</time>
      </trkpt>
      <trkpt lat="45.80133" lon="4.0486">
        <ele>356</ele>
        <time>2020-05-31T03:03:43Z</time>
      </trkpt>
      <trkpt lat="45.8016" lon="4.04892">
        <ele>355</ele>
        <time>2020-05-31T03:03:49Z</time>
      </trkpt>
      <trkpt lat="45.8018" lon="4.04927">
        <ele>355</ele>
        <time>2020-05-31T03:03:54Z</time>
      </trkpt>
      <trkpt lat="45.80193" lon="4.0497">
        <ele>354</ele>
        <time>2020-05-31T03:04:00Z</time>
      </trkpt>
      <trkpt lat="45.80204" lon="4.0501">
        <ele>354</ele>
        <time>2020-05-31T03:04:06Z</time>
      </trkpt>
      <trkpt lat="45.80219" lon="4.05043">
        <ele>353</ele>
        <time>2020-05-31T03:04:10Z</time>
      </trkpt>
      <trkpt lat="45.80347" lon="4.05146">
        <ele>352</ele>
        <time>2020-05-31T03:04:37Z</time>
      </trkpt>
      <trkpt lat="45.80433" lon="4.05214">
        <ele>351</ele>
        <time>2020-05-31T03:04:54Z</time>
      </trkpt>
      <trkpt lat="45.80492" lon="4.05272">
        <ele>351</ele>
        <time>2020-05-31T03:05:07Z</time>
      </trkpt>
      <trkpt lat="45.80537" lon="4.0533">
        <ele>350</ele>
        <time>2020-05-31T03:05:17Z</time>
      </trkpt>
      <trkpt lat="45.80578" lon="4.05373">
        <ele>350</ele>
        <time>2020-05-31T03:05:27Z</time>
      </trkpt>
      <trkpt lat="45.80621" lon="4.05412">
        <ele>350</ele>
        <time>2020-05-31T03:05:36Z</time>
      </trkpt>
      <trkpt lat="45.80735" lon="4.05549">
        <ele>348</ele>
        <time>2020-05-31T03:06:02Z</time>
      </trkpt>
      <trkpt lat="45.80772" lon="4.05583">
        <ele>348</ele>
        <time>2020-05-31T03:06:10Z</time>
      </trkpt>
      <trkpt lat="45.80802" lon="4.05594">
        <ele>348</ele>
        <time>2020-05-31T03:06:15Z</time>
      </trkpt>
      <trkpt lat="45.80845" lon="4.056">
        <ele>348</ele>
        <time>2020-05-31T03:06:23Z</time>
      </trkpt>
      <trkpt lat="45.80938" lon="4.05624">
        <ele>347</ele>
        <time>2020-05-31T03:06:40Z</time>
      </trkpt>
      <trkpt lat="45.80979" lon="4.05615">
        <ele>346</ele>
        <time>2020-05-31T03:06:47Z</time>
      </trkpt>
      <trkpt lat="45.81011" lon="4.05624">
        <ele>346</ele>
        <time>2020-05-31T03:06:53Z</time>
      </trkpt>
      <trkpt lat="45.81285" lon="4.05744">
        <ele>344</ele>
        <time>2020-05-31T03:07:44Z</time>
      </trkpt>
      <trkpt lat="45.81326" lon="4.05766">
        <ele>345</ele>
        <time>2020-05-31T03:07:52Z</time>
      </trkpt>
      <trkpt lat="45.81354" lon="4.05809">
        <ele>344</ele>
        <time>2020-05-31T03:07:59Z</time>
      </trkpt>
      <trkpt lat="45.81412" lon="4.05908">
        <ele>345</ele>
        <time>2020-05-31T03:08:15Z</time>
      </trkpt>
      <trkpt lat="45.81433" lon="4.05947">
        <ele>345</ele>
        <time>2020-05-31T03:08:21Z</time>
      </trkpt>
      <trkpt lat="45.81462" lon="4.06012">
        <ele>344</ele>
        <time>2020-05-31T03:08:31Z</time>
      </trkpt>
      <trkpt lat="45.81467" lon="4.06018">
        <ele>344</ele>
        <time>2020-05-31T03:08:32Z</time>
      </trkpt>
      <trkpt lat="45.81474" lon="4.0602">
        <ele>344</ele>
        <time>2020-05-31T03:08:33Z</time>
      </trkpt>
      <trkpt lat="45.81482" lon="4.06018">
        <ele>344</ele>
        <time>2020-05-31T03:08:35Z</time>
      </trkpt>
      <trkpt lat="45.81557" lon="4.06002">
        <ele>344</ele>
        <time>2020-05-31T03:08:48Z</time>
      </trkpt>
      <trkpt lat="45.81583" lon="4.05998">
        <ele>343</ele>
        <time>2020-05-31T03:08:53Z</time>
      </trkpt>
      <trkpt lat="45.81612" lon="4.06006">
        <ele>342</ele>
        <time>2020-05-31T03:08:58Z</time>
      </trkpt>
      <trkpt lat="45.81653" lon="4.06035">
        <ele>341</ele>
        <time>2020-05-31T03:09:06Z</time>
      </trkpt>
      <trkpt lat="45.81899" lon="4.0615">
        <ele>341</ele>
        <time>2020-05-31T03:09:52Z</time>
      </trkpt>
      <trkpt lat="45.81943" lon="4.06168">
        <ele>341</ele>
        <time>2020-05-31T03:10:00Z</time>
      </trkpt>
      <trkpt lat="45.81982" lon="4.06192">
        <ele>341</ele>
        <time>2020-05-31T03:10:08Z</time>
      </trkpt>
      <trkpt lat="45.82054" lon="4.06255">
        <ele>340</ele>
        <time>2020-05-31T03:10:23Z</time>
      </trkpt>
      <trkpt lat="45.82107" lon="4.06299">
        <ele>339</ele>
        <time>2020-05-31T03:10:34Z</time>
      </trkpt>
      <trkpt lat="45.82095" lon="4.06629">
        <ele>338</ele>
        <time>2020-05-31T03:11:15Z</time>
      </trkpt>
      <trkpt lat="45.82086" lon="4.06689">
        <ele>337</ele>
        <time>2020-05-31T03:11:22Z</time>
      </trkpt>
      <trkpt lat="45.82074" lon="4.06749">
        <ele>337</ele>
        <time>2020-05-31T03:11:30Z</time>
      </trkpt>
      <trkpt lat="45.82038" lon="4.0688">
        <ele>337</ele>
        <time>2020-05-31T03:11:48Z</time>
      </trkpt>
      <trkpt lat="45.81995" lon="4.07013">
        <ele>337</ele>
        <time>2020-05-31T03:12:06Z</time>
      </trkpt>
      <trkpt lat="45.81904" lon="4.07287">
        <ele>337</ele>
        <time>2020-05-31T03:12:43Z</time>
      </trkpt>
      <trkpt lat="45.81704" lon="4.07911">
        <ele>341</ele>
        <time>2020-05-31T03:14:09Z</time>
      </trkpt>
      <trkpt lat="45.81642" lon="4.08133">
        <ele>341</ele>
        <time>2020-05-31T03:14:38Z</time>
      </trkpt>
      <trkpt lat="45.81635" lon="4.08336">
        <ele>343</ele>
        <time>2020-05-31T03:15:03Z</time>
      </trkpt>
      <trkpt lat="45.8163" lon="4.08447">
        <ele>343</ele>
        <time>2020-05-31T03:15:17Z</time>
      </trkpt>
      <trkpt lat="45.81629" lon="4.08534">
        <ele>343</ele>
        <time>2020-05-31T03:15:28Z</time>
      </trkpt>
      <trkpt lat="45.81633" lon="4.08641">
        <ele>343</ele>
        <time>2020-05-31T03:15:41Z</time>
      </trkpt>
      <trkpt lat="45.81637" lon="4.08773">
        <ele>341</ele>
        <time>2020-05-31T03:15:58Z</time>
      </trkpt>
      <trkpt lat="45.81648" lon="4.09013">
        <ele>342</ele>
        <time>2020-05-31T03:16:28Z</time>
      </trkpt>
      <trkpt lat="45.81673" lon="4.09503">
        <ele>340</ele>
        <time>2020-05-31T03:17:28Z</time>
      </trkpt>
      <trkpt lat="45.81721" lon="4.10418">
        <ele>338</ele>
        <time>2020-05-31T03:19:22Z</time>
      </trkpt>
      <trkpt lat="45.81737" lon="4.10732">
        <ele>338</ele>
        <time>2020-05-31T03:20:01Z</time>
      </trkpt>
      <trkpt lat="45.81733" lon="4.10801">
        <ele>337</ele>
        <time>2020-05-31T03:20:10Z</time>
      </trkpt>
      <trkpt lat="45.8172" lon="4.10868">
        <ele>336</ele>
        <time>2020-05-31T03:20:19Z</time>
      </trkpt>
      <trkpt lat="45.81708" lon="4.10909">
        <ele>335</ele>
        <time>2020-05-31T03:20:24Z</time>
      </trkpt>
      <trkpt lat="45.8162" lon="4.11115">
        <ele>334</ele>
        <time>2020-05-31T03:20:54Z</time>
      </trkpt>
      <trkpt lat="45.81591" lon="4.11218">
        <ele>338</ele>
        <time>2020-05-31T03:21:08Z</time>
      </trkpt>
      <trkpt lat="45.8152" lon="4.1148">
        <ele>338</ele>
        <time>2020-05-31T03:21:43Z</time>
      </trkpt>
      <trkpt lat="45.81487" lon="4.116">
        <ele>337</ele>
        <time>2020-05-31T03:21:59Z</time>
      </trkpt>
      <trkpt lat="45.81465" lon="4.11689">
        <ele>339</ele>
        <time>2020-05-31T03:22:10Z</time>
      </trkpt>
      <trkpt lat="45.81415" lon="4.11872">
        <ele>340</ele>
        <time>2020-05-31T03:22:35Z</time>
      </trkpt>
      <trkpt lat="45.81392" lon="4.11959">
        <ele>340</ele>
        <time>2020-05-31T03:22:46Z</time>
      </trkpt>
      <trkpt lat="45.81102" lon="4.13018">
        <ele>359</ele>
        <time>2020-05-31T03:25:07Z</time>
      </trkpt>
      <trkpt lat="45.80953" lon="4.13562">
        <ele>364</ele>
        <time>2020-05-31T03:26:20Z</time>
      </trkpt>
      <trkpt lat="45.80733" lon="4.13823">
        <ele>368</ele>
        <time>2020-05-31T03:27:11Z</time>
      </trkpt>
      <trkpt lat="45.8069" lon="4.13878">
        <ele>368</ele>
        <time>2020-05-31T03:27:21Z</time>
      </trkpt>
      <trkpt lat="45.8068" lon="4.13912">
        <ele>368</ele>
        <time>2020-05-31T03:27:25Z</time>
      </trkpt>
      <trkpt lat="45.80649" lon="4.14054">
        <ele>365</ele>
        <time>2020-05-31T03:27:44Z</time>
      </trkpt>
      <trkpt lat="45.80585" lon="4.14337">
        <ele>360</ele>
        <time>2020-05-31T03:28:21Z</time>
      </trkpt>
      <trkpt lat="45.80515" lon="4.14666">
        <ele>360</ele>
        <time>2020-05-31T03:29:04Z</time>
      </trkpt>
      <trkpt lat="45.80509" lon="4.14698">
        <ele>360</ele>
        <time>2020-05-31T03:29:08Z</time>
      </trkpt>
      <trkpt lat="45.80505" lon="4.14714">
        <ele>360</ele>
        <time>2020-05-31T03:29:10Z</time>
      </trkpt>
      <trkpt lat="45.80491" lon="4.14865">
        <ele>358</ele>
        <time>2020-05-31T03:29:29Z</time>
      </trkpt>
      <trkpt lat="45.80484" lon="4.14906">
        <ele>357</ele>
        <time>2020-05-31T03:29:34Z</time>
      </trkpt>
      <trkpt lat="45.80478" lon="4.14965">
        <ele>357</ele>
        <time>2020-05-31T03:29:41Z</time>
      </trkpt>
      <trkpt lat="45.80477" lon="4.14984">
        <ele>357</ele>
        <time>2020-05-31T03:29:44Z</time>
      </trkpt>
      <trkpt lat="45.80477" lon="4.15025">
        <ele>356</ele>
        <time>2020-05-31T03:29:49Z</time>
      </trkpt>
      <trkpt lat="45.8048" lon="4.15073">
        <ele>356</ele>
        <time>2020-05-31T03:29:55Z</time>
      </trkpt>
      <trkpt lat="45.80481" lon="4.15084">
        <ele>356</ele>
        <time>2020-05-31T03:29:56Z</time>
      </trkpt>
      <trkpt lat="45.8048" lon="4.15106">
        <ele>355</ele>
        <time>2020-05-31T03:29:59Z</time>
      </trkpt>
      <trkpt lat="45.80476" lon="4.15144">
        <ele>354</ele>
        <time>2020-05-31T03:30:04Z</time>
      </trkpt>
      <trkpt lat="45.80467" lon="4.15216">
        <ele>353</ele>
        <time>2020-05-31T03:30:13Z</time>
      </trkpt>
      <trkpt lat="45.80465" lon="4.15241">
        <ele>352</ele>
        <time>2020-05-31T03:30:16Z</time>
      </trkpt>
      <trkpt lat="45.8047" lon="4.15258">
        <ele>352</ele>
        <time>2020-05-31T03:30:18Z</time>
      </trkpt>
      <trkpt lat="45.80484" lon="4.15312">
        <ele>350</ele>
        <time>2020-05-31T03:30:25Z</time>
      </trkpt>
      <trkpt lat="45.80511" lon="4.15377">
        <ele>347</ele>
        <time>2020-05-31T03:30:35Z</time>
      </trkpt>
      <trkpt lat="45.8058" lon="4.15509">
        <ele>341</ele>
        <time>2020-05-31T03:30:55Z</time>
      </trkpt>
      <trkpt lat="45.80585" lon="4.15517">
        <ele>341</ele>
        <time>2020-05-31T03:30:56Z</time>
      </trkpt>
      <trkpt lat="45.8059" lon="4.15534">
        <ele>340</ele>
        <time>2020-05-31T03:30:59Z</time>
      </trkpt>
      <trkpt lat="45.80593" lon="4.15548">
        <ele>339</ele>
        <time>2020-05-31T03:31:00Z</time>
      </trkpt>
      <trkpt lat="45.80595" lon="4.15567">
        <ele>339</ele>
        <time>2020-05-31T03:31:03Z</time>
      </trkpt>
      <trkpt lat="45.80601" lon="4.15604">
        <ele>337</ele>
        <time>2020-05-31T03:31:08Z</time>
      </trkpt>
      <trkpt lat="45.80603" lon="4.15612">
        <ele>336</ele>
        <time>2020-05-31T03:31:09Z</time>
      </trkpt>
      <trkpt lat="45.80622" lon="4.15645">
        <ele>333</ele>
        <time>2020-05-31T03:31:14Z</time>
      </trkpt>
      <trkpt lat="45.80629" lon="4.15652">
        <ele>333</ele>
        <time>2020-05-31T03:31:15Z</time>
      </trkpt>
      <trkpt lat="45.80648" lon="4.1567">
        <ele>331</ele>
        <time>2020-05-31T03:31:20Z</time>
      </trkpt>
      <trkpt lat="45.80653" lon="4.15677">
        <ele>330</ele>
        <time>2020-05-31T03:31:21Z</time>
      </trkpt>
      <trkpt lat="45.80656" lon="4.15685">
        <ele>330</ele>
        <time>2020-05-31T03:31:22Z</time>
      </trkpt>
      <trkpt lat="45.80658" lon="4.15694">
        <ele>329</ele>
        <time>2020-05-31T03:31:23Z</time>
      </trkpt>
      <trkpt lat="45.80662" lon="4.15726">
        <ele>328</ele>
        <time>2020-05-31T03:31:27Z</time>
      </trkpt>
      <trkpt lat="45.80664" lon="4.15734">
        <ele>328</ele>
        <time>2020-05-31T03:31:28Z</time>
      </trkpt>
      <trkpt lat="45.8067" lon="4.15746">
        <ele>327</ele>
        <time>2020-05-31T03:31:30Z</time>
      </trkpt>
      <trkpt lat="45.80685" lon="4.15766">
        <ele>325</ele>
        <time>2020-05-31T03:31:34Z</time>
      </trkpt>
      <trkpt lat="45.80692" lon="4.15775">
        <ele>325</ele>
        <time>2020-05-31T03:31:35Z</time>
      </trkpt>
      <trkpt lat="45.80705" lon="4.1579">
        <ele>324</ele>
        <time>2020-05-31T03:31:38Z</time>
      </trkpt>
      <trkpt lat="45.80721" lon="4.15808">
        <ele>323</ele>
        <time>2020-05-31T03:31:42Z</time>
      </trkpt>
      <trkpt lat="45.80843" lon="4.15948">
        <ele>317</ele>
        <time>2020-05-31T03:32:10Z</time>
      </trkpt>
      <trkpt lat="45.80938" lon="4.16053">
        <ele>318</ele>
        <time>2020-05-31T03:32:31Z</time>
      </trkpt>
      <trkpt lat="45.80956" lon="4.16076">
        <ele>318</ele>
        <time>2020-05-31T03:32:35Z</time>
      </trkpt>
      <trkpt lat="45.80964" lon="4.16089">
        <ele>318</ele>
        <time>2020-05-31T03:32:37Z</time>
      </trkpt>
      <trkpt lat="45.80967" lon="4.16097">
        <ele>318</ele>
        <time>2020-05-31T03:32:39Z</time>
      </trkpt>
      <trkpt lat="45.80973" lon="4.16113">
        <ele>318</ele>
        <time>2020-05-31T03:32:41Z</time>
      </trkpt>
      <trkpt lat="45.81051" lon="4.16335">
        <ele>319</ele>
        <time>2020-05-31T03:33:12Z</time>
      </trkpt>
      <trkpt lat="45.81058" lon="4.16354">
        <ele>318</ele>
        <time>2020-05-31T03:33:14Z</time>
      </trkpt>
      <trkpt lat="45.81259" lon="4.1693">
        <ele>320</ele>
        <time>2020-05-31T03:34:34Z</time>
      </trkpt>
      <trkpt lat="45.81335" lon="4.17148">
        <ele>319</ele>
        <time>2020-05-31T03:35:04Z</time>
      </trkpt>
      <trkpt lat="45.81363" lon="4.1723">
        <ele>319</ele>
        <time>2020-05-31T03:35:16Z</time>
      </trkpt>
      <trkpt lat="45.81385" lon="4.17281">
        <ele>319</ele>
        <time>2020-05-31T03:35:23Z</time>
      </trkpt>
      <trkpt lat="45.81402" lon="4.17313">
        <ele>318</ele>
        <time>2020-05-31T03:35:28Z</time>
      </trkpt>
      <trkpt lat="45.81453" lon="4.17396">
        <ele>318</ele>
        <time>2020-05-31T03:35:42Z</time>
      </trkpt>
      <trkpt lat="45.81476" lon="4.17439">
        <ele>318</ele>
        <time>2020-05-31T03:35:49Z</time>
      </trkpt>
      <trkpt lat="45.81491" lon="4.17502">
        <ele>319</ele>
        <time>2020-05-31T03:35:57Z</time>
      </trkpt>
      <trkpt lat="45.81498" lon="4.1761">
        <ele>318</ele>
        <time>2020-05-31T03:36:10Z</time>
      </trkpt>
      <trkpt lat="45.81499" lon="4.17721">
        <ele>318</ele>
        <time>2020-05-31T03:36:24Z</time>
      </trkpt>
      <trkpt lat="45.81497" lon="4.17788">
        <ele>318</ele>
        <time>2020-05-31T03:36:32Z</time>
      </trkpt>
      <trkpt lat="45.81492" lon="4.1785">
        <ele>318</ele>
        <time>2020-05-31T03:36:40Z</time>
      </trkpt>
      <trkpt lat="45.81476" lon="4.17939">
        <ele>319</ele>
        <time>2020-05-31T03:36:52Z</time>
      </trkpt>
      <trkpt lat="45.81484" lon="4.17953">
        <ele>319</ele>
        <time>2020-05-31T03:36:54Z</time>
      </trkpt>
      <trkpt lat="45.81488" lon="4.17999">
        <ele>320</ele>
        <time>2020-05-31T03:37:00Z</time>
      </trkpt>
      <trkpt lat="45.81521" lon="4.18045">
        <ele>321</ele>
        <time>2020-05-31T03:37:08Z</time>
      </trkpt>
      <trkpt lat="45.81535" lon="4.18072">
        <ele>321</ele>
        <time>2020-05-31T03:37:12Z</time>
      </trkpt>
      <trkpt lat="45.81549" lon="4.18082">
        <ele>320</ele>
        <time>2020-05-31T03:37:15Z</time>
      </trkpt>
      <trkpt lat="45.81548" lon="4.18089">
        <ele>320</ele>
        <time>2020-05-31T03:37:16Z</time>
      </trkpt>
      <trkpt lat="45.81563" lon="4.18117">
        <ele>319</ele>
        <time>2020-05-31T03:37:20Z</time>
      </trkpt>
      <trkpt lat="45.81563" lon="4.18131">
        <ele>319</ele>
        <time>2020-05-31T03:37:22Z</time>
      </trkpt>
      <trkpt lat="45.81537" lon="4.18216">
        <ele>320</ele>
        <time>2020-05-31T03:37:33Z</time>
      </trkpt>
      <trkpt lat="45.81563" lon="4.18131">
        <ele>319</ele>
        <time>2020-05-31T03:37:45Z</time>
      </trkpt>
      <trkpt lat="45.81563" lon="4.18117">
        <ele>319</ele>
        <time>2020-05-31T03:37:46Z</time>
      </trkpt>
      <trkpt lat="45.81548" lon="4.18089">
        <ele>320</ele>
        <time>2020-05-31T03:37:51Z</time>
      </trkpt>
      <trkpt lat="45.81549" lon="4.18082">
        <ele>320</ele>
        <time>2020-05-31T03:37:52Z</time>
      </trkpt>
      <trkpt lat="45.81535" lon="4.18072">
        <ele>321</ele>
        <time>2020-05-31T03:37:55Z</time>
      </trkpt>
      <trkpt lat="45.81521" lon="4.18045">
        <ele>321</ele>
        <time>2020-05-31T03:37:59Z</time>
      </trkpt>
      <trkpt lat="45.81489" lon="4.18001">
        <ele>320</ele>
        <time>2020-05-31T03:38:07Z</time>
      </trkpt>
      <trkpt lat="45.81475" lon="4.18032">
        <ele>320</ele>
        <time>2020-05-31T03:38:11Z</time>
      </trkpt>
      <trkpt lat="45.81475" lon="4.18059">
        <ele>321</ele>
        <time>2020-05-31T03:38:15Z</time>
      </trkpt>
      <trkpt lat="45.81492" lon="4.18102">
        <ele>322</ele>
        <time>2020-05-31T03:38:21Z</time>
      </trkpt>
      <trkpt lat="45.81492" lon="4.18112">
        <ele>322</ele>
        <time>2020-05-31T03:38:22Z</time>
      </trkpt>
      <trkpt lat="45.81501" lon="4.18128">
        <ele>323</ele>
        <time>2020-05-31T03:38:24Z</time>
      </trkpt>
      <trkpt lat="45.8163" lon="4.18303">
        <ele>323</ele>
        <time>2020-05-31T03:38:56Z</time>
      </trkpt>
      <trkpt lat="45.81772" lon="4.18504">
        <ele>331</ele>
        <time>2020-05-31T03:39:32Z</time>
      </trkpt>
      <trkpt lat="45.81787" lon="4.18574">
        <ele>332</ele>
        <time>2020-05-31T03:39:41Z</time>
      </trkpt>
      <trkpt lat="45.81807" lon="4.18688">
        <ele>333</ele>
        <time>2020-05-31T03:39:55Z</time>
      </trkpt>
      <trkpt lat="45.8182" lon="4.18753">
        <ele>333</ele>
        <time>2020-05-31T03:40:04Z</time>
      </trkpt>
      <trkpt lat="45.81828" lon="4.18805">
        <ele>333</ele>
        <time>2020-05-31T03:40:10Z</time>
      </trkpt>
      <trkpt lat="45.8186" lon="4.18966">
        <ele>334</ele>
        <time>2020-05-31T03:40:31Z</time>
      </trkpt>
      <trkpt lat="45.81872" lon="4.19043">
        <ele>333</ele>
        <time>2020-05-31T03:40:41Z</time>
      </trkpt>
      <trkpt lat="45.81876" lon="4.19085">
        <ele>333</ele>
        <time>2020-05-31T03:40:46Z</time>
      </trkpt>
      <trkpt lat="45.8187" lon="4.19129">
        <ele>334</ele>
        <time>2020-05-31T03:40:52Z</time>
      </trkpt>
      <trkpt lat="45.81866" lon="4.19141">
        <ele>334</ele>
        <time>2020-05-31T03:40:53Z</time>
      </trkpt>
      <trkpt lat="45.8186" lon="4.19163">
        <ele>335</ele>
        <time>2020-05-31T03:40:56Z</time>
      </trkpt>
      <trkpt lat="45.81854" lon="4.19188">
        <ele>335</ele>
        <time>2020-05-31T03:40:59Z</time>
      </trkpt>
      <trkpt lat="45.8185" lon="4.19206">
        <ele>336</ele>
        <time>2020-05-31T03:41:02Z</time>
      </trkpt>
      <trkpt lat="45.8181" lon="4.19383">
        <ele>337</ele>
        <time>2020-05-31T03:41:25Z</time>
      </trkpt>
      <trkpt lat="45.81796" lon="4.19451">
        <ele>337</ele>
        <time>2020-05-31T03:41:34Z</time>
      </trkpt>
      <trkpt lat="45.81782" lon="4.19514">
        <ele>338</ele>
        <time>2020-05-31T03:41:42Z</time>
      </trkpt>
      <trkpt lat="45.81776" lon="4.19534">
        <ele>338</ele>
        <time>2020-05-31T03:41:44Z</time>
      </trkpt>
      <trkpt lat="45.81766" lon="4.19531">
        <ele>338</ele>
        <time>2020-05-31T03:41:46Z</time>
      </trkpt>
      <trkpt lat="45.81757" lon="4.19538">
        <ele>338</ele>
        <time>2020-05-31T03:41:48Z</time>
      </trkpt>
      <trkpt lat="45.81753" lon="4.19547">
        <ele>338</ele>
        <time>2020-05-31T03:41:49Z</time>
      </trkpt>
      <trkpt lat="45.81753" lon="4.19558">
        <ele>338</ele>
        <time>2020-05-31T03:41:51Z</time>
      </trkpt>
      <trkpt lat="45.81756" lon="4.19568">
        <ele>338</ele>
        <time>2020-05-31T03:41:52Z</time>
      </trkpt>
      <trkpt lat="45.81762" lon="4.19575">
        <ele>338</ele>
        <time>2020-05-31T03:41:54Z</time>
      </trkpt>
      <trkpt lat="45.81769" lon="4.19577">
        <ele>338</ele>
        <time>2020-05-31T03:41:55Z</time>
      </trkpt>
      <trkpt lat="45.81769" lon="4.19617">
        <ele>338</ele>
        <time>2020-05-31T03:42:00Z</time>
      </trkpt>
      <trkpt lat="45.81739" lon="4.1991">
        <ele>341</ele>
        <time>2020-05-31T03:42:36Z</time>
      </trkpt>
      <trkpt lat="45.81735" lon="4.19969">
        <ele>341</ele>
        <time>2020-05-31T03:42:44Z</time>
      </trkpt>
      <trkpt lat="45.81725" lon="4.19994">
        <ele>341</ele>
        <time>2020-05-31T03:42:47Z</time>
      </trkpt>
      <trkpt lat="45.81719" lon="4.2001">
        <ele>342</ele>
        <time>2020-05-31T03:42:50Z</time>
      </trkpt>
      <trkpt lat="45.81692" lon="4.20088">
        <ele>344</ele>
        <time>2020-05-31T03:43:00Z</time>
      </trkpt>
      <trkpt lat="45.81686" lon="4.20106">
        <ele>345</ele>
        <time>2020-05-31T03:43:03Z</time>
      </trkpt>
      <trkpt lat="45.81652" lon="4.20198">
        <ele>345</ele>
        <time>2020-05-31T03:43:16Z</time>
      </trkpt>
      <trkpt lat="45.81645" lon="4.20216">
        <ele>345</ele>
        <time>2020-05-31T03:43:18Z</time>
      </trkpt>
      <trkpt lat="45.81627" lon="4.20274">
        <ele>345</ele>
        <time>2020-05-31T03:43:26Z</time>
      </trkpt>
      <trkpt lat="45.81607" lon="4.2036">
        <ele>345</ele>
        <time>2020-05-31T03:43:38Z</time>
      </trkpt>
      <trkpt lat="45.81588" lon="4.20421">
        <ele>345</ele>
        <time>2020-05-31T03:43:46Z</time>
      </trkpt>
      <trkpt lat="45.81586" lon="4.20427">
        <ele>345</ele>
        <time>2020-05-31T03:43:47Z</time>
      </trkpt>
      <trkpt lat="45.81584" lon="4.20434">
        <ele>345</ele>
        <time>2020-05-31T03:43:48Z</time>
      </trkpt>
      <trkpt lat="45.81582" lon="4.20442">
        <ele>345</ele>
        <time>2020-05-31T03:43:49Z</time>
      </trkpt>
      <trkpt lat="45.81481" lon="4.20772">
        <ele>348</ele>
        <time>2020-05-31T03:44:33Z</time>
      </trkpt>
      <trkpt lat="45.81461" lon="4.20839">
        <ele>347</ele>
        <time>2020-05-31T03:44:42Z</time>
      </trkpt>
      <trkpt lat="45.81384" lon="4.21092">
        <ele>350</ele>
        <time>2020-05-31T03:45:17Z</time>
      </trkpt>
      <trkpt lat="45.81355" lon="4.21187">
        <ele>351</ele>
        <time>2020-05-31T03:45:29Z</time>
      </trkpt>
      <trkpt lat="45.81352" lon="4.21196">
        <ele>352</ele>
        <time>2020-05-31T03:45:31Z</time>
      </trkpt>
      <trkpt lat="45.81297" lon="4.21379">
        <ele>354</ele>
        <time>2020-05-31T03:45:55Z</time>
      </trkpt>
      <trkpt lat="45.81291" lon="4.21398">
        <ele>354</ele>
        <time>2020-05-31T03:45:58Z</time>
      </trkpt>
      <trkpt lat="45.81254" lon="4.21523">
        <ele>354</ele>
        <time>2020-05-31T03:46:15Z</time>
      </trkpt>
      <trkpt lat="45.81229" lon="4.21566">
        <ele>356</ele>
        <time>2020-05-31T03:46:22Z</time>
      </trkpt>
      <trkpt lat="45.81214" lon="4.21583">
        <ele>357</ele>
        <time>2020-05-31T03:46:25Z</time>
      </trkpt>
      <trkpt lat="45.812" lon="4.21597">
        <ele>359</ele>
        <time>2020-05-31T03:46:28Z</time>
      </trkpt>
      <trkpt lat="45.81169" lon="4.21617">
        <ele>361</ele>
        <time>2020-05-31T03:46:34Z</time>
      </trkpt>
      <trkpt lat="45.81135" lon="4.21647">
        <ele>362</ele>
        <time>2020-05-31T03:46:41Z</time>
      </trkpt>
      <trkpt lat="45.81107" lon="4.21676">
        <ele>362</ele>
        <time>2020-05-31T03:46:48Z</time>
      </trkpt>
      <trkpt lat="45.81071" lon="4.21724">
        <ele>361</ele>
        <time>2020-05-31T03:46:56Z</time>
      </trkpt>
      <trkpt lat="45.8106" lon="4.21746">
        <ele>361</ele>
        <time>2020-05-31T03:47:00Z</time>
      </trkpt>
      <trkpt lat="45.81041" lon="4.21798">
        <ele>362</ele>
        <time>2020-05-31T03:47:07Z</time>
      </trkpt>
      <trkpt lat="45.81035" lon="4.21823">
        <ele>363</ele>
        <time>2020-05-31T03:47:10Z</time>
      </trkpt>
      <trkpt lat="45.81026" lon="4.21858">
        <ele>363</ele>
        <time>2020-05-31T03:47:15Z</time>
      </trkpt>
      <trkpt lat="45.81005" lon="4.21897">
        <ele>362</ele>
        <time>2020-05-31T03:47:21Z</time>
      </trkpt>
      <trkpt lat="45.80955" lon="4.21986">
        <ele>361</ele>
        <time>2020-05-31T03:47:35Z</time>
      </trkpt>
      <trkpt lat="45.8095" lon="4.21994">
        <ele>361</ele>
        <time>2020-05-31T03:47:36Z</time>
      </trkpt>
      <trkpt lat="45.80914" lon="4.22055">
        <ele>361</ele>
        <time>2020-05-31T03:47:46Z</time>
      </trkpt>
      <trkpt lat="45.80869" lon="4.22103">
        <ele>362</ele>
        <time>2020-05-31T03:47:56Z</time>
      </trkpt>
      <trkpt lat="45.80832" lon="4.22146">
        <ele>363</ele>
        <time>2020-05-31T03:48:05Z</time>
      </trkpt>
      <trkpt lat="45.8076" lon="4.22221">
        <ele>362</ele>
        <time>2020-05-31T03:48:21Z</time>
      </trkpt>
      <trkpt lat="45.80707" lon="4.22313">
        <ele>362</ele>
        <time>2020-05-31T03:48:35Z</time>
      </trkpt>
      <trkpt lat="45.80691" lon="4.22337">
        <ele>363</ele>
        <time>2020-05-31T03:48:40Z</time>
      </trkpt>
      <trkpt lat="45.80628" lon="4.22405">
        <ele>363</ele>
        <time>2020-05-31T03:48:54Z</time>
      </trkpt>
      <trkpt lat="45.80597" lon="4.22442">
        <ele>363</ele>
        <time>2020-05-31T03:49:01Z</time>
      </trkpt>
      <trkpt lat="45.80562" lon="4.22468">
        <ele>362</ele>
        <time>2020-05-31T03:49:08Z</time>
      </trkpt>
      <trkpt lat="45.80484" lon="4.2253">
        <ele>362</ele>
        <time>2020-05-31T03:49:24Z</time>
      </trkpt>
      <trkpt lat="45.80421" lon="4.22594">
        <ele>359</ele>
        <time>2020-05-31T03:49:37Z</time>
      </trkpt>
      <trkpt lat="45.804" lon="4.22607">
        <ele>359</ele>
        <time>2020-05-31T03:49:41Z</time>
      </trkpt>
      <trkpt lat="45.80394" lon="4.2261">
        <ele>359</ele>
        <time>2020-05-31T03:49:43Z</time>
      </trkpt>
      <trkpt lat="45.8038" lon="4.22615">
        <ele>359</ele>
        <time>2020-05-31T03:49:45Z</time>
      </trkpt>
      <trkpt lat="45.80355" lon="4.22625">
        <ele>359</ele>
        <time>2020-05-31T03:49:50Z</time>
      </trkpt>
      <trkpt lat="45.8031" lon="4.22642">
        <ele>358</ele>
        <time>2020-05-31T03:49:58Z</time>
      </trkpt>
      <trkpt lat="45.80289" lon="4.22652">
        <ele>358</ele>
        <time>2020-05-31T03:50:02Z</time>
      </trkpt>
      <trkpt lat="45.80278" lon="4.22656">
        <ele>358</ele>
        <time>2020-05-31T03:50:04Z</time>
      </trkpt>
      <trkpt lat="45.80254" lon="4.22668">
        <ele>358</ele>
        <time>2020-05-31T03:50:09Z</time>
      </trkpt>
      <trkpt lat="45.80247" lon="4.22671">
        <ele>358</ele>
        <time>2020-05-31T03:50:10Z</time>
      </trkpt>
      <trkpt lat="45.80235" lon="4.22677">
        <ele>358</ele>
        <time>2020-05-31T03:50:12Z</time>
      </trkpt>
      <trkpt lat="45.80211" lon="4.22695">
        <ele>358</ele>
        <time>2020-05-31T03:50:17Z</time>
      </trkpt>
      <trkpt lat="45.80179" lon="4.22726">
        <ele>357</ele>
        <time>2020-05-31T03:50:24Z</time>
      </trkpt>
      <trkpt lat="45.80157" lon="4.22749">
        <ele>357</ele>
        <time>2020-05-31T03:50:29Z</time>
      </trkpt>
      <trkpt lat="45.80142" lon="4.22766">
        <ele>358</ele>
        <time>2020-05-31T03:50:32Z</time>
      </trkpt>
      <trkpt lat="45.80131" lon="4.2278">
        <ele>358</ele>
        <time>2020-05-31T03:50:35Z</time>
      </trkpt>
      <trkpt lat="45.80104" lon="4.22825">
        <ele>360</ele>
        <time>2020-05-31T03:50:42Z</time>
      </trkpt>
      <trkpt lat="45.80089" lon="4.22849">
        <ele>360</ele>
        <time>2020-05-31T03:50:46Z</time>
      </trkpt>
      <trkpt lat="45.80074" lon="4.2288">
        <ele>361</ele>
        <time>2020-05-31T03:50:51Z</time>
      </trkpt>
      <trkpt lat="45.80058" lon="4.22917">
        <ele>361</ele>
        <time>2020-05-31T03:50:56Z</time>
      </trkpt>
      <trkpt lat="45.80042" lon="4.22941">
        <ele>361</ele>
        <time>2020-05-31T03:51:00Z</time>
      </trkpt>
      <trkpt lat="45.80021" lon="4.22966">
        <ele>362</ele>
        <time>2020-05-31T03:51:05Z</time>
      </trkpt>
      <trkpt lat="45.79953" lon="4.23015">
        <ele>361</ele>
        <time>2020-05-31T03:51:19Z</time>
      </trkpt>
      <trkpt lat="45.79947" lon="4.23023">
        <ele>361</ele>
        <time>2020-05-31T03:51:20Z</time>
      </trkpt>
      <trkpt lat="45.79943" lon="4.23032">
        <ele>362</ele>
        <time>2020-05-31T03:51:21Z</time>
      </trkpt>
      <trkpt lat="45.79938" lon="4.23051">
        <ele>362</ele>
        <time>2020-05-31T03:51:24Z</time>
      </trkpt>
      <trkpt lat="45.79932" lon="4.23088">
        <ele>363</ele>
        <time>2020-05-31T03:51:29Z</time>
      </trkpt>
      <trkpt lat="45.79928" lon="4.231">
        <ele>364</ele>
        <time>2020-05-31T03:51:30Z</time>
      </trkpt>
      <trkpt lat="45.79918" lon="4.23113">
        <ele>364</ele>
        <time>2020-05-31T03:51:33Z</time>
      </trkpt>
      <trkpt lat="45.79915" lon="4.23117">
        <ele>364</ele>
        <time>2020-05-31T03:51:33Z</time>
      </trkpt>
      <trkpt lat="45.79901" lon="4.23132">
        <ele>364</ele>
        <time>2020-05-31T03:51:36Z</time>
      </trkpt>
      <trkpt lat="45.79878" lon="4.23162">
        <ele>364</ele>
        <time>2020-05-31T03:51:42Z</time>
      </trkpt>
      <trkpt lat="45.79874" lon="4.23167">
        <ele>364</ele>
        <time>2020-05-31T03:51:43Z</time>
      </trkpt>
      <trkpt lat="45.7986" lon="4.23183">
        <ele>365</ele>
        <time>2020-05-31T03:51:46Z</time>
      </trkpt>
      <trkpt lat="45.79853" lon="4.23191">
        <ele>365</ele>
        <time>2020-05-31T03:51:48Z</time>
      </trkpt>
      <trkpt lat="45.79844" lon="4.23204">
        <ele>365</ele>
        <time>2020-05-31T03:51:50Z</time>
      </trkpt>
      <trkpt lat="45.79837" lon="4.23216">
        <ele>365</ele>
        <time>2020-05-31T03:51:52Z</time>
      </trkpt>
      <trkpt lat="45.79832" lon="4.23225">
        <ele>365</ele>
        <time>2020-05-31T03:51:53Z</time>
      </trkpt>
      <trkpt lat="45.79827" lon="4.23247">
        <ele>365</ele>
        <time>2020-05-31T03:51:56Z</time>
      </trkpt>
      <trkpt lat="45.7981" lon="4.23302">
        <ele>365</ele>
        <time>2020-05-31T03:52:04Z</time>
      </trkpt>
      <trkpt lat="45.79803" lon="4.23332">
        <ele>365</ele>
        <time>2020-05-31T03:52:08Z</time>
      </trkpt>
      <trkpt lat="45.79803" lon="4.23346">
        <ele>365</ele>
        <time>2020-05-31T03:52:09Z</time>
      </trkpt>
      <trkpt lat="45.79815" lon="4.2342">
        <ele>366</ele>
        <time>2020-05-31T03:52:19Z</time>
      </trkpt>
      <trkpt lat="45.79847" lon="4.23551">
        <ele>370</ele>
        <time>2020-05-31T03:52:36Z</time>
      </trkpt>
      <trkpt lat="45.79848" lon="4.23557">
        <ele>371</ele>
        <time>2020-05-31T03:52:37Z</time>
      </trkpt>
      <trkpt lat="45.79849" lon="4.23569">
        <ele>371</ele>
        <time>2020-05-31T03:52:38Z</time>
      </trkpt>
      <trkpt lat="45.79855" lon="4.23595">
        <ele>372</ele>
        <time>2020-05-31T03:52:42Z</time>
      </trkpt>
      <trkpt lat="45.7986" lon="4.23609">
        <ele>372</ele>
        <time>2020-05-31T03:52:44Z</time>
      </trkpt>
      <trkpt lat="45.79869" lon="4.23624">
        <ele>373</ele>
        <time>2020-05-31T03:52:46Z</time>
      </trkpt>
      <trkpt lat="45.7988" lon="4.23637">
        <ele>374</ele>
        <time>2020-05-31T03:52:49Z</time>
      </trkpt>
      <trkpt lat="45.79946" lon="4.23688">
        <ele>379</ele>
        <time>2020-05-31T03:53:02Z</time>
      </trkpt>
      <trkpt lat="45.79979" lon="4.23722">
        <ele>381</ele>
        <time>2020-05-31T03:53:09Z</time>
      </trkpt>
      <trkpt lat="45.8004" lon="4.23846">
        <ele>390</ele>
        <time>2020-05-31T03:53:28Z</time>
      </trkpt>
      <trkpt lat="45.80098" lon="4.23992">
        <ele>390</ele>
        <time>2020-05-31T03:53:49Z</time>
      </trkpt>
      <trkpt lat="45.80216" lon="4.24148">
        <ele>399</ele>
        <time>2020-05-31T03:54:17Z</time>
      </trkpt>
      <trkpt lat="45.8033" lon="4.24358">
        <ele>402</ele>
        <time>2020-05-31T03:54:50Z</time>
      </trkpt>
      <trkpt lat="45.80351" lon="4.24386">
        <ele>403</ele>
        <time>2020-05-31T03:54:56Z</time>
      </trkpt>
      <trkpt lat="45.80454" lon="4.24469">
        <ele>411</ele>
        <time>2020-05-31T03:55:17Z</time>
      </trkpt>
      <trkpt lat="45.80505" lon="4.24562">
        <ele>414</ele>
        <time>2020-05-31T03:55:31Z</time>
      </trkpt>
      <trkpt lat="45.80526" lon="4.24625">
        <ele>417</ele>
        <time>2020-05-31T03:55:40Z</time>
      </trkpt>
      <trkpt lat="45.80571" lon="4.24683">
        <ele>413</ele>
        <time>2020-05-31T03:55:51Z</time>
      </trkpt>
      <trkpt lat="45.80601" lon="4.24711">
        <ele>415</ele>
        <time>2020-05-31T03:55:57Z</time>
      </trkpt>
      <trkpt lat="45.8063" lon="4.24722">
        <ele>415</ele>
        <time>2020-05-31T03:56:02Z</time>
      </trkpt>
      <trkpt lat="45.80783" lon="4.24719">
        <ele>417</ele>
        <time>2020-05-31T03:56:30Z</time>
      </trkpt>
      <trkpt lat="45.80828" lon="4.24721">
        <ele>418</ele>
        <time>2020-05-31T03:56:38Z</time>
      </trkpt>
      <trkpt lat="45.80873" lon="4.24731">
        <ele>422</ele>
        <time>2020-05-31T03:56:46Z</time>
      </trkpt>
      <trkpt lat="45.80953" lon="4.24764">
        <ele>426</ele>
        <time>2020-05-31T03:57:01Z</time>
      </trkpt>
      <trkpt lat="45.81047" lon="4.24769">
        <ele>430</ele>
        <time>2020-05-31T03:57:17Z</time>
      </trkpt>
      <trkpt lat="45.81074" lon="4.24756">
        <ele>431</ele>
        <time>2020-05-31T03:57:22Z</time>
      </trkpt>
      <trkpt lat="45.81104" lon="4.24736">
        <ele>433</ele>
        <time>2020-05-31T03:57:28Z</time>
      </trkpt>
      <trkpt lat="45.8124" lon="4.24668">
        <ele>439</ele>
        <time>2020-05-31T03:57:54Z</time>
      </trkpt>
      <trkpt lat="45.81302" lon="4.24625">
        <ele>451</ele>
        <time>2020-05-31T03:58:06Z</time>
      </trkpt>
      <trkpt lat="45.81462" lon="4.24582">
        <ele>452</ele>
        <time>2020-05-31T03:58:35Z</time>
      </trkpt>
      <trkpt lat="45.81511" lon="4.24577">
        <ele>453</ele>
        <time>2020-05-31T03:58:44Z</time>
      </trkpt>
      <trkpt lat="45.81582" lon="4.24588">
        <ele>458</ele>
        <time>2020-05-31T03:58:56Z</time>
      </trkpt>
      <trkpt lat="45.8162" lon="4.24598">
        <ele>461</ele>
        <time>2020-05-31T03:59:03Z</time>
      </trkpt>
      <trkpt lat="45.81696" lon="4.24627">
        <ele>465</ele>
        <time>2020-05-31T03:59:17Z</time>
      </trkpt>
      <trkpt lat="45.81713" lon="4.24636">
        <ele>466</ele>
        <time>2020-05-31T03:59:21Z</time>
      </trkpt>
      <trkpt lat="45.81725" lon="4.24646">
        <ele>465</ele>
        <time>2020-05-31T03:59:23Z</time>
      </trkpt>
      <trkpt lat="45.81752" lon="4.24688">
        <ele>464</ele>
        <time>2020-05-31T03:59:30Z</time>
      </trkpt>
      <trkpt lat="45.81767" lon="4.24722">
        <ele>465</ele>
        <time>2020-05-31T03:59:35Z</time>
      </trkpt>
      <trkpt lat="45.81794" lon="4.24794">
        <ele>463</ele>
        <time>2020-05-31T03:59:45Z</time>
      </trkpt>
      <trkpt lat="45.81807" lon="4.24882">
        <ele>459</ele>
        <time>2020-05-31T03:59:56Z</time>
      </trkpt>
      <trkpt lat="45.8182" lon="4.24927">
        <ele>459</ele>
        <time>2020-05-31T04:00:02Z</time>
      </trkpt>
      <trkpt lat="45.81837" lon="4.24968">
        <ele>460</ele>
        <time>2020-05-31T04:00:08Z</time>
      </trkpt>
      <trkpt lat="45.8196" lon="4.25065">
        <ele>468</ele>
        <time>2020-05-31T04:00:33Z</time>
      </trkpt>
      <trkpt lat="45.82081" lon="4.25152">
        <ele>471</ele>
        <time>2020-05-31T04:00:57Z</time>
      </trkpt>
      <trkpt lat="45.82105" lon="4.25158">
        <ele>471</ele>
        <time>2020-05-31T04:01:02Z</time>
      </trkpt>
      <trkpt lat="45.82127" lon="4.25156">
        <ele>472</ele>
        <time>2020-05-31T04:01:06Z</time>
      </trkpt>
      <trkpt lat="45.82167" lon="4.25141">
        <ele>475</ele>
        <time>2020-05-31T04:01:13Z</time>
      </trkpt>
      <trkpt lat="45.82279" lon="4.25144">
        <ele>483</ele>
        <time>2020-05-31T04:01:33Z</time>
      </trkpt>
      <trkpt lat="45.82304" lon="4.25155">
        <ele>485</ele>
        <time>2020-05-31T04:01:38Z</time>
      </trkpt>
      <trkpt lat="45.82334" lon="4.25191">
        <ele>487</ele>
        <time>2020-05-31T04:01:45Z</time>
      </trkpt>
      <trkpt lat="45.82356" lon="4.25229">
        <ele>488</ele>
        <time>2020-05-31T04:01:51Z</time>
      </trkpt>
      <trkpt lat="45.82441" lon="4.25264">
        <ele>495</ele>
        <time>2020-05-31T04:02:06Z</time>
      </trkpt>
      <trkpt lat="45.82465" lon="4.25271">
        <ele>495</ele>
        <time>2020-05-31T04:02:11Z</time>
      </trkpt>
      <trkpt lat="45.82487" lon="4.25288">
        <ele>494</ele>
        <time>2020-05-31T04:02:15Z</time>
      </trkpt>
      <trkpt lat="45.82586" lon="4.25411">
        <ele>498</ele>
        <time>2020-05-31T04:02:39Z</time>
      </trkpt>
      <trkpt lat="45.82618" lon="4.2543">
        <ele>500</ele>
        <time>2020-05-31T04:02:45Z</time>
      </trkpt>
      <trkpt lat="45.82636" lon="4.25435">
        <ele>501</ele>
        <time>2020-05-31T04:02:48Z</time>
      </trkpt>
      <trkpt lat="45.82656" lon="4.25441">
        <ele>503</ele>
        <time>2020-05-31T04:02:52Z</time>
      </trkpt>
      <trkpt lat="45.82675" lon="4.2545">
        <ele>504</ele>
        <time>2020-05-31T04:02:55Z</time>
      </trkpt>
      <trkpt lat="45.8269" lon="4.25462">
        <ele>504</ele>
        <time>2020-05-31T04:02:58Z</time>
      </trkpt>
      <trkpt lat="45.82705" lon="4.25476">
        <ele>505</ele>
        <time>2020-05-31T04:03:01Z</time>
      </trkpt>
      <trkpt lat="45.82722" lon="4.2549">
        <ele>506</ele>
        <time>2020-05-31T04:03:05Z</time>
      </trkpt>
      <trkpt lat="45.8278" lon="4.25558">
        <ele>511</ele>
        <time>2020-05-31T04:03:18Z</time>
      </trkpt>
      <trkpt lat="45.82808" lon="4.25616">
        <ele>513</ele>
        <time>2020-05-31T04:03:27Z</time>
      </trkpt>
      <trkpt lat="45.8283" lon="4.25684">
        <ele>511</ele>
        <time>2020-05-31T04:03:36Z</time>
      </trkpt>
      <trkpt lat="45.82861" lon="4.25715">
        <ele>514</ele>
        <time>2020-05-31T04:03:43Z</time>
      </trkpt>
      <trkpt lat="45.82948" lon="4.25773">
        <ele>522</ele>
        <time>2020-05-31T04:04:00Z</time>
      </trkpt>
      <trkpt lat="45.82974" lon="4.25814">
        <ele>521</ele>
        <time>2020-05-31T04:04:07Z</time>
      </trkpt>
      <trkpt lat="45.82981" lon="4.25827">
        <ele>520</ele>
        <time>2020-05-31T04:04:09Z</time>
      </trkpt>
      <trkpt lat="45.82986" lon="4.2588">
        <ele>518</ele>
        <time>2020-05-31T04:04:16Z</time>
      </trkpt>
      <trkpt lat="45.82994" lon="4.25922">
        <ele>516</ele>
        <time>2020-05-31T04:04:21Z</time>
      </trkpt>
      <trkpt lat="45.83007" lon="4.25954">
        <ele>516</ele>
        <time>2020-05-31T04:04:26Z</time>
      </trkpt>
      <trkpt lat="45.83034" lon="4.26">
        <ele>518</ele>
        <time>2020-05-31T04:04:33Z</time>
      </trkpt>
      <trkpt lat="45.83042" lon="4.26011">
        <ele>519</ele>
        <time>2020-05-31T04:04:35Z</time>
      </trkpt>
      <trkpt lat="45.83089" lon="4.2603">
        <ele>523</ele>
        <time>2020-05-31T04:04:44Z</time>
      </trkpt>
      <trkpt lat="45.83109" lon="4.26042">
        <ele>525</ele>
        <time>2020-05-31T04:04:48Z</time>
      </trkpt>
      <trkpt lat="45.83123" lon="4.26059">
        <ele>528</ele>
        <time>2020-05-31T04:04:51Z</time>
      </trkpt>
      <trkpt lat="45.8314" lon="4.2609">
        <ele>532</ele>
        <time>2020-05-31T04:04:56Z</time>
      </trkpt>
      <trkpt lat="45.83159" lon="4.26115">
        <ele>535</ele>
        <time>2020-05-31T04:05:00Z</time>
      </trkpt>
      <trkpt lat="45.83187" lon="4.26163">
        <ele>539</ele>
        <time>2020-05-31T04:05:08Z</time>
      </trkpt>
      <trkpt lat="45.83241" lon="4.26241">
        <ele>544</ele>
        <time>2020-05-31T04:05:22Z</time>
      </trkpt>
      <trkpt lat="45.83314" lon="4.26336">
        <ele>556</ele>
        <time>2020-05-31T04:05:39Z</time>
      </trkpt>
      <trkpt lat="45.83357" lon="4.26464">
        <ele>566</ele>
        <time>2020-05-31T04:05:57Z</time>
      </trkpt>
      <trkpt lat="45.83363" lon="4.26475">
        <ele>568</ele>
        <time>2020-05-31T04:05:59Z</time>
      </trkpt>
      <trkpt lat="45.83463" lon="4.26617">
        <ele>580</ele>
        <time>2020-05-31T04:06:24Z</time>
      </trkpt>
      <trkpt lat="45.83468" lon="4.26626">
        <ele>580</ele>
        <time>2020-05-31T04:06:25Z</time>
      </trkpt>
      <trkpt lat="45.83503" lon="4.26784">
        <ele>583</ele>
        <time>2020-05-31T04:06:46Z</time>
      </trkpt>
      <trkpt lat="45.83525" lon="4.26786">
        <ele>585</ele>
        <time>2020-05-31T04:06:49Z</time>
      </trkpt>
      <trkpt lat="45.83577" lon="4.26779">
        <ele>590</ele>
        <time>2020-05-31T04:06:59Z</time>
      </trkpt>
      <trkpt lat="45.83579" lon="4.26815">
        <ele>592</ele>
        <time>2020-05-31T04:07:03Z</time>
      </trkpt>
      <trkpt lat="45.83577" lon="4.26858">
        <ele>594</ele>
        <time>2020-05-31T04:07:09Z</time>
      </trkpt>
      <trkpt lat="45.83577" lon="4.26933">
        <ele>598</ele>
        <time>2020-05-31T04:07:18Z</time>
      </trkpt>
      <trkpt lat="45.83575" lon="4.26964">
        <ele>599</ele>
        <time>2020-05-31T04:07:22Z</time>
      </trkpt>
      <trkpt lat="45.8358" lon="4.26987">
        <ele>600</ele>
        <time>2020-05-31T04:07:25Z</time>
      </trkpt>
      <trkpt lat="45.83599" lon="4.27016">
        <ele>601</ele>
        <time>2020-05-31T04:07:30Z</time>
      </trkpt>
      <trkpt lat="45.83611" lon="4.27027">
        <ele>602</ele>
        <time>2020-05-31T04:07:32Z</time>
      </trkpt>
      <trkpt lat="45.83664" lon="4.27067">
        <ele>606</ele>
        <time>2020-05-31T04:07:43Z</time>
      </trkpt>
      <trkpt lat="45.83675" lon="4.2708">
        <ele>607</ele>
        <time>2020-05-31T04:07:45Z</time>
      </trkpt>
      <trkpt lat="45.83692" lon="4.27112">
        <ele>609</ele>
        <time>2020-05-31T04:07:50Z</time>
      </trkpt>
      <trkpt lat="45.83696" lon="4.27112">
        <ele>610</ele>
        <time>2020-05-31T04:07:51Z</time>
      </trkpt>
      <trkpt lat="45.83702" lon="4.27121">
        <ele>610</ele>
        <time>2020-05-31T04:07:53Z</time>
      </trkpt>
      <trkpt lat="45.8375" lon="4.27234">
        <ele>622</ele>
        <time>2020-05-31T04:08:09Z</time>
      </trkpt>
      <trkpt lat="45.83765" lon="4.27274">
        <ele>626</ele>
        <time>2020-05-31T04:08:15Z</time>
      </trkpt>
      <trkpt lat="45.83784" lon="4.2731">
        <ele>629</ele>
        <time>2020-05-31T04:08:20Z</time>
      </trkpt>
      <trkpt lat="45.83825" lon="4.27381">
        <ele>636</ele>
        <time>2020-05-31T04:08:32Z</time>
      </trkpt>
      <trkpt lat="45.83838" lon="4.27414">
        <ele>638</ele>
        <time>2020-05-31T04:08:36Z</time>
      </trkpt>
      <trkpt lat="45.83841" lon="4.27421">
        <ele>638</ele>
        <time>2020-05-31T04:08:37Z</time>
      </trkpt>
      <trkpt lat="45.83843" lon="4.27438">
        <ele>639</ele>
        <time>2020-05-31T04:08:40Z</time>
      </trkpt>
      <trkpt lat="45.83849" lon="4.27518">
        <ele>641</ele>
        <time>2020-05-31T04:08:50Z</time>
      </trkpt>
      <trkpt lat="45.8385" lon="4.27608">
        <ele>648</ele>
        <time>2020-05-31T04:09:01Z</time>
      </trkpt>
      <trkpt lat="45.83859" lon="4.27619">
        <ele>649</ele>
        <time>2020-05-31T04:09:03Z</time>
      </trkpt>
      <trkpt lat="45.83873" lon="4.27641">
        <ele>652</ele>
        <time>2020-05-31T04:09:07Z</time>
      </trkpt>
      <trkpt lat="45.83823" lon="4.27737">
        <ele>657</ele>
        <time>2020-05-31T04:09:21Z</time>
      </trkpt>
      <trkpt lat="45.8381" lon="4.27765">
        <ele>658</ele>
        <time>2020-05-31T04:09:26Z</time>
      </trkpt>
      <trkpt lat="45.838" lon="4.27795">
        <ele>660</ele>
        <time>2020-05-31T04:09:30Z</time>
      </trkpt>
      <trkpt lat="45.83796" lon="4.27818">
        <ele>662</ele>
        <time>2020-05-31T04:09:33Z</time>
      </trkpt>
      <trkpt lat="45.83788" lon="4.27863">
        <ele>666</ele>
        <time>2020-05-31T04:09:38Z</time>
      </trkpt>
      <trkpt lat="45.83786" lon="4.27892">
        <ele>669</ele>
        <time>2020-05-31T04:09:42Z</time>
      </trkpt>
      <trkpt lat="45.83784" lon="4.27911">
        <ele>670</ele>
        <time>2020-05-31T04:09:44Z</time>
      </trkpt>
      <trkpt lat="45.83774" lon="4.27932">
        <ele>671</ele>
        <time>2020-05-31T04:09:48Z</time>
      </trkpt>
      <trkpt lat="45.83729" lon="4.27978">
        <ele>673</ele>
        <time>2020-05-31T04:09:57Z</time>
      </trkpt>
      <trkpt lat="45.83706" lon="4.28019">
        <ele>676</ele>
        <time>2020-05-31T04:10:04Z</time>
      </trkpt>
      <trkpt lat="45.83673" lon="4.28095">
        <ele>680</ele>
        <time>2020-05-31T04:10:15Z</time>
      </trkpt>
      <trkpt lat="45.83653" lon="4.2815">
        <ele>682</ele>
        <time>2020-05-31T04:10:23Z</time>
      </trkpt>
      <trkpt lat="45.8365" lon="4.28171">
        <ele>684</ele>
        <time>2020-05-31T04:10:25Z</time>
      </trkpt>
      <trkpt lat="45.83653" lon="4.28188">
        <ele>684</ele>
        <time>2020-05-31T04:10:27Z</time>
      </trkpt>
      <trkpt lat="45.83658" lon="4.282">
        <ele>684</ele>
        <time>2020-05-31T04:10:29Z</time>
      </trkpt>
      <trkpt lat="45.83664" lon="4.28205">
        <ele>685</ele>
        <time>2020-05-31T04:10:30Z</time>
      </trkpt>
      <trkpt lat="45.83673" lon="4.28212">
        <ele>685</ele>
        <time>2020-05-31T04:10:32Z</time>
      </trkpt>
      <trkpt lat="45.83757" lon="4.28241">
        <ele>692</ele>
        <time>2020-05-31T04:10:48Z</time>
      </trkpt>
      <trkpt lat="45.838" lon="4.28266">
        <ele>696</ele>
        <time>2020-05-31T04:10:56Z</time>
      </trkpt>
      <trkpt lat="45.83815" lon="4.28289">
        <ele>697</ele>
        <time>2020-05-31T04:11:00Z</time>
      </trkpt>
      <trkpt lat="45.8383" lon="4.28371">
        <ele>698</ele>
        <time>2020-05-31T04:11:10Z</time>
      </trkpt>
      <trkpt lat="45.83835" lon="4.28407">
        <ele>699</ele>
        <time>2020-05-31T04:11:15Z</time>
      </trkpt>
      <trkpt lat="45.83838" lon="4.28454">
        <ele>701</ele>
        <time>2020-05-31T04:11:21Z</time>
      </trkpt>
      <trkpt lat="45.83832" lon="4.28511">
        <ele>702</ele>
        <time>2020-05-31T04:11:28Z</time>
      </trkpt>
      <trkpt lat="45.83832" lon="4.28528">
        <ele>701</ele>
        <time>2020-05-31T04:11:30Z</time>
      </trkpt>
      <trkpt lat="45.8384" lon="4.28558">
        <ele>702</ele>
        <time>2020-05-31T04:11:34Z</time>
      </trkpt>
      <trkpt lat="45.83861" lon="4.28627">
        <ele>704</ele>
        <time>2020-05-31T04:11:43Z</time>
      </trkpt>
      <trkpt lat="45.83883" lon="4.28685">
        <ele>705</ele>
        <time>2020-05-31T04:11:51Z</time>
      </trkpt>
      <trkpt lat="45.83901" lon="4.28716">
        <ele>707</ele>
        <time>2020-05-31T04:11:56Z</time>
      </trkpt>
      <trkpt lat="45.83916" lon="4.28736">
        <ele>708</ele>
        <time>2020-05-31T04:12:00Z</time>
      </trkpt>
      <trkpt lat="45.83939" lon="4.28772">
        <ele>710</ele>
        <time>2020-05-31T04:12:06Z</time>
      </trkpt>
      <trkpt lat="45.83945" lon="4.28792">
        <ele>711</ele>
        <time>2020-05-31T04:12:09Z</time>
      </trkpt>
      <trkpt lat="45.83949" lon="4.28814">
        <ele>712</ele>
        <time>2020-05-31T04:12:12Z</time>
      </trkpt>
      <trkpt lat="45.83958" lon="4.28895">
        <ele>713</ele>
        <time>2020-05-31T04:12:22Z</time>
      </trkpt>
      <trkpt lat="45.83952" lon="4.28946">
        <ele>711</ele>
        <time>2020-05-31T04:12:28Z</time>
      </trkpt>
      <trkpt lat="45.83926" lon="4.29014">
        <ele>708</ele>
        <time>2020-05-31T04:12:38Z</time>
      </trkpt>
      <trkpt lat="45.83901" lon="4.29054">
        <ele>706</ele>
        <time>2020-05-31T04:12:45Z</time>
      </trkpt>
      <trkpt lat="45.83855" lon="4.29117">
        <ele>702</ele>
        <time>2020-05-31T04:12:56Z</time>
      </trkpt>
      <trkpt lat="45.83838" lon="4.29151">
        <ele>701</ele>
        <time>2020-05-31T04:13:01Z</time>
      </trkpt>
      <trkpt lat="45.83825" lon="4.29183">
        <ele>699</ele>
        <time>2020-05-31T04:13:06Z</time>
      </trkpt>
      <trkpt lat="45.83815" lon="4.2923">
        <ele>698</ele>
        <time>2020-05-31T04:13:12Z</time>
      </trkpt>
      <trkpt lat="45.83806" lon="4.29296">
        <ele>698</ele>
        <time>2020-05-31T04:13:20Z</time>
      </trkpt>
      <trkpt lat="45.83797" lon="4.29337">
        <ele>697</ele>
        <time>2020-05-31T04:13:25Z</time>
      </trkpt>
      <trkpt lat="45.83787" lon="4.29365">
        <ele>695</ele>
        <time>2020-05-31T04:13:29Z</time>
      </trkpt>
      <trkpt lat="45.83785" lon="4.29377">
        <ele>694</ele>
        <time>2020-05-31T04:13:31Z</time>
      </trkpt>
      <trkpt lat="45.83786" lon="4.29394">
        <ele>694</ele>
        <time>2020-05-31T04:13:33Z</time>
      </trkpt>
      <trkpt lat="45.83788" lon="4.29407">
        <ele>693</ele>
        <time>2020-05-31T04:13:35Z</time>
      </trkpt>
      <trkpt lat="45.83794" lon="4.29421">
        <ele>693</ele>
        <time>2020-05-31T04:13:37Z</time>
      </trkpt>
      <trkpt lat="45.83802" lon="4.29438">
        <ele>692</ele>
        <time>2020-05-31T04:13:39Z</time>
      </trkpt>
      <trkpt lat="45.83826" lon="4.29471">
        <ele>691</ele>
        <time>2020-05-31T04:13:45Z</time>
      </trkpt>
      <trkpt lat="45.83838" lon="4.29492">
        <ele>692</ele>
        <time>2020-05-31T04:13:48Z</time>
      </trkpt>
      <trkpt lat="45.83845" lon="4.29512">
        <ele>692</ele>
        <time>2020-05-31T04:13:51Z</time>
      </trkpt>
      <trkpt lat="45.83851" lon="4.29557">
        <ele>690</ele>
        <time>2020-05-31T04:13:57Z</time>
      </trkpt>
      <trkpt lat="45.83852" lon="4.29626">
        <ele>689</ele>
        <time>2020-05-31T04:14:05Z</time>
      </trkpt>
      <trkpt lat="45.83849" lon="4.2965">
        <ele>688</ele>
        <time>2020-05-31T04:14:08Z</time>
      </trkpt>
      <trkpt lat="45.83841" lon="4.29668">
        <ele>686</ele>
        <time>2020-05-31T04:14:11Z</time>
      </trkpt>
      <trkpt lat="45.83789" lon="4.29752">
        <ele>688</ele>
        <time>2020-05-31T04:14:25Z</time>
      </trkpt>
      <trkpt lat="45.83766" lon="4.29782">
        <ele>689</ele>
        <time>2020-05-31T04:14:31Z</time>
      </trkpt>
      <trkpt lat="45.83755" lon="4.2979">
        <ele>689</ele>
        <time>2020-05-31T04:14:33Z</time>
      </trkpt>
      <trkpt lat="45.83749" lon="4.29797">
        <ele>689</ele>
        <time>2020-05-31T04:14:34Z</time>
      </trkpt>
      <trkpt lat="45.83745" lon="4.29812">
        <ele>691</ele>
        <time>2020-05-31T04:14:36Z</time>
      </trkpt>
      <trkpt lat="45.83741" lon="4.29838">
        <ele>693</ele>
        <time>2020-05-31T04:14:39Z</time>
      </trkpt>
      <trkpt lat="45.8374" lon="4.29886">
        <ele>693</ele>
        <time>2020-05-31T04:14:45Z</time>
      </trkpt>
      <trkpt lat="45.83743" lon="4.29954">
        <ele>693</ele>
        <time>2020-05-31T04:14:54Z</time>
      </trkpt>
      <trkpt lat="45.83769" lon="4.30127">
        <ele>695</ele>
        <time>2020-05-31T04:15:16Z</time>
      </trkpt>
      <trkpt lat="45.83769" lon="4.30164">
        <ele>694</ele>
        <time>2020-05-31T04:15:20Z</time>
      </trkpt>
      <trkpt lat="45.83765" lon="4.30197">
        <ele>693</ele>
        <time>2020-05-31T04:15:25Z</time>
      </trkpt>
      <trkpt lat="45.83765" lon="4.30209">
        <ele>693</ele>
        <time>2020-05-31T04:15:26Z</time>
      </trkpt>
      <trkpt lat="45.83768" lon="4.30221">
        <ele>693</ele>
        <time>2020-05-31T04:15:28Z</time>
      </trkpt>
      <trkpt lat="45.83782" lon="4.3023">
        <ele>695</ele>
        <time>2020-05-31T04:15:30Z</time>
      </trkpt>
      <trkpt lat="45.83784" lon="4.30454">
        <ele>682</ele>
        <time>2020-05-31T04:15:58Z</time>
      </trkpt>
      <trkpt lat="45.83785" lon="4.30526">
        <ele>680</ele>
        <time>2020-05-31T04:16:07Z</time>
      </trkpt>
      <trkpt lat="45.83787" lon="4.30676">
        <ele>681</ele>
        <time>2020-05-31T04:16:26Z</time>
      </trkpt>
      <trkpt lat="45.83788" lon="4.30686">
        <ele>681</ele>
        <time>2020-05-31T04:16:27Z</time>
      </trkpt>
      <trkpt lat="45.8379" lon="4.30699">
        <ele>681</ele>
        <time>2020-05-31T04:16:29Z</time>
      </trkpt>
      <trkpt lat="45.8379" lon="4.30715">
        <ele>682</ele>
        <time>2020-05-31T04:16:30Z</time>
      </trkpt>
      <trkpt lat="45.83796" lon="4.30767">
        <ele>681</ele>
        <time>2020-05-31T04:16:37Z</time>
      </trkpt>
      <trkpt lat="45.83796" lon="4.30792">
        <ele>681</ele>
        <time>2020-05-31T04:16:40Z</time>
      </trkpt>
      <trkpt lat="45.83793" lon="4.30804">
        <ele>680</ele>
        <time>2020-05-31T04:16:42Z</time>
      </trkpt>
      <trkpt lat="45.83785" lon="4.30823">
        <ele>680</ele>
        <time>2020-05-31T04:16:44Z</time>
      </trkpt>
      <trkpt lat="45.83768" lon="4.3085">
        <ele>679</ele>
        <time>2020-05-31T04:16:49Z</time>
      </trkpt>
      <trkpt lat="45.83757" lon="4.30858">
        <ele>679</ele>
        <time>2020-05-31T04:16:51Z</time>
      </trkpt>
      <trkpt lat="45.8374" lon="4.30864">
        <ele>678</ele>
        <time>2020-05-31T04:16:54Z</time>
      </trkpt>
      <trkpt lat="45.83732" lon="4.30864">
        <ele>678</ele>
        <time>2020-05-31T04:16:56Z</time>
      </trkpt>
      <trkpt lat="45.83713" lon="4.30863">
        <ele>677</ele>
        <time>2020-05-31T04:16:59Z</time>
      </trkpt>
      <trkpt lat="45.83603" lon="4.30847">
        <ele>673</ele>
        <time>2020-05-31T04:17:19Z</time>
      </trkpt>
      <trkpt lat="45.83563" lon="4.30851">
        <ele>669</ele>
        <time>2020-05-31T04:17:26Z</time>
      </trkpt>
      <trkpt lat="45.83524" lon="4.30851">
        <ele>664</ele>
        <time>2020-05-31T04:17:33Z</time>
      </trkpt>
      <trkpt lat="45.83504" lon="4.30839">
        <ele>664</ele>
        <time>2020-05-31T04:17:37Z</time>
      </trkpt>
      <trkpt lat="45.83467" lon="4.30795">
        <ele>662</ele>
        <time>2020-05-31T04:17:45Z</time>
      </trkpt>
      <trkpt lat="45.83462" lon="4.30786">
        <ele>661</ele>
        <time>2020-05-31T04:17:47Z</time>
      </trkpt>
      <trkpt lat="45.83458" lon="4.30773">
        <ele>661</ele>
        <time>2020-05-31T04:17:48Z</time>
      </trkpt>
      <trkpt lat="45.83456" lon="4.30754">
        <ele>661</ele>
        <time>2020-05-31T04:17:51Z</time>
      </trkpt>
      <trkpt lat="45.83459" lon="4.30734">
        <ele>660</ele>
        <time>2020-05-31T04:17:53Z</time>
      </trkpt>
      <trkpt lat="45.83475" lon="4.307">
        <ele>659</ele>
        <time>2020-05-31T04:17:58Z</time>
      </trkpt>
      <trkpt lat="45.83575" lon="4.30585">
        <ele>654</ele>
        <time>2020-05-31T04:18:21Z</time>
      </trkpt>
      <trkpt lat="45.83579" lon="4.30576">
        <ele>654</ele>
        <time>2020-05-31T04:18:23Z</time>
      </trkpt>
      <trkpt lat="45.8358" lon="4.30563">
        <ele>654</ele>
        <time>2020-05-31T04:18:24Z</time>
      </trkpt>
      <trkpt lat="45.83578" lon="4.30552">
        <ele>653</ele>
        <time>2020-05-31T04:18:26Z</time>
      </trkpt>
      <trkpt lat="45.83573" lon="4.30544">
        <ele>652</ele>
        <time>2020-05-31T04:18:27Z</time>
      </trkpt>
      <trkpt lat="45.83566" lon="4.30539">
        <ele>652</ele>
        <time>2020-05-31T04:18:28Z</time>
      </trkpt>
      <trkpt lat="45.83558" lon="4.30538">
        <ele>651</ele>
        <time>2020-05-31T04:18:30Z</time>
      </trkpt>
      <trkpt lat="45.83507" lon="4.30562">
        <ele>647</ele>
        <time>2020-05-31T04:18:39Z</time>
      </trkpt>
      <trkpt lat="45.83393" lon="4.30594">
        <ele>643</ele>
        <time>2020-05-31T04:19:00Z</time>
      </trkpt>
      <trkpt lat="45.83359" lon="4.30594">
        <ele>641</ele>
        <time>2020-05-31T04:19:06Z</time>
      </trkpt>
      <trkpt lat="45.8329" lon="4.30573">
        <ele>633</ele>
        <time>2020-05-31T04:19:19Z</time>
      </trkpt>
      <trkpt lat="45.83218" lon="4.30555">
        <ele>628</ele>
        <time>2020-05-31T04:19:32Z</time>
      </trkpt>
      <trkpt lat="45.8318" lon="4.30554">
        <ele>626</ele>
        <time>2020-05-31T04:19:38Z</time>
      </trkpt>
      <trkpt lat="45.83142" lon="4.30561">
        <ele>625</ele>
        <time>2020-05-31T04:19:45Z</time>
      </trkpt>
      <trkpt lat="45.8312" lon="4.30571">
        <ele>626</ele>
        <time>2020-05-31T04:19:49Z</time>
      </trkpt>
      <trkpt lat="45.83097" lon="4.30586">
        <ele>627</ele>
        <time>2020-05-31T04:19:54Z</time>
      </trkpt>
      <trkpt lat="45.83085" lon="4.3059">
        <ele>627</ele>
        <time>2020-05-31T04:19:56Z</time>
      </trkpt>
      <trkpt lat="45.83042" lon="4.30585">
        <ele>622</ele>
        <time>2020-05-31T04:20:04Z</time>
      </trkpt>
      <trkpt lat="45.83012" lon="4.30585">
        <ele>619</ele>
        <time>2020-05-31T04:20:09Z</time>
      </trkpt>
      <trkpt lat="45.82981" lon="4.30593">
        <ele>617</ele>
        <time>2020-05-31T04:20:15Z</time>
      </trkpt>
      <trkpt lat="45.82877" lon="4.30641">
        <ele>612</ele>
        <time>2020-05-31T04:20:34Z</time>
      </trkpt>
      <trkpt lat="45.82809" lon="4.30682">
        <ele>607</ele>
        <time>2020-05-31T04:20:47Z</time>
      </trkpt>
      <trkpt lat="45.8279" lon="4.30697">
        <ele>605</ele>
        <time>2020-05-31T04:20:51Z</time>
      </trkpt>
      <trkpt lat="45.8278" lon="4.30708">
        <ele>603</ele>
        <time>2020-05-31T04:20:53Z</time>
      </trkpt>
      <trkpt lat="45.82754" lon="4.30745">
        <ele>601</ele>
        <time>2020-05-31T04:21:00Z</time>
      </trkpt>
      <trkpt lat="45.82748" lon="4.30769">
        <ele>599</ele>
        <time>2020-05-31T04:21:03Z</time>
      </trkpt>
      <trkpt lat="45.82747" lon="4.30783">
        <ele>598</ele>
        <time>2020-05-31T04:21:05Z</time>
      </trkpt>
      <trkpt lat="45.82749" lon="4.30796">
        <ele>598</ele>
        <time>2020-05-31T04:21:06Z</time>
      </trkpt>
      <trkpt lat="45.82752" lon="4.30808">
        <ele>598</ele>
        <time>2020-05-31T04:21:08Z</time>
      </trkpt>
      <trkpt lat="45.82759" lon="4.30819">
        <ele>599</ele>
        <time>2020-05-31T04:21:10Z</time>
      </trkpt>
      <trkpt lat="45.82784" lon="4.30844">
        <ele>603</ele>
        <time>2020-05-31T04:21:15Z</time>
      </trkpt>
      <trkpt lat="45.82794" lon="4.30857">
        <ele>604</ele>
        <time>2020-05-31T04:21:18Z</time>
      </trkpt>
      <trkpt lat="45.82801" lon="4.30877">
        <ele>603</ele>
        <time>2020-05-31T04:21:20Z</time>
      </trkpt>
      <trkpt lat="45.82798" lon="4.30902">
        <ele>600</ele>
        <time>2020-05-31T04:21:23Z</time>
      </trkpt>
      <trkpt lat="45.82783" lon="4.30963">
        <ele>595</ele>
        <time>2020-05-31T04:21:31Z</time>
      </trkpt>
      <trkpt lat="45.8278" lon="4.30988">
        <ele>594</ele>
        <time>2020-05-31T04:21:35Z</time>
      </trkpt>
      <trkpt lat="45.82784" lon="4.31007">
        <ele>593</ele>
        <time>2020-05-31T04:21:37Z</time>
      </trkpt>
      <trkpt lat="45.828" lon="4.31052">
        <ele>593</ele>
        <time>2020-05-31T04:21:43Z</time>
      </trkpt>
      <trkpt lat="45.82802" lon="4.31064">
        <ele>593</ele>
        <time>2020-05-31T04:21:45Z</time>
      </trkpt>
      <trkpt lat="45.828" lon="4.31077">
        <ele>592</ele>
        <time>2020-05-31T04:21:47Z</time>
      </trkpt>
      <trkpt lat="45.82797" lon="4.31086">
        <ele>592</ele>
        <time>2020-05-31T04:21:48Z</time>
      </trkpt>
      <trkpt lat="45.82792" lon="4.31091">
        <ele>591</ele>
        <time>2020-05-31T04:21:49Z</time>
      </trkpt>
      <trkpt lat="45.82782" lon="4.31095">
        <ele>591</ele>
        <time>2020-05-31T04:21:51Z</time>
      </trkpt>
      <trkpt lat="45.8277" lon="4.3109">
        <ele>589</ele>
        <time>2020-05-31T04:21:53Z</time>
      </trkpt>
      <trkpt lat="45.82764" lon="4.3108">
        <ele>588</ele>
        <time>2020-05-31T04:21:55Z</time>
      </trkpt>
      <trkpt lat="45.82747" lon="4.31036">
        <ele>589</ele>
        <time>2020-05-31T04:22:01Z</time>
      </trkpt>
      <trkpt lat="45.82742" lon="4.31031">
        <ele>589</ele>
        <time>2020-05-31T04:22:02Z</time>
      </trkpt>
      <trkpt lat="45.82727" lon="4.31031">
        <ele>589</ele>
        <time>2020-05-31T04:22:05Z</time>
      </trkpt>
      <trkpt lat="45.82767" lon="4.31117">
        <ele>591</ele>
        <time>2020-05-31T04:22:17Z</time>
      </trkpt>
      <trkpt lat="45.82779" lon="4.31133">
        <ele>592</ele>
        <time>2020-05-31T04:22:20Z</time>
      </trkpt>
      <trkpt lat="45.82798" lon="4.31144">
        <ele>593</ele>
        <time>2020-05-31T04:22:24Z</time>
      </trkpt>
      <trkpt lat="45.82815" lon="4.31148">
        <ele>594</ele>
        <time>2020-05-31T04:22:27Z</time>
      </trkpt>
      <trkpt lat="45.82874" lon="4.31146">
        <ele>594</ele>
        <time>2020-05-31T04:22:37Z</time>
      </trkpt>
      <trkpt lat="45.8289" lon="4.31148">
        <ele>594</ele>
        <time>2020-05-31T04:22:40Z</time>
      </trkpt>
      <trkpt lat="45.82903" lon="4.31153">
        <ele>593</ele>
        <time>2020-05-31T04:22:43Z</time>
      </trkpt>
      <trkpt lat="45.82912" lon="4.31162">
        <ele>592</ele>
        <time>2020-05-31T04:22:45Z</time>
      </trkpt>
      <trkpt lat="45.8292" lon="4.31178">
        <ele>592</ele>
        <time>2020-05-31T04:22:47Z</time>
      </trkpt>
      <trkpt lat="45.82923" lon="4.31197">
        <ele>593</ele>
        <time>2020-05-31T04:22:50Z</time>
      </trkpt>
      <trkpt lat="45.82921" lon="4.31215">
        <ele>593</ele>
        <time>2020-05-31T04:22:52Z</time>
      </trkpt>
      <trkpt lat="45.82914" lon="4.31229">
        <ele>594</ele>
        <time>2020-05-31T04:22:54Z</time>
      </trkpt>
      <trkpt lat="45.82904" lon="4.31239">
        <ele>594</ele>
        <time>2020-05-31T04:22:56Z</time>
      </trkpt>
      <trkpt lat="45.82891" lon="4.31245">
        <ele>595</ele>
        <time>2020-05-31T04:22:59Z</time>
      </trkpt>
      <trkpt lat="45.82797" lon="4.31239">
        <ele>603</ele>
        <time>2020-05-31T04:23:15Z</time>
      </trkpt>
      <trkpt lat="45.82769" lon="4.31234">
        <ele>605</ele>
        <time>2020-05-31T04:23:20Z</time>
      </trkpt>
      <trkpt lat="45.82739" lon="4.31227">
        <ele>607</ele>
        <time>2020-05-31T04:23:26Z</time>
      </trkpt>
      <trkpt lat="45.82717" lon="4.31211">
        <ele>607</ele>
        <time>2020-05-31T04:23:30Z</time>
      </trkpt>
      <trkpt lat="45.82673" lon="4.3115">
        <ele>605</ele>
        <time>2020-05-31T04:23:41Z</time>
      </trkpt>
      <trkpt lat="45.82653" lon="4.31137">
        <ele>605</ele>
        <time>2020-05-31T04:23:45Z</time>
      </trkpt>
      <trkpt lat="45.82568" lon="4.31104">
        <ele>606</ele>
        <time>2020-05-31T04:24:01Z</time>
      </trkpt>
      <trkpt lat="45.82515" lon="4.31082">
        <ele>609</ele>
        <time>2020-05-31T04:24:10Z</time>
      </trkpt>
      <trkpt lat="45.82498" lon="4.31078">
        <ele>610</ele>
        <time>2020-05-31T04:24:13Z</time>
      </trkpt>
      <trkpt lat="45.82483" lon="4.31075">
        <ele>610</ele>
        <time>2020-05-31T04:24:16Z</time>
      </trkpt>
      <trkpt lat="45.82467" lon="4.31077">
        <ele>610</ele>
        <time>2020-05-31T04:24:19Z</time>
      </trkpt>
      <trkpt lat="45.82443" lon="4.31087">
        <ele>611</ele>
        <time>2020-05-31T04:24:23Z</time>
      </trkpt>
      <trkpt lat="45.82427" lon="4.31098">
        <ele>612</ele>
        <time>2020-05-31T04:24:27Z</time>
      </trkpt>
      <trkpt lat="45.82409" lon="4.31115">
        <ele>613</ele>
        <time>2020-05-31T04:24:30Z</time>
      </trkpt>
      <trkpt lat="45.8239" lon="4.31145">
        <ele>614</ele>
        <time>2020-05-31T04:24:35Z</time>
      </trkpt>
      <trkpt lat="45.8238" lon="4.31169">
        <ele>616</ele>
        <time>2020-05-31T04:24:39Z</time>
      </trkpt>
      <trkpt lat="45.82372" lon="4.31201">
        <ele>617</ele>
        <time>2020-05-31T04:24:43Z</time>
      </trkpt>
      <trkpt lat="45.8237" lon="4.31218">
        <ele>617</ele>
        <time>2020-05-31T04:24:45Z</time>
      </trkpt>
      <trkpt lat="45.82369" lon="4.31221">
        <ele>617</ele>
        <time>2020-05-31T04:24:46Z</time>
      </trkpt>
      <trkpt lat="45.82371" lon="4.31252">
        <ele>619</ele>
        <time>2020-05-31T04:24:50Z</time>
      </trkpt>
      <trkpt lat="45.82376" lon="4.31276">
        <ele>619</ele>
        <time>2020-05-31T04:24:53Z</time>
      </trkpt>
      <trkpt lat="45.82387" lon="4.313">
        <ele>620</ele>
        <time>2020-05-31T04:24:56Z</time>
      </trkpt>
      <trkpt lat="45.8241" lon="4.31329">
        <ele>623</ele>
        <time>2020-05-31T04:25:02Z</time>
      </trkpt>
      <trkpt lat="45.82417" lon="4.31335">
        <ele>624</ele>
        <time>2020-05-31T04:25:03Z</time>
      </trkpt>
      <trkpt lat="45.82424" lon="4.3134">
        <ele>624</ele>
        <time>2020-05-31T04:25:05Z</time>
      </trkpt>
      <trkpt lat="45.82504" lon="4.31377">
        <ele>628</ele>
        <time>2020-05-31T04:25:19Z</time>
      </trkpt>
      <trkpt lat="45.82526" lon="4.31388">
        <ele>628</ele>
        <time>2020-05-31T04:25:24Z</time>
      </trkpt>
      <trkpt lat="45.82529" lon="4.3139">
        <ele>628</ele>
        <time>2020-05-31T04:25:24Z</time>
      </trkpt>
      <trkpt lat="45.82535" lon="4.31396">
        <ele>628</ele>
        <time>2020-05-31T04:25:26Z</time>
      </trkpt>
      <trkpt lat="45.82541" lon="4.31406">
        <ele>628</ele>
        <time>2020-05-31T04:25:27Z</time>
      </trkpt>
      <trkpt lat="45.82545" lon="4.3142">
        <ele>628</ele>
        <time>2020-05-31T04:25:29Z</time>
      </trkpt>
      <trkpt lat="45.82548" lon="4.31447">
        <ele>628</ele>
        <time>2020-05-31T04:25:32Z</time>
      </trkpt>
      <trkpt lat="45.82549" lon="4.31458">
        <ele>629</ele>
        <time>2020-05-31T04:25:34Z</time>
      </trkpt>
      <trkpt lat="45.82555" lon="4.31493">
        <ele>629</ele>
        <time>2020-05-31T04:25:38Z</time>
      </trkpt>
      <trkpt lat="45.82559" lon="4.31516">
        <ele>630</ele>
        <time>2020-05-31T04:25:41Z</time>
      </trkpt>
      <trkpt lat="45.82576" lon="4.31635">
        <ele>634</ele>
        <time>2020-05-31T04:25:56Z</time>
      </trkpt>
      <trkpt lat="45.82593" lon="4.31677">
        <ele>635</ele>
        <time>2020-05-31T04:26:02Z</time>
      </trkpt>
      <trkpt lat="45.82593" lon="4.3168">
        <ele>635</ele>
        <time>2020-05-31T04:26:03Z</time>
      </trkpt>
      <trkpt lat="45.82604" lon="4.31694">
        <ele>635</ele>
        <time>2020-05-31T04:26:05Z</time>
      </trkpt>
      <trkpt lat="45.82614" lon="4.31702">
        <ele>635</ele>
        <time>2020-05-31T04:26:07Z</time>
      </trkpt>
      <trkpt lat="45.82621" lon="4.31708">
        <ele>635</ele>
        <time>2020-05-31T04:26:09Z</time>
      </trkpt>
      <trkpt lat="45.8265" lon="4.31725">
        <ele>636</ele>
        <time>2020-05-31T04:26:14Z</time>
      </trkpt>
      <trkpt lat="45.8267" lon="4.3173">
        <ele>637</ele>
        <time>2020-05-31T04:26:18Z</time>
      </trkpt>
      <trkpt lat="45.82689" lon="4.31732">
        <ele>638</ele>
        <time>2020-05-31T04:26:21Z</time>
      </trkpt>
      <trkpt lat="45.82703" lon="4.3173">
        <ele>638</ele>
        <time>2020-05-31T04:26:24Z</time>
      </trkpt>
      <trkpt lat="45.8271" lon="4.31729">
        <ele>639</ele>
        <time>2020-05-31T04:26:25Z</time>
      </trkpt>
      <trkpt lat="45.8277" lon="4.31705">
        <ele>641</ele>
        <time>2020-05-31T04:26:36Z</time>
      </trkpt>
      <trkpt lat="45.82813" lon="4.31685">
        <ele>642</ele>
        <time>2020-05-31T04:26:44Z</time>
      </trkpt>
      <trkpt lat="45.82826" lon="4.31682">
        <ele>642</ele>
        <time>2020-05-31T04:26:47Z</time>
      </trkpt>
      <trkpt lat="45.82836" lon="4.31683">
        <ele>641</ele>
        <time>2020-05-31T04:26:48Z</time>
      </trkpt>
      <trkpt lat="45.82868" lon="4.3168">
        <ele>642</ele>
        <time>2020-05-31T04:26:54Z</time>
      </trkpt>
      <trkpt lat="45.82909" lon="4.31679">
        <ele>642</ele>
        <time>2020-05-31T04:27:01Z</time>
      </trkpt>
      <trkpt lat="45.82935" lon="4.31684">
        <ele>643</ele>
        <time>2020-05-31T04:27:06Z</time>
      </trkpt>
      <trkpt lat="45.82955" lon="4.31692">
        <ele>644</ele>
        <time>2020-05-31T04:27:10Z</time>
      </trkpt>
      <trkpt lat="45.82965" lon="4.317">
        <ele>645</ele>
        <time>2020-05-31T04:27:12Z</time>
      </trkpt>
      <trkpt lat="45.82973" lon="4.31713">
        <ele>645</ele>
        <time>2020-05-31T04:27:14Z</time>
      </trkpt>
      <trkpt lat="45.82983" lon="4.31733">
        <ele>646</ele>
        <time>2020-05-31T04:27:17Z</time>
      </trkpt>
      <trkpt lat="45.82992" lon="4.31762">
        <ele>647</ele>
        <time>2020-05-31T04:27:21Z</time>
      </trkpt>
      <trkpt lat="45.82996" lon="4.31771">
        <ele>647</ele>
        <time>2020-05-31T04:27:22Z</time>
      </trkpt>
      <trkpt lat="45.83007" lon="4.318">
        <ele>648</ele>
        <time>2020-05-31T04:27:26Z</time>
      </trkpt>
      <trkpt lat="45.83012" lon="4.31821">
        <ele>649</ele>
        <time>2020-05-31T04:27:29Z</time>
      </trkpt>
      <trkpt lat="45.83014" lon="4.3184">
        <ele>649</ele>
        <time>2020-05-31T04:27:31Z</time>
      </trkpt>
      <trkpt lat="45.83011" lon="4.3186">
        <ele>650</ele>
        <time>2020-05-31T04:27:34Z</time>
      </trkpt>
      <trkpt lat="45.83004" lon="4.31882">
        <ele>651</ele>
        <time>2020-05-31T04:27:37Z</time>
      </trkpt>
      <trkpt lat="45.82995" lon="4.31901">
        <ele>651</ele>
        <time>2020-05-31T04:27:40Z</time>
      </trkpt>
      <trkpt lat="45.8298" lon="4.31923">
        <ele>651</ele>
        <time>2020-05-31T04:27:44Z</time>
      </trkpt>
      <trkpt lat="45.82936" lon="4.31956">
        <ele>651</ele>
        <time>2020-05-31T04:27:52Z</time>
      </trkpt>
      <trkpt lat="45.82915" lon="4.31976">
        <ele>653</ele>
        <time>2020-05-31T04:27:57Z</time>
      </trkpt>
      <trkpt lat="45.82885" lon="4.32009">
        <ele>653</ele>
        <time>2020-05-31T04:28:04Z</time>
      </trkpt>
      <trkpt lat="45.8287" lon="4.3203">
        <ele>653</ele>
        <time>2020-05-31T04:28:07Z</time>
      </trkpt>
      <trkpt lat="45.82856" lon="4.32053">
        <ele>653</ele>
        <time>2020-05-31T04:28:11Z</time>
      </trkpt>
      <trkpt lat="45.82808" lon="4.32195">
        <ele>659</ele>
        <time>2020-05-31T04:28:31Z</time>
      </trkpt>
      <trkpt lat="45.82784" lon="4.32271">
        <ele>663</ele>
        <time>2020-05-31T04:28:41Z</time>
      </trkpt>
      <trkpt lat="45.8278" lon="4.32285">
        <ele>664</ele>
        <time>2020-05-31T04:28:43Z</time>
      </trkpt>
      <trkpt lat="45.82769" lon="4.32308">
        <ele>664</ele>
        <time>2020-05-31T04:28:46Z</time>
      </trkpt>
      <trkpt lat="45.82756" lon="4.32325">
        <ele>664</ele>
        <time>2020-05-31T04:28:50Z</time>
      </trkpt>
      <trkpt lat="45.82694" lon="4.32382">
        <ele>666</ele>
        <time>2020-05-31T04:29:03Z</time>
      </trkpt>
      <trkpt lat="45.82677" lon="4.32404">
        <ele>667</ele>
        <time>2020-05-31T04:29:07Z</time>
      </trkpt>
      <trkpt lat="45.82661" lon="4.32431">
        <ele>667</ele>
        <time>2020-05-31T04:29:11Z</time>
      </trkpt>
      <trkpt lat="45.8265" lon="4.32468">
        <ele>669</ele>
        <time>2020-05-31T04:29:16Z</time>
      </trkpt>
      <trkpt lat="45.82648" lon="4.32484">
        <ele>669</ele>
        <time>2020-05-31T04:29:18Z</time>
      </trkpt>
      <trkpt lat="45.82649" lon="4.32499">
        <ele>670</ele>
        <time>2020-05-31T04:29:20Z</time>
      </trkpt>
      <trkpt lat="45.82731" lon="4.32461">
        <ele>672</ele>
        <time>2020-05-31T04:29:35Z</time>
      </trkpt>
      <trkpt lat="45.82802" lon="4.32443">
        <ele>678</ele>
        <time>2020-05-31T04:29:48Z</time>
      </trkpt>
      <trkpt lat="45.82836" lon="4.32441">
        <ele>682</ele>
        <time>2020-05-31T04:29:54Z</time>
      </trkpt>
      <trkpt lat="45.82883" lon="4.32442">
        <ele>687</ele>
        <time>2020-05-31T04:30:03Z</time>
      </trkpt>
      <trkpt lat="45.82988" lon="4.32437">
        <ele>702</ele>
        <time>2020-05-31T04:30:21Z</time>
      </trkpt>
      <trkpt lat="45.83047" lon="4.32438">
        <ele>709</ele>
        <time>2020-05-31T04:30:32Z</time>
      </trkpt>
      <trkpt lat="45.83107" lon="4.32426">
        <ele>716</ele>
        <time>2020-05-31T04:30:43Z</time>
      </trkpt>
      <trkpt lat="45.83144" lon="4.32415">
        <ele>718</ele>
        <time>2020-05-31T04:30:49Z</time>
      </trkpt>
      <trkpt lat="45.83186" lon="4.32408">
        <ele>720</ele>
        <time>2020-05-31T04:30:57Z</time>
      </trkpt>
      <trkpt lat="45.83239" lon="4.32403">
        <ele>723</ele>
        <time>2020-05-31T04:31:06Z</time>
      </trkpt>
      <trkpt lat="45.83388" lon="4.32346">
        <ele>732</ele>
        <time>2020-05-31T04:31:34Z</time>
      </trkpt>
      <trkpt lat="45.83525" lon="4.32303">
        <ele>735</ele>
        <time>2020-05-31T04:31:59Z</time>
      </trkpt>
      <trkpt lat="45.83556" lon="4.32286">
        <ele>736</ele>
        <time>2020-05-31T04:32:05Z</time>
      </trkpt>
      <trkpt lat="45.83669" lon="4.32263">
        <ele>733</ele>
        <time>2020-05-31T04:32:25Z</time>
      </trkpt>
      <trkpt lat="45.83708" lon="4.32241">
        <ele>732</ele>
        <time>2020-05-31T04:32:32Z</time>
      </trkpt>
      <trkpt lat="45.83725" lon="4.32236">
        <ele>732</ele>
        <time>2020-05-31T04:32:35Z</time>
      </trkpt>
      <trkpt lat="45.83745" lon="4.32234">
        <ele>731</ele>
        <time>2020-05-31T04:32:39Z</time>
      </trkpt>
      <trkpt lat="45.83764" lon="4.32242">
        <ele>732</ele>
        <time>2020-05-31T04:32:42Z</time>
      </trkpt>
      <trkpt lat="45.83911" lon="4.32352">
        <ele>737</ele>
        <time>2020-05-31T04:33:12Z</time>
      </trkpt>
      <trkpt lat="45.83962" lon="4.32376">
        <ele>737</ele>
        <time>2020-05-31T04:33:22Z</time>
      </trkpt>
      <trkpt lat="45.84035" lon="4.32376">
        <ele>743</ele>
        <time>2020-05-31T04:33:35Z</time>
      </trkpt>
      <trkpt lat="45.84135" lon="4.32393">
        <ele>751</ele>
        <time>2020-05-31T04:33:52Z</time>
      </trkpt>
      <trkpt lat="45.84234" lon="4.32436">
        <ele>755</ele>
        <time>2020-05-31T04:34:11Z</time>
      </trkpt>
      <trkpt lat="45.84366" lon="4.32558">
        <ele>753</ele>
        <time>2020-05-31T04:34:39Z</time>
      </trkpt>
      <trkpt lat="45.84411" lon="4.32571">
        <ele>755</ele>
        <time>2020-05-31T04:34:47Z</time>
      </trkpt>
      <trkpt lat="45.8447" lon="4.32551">
        <ele>754</ele>
        <time>2020-05-31T04:34:58Z</time>
      </trkpt>
      <trkpt lat="45.84511" lon="4.32544">
        <ele>753</ele>
        <time>2020-05-31T04:35:05Z</time>
      </trkpt>
      <trkpt lat="45.84541" lon="4.32549">
        <ele>753</ele>
        <time>2020-05-31T04:35:10Z</time>
      </trkpt>
      <trkpt lat="45.84735" lon="4.32639">
        <ele>760</ele>
        <time>2020-05-31T04:35:47Z</time>
      </trkpt>
      <trkpt lat="45.84799" lon="4.32644">
        <ele>761</ele>
        <time>2020-05-31T04:35:58Z</time>
      </trkpt>
      <trkpt lat="45.84833" lon="4.32642">
        <ele>760</ele>
        <time>2020-05-31T04:36:04Z</time>
      </trkpt>
      <trkpt lat="45.84881" lon="4.32642">
        <ele>758</ele>
        <time>2020-05-31T04:36:13Z</time>
      </trkpt>
      <trkpt lat="45.84901" lon="4.32658">
        <ele>758</ele>
        <time>2020-05-31T04:36:17Z</time>
      </trkpt>
      <trkpt lat="45.84904" lon="4.32664">
        <ele>758</ele>
        <time>2020-05-31T04:36:18Z</time>
      </trkpt>
      <trkpt lat="45.84909" lon="4.32684">
        <ele>757</ele>
        <time>2020-05-31T04:36:20Z</time>
      </trkpt>
      <trkpt lat="45.84911" lon="4.32706">
        <ele>756</ele>
        <time>2020-05-31T04:36:23Z</time>
      </trkpt>
      <trkpt lat="45.84922" lon="4.32734">
        <ele>753</ele>
        <time>2020-05-31T04:36:27Z</time>
      </trkpt>
      <trkpt lat="45.84889" lon="4.32789">
        <ele>757</ele>
        <time>2020-05-31T04:36:36Z</time>
      </trkpt>
      <trkpt lat="45.8483" lon="4.329">
        <ele>761</ele>
        <time>2020-05-31T04:36:53Z</time>
      </trkpt>
      <trkpt lat="45.84816" lon="4.32963">
        <ele>760</ele>
        <time>2020-05-31T04:37:02Z</time>
      </trkpt>
      <trkpt lat="45.84817" lon="4.33011">
        <ele>758</ele>
        <time>2020-05-31T04:37:08Z</time>
      </trkpt>
      <trkpt lat="45.84826" lon="4.33052">
        <ele>756</ele>
        <time>2020-05-31T04:37:13Z</time>
      </trkpt>
      <trkpt lat="45.84849" lon="4.331">
        <ele>758</ele>
        <time>2020-05-31T04:37:20Z</time>
      </trkpt>
      <trkpt lat="45.84883" lon="4.33129">
        <ele>761</ele>
        <time>2020-05-31T04:37:27Z</time>
      </trkpt>
      <trkpt lat="45.8494" lon="4.33143">
        <ele>765</ele>
        <time>2020-05-31T04:37:37Z</time>
      </trkpt>
      <trkpt lat="45.84995" lon="4.33152">
        <ele>769</ele>
        <time>2020-05-31T04:37:47Z</time>
      </trkpt>
      <trkpt lat="45.85046" lon="4.33168">
        <ele>769</ele>
        <time>2020-05-31T04:37:57Z</time>
      </trkpt>
      <trkpt lat="45.85095" lon="4.33192">
        <ele>771</ele>
        <time>2020-05-31T04:38:06Z</time>
      </trkpt>
      <trkpt lat="45.85143" lon="4.33223">
        <ele>771</ele>
        <time>2020-05-31T04:38:15Z</time>
      </trkpt>
      <trkpt lat="45.85169" lon="4.33248">
        <ele>770</ele>
        <time>2020-05-31T04:38:21Z</time>
      </trkpt>
      <trkpt lat="45.85188" lon="4.33278">
        <ele>771</ele>
        <time>2020-05-31T04:38:26Z</time>
      </trkpt>
      <trkpt lat="45.8521" lon="4.33335">
        <ele>772</ele>
        <time>2020-05-31T04:38:34Z</time>
      </trkpt>
      <trkpt lat="45.85217" lon="4.33402">
        <ele>774</ele>
        <time>2020-05-31T04:38:42Z</time>
      </trkpt>
      <trkpt lat="45.85208" lon="4.3348">
        <ele>778</ele>
        <time>2020-05-31T04:38:52Z</time>
      </trkpt>
      <trkpt lat="45.85178" lon="4.33618">
        <ele>782</ele>
        <time>2020-05-31T04:39:10Z</time>
      </trkpt>
      <trkpt lat="45.85166" lon="4.33696">
        <ele>784</ele>
        <time>2020-05-31T04:39:20Z</time>
      </trkpt>
      <trkpt lat="45.85155" lon="4.33837">
        <ele>785</ele>
        <time>2020-05-31T04:39:37Z</time>
      </trkpt>
      <trkpt lat="45.85144" lon="4.33898">
        <ele>783</ele>
        <time>2020-05-31T04:39:45Z</time>
      </trkpt>
      <trkpt lat="45.85126" lon="4.33949">
        <ele>783</ele>
        <time>2020-05-31T04:39:52Z</time>
      </trkpt>
      <trkpt lat="45.85092" lon="4.34016">
        <ele>781</ele>
        <time>2020-05-31T04:40:03Z</time>
      </trkpt>
      <trkpt lat="45.85052" lon="4.34104">
        <ele>782</ele>
        <time>2020-05-31T04:40:16Z</time>
      </trkpt>
      <trkpt lat="45.85041" lon="4.34135">
        <ele>784</ele>
        <time>2020-05-31T04:40:20Z</time>
      </trkpt>
      <trkpt lat="45.85033" lon="4.34169">
        <ele>785</ele>
        <time>2020-05-31T04:40:24Z</time>
      </trkpt>
      <trkpt lat="45.8503" lon="4.34214">
        <ele>785</ele>
        <time>2020-05-31T04:40:30Z</time>
      </trkpt>
      <trkpt lat="45.85036" lon="4.34269">
        <ele>785</ele>
        <time>2020-05-31T04:40:37Z</time>
      </trkpt>
      <trkpt lat="45.85055" lon="4.34325">
        <ele>786</ele>
        <time>2020-05-31T04:40:45Z</time>
      </trkpt>
      <trkpt lat="45.85073" lon="4.34353">
        <ele>787</ele>
        <time>2020-05-31T04:40:49Z</time>
      </trkpt>
      <trkpt lat="45.85088" lon="4.34368">
        <ele>788</ele>
        <time>2020-05-31T04:40:53Z</time>
      </trkpt>
      <trkpt lat="45.85118" lon="4.34391">
        <ele>790</ele>
        <time>2020-05-31T04:40:59Z</time>
      </trkpt>
      <trkpt lat="45.85166" lon="4.34405">
        <ele>791</ele>
        <time>2020-05-31T04:41:07Z</time>
      </trkpt>
      <trkpt lat="45.85181" lon="4.34408">
        <ele>790</ele>
        <time>2020-05-31T04:41:10Z</time>
      </trkpt>
      <trkpt lat="45.85213" lon="4.34423">
        <ele>790</ele>
        <time>2020-05-31T04:41:16Z</time>
      </trkpt>
      <trkpt lat="45.8523" lon="4.34439">
        <ele>791</ele>
        <time>2020-05-31T04:41:20Z</time>
      </trkpt>
      <trkpt lat="45.85248" lon="4.34474">
        <ele>795</ele>
        <time>2020-05-31T04:41:25Z</time>
      </trkpt>
      <trkpt lat="45.85256" lon="4.34508">
        <ele>798</ele>
        <time>2020-05-31T04:41:29Z</time>
      </trkpt>
      <trkpt lat="45.85258" lon="4.34538">
        <ele>800</ele>
        <time>2020-05-31T04:41:33Z</time>
      </trkpt>
      <trkpt lat="45.85254" lon="4.34586">
        <ele>803</ele>
        <time>2020-05-31T04:41:39Z</time>
      </trkpt>
      <trkpt lat="45.85208" lon="4.34784">
        <ele>807</ele>
        <time>2020-05-31T04:42:05Z</time>
      </trkpt>
      <trkpt lat="45.85187" lon="4.34878">
        <ele>810</ele>
        <time>2020-05-31T04:42:17Z</time>
      </trkpt>
      <trkpt lat="45.85154" lon="4.35019">
        <ele>809</ele>
        <time>2020-05-31T04:42:36Z</time>
      </trkpt>
      <trkpt lat="45.85134" lon="4.35111">
        <ele>809</ele>
        <time>2020-05-31T04:42:48Z</time>
      </trkpt>
      <trkpt lat="45.85129" lon="4.35138">
        <ele>809</ele>
        <time>2020-05-31T04:42:51Z</time>
      </trkpt>
      <trkpt lat="45.85112" lon="4.35213">
        <ele>809</ele>
        <time>2020-05-31T04:43:01Z</time>
      </trkpt>
      <trkpt lat="45.85095" lon="4.35304">
        <ele>809</ele>
        <time>2020-05-31T04:43:13Z</time>
      </trkpt>
      <trkpt lat="45.85094" lon="4.35307">
        <ele>809</ele>
        <time>2020-05-31T04:43:13Z</time>
      </trkpt>
      <trkpt lat="45.85091" lon="4.35327">
        <ele>808</ele>
        <time>2020-05-31T04:43:15Z</time>
      </trkpt>
      <trkpt lat="45.85088" lon="4.3535">
        <ele>807</ele>
        <time>2020-05-31T04:43:18Z</time>
      </trkpt>
      <trkpt lat="45.85089" lon="4.35357">
        <ele>807</ele>
        <time>2020-05-31T04:43:19Z</time>
      </trkpt>
      <trkpt lat="45.85085" lon="4.35358">
        <ele>807</ele>
        <time>2020-05-31T04:43:20Z</time>
      </trkpt>
      <trkpt lat="45.85082" lon="4.35361">
        <ele>807</ele>
        <time>2020-05-31T04:43:21Z</time>
      </trkpt>
      <trkpt lat="45.85078" lon="4.35369">
        <ele>807</ele>
        <time>2020-05-31T04:43:22Z</time>
      </trkpt>
      <trkpt lat="45.85078" lon="4.35374">
        <ele>807</ele>
        <time>2020-05-31T04:43:22Z</time>
      </trkpt>
      <trkpt lat="45.85078" lon="4.35377">
        <ele>807</ele>
        <time>2020-05-31T04:43:23Z</time>
      </trkpt>
      <trkpt lat="45.85078" lon="4.3538">
        <ele>807</ele>
        <time>2020-05-31T04:43:23Z</time>
      </trkpt>
      <trkpt lat="45.85079" lon="4.35383">
        <ele>807</ele>
        <time>2020-05-31T04:43:24Z</time>
      </trkpt>
      <trkpt lat="45.85081" lon="4.35385">
        <ele>807</ele>
        <time>2020-05-31T04:43:24Z</time>
      </trkpt>
      <trkpt lat="45.85084" lon="4.35389">
        <ele>807</ele>
        <time>2020-05-31T04:43:25Z</time>
      </trkpt>
      <trkpt lat="45.85091" lon="4.3539">
        <ele>807</ele>
        <time>2020-05-31T04:43:26Z</time>
      </trkpt>
      <trkpt lat="45.85095" lon="4.35388">
        <ele>807</ele>
        <time>2020-05-31T04:43:27Z</time>
      </trkpt>
      <trkpt lat="45.85097" lon="4.35398">
        <ele>807</ele>
        <time>2020-05-31T04:43:28Z</time>
      </trkpt>
      <trkpt lat="45.85159" lon="4.355">
        <ele>812</ele>
        <time>2020-05-31T04:43:45Z</time>
      </trkpt>
      <trkpt lat="45.85161" lon="4.35505">
        <ele>813</ele>
        <time>2020-05-31T04:43:46Z</time>
      </trkpt>
      <trkpt lat="45.85205" lon="4.35576">
        <ele>817</ele>
        <time>2020-05-31T04:43:57Z</time>
      </trkpt>
      <trkpt lat="45.85221" lon="4.35604">
        <ele>818</ele>
        <time>2020-05-31T04:44:02Z</time>
      </trkpt>
      <trkpt lat="45.85226" lon="4.35611">
        <ele>818</ele>
        <time>2020-05-31T04:44:03Z</time>
      </trkpt>
      <trkpt lat="45.85232" lon="4.35622">
        <ele>819</ele>
        <time>2020-05-31T04:44:05Z</time>
      </trkpt>
      <trkpt lat="45.85256" lon="4.35662">
        <ele>823</ele>
        <time>2020-05-31T04:44:11Z</time>
      </trkpt>
      <trkpt lat="45.85283" lon="4.35702">
        <ele>826</ele>
        <time>2020-05-31T04:44:18Z</time>
      </trkpt>
      <trkpt lat="45.85286" lon="4.3572">
        <ele>827</ele>
        <time>2020-05-31T04:44:21Z</time>
      </trkpt>
      <trkpt lat="45.85293" lon="4.35764">
        <ele>828</ele>
        <time>2020-05-31T04:44:26Z</time>
      </trkpt>
      <trkpt lat="45.85302" lon="4.35784">
        <ele>829</ele>
        <time>2020-05-31T04:44:29Z</time>
      </trkpt>
      <trkpt lat="45.85309" lon="4.358">
        <ele>829</ele>
        <time>2020-05-31T04:44:31Z</time>
      </trkpt>
      <trkpt lat="45.85312" lon="4.35805">
        <ele>829</ele>
        <time>2020-05-31T04:44:32Z</time>
      </trkpt>
      <trkpt lat="45.85318" lon="4.35811">
        <ele>830</ele>
        <time>2020-05-31T04:44:34Z</time>
      </trkpt>
      <trkpt lat="45.85327" lon="4.35821">
        <ele>831</ele>
        <time>2020-05-31T04:44:36Z</time>
      </trkpt>
      <trkpt lat="45.85359" lon="4.35858">
        <ele>834</ele>
        <time>2020-05-31T04:44:43Z</time>
      </trkpt>
      <trkpt lat="45.85369" lon="4.3587">
        <ele>835</ele>
        <time>2020-05-31T04:44:45Z</time>
      </trkpt>
      <trkpt lat="45.85391" lon="4.35951">
        <ele>837</ele>
        <time>2020-05-31T04:44:56Z</time>
      </trkpt>
      <trkpt lat="45.85403" lon="4.35974">
        <ele>838</ele>
        <time>2020-05-31T04:45:00Z</time>
      </trkpt>
      <trkpt lat="45.85472" lon="4.36069">
        <ele>851</ele>
        <time>2020-05-31T04:45:17Z</time>
      </trkpt>
      <trkpt lat="45.85484" lon="4.36086">
        <ele>855</ele>
        <time>2020-05-31T04:45:20Z</time>
      </trkpt>
      <trkpt lat="45.85494" lon="4.36101">
        <ele>858</ele>
        <time>2020-05-31T04:45:22Z</time>
      </trkpt>
      <trkpt lat="45.85502" lon="4.36124">
        <ele>860</ele>
        <time>2020-05-31T04:45:25Z</time>
      </trkpt>
      <trkpt lat="45.85503" lon="4.36149">
        <ele>861</ele>
        <time>2020-05-31T04:45:28Z</time>
      </trkpt>
      <trkpt lat="45.855" lon="4.36184">
        <ele>860</ele>
        <time>2020-05-31T04:45:33Z</time>
      </trkpt>
      <trkpt lat="45.85499" lon="4.36198">
        <ele>860</ele>
        <time>2020-05-31T04:45:35Z</time>
      </trkpt>
      <trkpt lat="45.85485" lon="4.36298">
        <ele>859</ele>
        <time>2020-05-31T04:45:47Z</time>
      </trkpt>
      <trkpt lat="45.85485" lon="4.36332">
        <ele>861</ele>
        <time>2020-05-31T04:45:51Z</time>
      </trkpt>
      <trkpt lat="45.8549" lon="4.36352">
        <ele>861</ele>
        <time>2020-05-31T04:45:54Z</time>
      </trkpt>
      <trkpt lat="45.85498" lon="4.3637">
        <ele>862</ele>
        <time>2020-05-31T04:45:57Z</time>
      </trkpt>
      <trkpt lat="45.85506" lon="4.3638">
        <ele>862</ele>
        <time>2020-05-31T04:45:59Z</time>
      </trkpt>
      <trkpt lat="45.85518" lon="4.36389">
        <ele>862</ele>
        <time>2020-05-31T04:46:01Z</time>
      </trkpt>
      <trkpt lat="45.85533" lon="4.36392">
        <ele>862</ele>
        <time>2020-05-31T04:46:04Z</time>
      </trkpt>
      <trkpt lat="45.8559" lon="4.36402">
        <ele>861</ele>
        <time>2020-05-31T04:46:14Z</time>
      </trkpt>
      <trkpt lat="45.85632" lon="4.36403">
        <ele>857</ele>
        <time>2020-05-31T04:46:21Z</time>
      </trkpt>
      <trkpt lat="45.85649" lon="4.36398">
        <ele>856</ele>
        <time>2020-05-31T04:46:24Z</time>
      </trkpt>
      <trkpt lat="45.85717" lon="4.36361">
        <ele>855</ele>
        <time>2020-05-31T04:46:37Z</time>
      </trkpt>
      <trkpt lat="45.8577" lon="4.3636">
        <ele>852</ele>
        <time>2020-05-31T04:46:47Z</time>
      </trkpt>
      <trkpt lat="45.85812" lon="4.36364">
        <ele>852</ele>
        <time>2020-05-31T04:46:54Z</time>
      </trkpt>
      <trkpt lat="45.85875" lon="4.36398">
        <ele>850</ele>
        <time>2020-05-31T04:47:06Z</time>
      </trkpt>
      <trkpt lat="45.85908" lon="4.36435">
        <ele>848</ele>
        <time>2020-05-31T04:47:14Z</time>
      </trkpt>
      <trkpt lat="45.85974" lon="4.36579">
        <ele>834</ele>
        <time>2020-05-31T04:47:35Z</time>
      </trkpt>
      <trkpt lat="45.86002" lon="4.36641">
        <ele>830</ele>
        <time>2020-05-31T04:47:44Z</time>
      </trkpt>
      <trkpt lat="45.86012" lon="4.36663">
        <ele>828</ele>
        <time>2020-05-31T04:47:48Z</time>
      </trkpt>
      <trkpt lat="45.86043" lon="4.36705">
        <ele>823</ele>
        <time>2020-05-31T04:47:55Z</time>
      </trkpt>
      <trkpt lat="45.86076" lon="4.36709">
        <ele>822</ele>
        <time>2020-05-31T04:48:01Z</time>
      </trkpt>
      <trkpt lat="45.86111" lon="4.36695">
        <ele>820</ele>
        <time>2020-05-31T04:48:07Z</time>
      </trkpt>
      <trkpt lat="45.86142" lon="4.36663">
        <ele>822</ele>
        <time>2020-05-31T04:48:14Z</time>
      </trkpt>
      <trkpt lat="45.86187" lon="4.36632">
        <ele>823</ele>
        <time>2020-05-31T04:48:23Z</time>
      </trkpt>
      <trkpt lat="45.86237" lon="4.36622">
        <ele>819</ele>
        <time>2020-05-31T04:48:32Z</time>
      </trkpt>
      <trkpt lat="45.86286" lon="4.36627">
        <ele>818</ele>
        <time>2020-05-31T04:48:41Z</time>
      </trkpt>
      <trkpt lat="45.86308" lon="4.36642">
        <ele>815</ele>
        <time>2020-05-31T04:48:45Z</time>
      </trkpt>
      <trkpt lat="45.86331" lon="4.36665">
        <ele>811</ele>
        <time>2020-05-31T04:48:50Z</time>
      </trkpt>
      <trkpt lat="45.86376" lon="4.36738">
        <ele>804</ele>
        <time>2020-05-31T04:49:02Z</time>
      </trkpt>
      <trkpt lat="45.86392" lon="4.36757">
        <ele>802</ele>
        <time>2020-05-31T04:49:06Z</time>
      </trkpt>
      <trkpt lat="45.86431" lon="4.36781">
        <ele>801</ele>
        <time>2020-05-31T04:49:13Z</time>
      </trkpt>
      <trkpt lat="45.86468" lon="4.36787">
        <ele>802</ele>
        <time>2020-05-31T04:49:20Z</time>
      </trkpt>
      <trkpt lat="45.86501" lon="4.36804">
        <ele>801</ele>
        <time>2020-05-31T04:49:26Z</time>
      </trkpt>
      <trkpt lat="45.86526" lon="4.36832">
        <ele>801</ele>
        <time>2020-05-31T04:49:32Z</time>
      </trkpt>
      <trkpt lat="45.86538" lon="4.36852">
        <ele>801</ele>
        <time>2020-05-31T04:49:35Z</time>
      </trkpt>
      <trkpt lat="45.86548" lon="4.36896">
        <ele>797</ele>
        <time>2020-05-31T04:49:41Z</time>
      </trkpt>
      <trkpt lat="45.8655" lon="4.36925">
        <ele>795</ele>
        <time>2020-05-31T04:49:45Z</time>
      </trkpt>
      <trkpt lat="45.8654" lon="4.37019">
        <ele>788</ele>
        <time>2020-05-31T04:49:56Z</time>
      </trkpt>
      <trkpt lat="45.86541" lon="4.37045">
        <ele>787</ele>
        <time>2020-05-31T04:50:00Z</time>
      </trkpt>
      <trkpt lat="45.8655" lon="4.37068">
        <ele>786</ele>
        <time>2020-05-31T04:50:03Z</time>
      </trkpt>
      <trkpt lat="45.86562" lon="4.3709">
        <ele>785</ele>
        <time>2020-05-31T04:50:06Z</time>
      </trkpt>
      <trkpt lat="45.866" lon="4.37118">
        <ele>787</ele>
        <time>2020-05-31T04:50:14Z</time>
      </trkpt>
      <trkpt lat="45.86623" lon="4.37132">
        <ele>791</ele>
        <time>2020-05-31T04:50:18Z</time>
      </trkpt>
      <trkpt lat="45.86637" lon="4.37203">
        <ele>790</ele>
        <time>2020-05-31T04:50:28Z</time>
      </trkpt>
      <trkpt lat="45.86625" lon="4.3745">
        <ele>770</ele>
        <time>2020-05-31T04:50:58Z</time>
      </trkpt>
      <trkpt lat="45.86641" lon="4.37521">
        <ele>763</ele>
        <time>2020-05-31T04:51:07Z</time>
      </trkpt>
      <trkpt lat="45.86663" lon="4.37547">
        <ele>763</ele>
        <time>2020-05-31T04:51:13Z</time>
      </trkpt>
      <trkpt lat="45.86698" lon="4.37572">
        <ele>766</ele>
        <time>2020-05-31T04:51:19Z</time>
      </trkpt>
      <trkpt lat="45.86732" lon="4.37626">
        <ele>767</ele>
        <time>2020-05-31T04:51:29Z</time>
      </trkpt>
      <trkpt lat="45.86744" lon="4.37675">
        <ele>764</ele>
        <time>2020-05-31T04:51:35Z</time>
      </trkpt>
      <trkpt lat="45.86748" lon="4.37725">
        <ele>763</ele>
        <time>2020-05-31T04:51:41Z</time>
      </trkpt>
      <trkpt lat="45.86745" lon="4.37741">
        <ele>762</ele>
        <time>2020-05-31T04:51:43Z</time>
      </trkpt>
      <trkpt lat="45.86742" lon="4.37761">
        <ele>761</ele>
        <time>2020-05-31T04:51:46Z</time>
      </trkpt>
      <trkpt lat="45.86718" lon="4.37875">
        <ele>759</ele>
        <time>2020-05-31T04:52:01Z</time>
      </trkpt>
      <trkpt lat="45.86679" lon="4.38">
        <ele>749</ele>
        <time>2020-05-31T04:52:17Z</time>
      </trkpt>
      <trkpt lat="45.86674" lon="4.38089">
        <ele>745</ele>
        <time>2020-05-31T04:52:29Z</time>
      </trkpt>
      <trkpt lat="45.86679" lon="4.38132">
        <ele>742</ele>
        <time>2020-05-31T04:52:34Z</time>
      </trkpt>
      <trkpt lat="45.86714" lon="4.38198">
        <ele>739</ele>
        <time>2020-05-31T04:52:44Z</time>
      </trkpt>
      <trkpt lat="45.86749" lon="4.38213">
        <ele>742</ele>
        <time>2020-05-31T04:52:51Z</time>
      </trkpt>
      <trkpt lat="45.86802" lon="4.3823">
        <ele>737</ele>
        <time>2020-05-31T04:53:00Z</time>
      </trkpt>
      <trkpt lat="45.86868" lon="4.38293">
        <ele>722</ele>
        <time>2020-05-31T04:53:14Z</time>
      </trkpt>
      <trkpt lat="45.86918" lon="4.38291">
        <ele>722</ele>
        <time>2020-05-31T04:53:23Z</time>
      </trkpt>
      <trkpt lat="45.86941" lon="4.38258">
        <ele>721</ele>
        <time>2020-05-31T04:53:29Z</time>
      </trkpt>
      <trkpt lat="45.86955" lon="4.38219">
        <ele>721</ele>
        <time>2020-05-31T04:53:35Z</time>
      </trkpt>
      <trkpt lat="45.86962" lon="4.3819">
        <ele>721</ele>
        <time>2020-05-31T04:53:38Z</time>
      </trkpt>
      <trkpt lat="45.87" lon="4.38096">
        <ele>717</ele>
        <time>2020-05-31T04:53:52Z</time>
      </trkpt>
      <trkpt lat="45.87041" lon="4.38003">
        <ele>707</ele>
        <time>2020-05-31T04:54:06Z</time>
      </trkpt>
      <trkpt lat="45.87071" lon="4.37922">
        <ele>705</ele>
        <time>2020-05-31T04:54:17Z</time>
      </trkpt>
      <trkpt lat="45.87081" lon="4.37881">
        <ele>702</ele>
        <time>2020-05-31T04:54:22Z</time>
      </trkpt>
      <trkpt lat="45.87088" lon="4.37791">
        <ele>700</ele>
        <time>2020-05-31T04:54:33Z</time>
      </trkpt>
      <trkpt lat="45.871" lon="4.37729">
        <ele>697</ele>
        <time>2020-05-31T04:54:41Z</time>
      </trkpt>
      <trkpt lat="45.87108" lon="4.37604">
        <ele>696</ele>
        <time>2020-05-31T04:54:57Z</time>
      </trkpt>
      <trkpt lat="45.87122" lon="4.37553">
        <ele>695</ele>
        <time>2020-05-31T04:55:04Z</time>
      </trkpt>
      <trkpt lat="45.87144" lon="4.37534">
        <ele>693</ele>
        <time>2020-05-31T04:55:08Z</time>
      </trkpt>
      <trkpt lat="45.87188" lon="4.37528">
        <ele>687</ele>
        <time>2020-05-31T04:55:16Z</time>
      </trkpt>
      <trkpt lat="45.87228" lon="4.3751">
        <ele>687</ele>
        <time>2020-05-31T04:55:24Z</time>
      </trkpt>
      <trkpt lat="45.87252" lon="4.37505">
        <ele>686</ele>
        <time>2020-05-31T04:55:28Z</time>
      </trkpt>
      <trkpt lat="45.87276" lon="4.37508">
        <ele>687</ele>
        <time>2020-05-31T04:55:32Z</time>
      </trkpt>
      <trkpt lat="45.87293" lon="4.37514">
        <ele>687</ele>
        <time>2020-05-31T04:55:35Z</time>
      </trkpt>
      <trkpt lat="45.87321" lon="4.3753">
        <ele>685</ele>
        <time>2020-05-31T04:55:41Z</time>
      </trkpt>
      <trkpt lat="45.8734" lon="4.37557">
        <ele>682</ele>
        <time>2020-05-31T04:55:46Z</time>
      </trkpt>
      <trkpt lat="45.87382" lon="4.37683">
        <ele>673</ele>
        <time>2020-05-31T04:56:03Z</time>
      </trkpt>
      <trkpt lat="45.87404" lon="4.378">
        <ele>666</ele>
        <time>2020-05-31T04:56:18Z</time>
      </trkpt>
      <trkpt lat="45.87436" lon="4.37877">
        <ele>661</ele>
        <time>2020-05-31T04:56:29Z</time>
      </trkpt>
      <trkpt lat="45.87484" lon="4.37958">
        <ele>654</ele>
        <time>2020-05-31T04:56:42Z</time>
      </trkpt>
      <trkpt lat="45.87534" lon="4.37972">
        <ele>655</ele>
        <time>2020-05-31T04:56:51Z</time>
      </trkpt>
      <trkpt lat="45.87547" lon="4.37962">
        <ele>658</ele>
        <time>2020-05-31T04:56:54Z</time>
      </trkpt>
      <trkpt lat="45.87611" lon="4.37956">
        <ele>662</ele>
        <time>2020-05-31T04:57:05Z</time>
      </trkpt>
      <trkpt lat="45.87654" lon="4.37987">
        <ele>655</ele>
        <time>2020-05-31T04:57:14Z</time>
      </trkpt>
      <trkpt lat="45.87687" lon="4.38029">
        <ele>647</ele>
        <time>2020-05-31T04:57:22Z</time>
      </trkpt>
      <trkpt lat="45.87695" lon="4.38076">
        <ele>641</ele>
        <time>2020-05-31T04:57:28Z</time>
      </trkpt>
      <trkpt lat="45.87701" lon="4.38103">
        <ele>640</ele>
        <time>2020-05-31T04:57:31Z</time>
      </trkpt>
      <trkpt lat="45.87703" lon="4.38127">
        <ele>640</ele>
        <time>2020-05-31T04:57:34Z</time>
      </trkpt>
      <trkpt lat="45.87688" lon="4.38226">
        <ele>636</ele>
        <time>2020-05-31T04:57:47Z</time>
      </trkpt>
      <trkpt lat="45.87687" lon="4.38376">
        <ele>635</ele>
        <time>2020-05-31T04:58:05Z</time>
      </trkpt>
      <trkpt lat="45.87668" lon="4.38481">
        <ele>628</ele>
        <time>2020-05-31T04:58:19Z</time>
      </trkpt>
      <trkpt lat="45.87668" lon="4.38572">
        <ele>621</ele>
        <time>2020-05-31T04:58:30Z</time>
      </trkpt>
      <trkpt lat="45.87678" lon="4.3863">
        <ele>617</ele>
        <time>2020-05-31T04:58:37Z</time>
      </trkpt>
      <trkpt lat="45.8768" lon="4.38644">
        <ele>615</ele>
        <time>2020-05-31T04:58:39Z</time>
      </trkpt>
      <trkpt lat="45.87687" lon="4.38662">
        <ele>614</ele>
        <time>2020-05-31T04:58:42Z</time>
      </trkpt>
      <trkpt lat="45.87703" lon="4.38706">
        <ele>611</ele>
        <time>2020-05-31T04:58:48Z</time>
      </trkpt>
      <trkpt lat="45.8773" lon="4.38751">
        <ele>609</ele>
        <time>2020-05-31T04:58:55Z</time>
      </trkpt>
      <trkpt lat="45.87741" lon="4.38761">
        <ele>609</ele>
        <time>2020-05-31T04:58:58Z</time>
      </trkpt>
      <trkpt lat="45.87751" lon="4.38762">
        <ele>610</ele>
        <time>2020-05-31T04:58:59Z</time>
      </trkpt>
      <trkpt lat="45.87766" lon="4.38756">
        <ele>609</ele>
        <time>2020-05-31T04:59:02Z</time>
      </trkpt>
      <trkpt lat="45.87801" lon="4.38723">
        <ele>612</ele>
        <time>2020-05-31T04:59:10Z</time>
      </trkpt>
      <trkpt lat="45.87817" lon="4.38717">
        <ele>612</ele>
        <time>2020-05-31T04:59:12Z</time>
      </trkpt>
      <trkpt lat="45.87867" lon="4.38718">
        <ele>613</ele>
        <time>2020-05-31T04:59:21Z</time>
      </trkpt>
      <trkpt lat="45.87884" lon="4.38718">
        <ele>614</ele>
        <time>2020-05-31T04:59:24Z</time>
      </trkpt>
      <trkpt lat="45.87895" lon="4.38728">
        <ele>612</ele>
        <time>2020-05-31T04:59:27Z</time>
      </trkpt>
      <trkpt lat="45.87904" lon="4.38758">
        <ele>608</ele>
        <time>2020-05-31T04:59:31Z</time>
      </trkpt>
      <trkpt lat="45.87921" lon="4.38973">
        <ele>588</ele>
        <time>2020-05-31T04:59:58Z</time>
      </trkpt>
      <trkpt lat="45.87932" lon="4.39037">
        <ele>584</ele>
        <time>2020-05-31T05:00:06Z</time>
      </trkpt>
      <trkpt lat="45.87947" lon="4.39076">
        <ele>584</ele>
        <time>2020-05-31T05:00:11Z</time>
      </trkpt>
      <trkpt lat="45.87973" lon="4.39107">
        <ele>589</ele>
        <time>2020-05-31T05:00:17Z</time>
      </trkpt>
      <trkpt lat="45.87977" lon="4.39126">
        <ele>588</ele>
        <time>2020-05-31T05:00:20Z</time>
      </trkpt>
      <trkpt lat="45.87975" lon="4.39163">
        <ele>583</ele>
        <time>2020-05-31T05:00:24Z</time>
      </trkpt>
      <trkpt lat="45.87975" lon="4.39198">
        <ele>579</ele>
        <time>2020-05-31T05:00:29Z</time>
      </trkpt>
      <trkpt lat="45.87979" lon="4.39237">
        <ele>577</ele>
        <time>2020-05-31T05:00:34Z</time>
      </trkpt>
      <trkpt lat="45.87994" lon="4.39335">
        <ele>572</ele>
        <time>2020-05-31T05:00:46Z</time>
      </trkpt>
      <trkpt lat="45.88011" lon="4.39394">
        <ele>569</ele>
        <time>2020-05-31T05:00:54Z</time>
      </trkpt>
      <trkpt lat="45.88058" lon="4.39442">
        <ele>574</ele>
        <time>2020-05-31T05:01:04Z</time>
      </trkpt>
      <trkpt lat="45.88114" lon="4.39461">
        <ele>579</ele>
        <time>2020-05-31T05:01:14Z</time>
      </trkpt>
      <trkpt lat="45.88209" lon="4.39469">
        <ele>575</ele>
        <time>2020-05-31T05:01:31Z</time>
      </trkpt>
      <trkpt lat="45.88231" lon="4.39474">
        <ele>570</ele>
        <time>2020-05-31T05:01:35Z</time>
      </trkpt>
      <trkpt lat="45.88266" lon="4.39474">
        <ele>569</ele>
        <time>2020-05-31T05:01:41Z</time>
      </trkpt>
      <trkpt lat="45.88283" lon="4.39476">
        <ele>570</ele>
        <time>2020-05-31T05:01:45Z</time>
      </trkpt>
      <trkpt lat="45.88296" lon="4.3949">
        <ele>566</ele>
        <time>2020-05-31T05:01:47Z</time>
      </trkpt>
      <trkpt lat="45.88329" lon="4.39536">
        <ele>550</ele>
        <time>2020-05-31T05:01:56Z</time>
      </trkpt>
      <trkpt lat="45.88346" lon="4.39554">
        <ele>545</ele>
        <time>2020-05-31T05:01:59Z</time>
      </trkpt>
      <trkpt lat="45.88368" lon="4.39564">
        <ele>543</ele>
        <time>2020-05-31T05:02:03Z</time>
      </trkpt>
      <trkpt lat="45.88431" lon="4.39588">
        <ele>539</ele>
        <time>2020-05-31T05:02:15Z</time>
      </trkpt>
      <trkpt lat="45.88452" lon="4.39593">
        <ele>537</ele>
        <time>2020-05-31T05:02:19Z</time>
      </trkpt>
      <trkpt lat="45.88474" lon="4.39595">
        <ele>536</ele>
        <time>2020-05-31T05:02:23Z</time>
      </trkpt>
      <trkpt lat="45.88549" lon="4.3959">
        <ele>536</ele>
        <time>2020-05-31T05:02:36Z</time>
      </trkpt>
      <trkpt lat="45.88568" lon="4.39592">
        <ele>534</ele>
        <time>2020-05-31T05:02:40Z</time>
      </trkpt>
      <trkpt lat="45.88584" lon="4.39596">
        <ele>533</ele>
        <time>2020-05-31T05:02:42Z</time>
      </trkpt>
      <trkpt lat="45.88609" lon="4.3961">
        <ele>532</ele>
        <time>2020-05-31T05:02:47Z</time>
      </trkpt>
      <trkpt lat="45.88634" lon="4.39631">
        <ele>529</ele>
        <time>2020-05-31T05:02:52Z</time>
      </trkpt>
      <trkpt lat="45.88656" lon="4.39653">
        <ele>526</ele>
        <time>2020-05-31T05:02:57Z</time>
      </trkpt>
      <trkpt lat="45.88666" lon="4.39672">
        <ele>523</ele>
        <time>2020-05-31T05:03:00Z</time>
      </trkpt>
      <trkpt lat="45.88672" lon="4.39689">
        <ele>522</ele>
        <time>2020-05-31T05:03:02Z</time>
      </trkpt>
      <trkpt lat="45.88688" lon="4.39756">
        <ele>515</ele>
        <time>2020-05-31T05:03:11Z</time>
      </trkpt>
      <trkpt lat="45.88693" lon="4.39768">
        <ele>514</ele>
        <time>2020-05-31T05:03:13Z</time>
      </trkpt>
      <trkpt lat="45.88703" lon="4.39785">
        <ele>513</ele>
        <time>2020-05-31T05:03:16Z</time>
      </trkpt>
      <trkpt lat="45.88714" lon="4.398">
        <ele>513</ele>
        <time>2020-05-31T05:03:18Z</time>
      </trkpt>
      <trkpt lat="45.88737" lon="4.3982">
        <ele>513</ele>
        <time>2020-05-31T05:03:23Z</time>
      </trkpt>
      <trkpt lat="45.88755" lon="4.39835">
        <ele>514</ele>
        <time>2020-05-31T05:03:27Z</time>
      </trkpt>
      <trkpt lat="45.88762" lon="4.39846">
        <ele>515</ele>
        <time>2020-05-31T05:03:29Z</time>
      </trkpt>
      <trkpt lat="45.88763" lon="4.39851">
        <ele>515</ele>
        <time>2020-05-31T05:03:29Z</time>
      </trkpt>
      <trkpt lat="45.88764" lon="4.39857">
        <ele>515</ele>
        <time>2020-05-31T05:03:30Z</time>
      </trkpt>
      <trkpt lat="45.88759" lon="4.39892">
        <ele>509</ele>
        <time>2020-05-31T05:03:35Z</time>
      </trkpt>
      <trkpt lat="45.88749" lon="4.39933">
        <ele>504</ele>
        <time>2020-05-31T05:03:40Z</time>
      </trkpt>
      <trkpt lat="45.88743" lon="4.3998">
        <ele>502</ele>
        <time>2020-05-31T05:03:46Z</time>
      </trkpt>
      <trkpt lat="45.88744" lon="4.40022">
        <ele>499</ele>
        <time>2020-05-31T05:03:51Z</time>
      </trkpt>
      <trkpt lat="45.88749" lon="4.40063">
        <ele>495</ele>
        <time>2020-05-31T05:03:56Z</time>
      </trkpt>
      <trkpt lat="45.8876" lon="4.40115">
        <ele>494</ele>
        <time>2020-05-31T05:04:03Z</time>
      </trkpt>
      <trkpt lat="45.88832" lon="4.40402">
        <ele>479</ele>
        <time>2020-05-31T05:04:41Z</time>
      </trkpt>
      <trkpt lat="45.88847" lon="4.4043">
        <ele>476</ele>
        <time>2020-05-31T05:04:45Z</time>
      </trkpt>
      <trkpt lat="45.88892" lon="4.40464">
        <ele>475</ele>
        <time>2020-05-31T05:04:54Z</time>
      </trkpt>
      <trkpt lat="45.88906" lon="4.40471">
        <ele>476</ele>
        <time>2020-05-31T05:04:57Z</time>
      </trkpt>
      <trkpt lat="45.88914" lon="4.40485">
        <ele>475</ele>
        <time>2020-05-31T05:04:59Z</time>
      </trkpt>
      <trkpt lat="45.88924" lon="4.40524">
        <ele>471</ele>
        <time>2020-05-31T05:05:04Z</time>
      </trkpt>
      <trkpt lat="45.88937" lon="4.40667">
        <ele>457</ele>
        <time>2020-05-31T05:05:22Z</time>
      </trkpt>
      <trkpt lat="45.88941" lon="4.40686">
        <ele>455</ele>
        <time>2020-05-31T05:05:24Z</time>
      </trkpt>
      <trkpt lat="45.88951" lon="4.40698">
        <ele>454</ele>
        <time>2020-05-31T05:05:27Z</time>
      </trkpt>
      <trkpt lat="45.88962" lon="4.407">
        <ele>454</ele>
        <time>2020-05-31T05:05:29Z</time>
      </trkpt>
      <trkpt lat="45.88974" lon="4.40692">
        <ele>454</ele>
        <time>2020-05-31T05:05:31Z</time>
      </trkpt>
      <trkpt lat="45.88993" lon="4.40673">
        <ele>455</ele>
        <time>2020-05-31T05:05:35Z</time>
      </trkpt>
      <trkpt lat="45.89021" lon="4.40633">
        <ele>454</ele>
        <time>2020-05-31T05:05:42Z</time>
      </trkpt>
      <trkpt lat="45.89034" lon="4.40603">
        <ele>453</ele>
        <time>2020-05-31T05:05:47Z</time>
      </trkpt>
      <trkpt lat="45.89047" lon="4.40568">
        <ele>453</ele>
        <time>2020-05-31T05:05:52Z</time>
      </trkpt>
      <trkpt lat="45.89054" lon="4.40528">
        <ele>453</ele>
        <time>2020-05-31T05:05:57Z</time>
      </trkpt>
      <trkpt lat="45.89087" lon="4.4026">
        <ele>452</ele>
        <time>2020-05-31T05:06:30Z</time>
      </trkpt>
      <trkpt lat="45.89113" lon="4.40172">
        <ele>452</ele>
        <time>2020-05-31T05:06:42Z</time>
      </trkpt>
      <trkpt lat="45.89161" lon="4.40058">
        <ele>450</ele>
        <time>2020-05-31T05:06:59Z</time>
      </trkpt>
      <trkpt lat="45.89169" lon="4.40044">
        <ele>451</ele>
        <time>2020-05-31T05:07:01Z</time>
      </trkpt>
      <trkpt lat="45.89191" lon="4.40027">
        <ele>449</ele>
        <time>2020-05-31T05:07:05Z</time>
      </trkpt>
      <trkpt lat="45.89204" lon="4.40027">
        <ele>446</ele>
        <time>2020-05-31T05:07:08Z</time>
      </trkpt>
      <trkpt lat="45.89213" lon="4.40032">
        <ele>443</ele>
        <time>2020-05-31T05:07:09Z</time>
      </trkpt>
      <trkpt lat="45.8922" lon="4.40039">
        <ele>441</ele>
        <time>2020-05-31T05:07:11Z</time>
      </trkpt>
      <trkpt lat="45.89226" lon="4.4005">
        <ele>438</ele>
        <time>2020-05-31T05:07:13Z</time>
      </trkpt>
      <trkpt lat="45.89229" lon="4.40058">
        <ele>437</ele>
        <time>2020-05-31T05:07:14Z</time>
      </trkpt>
      <trkpt lat="45.89242" lon="4.40035">
        <ele>436</ele>
        <time>2020-05-31T05:07:17Z</time>
      </trkpt>
      <trkpt lat="45.89253" lon="4.40021">
        <ele>436</ele>
        <time>2020-05-31T05:07:20Z</time>
      </trkpt>
      <trkpt lat="45.89271" lon="4.39999">
        <ele>435</ele>
        <time>2020-05-31T05:07:24Z</time>
      </trkpt>
      <trkpt lat="45.89281" lon="4.39988">
        <ele>435</ele>
        <time>2020-05-31T05:07:27Z</time>
      </trkpt>
      <trkpt lat="45.89306" lon="4.39966">
        <ele>432</ele>
        <time>2020-05-31T05:07:32Z</time>
      </trkpt>
      <trkpt lat="45.89335" lon="4.39949">
        <ele>428</ele>
        <time>2020-05-31T05:07:37Z</time>
      </trkpt>
      <trkpt lat="45.89359" lon="4.39945">
        <ele>432</ele>
        <time>2020-05-31T05:07:42Z</time>
      </trkpt>
      <trkpt lat="45.89367" lon="4.39946">
        <ele>434</ele>
        <time>2020-05-31T05:07:43Z</time>
      </trkpt>
      <trkpt lat="45.8937" lon="4.39949">
        <ele>434</ele>
        <time>2020-05-31T05:07:44Z</time>
      </trkpt>
      <trkpt lat="45.89374" lon="4.39964">
        <ele>434</ele>
        <time>2020-05-31T05:07:46Z</time>
      </trkpt>
      <trkpt lat="45.89375" lon="4.39978">
        <ele>434</ele>
        <time>2020-05-31T05:07:47Z</time>
      </trkpt>
      <trkpt lat="45.89373" lon="4.39998">
        <ele>433</ele>
        <time>2020-05-31T05:07:50Z</time>
      </trkpt>
      <trkpt lat="45.8937" lon="4.40019">
        <ele>432</ele>
        <time>2020-05-31T05:07:53Z</time>
      </trkpt>
      <trkpt lat="45.89364" lon="4.4004">
        <ele>431</ele>
        <time>2020-05-31T05:07:55Z</time>
      </trkpt>
      <trkpt lat="45.89356" lon="4.40056">
        <ele>430</ele>
        <time>2020-05-31T05:07:58Z</time>
      </trkpt>
      <trkpt lat="45.89331" lon="4.40097">
        <ele>429</ele>
        <time>2020-05-31T05:08:05Z</time>
      </trkpt>
      <trkpt lat="45.89329" lon="4.40107">
        <ele>429</ele>
        <time>2020-05-31T05:08:06Z</time>
      </trkpt>
      <trkpt lat="45.89322" lon="4.40118">
        <ele>429</ele>
        <time>2020-05-31T05:08:08Z</time>
      </trkpt>
      <trkpt lat="45.89312" lon="4.40136">
        <ele>430</ele>
        <time>2020-05-31T05:08:11Z</time>
      </trkpt>
      <trkpt lat="45.89296" lon="4.4017">
        <ele>430</ele>
        <time>2020-05-31T05:08:16Z</time>
      </trkpt>
      <trkpt lat="45.89281" lon="4.40217">
        <ele>432</ele>
        <time>2020-05-31T05:08:22Z</time>
      </trkpt>
      <trkpt lat="45.89278" lon="4.4024">
        <ele>433</ele>
        <time>2020-05-31T05:08:25Z</time>
      </trkpt>
      <trkpt lat="45.89273" lon="4.40272">
        <ele>434</ele>
        <time>2020-05-31T05:08:29Z</time>
      </trkpt>
      <trkpt lat="45.89272" lon="4.40596">
        <ele>432</ele>
        <time>2020-05-31T05:09:09Z</time>
      </trkpt>
      <trkpt lat="45.89209" lon="4.40967">
        <ele>423</ele>
        <time>2020-05-31T05:09:56Z</time>
      </trkpt>
      <trkpt lat="45.89201" lon="4.41031">
        <ele>424</ele>
        <time>2020-05-31T05:10:04Z</time>
      </trkpt>
      <trkpt lat="45.89198" lon="4.41108">
        <ele>425</ele>
        <time>2020-05-31T05:10:14Z</time>
      </trkpt>
      <trkpt lat="45.892" lon="4.41136">
        <ele>424</ele>
        <time>2020-05-31T05:10:18Z</time>
      </trkpt>
      <trkpt lat="45.89203" lon="4.41214">
        <ele>421</ele>
        <time>2020-05-31T05:10:27Z</time>
      </trkpt>
      <trkpt lat="45.89207" lon="4.41242">
        <ele>421</ele>
        <time>2020-05-31T05:10:31Z</time>
      </trkpt>
      <trkpt lat="45.89219" lon="4.41269">
        <ele>421</ele>
        <time>2020-05-31T05:10:35Z</time>
      </trkpt>
      <trkpt lat="45.89236" lon="4.41304">
        <ele>419</ele>
        <time>2020-05-31T05:10:40Z</time>
      </trkpt>
      <trkpt lat="45.89266" lon="4.41375">
        <ele>418</ele>
        <time>2020-05-31T05:10:50Z</time>
      </trkpt>
      <trkpt lat="45.89282" lon="4.41436">
        <ele>419</ele>
        <time>2020-05-31T05:10:58Z</time>
      </trkpt>
      <trkpt lat="45.89297" lon="4.41517">
        <ele>420</ele>
        <time>2020-05-31T05:11:09Z</time>
      </trkpt>
      <trkpt lat="45.89299" lon="4.41561">
        <ele>419</ele>
        <time>2020-05-31T05:11:14Z</time>
      </trkpt>
      <trkpt lat="45.89301" lon="4.41589">
        <ele>418</ele>
        <time>2020-05-31T05:11:18Z</time>
      </trkpt>
      <trkpt lat="45.89306" lon="4.41648">
        <ele>415</ele>
        <time>2020-05-31T05:11:25Z</time>
      </trkpt>
      <trkpt lat="45.89333" lon="4.41729">
        <ele>411</ele>
        <time>2020-05-31T05:11:36Z</time>
      </trkpt>
      <trkpt lat="45.89382" lon="4.41844">
        <ele>414</ele>
        <time>2020-05-31T05:11:53Z</time>
      </trkpt>
      <trkpt lat="45.89433" lon="4.4199">
        <ele>412</ele>
        <time>2020-05-31T05:12:13Z</time>
      </trkpt>
      <trkpt lat="45.89512" lon="4.42289">
        <ele>405</ele>
        <time>2020-05-31T05:12:53Z</time>
      </trkpt>
      <trkpt lat="45.89567" lon="4.42517">
        <ele>401</ele>
        <time>2020-05-31T05:13:23Z</time>
      </trkpt>
      <trkpt lat="45.89585" lon="4.42625">
        <ele>394</ele>
        <time>2020-05-31T05:13:36Z</time>
      </trkpt>
      <trkpt lat="45.89569" lon="4.42913">
        <ele>389</ele>
        <time>2020-05-31T05:14:12Z</time>
      </trkpt>
      <trkpt lat="45.89508" lon="4.42907">
        <ele>390</ele>
        <time>2020-05-31T05:14:23Z</time>
      </trkpt>
      <trkpt lat="45.89493" lon="4.43045">
        <ele>393</ele>
        <time>2020-05-31T05:14:40Z</time>
      </trkpt>
      <trkpt lat="45.8949" lon="4.4311">
        <ele>395</ele>
        <time>2020-05-31T05:14:48Z</time>
      </trkpt>
      <trkpt lat="45.89507" lon="4.43168">
        <ele>390</ele>
        <time>2020-05-31T05:14:56Z</time>
      </trkpt>
      <trkpt lat="45.89512" lon="4.43194">
        <ele>390</ele>
        <time>2020-05-31T05:14:59Z</time>
      </trkpt>
      <trkpt lat="45.89517" lon="4.43227">
        <ele>390</ele>
        <time>2020-05-31T05:15:04Z</time>
      </trkpt>
      <trkpt lat="45.89516" lon="4.43247">
        <ele>390</ele>
        <time>2020-05-31T05:15:06Z</time>
      </trkpt>
      <trkpt lat="45.8948" lon="4.43356">
        <ele>390</ele>
        <time>2020-05-31T05:15:21Z</time>
      </trkpt>
      <trkpt lat="45.89413" lon="4.43512">
        <ele>386</ele>
        <time>2020-05-31T05:15:44Z</time>
      </trkpt>
      <trkpt lat="45.8939" lon="4.43582">
        <ele>387</ele>
        <time>2020-05-31T05:15:53Z</time>
      </trkpt>
      <trkpt lat="45.89355" lon="4.43726">
        <ele>384</ele>
        <time>2020-05-31T05:16:12Z</time>
      </trkpt>
      <trkpt lat="45.89341" lon="4.43765">
        <ele>383</ele>
        <time>2020-05-31T05:16:18Z</time>
      </trkpt>
      <trkpt lat="45.89334" lon="4.43779">
        <ele>383</ele>
        <time>2020-05-31T05:16:20Z</time>
      </trkpt>
      <trkpt lat="45.89305" lon="4.43869">
        <ele>384</ele>
        <time>2020-05-31T05:16:32Z</time>
      </trkpt>
      <trkpt lat="45.8925" lon="4.44019">
        <ele>381</ele>
        <time>2020-05-31T05:16:53Z</time>
      </trkpt>
      <trkpt lat="45.89243" lon="4.44044">
        <ele>381</ele>
        <time>2020-05-31T05:16:56Z</time>
      </trkpt>
      <trkpt lat="45.89242" lon="4.44052">
        <ele>380</ele>
        <time>2020-05-31T05:16:57Z</time>
      </trkpt>
      <trkpt lat="45.89248" lon="4.44123">
        <ele>382</ele>
        <time>2020-05-31T05:17:06Z</time>
      </trkpt>
      <trkpt lat="45.89244" lon="4.44137">
        <ele>382</ele>
        <time>2020-05-31T05:17:08Z</time>
      </trkpt>
      <trkpt lat="45.89237" lon="4.44152">
        <ele>383</ele>
        <time>2020-05-31T05:17:10Z</time>
      </trkpt>
      <trkpt lat="45.89235" lon="4.44162">
        <ele>383</ele>
        <time>2020-05-31T05:17:12Z</time>
      </trkpt>
      <trkpt lat="45.8909" lon="4.44322">
        <ele>380</ele>
        <time>2020-05-31T05:17:44Z</time>
      </trkpt>
      <trkpt lat="45.89079" lon="4.44342">
        <ele>379</ele>
        <time>2020-05-31T05:17:47Z</time>
      </trkpt>
      <trkpt lat="45.89068" lon="4.44385">
        <ele>382</ele>
        <time>2020-05-31T05:17:53Z</time>
      </trkpt>
      <trkpt lat="45.89052" lon="4.44734">
        <ele>386</ele>
        <time>2020-05-31T05:18:36Z</time>
      </trkpt>
      <trkpt lat="45.8905" lon="4.44894">
        <ele>383</ele>
        <time>2020-05-31T05:18:56Z</time>
      </trkpt>
      <trkpt lat="45.89033" lon="4.45181">
        <ele>376</ele>
        <time>2020-05-31T05:19:32Z</time>
      </trkpt>
      <trkpt lat="45.89027" lon="4.4525">
        <ele>377</ele>
        <time>2020-05-31T05:19:40Z</time>
      </trkpt>
      <trkpt lat="45.8901" lon="4.45347">
        <ele>376</ele>
        <time>2020-05-31T05:19:53Z</time>
      </trkpt>
      <trkpt lat="45.8899" lon="4.45427">
        <ele>375</ele>
        <time>2020-05-31T05:20:03Z</time>
      </trkpt>
      <trkpt lat="45.88962" lon="4.4551">
        <ele>373</ele>
        <time>2020-05-31T05:20:15Z</time>
      </trkpt>
      <trkpt lat="45.88904" lon="4.45661">
        <ele>370</ele>
        <time>2020-05-31T05:20:36Z</time>
      </trkpt>
      <trkpt lat="45.88883" lon="4.4572">
        <ele>372</ele>
        <time>2020-05-31T05:20:44Z</time>
      </trkpt>
      <trkpt lat="45.88787" lon="4.46053">
        <ele>371</ele>
        <time>2020-05-31T05:21:29Z</time>
      </trkpt>
      <trkpt lat="45.88744" lon="4.46171">
        <ele>368</ele>
        <time>2020-05-31T05:21:46Z</time>
      </trkpt>
      <trkpt lat="45.88693" lon="4.46299">
        <ele>366</ele>
        <time>2020-05-31T05:22:04Z</time>
      </trkpt>
      <trkpt lat="45.8867" lon="4.46333">
        <ele>361</ele>
        <time>2020-05-31T05:22:10Z</time>
      </trkpt>
      <trkpt lat="45.88657" lon="4.46341">
        <ele>360</ele>
        <time>2020-05-31T05:22:12Z</time>
      </trkpt>
      <trkpt lat="45.88646" lon="4.46341">
        <ele>360</ele>
        <time>2020-05-31T05:22:14Z</time>
      </trkpt>
      <trkpt lat="45.88632" lon="4.46331">
        <ele>360</ele>
        <time>2020-05-31T05:22:17Z</time>
      </trkpt>
      <trkpt lat="45.88633" lon="4.46356">
        <ele>360</ele>
        <time>2020-05-31T05:22:20Z</time>
      </trkpt>
      <trkpt lat="45.88638" lon="4.46405">
        <ele>360</ele>
        <time>2020-05-31T05:22:26Z</time>
      </trkpt>
      <trkpt lat="45.88632" lon="4.46444">
        <ele>361</ele>
        <time>2020-05-31T05:22:31Z</time>
      </trkpt>
      <trkpt lat="45.88577" lon="4.46584">
        <ele>360</ele>
        <time>2020-05-31T05:22:51Z</time>
      </trkpt>
      <trkpt lat="45.88509" lon="4.4679">
        <ele>362</ele>
        <time>2020-05-31T05:23:19Z</time>
      </trkpt>
      <trkpt lat="45.88455" lon="4.46929">
        <ele>361</ele>
        <time>2020-05-31T05:23:39Z</time>
      </trkpt>
      <trkpt lat="45.88422" lon="4.46987">
        <ele>359</ele>
        <time>2020-05-31T05:23:48Z</time>
      </trkpt>
      <trkpt lat="45.88378" lon="4.47044">
        <ele>360</ele>
        <time>2020-05-31T05:23:59Z</time>
      </trkpt>
      <trkpt lat="45.88339" lon="4.47084">
        <ele>359</ele>
        <time>2020-05-31T05:24:07Z</time>
      </trkpt>
      <trkpt lat="45.88259" lon="4.47152">
        <ele>354</ele>
        <time>2020-05-31T05:24:24Z</time>
      </trkpt>
      <trkpt lat="45.88204" lon="4.47197">
        <ele>355</ele>
        <time>2020-05-31T05:24:35Z</time>
      </trkpt>
      <trkpt lat="45.88172" lon="4.47225">
        <ele>355</ele>
        <time>2020-05-31T05:24:42Z</time>
      </trkpt>
      <trkpt lat="45.8808" lon="4.47318">
        <ele>354</ele>
        <time>2020-05-31T05:25:02Z</time>
      </trkpt>
      <trkpt lat="45.87988" lon="4.47419">
        <ele>352</ele>
        <time>2020-05-31T05:25:22Z</time>
      </trkpt>
      <trkpt lat="45.87968" lon="4.47441">
        <ele>352</ele>
        <time>2020-05-31T05:25:27Z</time>
      </trkpt>
      <trkpt lat="45.87951" lon="4.47456">
        <ele>352</ele>
        <time>2020-05-31T05:25:30Z</time>
      </trkpt>
      <trkpt lat="45.87937" lon="4.47459">
        <ele>352</ele>
        <time>2020-05-31T05:25:33Z</time>
      </trkpt>
      <trkpt lat="45.87928" lon="4.47455">
        <ele>352</ele>
        <time>2020-05-31T05:25:35Z</time>
      </trkpt>
      <trkpt lat="45.87919" lon="4.47456">
        <ele>352</ele>
        <time>2020-05-31T05:25:36Z</time>
      </trkpt>
      <trkpt lat="45.87911" lon="4.47462">
        <ele>353</ele>
        <time>2020-05-31T05:25:38Z</time>
      </trkpt>
      <trkpt lat="45.87904" lon="4.47473">
        <ele>353</ele>
        <time>2020-05-31T05:25:40Z</time>
      </trkpt>
      <trkpt lat="45.87901" lon="4.47488">
        <ele>353</ele>
        <time>2020-05-31T05:25:42Z</time>
      </trkpt>
      <trkpt lat="45.87906" lon="4.47508">
        <ele>351</ele>
        <time>2020-05-31T05:25:44Z</time>
      </trkpt>
      <trkpt lat="45.87919" lon="4.47521">
        <ele>350</ele>
        <time>2020-05-31T05:25:47Z</time>
      </trkpt>
      <trkpt lat="45.87918" lon="4.4755">
        <ele>351</ele>
        <time>2020-05-31T05:25:51Z</time>
      </trkpt>
      <trkpt lat="45.87914" lon="4.47559">
        <ele>351</ele>
        <time>2020-05-31T05:25:52Z</time>
      </trkpt>
      <trkpt lat="45.87901" lon="4.47579">
        <ele>350</ele>
        <time>2020-05-31T05:25:55Z</time>
      </trkpt>
      <trkpt lat="45.87876" lon="4.47628">
        <ele>349</ele>
        <time>2020-05-31T05:26:03Z</time>
      </trkpt>
      <trkpt lat="45.87809" lon="4.47791">
        <ele>348</ele>
        <time>2020-05-31T05:26:26Z</time>
      </trkpt>
      <trkpt lat="45.8779" lon="4.47825">
        <ele>347</ele>
        <time>2020-05-31T05:26:32Z</time>
      </trkpt>
      <trkpt lat="45.87764" lon="4.47862">
        <ele>347</ele>
        <time>2020-05-31T05:26:38Z</time>
      </trkpt>
      <trkpt lat="45.87736" lon="4.47891">
        <ele>348</ele>
        <time>2020-05-31T05:26:44Z</time>
      </trkpt>
      <trkpt lat="45.87698" lon="4.47924">
        <ele>348</ele>
        <time>2020-05-31T05:26:52Z</time>
      </trkpt>
      <trkpt lat="45.87597" lon="4.47999">
        <ele>344</ele>
        <time>2020-05-31T05:27:13Z</time>
      </trkpt>
      <trkpt lat="45.87572" lon="4.48022">
        <ele>345</ele>
        <time>2020-05-31T05:27:18Z</time>
      </trkpt>
      <trkpt lat="45.87551" lon="4.48047">
        <ele>346</ele>
        <time>2020-05-31T05:27:23Z</time>
      </trkpt>
      <trkpt lat="45.8752" lon="4.48092">
        <ele>344</ele>
        <time>2020-05-31T05:27:31Z</time>
      </trkpt>
      <trkpt lat="45.87505" lon="4.48131">
        <ele>344</ele>
        <time>2020-05-31T05:27:36Z</time>
      </trkpt>
      <trkpt lat="45.87496" lon="4.48185">
        <ele>345</ele>
        <time>2020-05-31T05:27:43Z</time>
      </trkpt>
      <trkpt lat="45.87487" lon="4.48318">
        <ele>344</ele>
        <time>2020-05-31T05:27:59Z</time>
      </trkpt>
      <trkpt lat="45.87457" lon="4.48665">
        <ele>335</ele>
        <time>2020-05-31T05:28:43Z</time>
      </trkpt>
      <trkpt lat="45.87547" lon="4.48656">
        <ele>339</ele>
        <time>2020-05-31T05:28:59Z</time>
      </trkpt>
      <trkpt lat="45.87565" lon="4.48657">
        <ele>340</ele>
        <time>2020-05-31T05:29:02Z</time>
      </trkpt>
      <trkpt lat="45.87601" lon="4.48684">
        <ele>343</ele>
        <time>2020-05-31T05:29:09Z</time>
      </trkpt>
      <trkpt lat="45.87616" lon="4.48687">
        <ele>344</ele>
        <time>2020-05-31T05:29:12Z</time>
      </trkpt>
      <trkpt lat="45.87626" lon="4.48687">
        <ele>345</ele>
        <time>2020-05-31T05:29:14Z</time>
      </trkpt>
      <trkpt lat="45.87655" lon="4.4868">
        <ele>349</ele>
        <time>2020-05-31T05:29:19Z</time>
      </trkpt>
      <trkpt lat="45.87694" lon="4.48679">
        <ele>353</ele>
        <time>2020-05-31T05:29:26Z</time>
      </trkpt>
      <trkpt lat="45.87749" lon="4.487">
        <ele>357</ele>
        <time>2020-05-31T05:29:36Z</time>
      </trkpt>
      <trkpt lat="45.87819" lon="4.48733">
        <ele>361</ele>
        <time>2020-05-31T05:29:49Z</time>
      </trkpt>
      <trkpt lat="45.87835" lon="4.48755">
        <ele>361</ele>
        <time>2020-05-31T05:29:53Z</time>
      </trkpt>
      <trkpt lat="45.87844" lon="4.48778">
        <ele>363</ele>
        <time>2020-05-31T05:29:56Z</time>
      </trkpt>
      <trkpt lat="45.87842" lon="4.48801">
        <ele>364</ele>
        <time>2020-05-31T05:29:59Z</time>
      </trkpt>
      <trkpt lat="45.87833" lon="4.48833">
        <ele>365</ele>
        <time>2020-05-31T05:30:04Z</time>
      </trkpt>
      <trkpt lat="45.87804" lon="4.48896">
        <ele>369</ele>
        <time>2020-05-31T05:30:13Z</time>
      </trkpt>
      <trkpt lat="45.87868" lon="4.489">
        <ele>373</ele>
        <time>2020-05-31T05:30:24Z</time>
      </trkpt>
      <trkpt lat="45.87887" lon="4.48907">
        <ele>375</ele>
        <time>2020-05-31T05:30:28Z</time>
      </trkpt>
      <trkpt lat="45.87938" lon="4.48913">
        <ele>380</ele>
        <time>2020-05-31T05:30:37Z</time>
      </trkpt>
      <trkpt lat="45.88072" lon="4.48913">
        <ele>387</ele>
        <time>2020-05-31T05:31:01Z</time>
      </trkpt>
      <trkpt lat="45.88169" lon="4.48909">
        <ele>392</ele>
        <time>2020-05-31T05:31:18Z</time>
      </trkpt>
      <trkpt lat="45.88257" lon="4.48925">
        <ele>397</ele>
        <time>2020-05-31T05:31:34Z</time>
      </trkpt>
      <trkpt lat="45.88415" lon="4.48897">
        <ele>407</ele>
        <time>2020-05-31T05:32:02Z</time>
      </trkpt>
      <trkpt lat="45.8843" lon="4.48897">
        <ele>409</ele>
        <time>2020-05-31T05:32:05Z</time>
      </trkpt>
      <trkpt lat="45.88443" lon="4.48902">
        <ele>410</ele>
        <time>2020-05-31T05:32:07Z</time>
      </trkpt>
      <trkpt lat="45.88472" lon="4.48921">
        <ele>413</ele>
        <time>2020-05-31T05:32:13Z</time>
      </trkpt>
      <trkpt lat="45.88512" lon="4.48936">
        <ele>417</ele>
        <time>2020-05-31T05:32:20Z</time>
      </trkpt>
      <trkpt lat="45.88547" lon="4.48935">
        <ele>420</ele>
        <time>2020-05-31T05:32:26Z</time>
      </trkpt>
      <trkpt lat="45.88545" lon="4.48879">
        <ele>420</ele>
        <time>2020-05-31T05:32:33Z</time>
      </trkpt>
      <trkpt lat="45.88542" lon="4.48855">
        <ele>421</ele>
        <time>2020-05-31T05:32:36Z</time>
      </trkpt>
      <trkpt lat="45.88524" lon="4.48819">
        <ele>420</ele>
        <time>2020-05-31T05:32:42Z</time>
      </trkpt>
      <trkpt lat="45.88512" lon="4.4879">
        <ele>419</ele>
        <time>2020-05-31T05:32:46Z</time>
      </trkpt>
      <trkpt lat="45.88508" lon="4.48766">
        <ele>419</ele>
        <time>2020-05-31T05:32:49Z</time>
      </trkpt>
      <trkpt lat="45.88507" lon="4.48747">
        <ele>419</ele>
        <time>2020-05-31T05:32:51Z</time>
      </trkpt>
      <trkpt lat="45.8851" lon="4.48737">
        <ele>419</ele>
        <time>2020-05-31T05:32:53Z</time>
      </trkpt>
    </trkseg>
  </trk>
</gpx>